<?xml version='1.0' encoding='UTF-8'?><gpx version="1.1" creator="JPX - https://github.com/jenetics/jpx" xmlns="http://www.topografix.com/GPX/1/1"><trk><trkseg><trkpt lat="44.74296719380139" lon="2.459750644939458"><ele>564.0</ele><time>2026-03-27T08:13:31.999Z</time></trkpt><trkpt lat="44.742894602703615" lon="2.4597309492373163"><ele>564.0</ele><time>2026-03-27T08:13:51Z</time></trkpt><trkpt lat="44.742845408859" lon="2.459786507621503"><ele>564.0</ele><time>2026-03-27T08:13:53Z</time></trkpt><trkpt lat="44.74279766757535" lon="2.459846991884584"><ele>564.0</ele><time>2026-03-27T08:13:54Z</time></trkpt><trkpt lat="44.742743612075834" lon="2.459907198599155"><ele>564.0</ele><time>2026-03-27T08:13:55Z</time></trkpt><trkpt lat="44.74266657596312" lon="2.459985714896308"><ele>564.0</ele><time>2026-03-27T08:13:56Z</time></trkpt><trkpt lat="44.74258914077891" lon="2.4600548032534695"><ele>563.0</ele><time>2026-03-27T08:13:57Z</time></trkpt><trkpt lat="44.74250810416008" lon="2.460107630567546"><ele>562.0</ele><time>2026-03-27T08:13:58Z</time></trkpt><trkpt lat="44.742418380136094" lon="2.4601416203009445"><ele>561.0</ele><time>2026-03-27T08:13:59Z</time></trkpt><trkpt lat="44.742321047788415" lon="2.4601732141180324"><ele>560.0</ele><time>2026-03-27T08:14:00Z</time></trkpt><trkpt lat="44.74220813381052" lon="2.4601980999937973"><ele>559.0</ele><time>2026-03-27T08:14:01Z</time></trkpt><trkpt lat="44.74209854034494" lon="2.460235707623731"><ele>559.0</ele><time>2026-03-27T08:14:02Z</time></trkpt><trkpt lat="44.74198138526129" lon="2.460266474563053"><ele>559.0</ele><time>2026-03-27T08:14:03Z</time></trkpt><trkpt lat="44.741861512198064" lon="2.4602916685555427"><ele>559.0</ele><time>2026-03-27T08:14:04Z</time></trkpt><trkpt lat="44.7417507706814" lon="2.460325601820329"><ele>559.0</ele><time>2026-03-27T08:14:05Z</time></trkpt><trkpt lat="44.74163571275492" lon="2.460353471520869"><ele>558.8</ele><time>2026-03-27T08:14:06Z</time></trkpt><trkpt lat="44.74152579819366" lon="2.4603822247546177"><ele>558.5999999999999</ele><time>2026-03-27T08:14:07Z</time></trkpt><trkpt lat="44.74141557621294" lon="2.4604077989718762"><ele>558.4</ele><time>2026-03-27T08:14:08Z</time></trkpt><trkpt lat="44.741307328827006" lon="2.460434285880827"><ele>558.1999999999999</ele><time>2026-03-27T08:14:09Z</time></trkpt><trkpt lat="44.74120462211759" lon="2.460455910260659"><ele>558.0</ele><time>2026-03-27T08:14:10Z</time></trkpt><trkpt lat="44.741106639357184" lon="2.4604856743927788"><ele>558.6</ele><time>2026-03-27T08:14:11Z</time></trkpt><trkpt lat="44.741007737218325" lon="2.460508745838582"><ele>559.1999999999999</ele><time>2026-03-27T08:14:12Z</time></trkpt><trkpt lat="44.740908281268005" lon="2.4605335389300254"><ele>559.8</ele><time>2026-03-27T08:14:13Z</time></trkpt><trkpt lat="44.74080824792365" lon="2.460558001810889"><ele>560.4</ele><time>2026-03-27T08:14:14Z</time></trkpt><trkpt lat="44.740708987811004" lon="2.4605777859104103"><ele>561.0</ele><time>2026-03-27T08:14:15Z</time></trkpt><trkpt lat="44.74060968598549" lon="2.4605956342040924"><ele>561.0</ele><time>2026-03-27T08:14:16Z</time></trkpt><trkpt lat="44.740506959013565" lon="2.460625925198131"><ele>561.0</ele><time>2026-03-27T08:14:17Z</time></trkpt><trkpt lat="44.7404028053028" lon="2.4606529855279127"><ele>561.0</ele><time>2026-03-27T08:14:18Z</time></trkpt><trkpt lat="44.74030449659104" lon="2.460688137454965"><ele>561.0</ele><time>2026-03-27T08:14:19Z</time></trkpt><trkpt lat="44.74020709304391" lon="2.460732159300775"><ele>561.0</ele><time>2026-03-27T08:14:20Z</time></trkpt><trkpt lat="44.74011219010579" lon="2.460786595691275"><ele>561.0</ele><time>2026-03-27T08:14:21Z</time></trkpt><trkpt lat="44.740013573118084" lon="2.4608481159878357"><ele>561.0</ele><time>2026-03-27T08:14:22Z</time></trkpt><trkpt lat="44.739918692248864" lon="2.460914970359157"><ele>561.0</ele><time>2026-03-27T08:14:23Z</time></trkpt><trkpt lat="44.739833183862785" lon="2.4609776858363084"><ele>561.0</ele><time>2026-03-27T08:14:24Z</time></trkpt><trkpt lat="44.73977550797245" lon="2.4610228577505855"><ele>561.0</ele><time>2026-03-27T08:14:25Z</time></trkpt><trkpt lat="44.73971423115914" lon="2.4610441866112494"><ele>561.0</ele><time>2026-03-27T08:14:27Z</time></trkpt><trkpt lat="44.73979054715589" lon="2.4609638347721825"><ele>561.0</ele><time>2026-03-27T08:15:03.999Z</time></trkpt><trkpt lat="44.73986198067115" lon="2.4609534517487757"><ele>561.0</ele><time>2026-03-27T08:15:04.999Z</time></trkpt><trkpt lat="44.73993509857315" lon="2.4609039319905923"><ele>561.0</ele><time>2026-03-27T08:15:05.999Z</time></trkpt><trkpt lat="44.74003262849961" lon="2.4608517797495795"><ele>561.0</ele><time>2026-03-27T08:15:06.999Z</time></trkpt><trkpt lat="44.74012332661312" lon="2.4608122340812892"><ele>561.0</ele><time>2026-03-27T08:15:07.999Z</time></trkpt><trkpt lat="44.74020266193082" lon="2.4607648540377265"><ele>561.0</ele><time>2026-03-27T08:15:08.999Z</time></trkpt><trkpt lat="44.74026903283734" lon="2.460737766388285"><ele>561.0</ele><time>2026-03-27T08:15:09.999Z</time></trkpt><trkpt lat="44.740356082474094" lon="2.460713069164837"><ele>561.0</ele><time>2026-03-27T08:15:11.999Z</time></trkpt><trkpt lat="44.74044572365113" lon="2.460687666195695"><ele>561.0</ele><time>2026-03-27T08:15:13.999Z</time></trkpt><trkpt lat="44.7405624196917" lon="2.4606523930731803"><ele>561.0</ele><time>2026-03-27T08:15:15.999Z</time></trkpt><trkpt lat="44.74066868765936" lon="2.460633034308768"><ele>561.0</ele><time>2026-03-27T08:15:17.999Z</time></trkpt><trkpt lat="44.740749109141305" lon="2.460541261225246"><ele>560.6666666666666</ele><time>2026-03-27T08:15:19.999Z</time></trkpt><trkpt lat="44.74074687529627" lon="2.460448026961037"><ele>560.3333333333334</ele><time>2026-03-27T08:15:20.999Z</time></trkpt><trkpt lat="44.74070059528631" lon="2.4603625980810357"><ele>560.0</ele><time>2026-03-27T08:15:21.999Z</time></trkpt><trkpt lat="44.74063276458265" lon="2.4602837240599746"><ele>559.6666666666667</ele><time>2026-03-27T08:15:22.999Z</time></trkpt><trkpt lat="44.74056992789889" lon="2.460191586009107"><ele>559.3333333333334</ele><time>2026-03-27T08:15:23.999Z</time></trkpt><trkpt lat="44.74051506652803" lon="2.46008751170102"><ele>559.0</ele><time>2026-03-27T08:15:24.999Z</time></trkpt><trkpt lat="44.740490496883204" lon="2.459951081200549"><ele>559.0</ele><time>2026-03-27T08:15:25.999Z</time></trkpt><trkpt lat="44.74044435956657" lon="2.459858565349455"><ele>559.0</ele><time>2026-03-27T08:15:26.999Z</time></trkpt><trkpt lat="44.74038459834525" lon="2.459764949190356"><ele>559.0</ele><time>2026-03-27T08:15:27.999Z</time></trkpt><trkpt lat="44.74031989516068" lon="2.4596713223402737"><ele>559.0</ele><time>2026-03-27T08:15:28.999Z</time></trkpt><trkpt lat="44.74025905422056" lon="2.4595882844128067"><ele>559.0</ele><time>2026-03-27T08:15:29.999Z</time></trkpt><trkpt lat="44.74019453521403" lon="2.4595110617745415"><ele>559.0</ele><time>2026-03-27T08:15:30.999Z</time></trkpt><trkpt lat="44.740131655662175" lon="2.459410280571232"><ele>561.0</ele><time>2026-03-27T08:15:31.999Z</time></trkpt><trkpt lat="44.74007030705044" lon="2.4592801346793483"><ele>563.0</ele><time>2026-03-27T08:15:32.999Z</time></trkpt><trkpt lat="44.74001066491047" lon="2.4591435176632404"><ele>565.0</ele><time>2026-03-27T08:15:33.999Z</time></trkpt><trkpt lat="44.73994884725895" lon="2.459000316212492"><ele>567.0</ele><time>2026-03-27T08:15:34.999Z</time></trkpt><trkpt lat="44.73988908091426" lon="2.4588583261928982"><ele>568.0</ele><time>2026-03-27T08:15:35.999Z</time></trkpt><trkpt lat="44.73982329811035" lon="2.458704795659502"><ele>569.0</ele><time>2026-03-27T08:15:36.999Z</time></trkpt><trkpt lat="44.739750957541325" lon="2.4585403032644"><ele>570.0</ele><time>2026-03-27T08:15:37.999Z</time></trkpt><trkpt lat="44.73967897078754" lon="2.458377763078606"><ele>571.0</ele><time>2026-03-27T08:15:38.999Z</time></trkpt><trkpt lat="44.739607643061575" lon="2.4582226538555574"><ele>571.0</ele><time>2026-03-27T08:15:39.999Z</time></trkpt><trkpt lat="44.73953250897107" lon="2.4580723084922282"><ele>571.0</ele><time>2026-03-27T08:15:40.999Z</time></trkpt><trkpt lat="44.739453444446305" lon="2.457931019465087"><ele>571.0</ele><time>2026-03-27T08:15:41.999Z</time></trkpt><trkpt lat="44.7393621423123" lon="2.4577852936857503"><ele>571.0</ele><time>2026-03-27T08:15:42.999Z</time></trkpt><trkpt lat="44.7392650891124" lon="2.457638901506332"><ele>573.0</ele><time>2026-03-27T08:15:43.999Z</time></trkpt><trkpt lat="44.739162443467386" lon="2.4574983629593854"><ele>575.0</ele><time>2026-03-27T08:15:44.999Z</time></trkpt><trkpt lat="44.73905114114608" lon="2.4573648837048223"><ele>577.0</ele><time>2026-03-27T08:15:45.999Z</time></trkpt><trkpt lat="44.73893955240132" lon="2.457240627708279"><ele>579.0</ele><time>2026-03-27T08:15:46.999Z</time></trkpt><trkpt lat="44.73882832630377" lon="2.4571174057631517"><ele>580.0</ele><time>2026-03-27T08:15:47.998Z</time></trkpt><trkpt lat="44.73870679319162" lon="2.4570128777943956"><ele>581.0</ele><time>2026-03-27T08:15:48.998Z</time></trkpt><trkpt lat="44.7385856372975" lon="2.4569218546579163"><ele>582.0</ele><time>2026-03-27T08:15:49.998Z</time></trkpt><trkpt lat="44.73845203252771" lon="2.456857254586314"><ele>583.0</ele><time>2026-03-27T08:15:50.998Z</time></trkpt><trkpt lat="44.73831417947017" lon="2.4568520109473"><ele>583.3333333333334</ele><time>2026-03-27T08:15:52Z</time></trkpt><trkpt lat="44.73816909592768" lon="2.4568352182692195"><ele>583.6666666666666</ele><time>2026-03-27T08:15:53Z</time></trkpt><trkpt lat="44.73801566417826" lon="2.456813332994711"><ele>584.0</ele><time>2026-03-27T08:15:54Z</time></trkpt><trkpt lat="44.73785636330579" lon="2.4567779682865236"><ele>585.0</ele><time>2026-03-27T08:15:55Z</time></trkpt><trkpt lat="44.73770069502269" lon="2.4567003783222883"><ele>586.0</ele><time>2026-03-27T08:15:56Z</time></trkpt><trkpt lat="44.73756845316161" lon="2.4566467538637076"><ele>587.0</ele><time>2026-03-27T08:15:57Z</time></trkpt><trkpt lat="44.73743820457929" lon="2.456593968679043"><ele>588.0</ele><time>2026-03-27T08:15:58Z</time></trkpt><trkpt lat="44.7373118572585" lon="2.4565399824025547"><ele>588.0</ele><time>2026-03-27T08:15:59Z</time></trkpt><trkpt lat="44.73720094582574" lon="2.456490208783763"><ele>588.0</ele><time>2026-03-27T08:16:00Z</time></trkpt><trkpt lat="44.73710057329924" lon="2.4564350875141674"><ele>588.0</ele><time>2026-03-27T08:16:01Z</time></trkpt><trkpt lat="44.737026638378246" lon="2.4563685407593527"><ele>588.0</ele><time>2026-03-27T08:16:02Z</time></trkpt><trkpt lat="44.736958462769664" lon="2.456310748822466"><ele>588.0</ele><time>2026-03-27T08:16:03Z</time></trkpt><trkpt lat="44.736931815836" lon="2.456201304901108"><ele>588.5</ele><time>2026-03-27T08:16:04Z</time></trkpt><trkpt lat="44.73689121577177" lon="2.4560945844600632"><ele>589.0</ele><time>2026-03-27T08:16:05Z</time></trkpt><trkpt lat="44.736746819558476" lon="2.456036468893632"><ele>589.5</ele><time>2026-03-27T08:16:06Z</time></trkpt><trkpt lat="44.73662171548444" lon="2.4560315685949985"><ele>590.0</ele><time>2026-03-27T08:16:07Z</time></trkpt><trkpt lat="44.73648960984919" lon="2.4559936624789285"><ele>590.0</ele><time>2026-03-27T08:16:08Z</time></trkpt><trkpt lat="44.7363486866167" lon="2.4560453481702993"><ele>590.0</ele><time>2026-03-27T08:16:09Z</time></trkpt><trkpt lat="44.73622849969001" lon="2.456091734158862"><ele>590.0</ele><time>2026-03-27T08:16:10Z</time></trkpt><trkpt lat="44.736122782925065" lon="2.4561411975269243"><ele>590.0</ele><time>2026-03-27T08:16:11Z</time></trkpt><trkpt lat="44.73602357198545" lon="2.4561964029489793"><ele>589.6</ele><time>2026-03-27T08:16:12Z</time></trkpt><trkpt lat="44.73593213561258" lon="2.456243462892683"><ele>589.2</ele><time>2026-03-27T08:16:13Z</time></trkpt><trkpt lat="44.735843109800335" lon="2.4562845258083086"><ele>588.8</ele><time>2026-03-27T08:16:14Z</time></trkpt><trkpt lat="44.73574985220744" lon="2.456335624836165"><ele>588.4</ele><time>2026-03-27T08:16:15Z</time></trkpt><trkpt lat="44.73565356106382" lon="2.456390641827664"><ele>588.0</ele><time>2026-03-27T08:16:16Z</time></trkpt><trkpt lat="44.7355518027787" lon="2.4564449371275168"><ele>587.75</ele><time>2026-03-27T08:16:17Z</time></trkpt><trkpt lat="44.73544432332563" lon="2.456500373503107"><ele>587.5</ele><time>2026-03-27T08:16:18Z</time></trkpt><trkpt lat="44.73533608749705" lon="2.4565609146115044"><ele>587.25</ele><time>2026-03-27T08:16:19Z</time></trkpt><trkpt lat="44.73522726205994" lon="2.456622499219207"><ele>587.0</ele><time>2026-03-27T08:16:20Z</time></trkpt><trkpt lat="44.73511956537227" lon="2.4566787629452405"><ele>589.0</ele><time>2026-03-27T08:16:21Z</time></trkpt><trkpt lat="44.73501128611159" lon="2.4567296588885847"><ele>591.0</ele><time>2026-03-27T08:16:22Z</time></trkpt><trkpt lat="44.73490380702133" lon="2.4567797153143007"><ele>593.0</ele><time>2026-03-27T08:16:23Z</time></trkpt><trkpt lat="44.734796282588505" lon="2.4568125695964187"><ele>595.0</ele><time>2026-03-27T08:16:24Z</time></trkpt><trkpt lat="44.734680672786894" lon="2.4568137504012197"><ele>595.0</ele><time>2026-03-27T08:16:25Z</time></trkpt><trkpt lat="44.734569876334966" lon="2.4567797539947906"><ele>595.0</ele><time>2026-03-27T08:16:26Z</time></trkpt><trkpt lat="44.73445415313554" lon="2.4566999517503536"><ele>595.0</ele><time>2026-03-27T08:16:27Z</time></trkpt><trkpt lat="44.734363743175706" lon="2.4565849452467363"><ele>595.0</ele><time>2026-03-27T08:16:28Z</time></trkpt><trkpt lat="44.734273723824195" lon="2.4564620016084153"><ele>594.75</ele><time>2026-03-27T08:16:29Z</time></trkpt><trkpt lat="44.73417864028707" lon="2.456339103957973"><ele>594.5</ele><time>2026-03-27T08:16:30Z</time></trkpt><trkpt lat="44.734064815307015" lon="2.456222770861553"><ele>594.25</ele><time>2026-03-27T08:16:31Z</time></trkpt><trkpt lat="44.73393565986416" lon="2.456117697431194"><ele>594.0</ele><time>2026-03-27T08:16:32Z</time></trkpt><trkpt lat="44.73379202860423" lon="2.4560371806078103"><ele>593.75</ele><time>2026-03-27T08:16:32.999Z</time></trkpt><trkpt lat="44.73365320346216" lon="2.4559399630945915"><ele>593.5</ele><time>2026-03-27T08:16:33.999Z</time></trkpt><trkpt lat="44.733519116768115" lon="2.455852017670035"><ele>593.25</ele><time>2026-03-27T08:16:34.999Z</time></trkpt><trkpt lat="44.73339953624584" lon="2.45576904545874"><ele>593.0</ele><time>2026-03-27T08:16:35.999Z</time></trkpt><trkpt lat="44.73328627465782" lon="2.4556886801200766"><ele>593.0</ele><time>2026-03-27T08:16:36.999Z</time></trkpt><trkpt lat="44.73316939069277" lon="2.4556056577436745"><ele>593.0</ele><time>2026-03-27T08:16:37.999Z</time></trkpt><trkpt lat="44.733057096900325" lon="2.4555296973359355"><ele>593.0</ele><time>2026-03-27T08:16:38.999Z</time></trkpt><trkpt lat="44.73295006695622" lon="2.4554428333726244"><ele>593.0</ele><time>2026-03-27T08:16:39.999Z</time></trkpt><trkpt lat="44.732851178117414" lon="2.4553435241432466"><ele>592.25</ele><time>2026-03-27T08:16:40.999Z</time></trkpt><trkpt lat="44.73276696183307" lon="2.4552245230322"><ele>591.5</ele><time>2026-03-27T08:16:41.999Z</time></trkpt><trkpt lat="44.73269386905836" lon="2.455083964133643"><ele>590.75</ele><time>2026-03-27T08:16:42.999Z</time></trkpt><trkpt lat="44.73263393071661" lon="2.4549253880809228"><ele>590.0</ele><time>2026-03-27T08:16:43.999Z</time></trkpt><trkpt lat="44.732578572834136" lon="2.4547570539245247"><ele>591.0</ele><time>2026-03-27T08:16:44.999Z</time></trkpt><trkpt lat="44.73250907580401" lon="2.454598816896093"><ele>592.0</ele><time>2026-03-27T08:16:45.999Z</time></trkpt><trkpt lat="44.7324259739248" lon="2.4544335719306973"><ele>593.0</ele><time>2026-03-27T08:16:46.999Z</time></trkpt><trkpt lat="44.73231256049444" lon="2.4543104221717176"><ele>594.0</ele><time>2026-03-27T08:16:47.999Z</time></trkpt><trkpt lat="44.73220789473483" lon="2.4542102300748017"><ele>594.0</ele><time>2026-03-27T08:16:48.999Z</time></trkpt><trkpt lat="44.73208878208578" lon="2.454122995110412"><ele>594.0</ele><time>2026-03-27T08:16:49.999Z</time></trkpt><trkpt lat="44.73195734454508" lon="2.4540676163311415"><ele>594.0</ele><time>2026-03-27T08:16:50.999Z</time></trkpt><trkpt lat="44.73182966643185" lon="2.4539980826858505"><ele>594.0</ele><time>2026-03-27T08:16:51.999Z</time></trkpt><trkpt lat="44.73170934513309" lon="2.4539040588679897"><ele>591.75</ele><time>2026-03-27T08:16:52.999Z</time></trkpt><trkpt lat="44.731589604829374" lon="2.4538319767653496"><ele>589.5</ele><time>2026-03-27T08:16:53.999Z</time></trkpt><trkpt lat="44.73146518034798" lon="2.4537750238031086"><ele>587.25</ele><time>2026-03-27T08:16:54.999Z</time></trkpt><trkpt lat="44.7313464709576" lon="2.45368841935592"><ele>585.0</ele><time>2026-03-27T08:16:55.999Z</time></trkpt><trkpt lat="44.73123165853181" lon="2.4535935536905438"><ele>585.0</ele><time>2026-03-27T08:16:56.999Z</time></trkpt><trkpt lat="44.73112095989602" lon="2.4535061048168414"><ele>585.0</ele><time>2026-03-27T08:16:57.999Z</time></trkpt><trkpt lat="44.73101750837686" lon="2.453419868773513"><ele>585.0</ele><time>2026-03-27T08:16:58.999Z</time></trkpt><trkpt lat="44.730923227038815" lon="2.453331549038491"><ele>585.0</ele><time>2026-03-27T08:16:59.999Z</time></trkpt><trkpt lat="44.730833545469594" lon="2.453245697335886"><ele>584.4</ele><time>2026-03-27T08:17:00.999Z</time></trkpt><trkpt lat="44.730745419611885" lon="2.45316299273425"><ele>583.8</ele><time>2026-03-27T08:17:01.999Z</time></trkpt><trkpt lat="44.73065409359894" lon="2.4530799078608903"><ele>583.2</ele><time>2026-03-27T08:17:02.999Z</time></trkpt><trkpt lat="44.730557384422205" lon="2.45299672910944"><ele>582.6</ele><time>2026-03-27T08:17:03.999Z</time></trkpt><trkpt lat="44.73045817943886" lon="2.4529176894389697"><ele>582.0</ele><time>2026-03-27T08:17:04.999Z</time></trkpt><trkpt lat="44.73036231083221" lon="2.4528564325409645"><ele>581.2</ele><time>2026-03-27T08:17:05.999Z</time></trkpt><trkpt lat="44.73026546441062" lon="2.4528118317502905"><ele>580.4000000000001</ele><time>2026-03-27T08:17:06.999Z</time></trkpt><trkpt lat="44.73016579261226" lon="2.4527971066426772"><ele>579.5999999999999</ele><time>2026-03-27T08:17:07.999Z</time></trkpt><trkpt lat="44.73007598648544" lon="2.4527785014900148"><ele>578.8</ele><time>2026-03-27T08:17:08.999Z</time></trkpt><trkpt lat="44.73000845384225" lon="2.4528160805970103"><ele>578.0</ele><time>2026-03-27T08:17:09.999Z</time></trkpt><trkpt lat="44.729916229402995" lon="2.452845201836378"><ele>577.0</ele><time>2026-03-27T08:17:11.999Z</time></trkpt><trkpt lat="44.72997764793753" lon="2.452442653049297"><ele>576.0</ele><time>2026-03-27T08:17:18.999Z</time></trkpt><trkpt lat="44.730012855963786" lon="2.452356415386965"><ele>575.0</ele><time>2026-03-27T08:17:19.999Z</time></trkpt><trkpt lat="44.73005017513395" lon="2.452268460616951"><ele>574.0</ele><time>2026-03-27T08:17:20.999Z</time></trkpt><trkpt lat="44.730098479355846" lon="2.45217080921436"><ele>573.1666666666667</ele><time>2026-03-27T08:17:21.999Z</time></trkpt><trkpt lat="44.73015295054231" lon="2.4520755973978514"><ele>572.3333333333334</ele><time>2026-03-27T08:17:22.999Z</time></trkpt><trkpt lat="44.730214464321605" lon="2.4519847949610067"><ele>571.5</ele><time>2026-03-27T08:17:23.999Z</time></trkpt><trkpt lat="44.730270383020425" lon="2.4518967293825016"><ele>570.6666666666666</ele><time>2026-03-27T08:17:24.999Z</time></trkpt><trkpt lat="44.73033135539638" lon="2.4518194499276236"><ele>569.8333333333333</ele><time>2026-03-27T08:17:25.999Z</time></trkpt><trkpt lat="44.73038813382382" lon="2.4517268767272102"><ele>569.0</ele><time>2026-03-27T08:17:26.999Z</time></trkpt><trkpt lat="44.730444687347415" lon="2.45163761714522"><ele>569.0</ele><time>2026-03-27T08:17:27.999Z</time></trkpt><trkpt lat="44.73050107311844" lon="2.4515476198273904"><ele>569.0</ele><time>2026-03-27T08:17:28.999Z</time></trkpt><trkpt lat="44.73056247996406" lon="2.4514581098859125"><ele>569.0</ele><time>2026-03-27T08:17:29.999Z</time></trkpt><trkpt lat="44.73061961095642" lon="2.451365055147566"><ele>569.0</ele><time>2026-03-27T08:17:30.999Z</time></trkpt><trkpt lat="44.73067095442633" lon="2.451272428262242"><ele>569.0</ele><time>2026-03-27T08:17:31.999Z</time></trkpt><trkpt lat="44.73071673144957" lon="2.451162601467128"><ele>569.0</ele><time>2026-03-27T08:17:32.999Z</time></trkpt><trkpt lat="44.73076920699509" lon="2.451033754486895"><ele>567.0</ele><time>2026-03-27T08:17:33.999Z</time></trkpt><trkpt lat="44.730821460674136" lon="2.4509003211713876"><ele>565.0</ele><time>2026-03-27T08:17:34.999Z</time></trkpt><trkpt lat="44.73086165957634" lon="2.450767059310449"><ele>563.0</ele><time>2026-03-27T08:17:35.999Z</time></trkpt><trkpt lat="44.73089541500362" lon="2.4506394791264055"><ele>561.0</ele><time>2026-03-27T08:17:36.999Z</time></trkpt><trkpt lat="44.73092906794082" lon="2.450525608671917"><ele>559.0</ele><time>2026-03-27T08:17:37.999Z</time></trkpt><trkpt lat="44.7309686581829" lon="2.4504209309403566"><ele>558.6</ele><time>2026-03-27T08:17:38.999Z</time></trkpt><trkpt lat="44.73101664082332" lon="2.45031343603362"><ele>558.2</ele><time>2026-03-27T08:17:39.999Z</time></trkpt><trkpt lat="44.73107456960355" lon="2.4502099677630667"><ele>557.8000000000001</ele><time>2026-03-27T08:17:40.999Z</time></trkpt><trkpt lat="44.731143167634286" lon="2.4501155216701993"><ele>557.4</ele><time>2026-03-27T08:17:41.999Z</time></trkpt><trkpt lat="44.73121606325131" lon="2.4500402048852785"><ele>557.0</ele><time>2026-03-27T08:17:42.999Z</time></trkpt><trkpt lat="44.73128110446493" lon="2.4499715782905325"><ele>557.0</ele><time>2026-03-27T08:17:43.999Z</time></trkpt><trkpt lat="44.73134096044965" lon="2.4499028936126996"><ele>557.0</ele><time>2026-03-27T08:17:44.999Z</time></trkpt><trkpt lat="44.73139215651334" lon="2.4498278631005665"><ele>557.0</ele><time>2026-03-27T08:17:45.999Z</time></trkpt><trkpt lat="44.73142306703242" lon="2.4497339364617314"><ele>557.0</ele><time>2026-03-27T08:17:46.999Z</time></trkpt><trkpt lat="44.73145160413761" lon="2.4496472236916462"><ele>557.0</ele><time>2026-03-27T08:17:47.999Z</time></trkpt><trkpt lat="44.73149527059603" lon="2.449543165635641"><ele>557.0</ele><time>2026-03-27T08:17:48.998Z</time></trkpt><trkpt lat="44.73155902656467" lon="2.4494407649444727"><ele>555.2</ele><time>2026-03-27T08:17:49.998Z</time></trkpt><trkpt lat="44.73163165116546" lon="2.449333074040829"><ele>553.4000000000001</ele><time>2026-03-27T08:17:50.998Z</time></trkpt><trkpt lat="44.731696827271726" lon="2.4492254040203374"><ele>551.5999999999999</ele><time>2026-03-27T08:17:51.998Z</time></trkpt><trkpt lat="44.73175898891939" lon="2.4491140719941202"><ele>549.8</ele><time>2026-03-27T08:17:52.998Z</time></trkpt><trkpt lat="44.731821338363915" lon="2.449009196508594"><ele>548.0</ele><time>2026-03-27T08:17:53.998Z</time></trkpt><trkpt lat="44.73188016810855" lon="2.4489151867312087"><ele>548.8</ele><time>2026-03-27T08:17:54.998Z</time></trkpt><trkpt lat="44.731944503355344" lon="2.448831340741893"><ele>549.5999999999999</ele><time>2026-03-27T08:17:55.998Z</time></trkpt><trkpt lat="44.73203218592175" lon="2.448737064258625"><ele>550.4000000000001</ele><time>2026-03-27T08:17:56.998Z</time></trkpt><trkpt lat="44.73211730428393" lon="2.4486594817110583"><ele>551.2</ele><time>2026-03-27T08:17:58Z</time></trkpt><trkpt lat="44.73221821383294" lon="2.448604658505898"><ele>552.0</ele><time>2026-03-27T08:17:59Z</time></trkpt><trkpt lat="44.73233160308294" lon="2.448555015116507"><ele>550.1666666666666</ele><time>2026-03-27T08:18:00Z</time></trkpt><trkpt lat="44.732427773414784" lon="2.448498464866935"><ele>548.3333333333334</ele><time>2026-03-27T08:18:01Z</time></trkpt><trkpt lat="44.73250970137593" lon="2.4484369392127188"><ele>546.5</ele><time>2026-03-27T08:18:02Z</time></trkpt><trkpt lat="44.73257146743182" lon="2.4483669980909197"><ele>544.6666666666667</ele><time>2026-03-27T08:18:03Z</time></trkpt><trkpt lat="44.73261762253309" lon="2.4482916741493277"><ele>542.8333333333334</ele><time>2026-03-27T08:18:04Z</time></trkpt><trkpt lat="44.73265936005685" lon="2.448166408625745"><ele>541.0</ele><time>2026-03-27T08:18:05Z</time></trkpt><trkpt lat="44.73269965423318" lon="2.4480080647326963"><ele>541.2</ele><time>2026-03-27T08:18:06Z</time></trkpt><trkpt lat="44.73272368594385" lon="2.4478518283155073"><ele>541.4000000000001</ele><time>2026-03-27T08:18:07Z</time></trkpt><trkpt lat="44.73273123439413" lon="2.447693806720912"><ele>541.6</ele><time>2026-03-27T08:18:08Z</time></trkpt><trkpt lat="44.732735789109555" lon="2.4475726968708185"><ele>541.8000000000001</ele><time>2026-03-27T08:18:09Z</time></trkpt><trkpt lat="44.732751724056456" lon="2.4474438805339482"><ele>542.0</ele><time>2026-03-27T08:18:10Z</time></trkpt><trkpt lat="44.73276560733323" lon="2.4473114368854416"><ele>542.0</ele><time>2026-03-27T08:18:11Z</time></trkpt><trkpt lat="44.73281344161118" lon="2.4472055716578858"><ele>542.0</ele><time>2026-03-27T08:18:12Z</time></trkpt><trkpt lat="44.73286970486229" lon="2.447121039866564"><ele>542.0</ele><time>2026-03-27T08:18:13Z</time></trkpt><trkpt lat="44.7329201045476" lon="2.4470315316033413"><ele>542.0</ele><time>2026-03-27T08:18:14Z</time></trkpt><trkpt lat="44.73295428505602" lon="2.4469390252294243"><ele>542.0</ele><time>2026-03-27T08:18:15Z</time></trkpt><trkpt lat="44.73297483573092" lon="2.4468402929189637"><ele>542.0</ele><time>2026-03-27T08:18:16Z</time></trkpt><trkpt lat="44.732980340596065" lon="2.4467364275582626"><ele>542.5</ele><time>2026-03-27T08:18:17Z</time></trkpt><trkpt lat="44.732968215352386" lon="2.446628702813221"><ele>543.0</ele><time>2026-03-27T08:18:18Z</time></trkpt><trkpt lat="44.732934295410814" lon="2.4465323140776882"><ele>543.5</ele><time>2026-03-27T08:18:19Z</time></trkpt><trkpt lat="44.73286532484949" lon="2.446456885326649"><ele>544.0</ele><time>2026-03-27T08:18:20Z</time></trkpt><trkpt lat="44.732775569972105" lon="2.446394051301934"><ele>544.5</ele><time>2026-03-27T08:18:21Z</time></trkpt><trkpt lat="44.73269635089128" lon="2.4463154726566487"><ele>545.0</ele><time>2026-03-27T08:18:22Z</time></trkpt><trkpt lat="44.732625891300074" lon="2.4462151519863746"><ele>547.0</ele><time>2026-03-27T08:18:23Z</time></trkpt><trkpt lat="44.73257522673354" lon="2.446119557319129"><ele>549.0</ele><time>2026-03-27T08:18:24Z</time></trkpt><trkpt lat="44.732546631929694" lon="2.446028019107016"><ele>551.0</ele><time>2026-03-27T08:18:25Z</time></trkpt><trkpt lat="44.732542861998745" lon="2.445934031866748"><ele>553.0</ele><time>2026-03-27T08:18:26Z</time></trkpt><trkpt lat="44.732600232156074" lon="2.445776668130183"><ele>555.0</ele><time>2026-03-27T08:18:28Z</time></trkpt><trkpt lat="44.7326491285838" lon="2.4457165295529713"><ele>557.0</ele><time>2026-03-27T08:18:29Z</time></trkpt><trkpt lat="44.73269708124953" lon="2.4456491371506766"><ele>559.2</ele><time>2026-03-27T08:18:30Z</time></trkpt><trkpt lat="44.73277128595794" lon="2.44555863560391"><ele>561.4000000000001</ele><time>2026-03-27T08:18:31Z</time></trkpt><trkpt lat="44.73283845874624" lon="2.445457420145266"><ele>563.5999999999999</ele><time>2026-03-27T08:18:32Z</time></trkpt><trkpt lat="44.732906398288804" lon="2.4453578269681335"><ele>565.8</ele><time>2026-03-27T08:18:33Z</time></trkpt><trkpt lat="44.73296874716751" lon="2.4452830319190557"><ele>568.0</ele><time>2026-03-27T08:18:33.999Z</time></trkpt><trkpt lat="44.73303543264488" lon="2.44523888233897"><ele>569.3333333333334</ele><time>2026-03-27T08:18:34.999Z</time></trkpt><trkpt lat="44.733110421403325" lon="2.4452190230144493"><ele>570.6666666666667</ele><time>2026-03-27T08:18:35.999Z</time></trkpt><trkpt lat="44.733194972849724" lon="2.445222611952375"><ele>572.0</ele><time>2026-03-27T08:18:36.999Z</time></trkpt><trkpt lat="44.73328473351807" lon="2.4452304156492324"><ele>573.3333333333334</ele><time>2026-03-27T08:18:37.999Z</time></trkpt><trkpt lat="44.7333989032761" lon="2.445239794448216"><ele>574.6666666666666</ele><time>2026-03-27T08:18:38.999Z</time></trkpt><trkpt lat="44.73347030872891" lon="2.4452538851534347"><ele>576.0</ele><time>2026-03-27T08:18:39.999Z</time></trkpt><trkpt lat="44.73358970359919" lon="2.445313855262514"><ele>577.8333333333334</ele><time>2026-03-27T08:18:41.999Z</time></trkpt><trkpt lat="44.73366768916452" lon="2.4453632006005277"><ele>579.6666666666666</ele><time>2026-03-27T08:18:42.999Z</time></trkpt><trkpt lat="44.7337472276647" lon="2.4453782451119777"><ele>581.5</ele><time>2026-03-27T08:18:43.999Z</time></trkpt><trkpt lat="44.73381695537379" lon="2.4453151355087845"><ele>583.3333333333333</ele><time>2026-03-27T08:18:45.999Z</time></trkpt><trkpt lat="44.733909938357606" lon="2.445230230125633"><ele>585.1666666666666</ele><time>2026-03-27T08:18:47.999Z</time></trkpt><trkpt lat="44.73396409849706" lon="2.445142855505194"><ele>587.0</ele><time>2026-03-27T08:18:48.999Z</time></trkpt><trkpt lat="44.734034425330236" lon="2.4450668579349575"><ele>587.0</ele><time>2026-03-27T08:18:49.999Z</time></trkpt><trkpt lat="44.73408604552972" lon="2.444967910463166"><ele>587.0</ele><time>2026-03-27T08:18:50.999Z</time></trkpt><trkpt lat="44.73414572620222" lon="2.4448869375418774"><ele>587.0</ele><time>2026-03-27T08:18:51.999Z</time></trkpt><trkpt lat="44.734202975432986" lon="2.4447308153384637"><ele>587.0</ele><time>2026-03-27T08:18:52.999Z</time></trkpt><trkpt lat="44.73426383961584" lon="2.4445842871812244"><ele>587.0</ele><time>2026-03-27T08:18:53.999Z</time></trkpt><trkpt lat="44.73432952640287" lon="2.4444337873298383"><ele>586.8000000000001</ele><time>2026-03-27T08:18:54.999Z</time></trkpt><trkpt lat="44.73438271281078" lon="2.444296591714559"><ele>586.6</ele><time>2026-03-27T08:18:55.999Z</time></trkpt><trkpt lat="44.734422363076774" lon="2.4441696424061075"><ele>586.4000000000001</ele><time>2026-03-27T08:18:56.999Z</time></trkpt><trkpt lat="44.73447195428375" lon="2.4440287818054522"><ele>586.2</ele><time>2026-03-27T08:18:57.999Z</time></trkpt><trkpt lat="44.73453677407896" lon="2.443887619292468"><ele>586.0</ele><time>2026-03-27T08:18:58.999Z</time></trkpt><trkpt lat="44.734587829630776" lon="2.4437450024077307"><ele>585.4</ele><time>2026-03-27T08:18:59.999Z</time></trkpt><trkpt lat="44.734620078177464" lon="2.443619569358264"><ele>584.8</ele><time>2026-03-27T08:19:00.999Z</time></trkpt><trkpt lat="44.734647137631534" lon="2.44349516490166"><ele>584.1999999999999</ele><time>2026-03-27T08:19:01.999Z</time></trkpt><trkpt lat="44.73466687139104" lon="2.4433647589393384"><ele>583.6</ele><time>2026-03-27T08:19:02.999Z</time></trkpt><trkpt lat="44.734703560569024" lon="2.443244126712314"><ele>583.0</ele><time>2026-03-27T08:19:03.999Z</time></trkpt><trkpt lat="44.73475180015417" lon="2.443130585379283"><ele>583.0</ele><time>2026-03-27T08:19:04.999Z</time></trkpt><trkpt lat="44.73481196974459" lon="2.443018119349211"><ele>583.0</ele><time>2026-03-27T08:19:05.999Z</time></trkpt><trkpt lat="44.73486873789525" lon="2.4429033394386184"><ele>583.0</ele><time>2026-03-27T08:19:06.999Z</time></trkpt><trkpt lat="44.73492457343069" lon="2.4427708722557253"><ele>583.0</ele><time>2026-03-27T08:19:07.999Z</time></trkpt><trkpt lat="44.73496451859453" lon="2.4426450429769657"><ele>583.0</ele><time>2026-03-27T08:19:08.999Z</time></trkpt><trkpt lat="44.735010844629315" lon="2.4425101824087285"><ele>584.75</ele><time>2026-03-27T08:19:09.999Z</time></trkpt><trkpt lat="44.73505980416263" lon="2.442358967764939"><ele>586.5</ele><time>2026-03-27T08:19:10.999Z</time></trkpt><trkpt lat="44.73510873542355" lon="2.442181036943805"><ele>588.25</ele><time>2026-03-27T08:19:11.999Z</time></trkpt><trkpt lat="44.735160001061224" lon="2.4420133424224244"><ele>590.0</ele><time>2026-03-27T08:19:12.999Z</time></trkpt><trkpt lat="44.73519740102869" lon="2.441858320761004"><ele>591.0</ele><time>2026-03-27T08:19:13.999Z</time></trkpt><trkpt lat="44.73521384412675" lon="2.441714003618929"><ele>592.0</ele><time>2026-03-27T08:19:14.999Z</time></trkpt><trkpt lat="44.73526589911217" lon="2.441561462517384"><ele>593.0</ele><time>2026-03-27T08:19:15.999Z</time></trkpt><trkpt lat="44.7353191092334" lon="2.4413745488812655"><ele>594.0</ele><time>2026-03-27T08:19:16.999Z</time></trkpt><trkpt lat="44.73538253415049" lon="2.441179886705146"><ele>595.25</ele><time>2026-03-27T08:19:17.999Z</time></trkpt><trkpt lat="44.73543778318949" lon="2.44100162510549"><ele>596.5</ele><time>2026-03-27T08:19:18.999Z</time></trkpt><trkpt lat="44.7354775147798" lon="2.440827129633739"><ele>597.75</ele><time>2026-03-27T08:19:19.999Z</time></trkpt><trkpt lat="44.73550448141" lon="2.4406350346415335"><ele>599.0</ele><time>2026-03-27T08:19:20.999Z</time></trkpt><trkpt lat="44.73553994070436" lon="2.4404390386716908"><ele>599.25</ele><time>2026-03-27T08:19:21.999Z</time></trkpt><trkpt lat="44.73557485887845" lon="2.4402458426162057"><ele>599.5</ele><time>2026-03-27T08:19:22.999Z</time></trkpt><trkpt lat="44.73559918512948" lon="2.440082884736384"><ele>599.75</ele><time>2026-03-27T08:19:23.999Z</time></trkpt><trkpt lat="44.735619966617556" lon="2.439932112318379"><ele>600.0</ele><time>2026-03-27T08:19:24.999Z</time></trkpt><trkpt lat="44.73565008898873" lon="2.43977767668677"><ele>600.8</ele><time>2026-03-27T08:19:25.999Z</time></trkpt><trkpt lat="44.73568640256455" lon="2.4396152147554253"><ele>601.6</ele><time>2026-03-27T08:19:26.999Z</time></trkpt><trkpt lat="44.73572395696134" lon="2.4394434763317108"><ele>602.4</ele><time>2026-03-27T08:19:27.999Z</time></trkpt><trkpt lat="44.73575368300594" lon="2.4392958601968515"><ele>603.2</ele><time>2026-03-27T08:19:28.999Z</time></trkpt><trkpt lat="44.73576949768007" lon="2.439179378416691"><ele>604.0</ele><time>2026-03-27T08:19:29.999Z</time></trkpt><trkpt lat="44.73580852520578" lon="2.439076923675888"><ele>604.0</ele><time>2026-03-27T08:19:30.999Z</time></trkpt><trkpt lat="44.73583335711731" lon="2.438956956545759"><ele>604.0</ele><time>2026-03-27T08:19:31.999Z</time></trkpt><trkpt lat="44.735852383628725" lon="2.4388252901441048"><ele>604.0</ele><time>2026-03-27T08:19:32.999Z</time></trkpt><trkpt lat="44.73587388874115" lon="2.4387252218389097"><ele>604.0</ele><time>2026-03-27T08:19:33.999Z</time></trkpt><trkpt lat="44.73590480755898" lon="2.4386397855858015"><ele>604.0</ele><time>2026-03-27T08:19:34.999Z</time></trkpt><trkpt lat="44.735892304174" lon="2.4385413539072283"><ele>604.0</ele><time>2026-03-27T08:19:35.999Z</time></trkpt><trkpt lat="44.73593578463459" lon="2.4384412844863506"><ele>605.1666666666667</ele><time>2026-03-27T08:19:37.999Z</time></trkpt><trkpt lat="44.73596507397486" lon="2.4383420353413534"><ele>606.3333333333334</ele><time>2026-03-27T08:19:55.998Z</time></trkpt><trkpt lat="44.73598614929937" lon="2.4382343016042287"><ele>607.5</ele><time>2026-03-27T08:19:56.998Z</time></trkpt><trkpt lat="44.73599998847539" lon="2.4381241510581932"><ele>608.6666666666666</ele><time>2026-03-27T08:19:57.998Z</time></trkpt><trkpt lat="44.736003450123526" lon="2.43802878818703"><ele>609.8333333333333</ele><time>2026-03-27T08:19:58.998Z</time></trkpt><trkpt lat="44.735977244440726" lon="2.4379363209798997"><ele>611.0</ele><time>2026-03-27T08:19:59.998Z</time></trkpt><trkpt lat="44.73596142676272" lon="2.4378256619271776"><ele>611.5</ele><time>2026-03-27T08:20:00.998Z</time></trkpt><trkpt lat="44.735939610459404" lon="2.437717721958779"><ele>612.0</ele><time>2026-03-27T08:20:01.998Z</time></trkpt><trkpt lat="44.73589046720448" lon="2.437612442912832"><ele>612.5</ele><time>2026-03-27T08:20:03Z</time></trkpt><trkpt lat="44.73583482751727" lon="2.437520548587337"><ele>613.0</ele><time>2026-03-27T08:20:04Z</time></trkpt><trkpt lat="44.735778884038915" lon="2.4374568204980034"><ele>613.5</ele><time>2026-03-27T08:20:05Z</time></trkpt><trkpt lat="44.73572863733055" lon="2.4373218691194043"><ele>614.0</ele><time>2026-03-27T08:20:07Z</time></trkpt><trkpt lat="44.73572712119588" lon="2.4371311961874174"><ele>615.2</ele><time>2026-03-27T08:20:09Z</time></trkpt><trkpt lat="44.73571611043207" lon="2.436990073501472"><ele>616.4</ele><time>2026-03-27T08:20:10Z</time></trkpt><trkpt lat="44.7357015279645" lon="2.4368583007238307"><ele>617.6</ele><time>2026-03-27T08:20:11Z</time></trkpt><trkpt lat="44.735699022334714" lon="2.4367471208970164"><ele>618.8</ele><time>2026-03-27T08:20:12Z</time></trkpt><trkpt lat="44.73571238596088" lon="2.436623754573751"><ele>620.0</ele><time>2026-03-27T08:20:13Z</time></trkpt><trkpt lat="44.73575192647724" lon="2.436488668207111"><ele>620.0</ele><time>2026-03-27T08:20:14Z</time></trkpt><trkpt lat="44.735786765153655" lon="2.4363375020155473"><ele>620.0</ele><time>2026-03-27T08:20:15Z</time></trkpt><trkpt lat="44.73584298662047" lon="2.436191628227583"><ele>620.0</ele><time>2026-03-27T08:20:16Z</time></trkpt><trkpt lat="44.73589124803289" lon="2.4360588374940115"><ele>620.0</ele><time>2026-03-27T08:20:17Z</time></trkpt><trkpt lat="44.735927211681066" lon="2.435944811837759"><ele>620.0</ele><time>2026-03-27T08:20:18Z</time></trkpt><trkpt lat="44.73595596129895" lon="2.435843710427239"><ele>620.2</ele><time>2026-03-27T08:20:19Z</time></trkpt><trkpt lat="44.735990101553455" lon="2.4356674785346804"><ele>620.4</ele><time>2026-03-27T08:20:21Z</time></trkpt><trkpt lat="44.735997336976865" lon="2.4355514949653503"><ele>620.6</ele><time>2026-03-27T08:20:22Z</time></trkpt><trkpt lat="44.73600114971956" lon="2.435415257183582"><ele>620.8</ele><time>2026-03-27T08:20:23Z</time></trkpt><trkpt lat="44.73601870775435" lon="2.4352623363701755"><ele>621.0</ele><time>2026-03-27T08:20:24Z</time></trkpt><trkpt lat="44.736058301918575" lon="2.4350976407063345"><ele>621.5</ele><time>2026-03-27T08:20:25Z</time></trkpt><trkpt lat="44.73611432368664" lon="2.434926174158259"><ele>622.0</ele><time>2026-03-27T08:20:26Z</time></trkpt><trkpt lat="44.73617933934421" lon="2.434769414776786"><ele>622.5</ele><time>2026-03-27T08:20:27Z</time></trkpt><trkpt lat="44.73623890068929" lon="2.4346349207290836"><ele>623.0</ele><time>2026-03-27T08:20:28Z</time></trkpt><trkpt lat="44.736299851068836" lon="2.4345023527790506"><ele>623.0</ele><time>2026-03-27T08:20:29Z</time></trkpt><trkpt lat="44.73635604696668" lon="2.43436142974127"><ele>623.0</ele><time>2026-03-27T08:20:30Z</time></trkpt><trkpt lat="44.73640583210679" lon="2.434226305749154"><ele>623.0</ele><time>2026-03-27T08:20:31Z</time></trkpt><trkpt lat="44.736455439277165" lon="2.434084849103508"><ele>623.0</ele><time>2026-03-27T08:20:32Z</time></trkpt><trkpt lat="44.73649534935579" lon="2.433935277689233"><ele>623.0</ele><time>2026-03-27T08:20:33Z</time></trkpt><trkpt lat="44.73652701921455" lon="2.4337735927580475"><ele>623.0</ele><time>2026-03-27T08:20:34Z</time></trkpt><trkpt lat="44.73655448871031" lon="2.433603641860427"><ele>623.0</ele><time>2026-03-27T08:20:35Z</time></trkpt><trkpt lat="44.73657243926511" lon="2.4334252809719517"><ele>623.0</ele><time>2026-03-27T08:20:35.999Z</time></trkpt><trkpt lat="44.73658124015933" lon="2.4332418680284107"><ele>623.0</ele><time>2026-03-27T08:20:36.999Z</time></trkpt><trkpt lat="44.73658079460484" lon="2.433057069110337"><ele>623.5</ele><time>2026-03-27T08:20:37.999Z</time></trkpt><trkpt lat="44.736570033445126" lon="2.4328736235422737"><ele>624.0</ele><time>2026-03-27T08:20:38.999Z</time></trkpt><trkpt lat="44.73655201445216" lon="2.432690725989042"><ele>624.5</ele><time>2026-03-27T08:20:39.999Z</time></trkpt><trkpt lat="44.73652909519512" lon="2.4325115477496126"><ele>625.0</ele><time>2026-03-27T08:20:40.999Z</time></trkpt><trkpt lat="44.73650431751401" lon="2.432339994769973"><ele>625.0</ele><time>2026-03-27T08:20:41.999Z</time></trkpt><trkpt lat="44.73647889579604" lon="2.432174189710854"><ele>625.0</ele><time>2026-03-27T08:20:42.999Z</time></trkpt><trkpt lat="44.73645135978383" lon="2.432010340663108"><ele>625.0</ele><time>2026-03-27T08:20:43.999Z</time></trkpt><trkpt lat="44.73642617837262" lon="2.431853625513567"><ele>625.0</ele><time>2026-03-27T08:20:44.999Z</time></trkpt><trkpt lat="44.73640397881419" lon="2.4316956628986808"><ele>625.25</ele><time>2026-03-27T08:20:45.999Z</time></trkpt><trkpt lat="44.736381907533385" lon="2.4315342771608757"><ele>625.5</ele><time>2026-03-27T08:20:46.999Z</time></trkpt><trkpt lat="44.736364173432655" lon="2.4313707189602303"><ele>625.75</ele><time>2026-03-27T08:20:47.999Z</time></trkpt><trkpt lat="44.73635246990819" lon="2.431200620445533"><ele>626.0</ele><time>2026-03-27T08:20:48.999Z</time></trkpt><trkpt lat="44.73634831492935" lon="2.431028333290863"><ele>627.5</ele><time>2026-03-27T08:20:49.999Z</time></trkpt><trkpt lat="44.73634605045234" lon="2.4308655354040885"><ele>629.0</ele><time>2026-03-27T08:20:50.999Z</time></trkpt><trkpt lat="44.73634127260314" lon="2.430707626409192"><ele>630.5</ele><time>2026-03-27T08:20:51.999Z</time></trkpt><trkpt lat="44.73633230039428" lon="2.4305435362267063"><ele>632.0</ele><time>2026-03-27T08:20:52.999Z</time></trkpt><trkpt lat="44.73632090123464" lon="2.4303719800064103"><ele>633.25</ele><time>2026-03-27T08:20:53.999Z</time></trkpt><trkpt lat="44.73630584645824" lon="2.4301978384260887"><ele>634.5</ele><time>2026-03-27T08:20:54.999Z</time></trkpt><trkpt lat="44.73628854257736" lon="2.430036289370885"><ele>635.75</ele><time>2026-03-27T08:20:55.999Z</time></trkpt><trkpt lat="44.73627192710823" lon="2.4298797514554225"><ele>637.0</ele><time>2026-03-27T08:20:56.999Z</time></trkpt><trkpt lat="44.73625320795991" lon="2.4297315158990744"><ele>636.0</ele><time>2026-03-27T08:20:57.999Z</time></trkpt><trkpt lat="44.736236102376175" lon="2.4295893757869402"><ele>635.0</ele><time>2026-03-27T08:20:58.999Z</time></trkpt><trkpt lat="44.73623298026153" lon="2.429434899872925"><ele>634.0</ele><time>2026-03-27T08:20:59.999Z</time></trkpt><trkpt lat="44.73624997709213" lon="2.4292789954414657"><ele>633.0</ele><time>2026-03-27T08:21:00.999Z</time></trkpt><trkpt lat="44.73628219959291" lon="2.429137598387419"><ele>632.0</ele><time>2026-03-27T08:21:01.999Z</time></trkpt><trkpt lat="44.736311686082296" lon="2.4289970921169655"><ele>632.0</ele><time>2026-03-27T08:21:02.999Z</time></trkpt><trkpt lat="44.73632616470816" lon="2.42885199480043"><ele>632.0</ele><time>2026-03-27T08:21:03.999Z</time></trkpt><trkpt lat="44.73631084374727" lon="2.428687476234816"><ele>632.0</ele><time>2026-03-27T08:21:04.999Z</time></trkpt><trkpt lat="44.73626810347893" lon="2.4285274885660626"><ele>632.0</ele><time>2026-03-27T08:21:05.999Z</time></trkpt><trkpt lat="44.7361962586772" lon="2.428384236606279"><ele>630.75</ele><time>2026-03-27T08:21:06.999Z</time></trkpt><trkpt lat="44.7361117093559" lon="2.428253035041182"><ele>629.5</ele><time>2026-03-27T08:21:07.999Z</time></trkpt><trkpt lat="44.73604548367062" lon="2.4281168768517176"><ele>628.25</ele><time>2026-03-27T08:21:08.999Z</time></trkpt><trkpt lat="44.7359893678008" lon="2.4279595314228914"><ele>627.0</ele><time>2026-03-27T08:21:09.999Z</time></trkpt><trkpt lat="44.73595111022796" lon="2.427786472731209"><ele>622.25</ele><time>2026-03-27T08:21:10.999Z</time></trkpt><trkpt lat="44.735931186102626" lon="2.427602684946073"><ele>617.5</ele><time>2026-03-27T08:21:11.999Z</time></trkpt><trkpt lat="44.735922808099495" lon="2.4274068432721774"><ele>612.75</ele><time>2026-03-27T08:21:12.999Z</time></trkpt><trkpt lat="44.73592855613388" lon="2.4272087007892447"><ele>608.0</ele><time>2026-03-27T08:21:13.999Z</time></trkpt><trkpt lat="44.73593653784474" lon="2.4270087013292474"><ele>606.5</ele><time>2026-03-27T08:21:14.999Z</time></trkpt><trkpt lat="44.73594560259284" lon="2.426814403242694"><ele>605.0</ele><time>2026-03-27T08:21:15.999Z</time></trkpt><trkpt lat="44.73595306649918" lon="2.42662465994503"><ele>603.5</ele><time>2026-03-27T08:21:16.999Z</time></trkpt><trkpt lat="44.735959394710946" lon="2.426437914927126"><ele>602.0</ele><time>2026-03-27T08:21:17.999Z</time></trkpt><trkpt lat="44.73596126847807" lon="2.426256463531092"><ele>601.25</ele><time>2026-03-27T08:21:18.999Z</time></trkpt><trkpt lat="44.73595681701815" lon="2.426078381994718"><ele>600.5</ele><time>2026-03-27T08:21:19.999Z</time></trkpt><trkpt lat="44.73594510510653" lon="2.4259089986618605"><ele>599.75</ele><time>2026-03-27T08:21:20.999Z</time></trkpt><trkpt lat="44.735926484017874" lon="2.42574693273136"><ele>599.0</ele><time>2026-03-27T08:21:21.999Z</time></trkpt><trkpt lat="44.73590682166815" lon="2.4255918657808353"><ele>598.4</ele><time>2026-03-27T08:21:22.999Z</time></trkpt><trkpt lat="44.73590184836588" lon="2.4254460816235683"><ele>597.8</ele><time>2026-03-27T08:21:23.999Z</time></trkpt><trkpt lat="44.735910164062346" lon="2.425297445709854"><ele>597.2</ele><time>2026-03-27T08:21:24.999Z</time></trkpt><trkpt lat="44.73593536361993" lon="2.4251498488207255"><ele>596.6</ele><time>2026-03-27T08:21:25.999Z</time></trkpt><trkpt lat="44.73598294387952" lon="2.425001636911086"><ele>596.0</ele><time>2026-03-27T08:21:26.999Z</time></trkpt><trkpt lat="44.73605609325774" lon="2.4248566915840506"><ele>597.5</ele><time>2026-03-27T08:21:27.999Z</time></trkpt><trkpt lat="44.73613807317555" lon="2.4247045922669606"><ele>599.0</ele><time>2026-03-27T08:21:28.999Z</time></trkpt><trkpt lat="44.73622754339272" lon="2.4245441937052097"><ele>600.5</ele><time>2026-03-27T08:21:29.999Z</time></trkpt><trkpt lat="44.73632119601083" lon="2.4243772578774174"><ele>602.0</ele><time>2026-03-27T08:21:30.999Z</time></trkpt><trkpt lat="44.73642122746445" lon="2.424210639988974"><ele>602.0</ele><time>2026-03-27T08:21:31.999Z</time></trkpt><trkpt lat="44.73652593299783" lon="2.424052389078888"><ele>602.0</ele><time>2026-03-27T08:21:32.999Z</time></trkpt><trkpt lat="44.73663439144687" lon="2.423901675619633"><ele>602.0</ele><time>2026-03-27T08:21:33.999Z</time></trkpt><trkpt lat="44.73674792358086" lon="2.4237572360369533"><ele>602.5</ele><time>2026-03-27T08:21:34.999Z</time></trkpt><trkpt lat="44.7368650455303" lon="2.4236237587583065"><ele>603.0</ele><time>2026-03-27T08:21:35.999Z</time></trkpt><trkpt lat="44.73697697350037" lon="2.423501322605717"><ele>603.5</ele><time>2026-03-27T08:21:36.999Z</time></trkpt><trkpt lat="44.73708103411054" lon="2.4233899904189906"><ele>604.0</ele><time>2026-03-27T08:21:37.999Z</time></trkpt><trkpt lat="44.73718341443703" lon="2.4232793444470286"><ele>604.0</ele><time>2026-03-27T08:21:38.999Z</time></trkpt><trkpt lat="44.737287288413086" lon="2.423166300116327"><ele>604.0</ele><time>2026-03-27T08:21:39.999Z</time></trkpt><trkpt lat="44.73738204973382" lon="2.4230512762956002"><ele>604.0</ele><time>2026-03-27T08:21:40.999Z</time></trkpt><trkpt lat="44.737468754122276" lon="2.4229363657326406"><ele>604.0</ele><time>2026-03-27T08:21:41.999Z</time></trkpt><trkpt lat="44.73755574566005" lon="2.4228144950106696"><ele>602.5</ele><time>2026-03-27T08:21:42.999Z</time></trkpt><trkpt lat="44.73763861101847" lon="2.4226869048336455"><ele>601.0</ele><time>2026-03-27T08:21:43.999Z</time></trkpt><trkpt lat="44.73771341766417" lon="2.422553419939527"><ele>599.5</ele><time>2026-03-27T08:21:44.999Z</time></trkpt><trkpt lat="44.73778742153861" lon="2.4224163568622448"><ele>598.0</ele><time>2026-03-27T08:21:45.999Z</time></trkpt><trkpt lat="44.73785987599495" lon="2.4222762437614467"><ele>599.0</ele><time>2026-03-27T08:21:46.999Z</time></trkpt><trkpt lat="44.737925932452434" lon="2.422136229885196"><ele>600.0</ele><time>2026-03-27T08:21:47.998Z</time></trkpt><trkpt lat="44.73798804895567" lon="2.421997268050247"><ele>601.0</ele><time>2026-03-27T08:21:48.998Z</time></trkpt><trkpt lat="44.738040236699035" lon="2.4218556721476854"><ele>602.0</ele><time>2026-03-27T08:21:49.998Z</time></trkpt><trkpt lat="44.738081139772305" lon="2.4217076983238095"><ele>602.0</ele><time>2026-03-27T08:21:50.998Z</time></trkpt><trkpt lat="44.7381115117008" lon="2.4215563478211353"><ele>602.0</ele><time>2026-03-27T08:21:51.998Z</time></trkpt><trkpt lat="44.73812280387012" lon="2.42140373278158"><ele>602.0</ele><time>2026-03-27T08:21:52.998Z</time></trkpt><trkpt lat="44.7381083855985" lon="2.4212657621591287"><ele>602.0</ele><time>2026-03-27T08:21:53.998Z</time></trkpt><trkpt lat="44.738069504268" lon="2.4211322097636123"><ele>602.0</ele><time>2026-03-27T08:21:54.998Z</time></trkpt><trkpt lat="44.738006834444455" lon="2.4210162994190414"><ele>601.75</ele><time>2026-03-27T08:21:55.998Z</time></trkpt><trkpt lat="44.7379285276861" lon="2.4209171067985777"><ele>601.5</ele><time>2026-03-27T08:21:56.998Z</time></trkpt><trkpt lat="44.73781897669679" lon="2.420854129214126"><ele>601.25</ele><time>2026-03-27T08:21:57.998Z</time></trkpt><trkpt lat="44.73769994622346" lon="2.4208054848934646"><ele>601.0</ele><time>2026-03-27T08:21:58.998Z</time></trkpt><trkpt lat="44.73757807569609" lon="2.420736219926962"><ele>601.0</ele><time>2026-03-27T08:21:59.998Z</time></trkpt><trkpt lat="44.73746760915948" lon="2.4206397303155116"><ele>601.0</ele><time>2026-03-27T08:22:00.998Z</time></trkpt><trkpt lat="44.73739339101414" lon="2.4205253725981626"><ele>601.0</ele><time>2026-03-27T08:22:01.998Z</time></trkpt><trkpt lat="44.73735404759614" lon="2.420390555974874"><ele>601.0</ele><time>2026-03-27T08:22:02.998Z</time></trkpt><trkpt lat="44.737340437924495" lon="2.420244601047101"><ele>601.0</ele><time>2026-03-27T08:22:03.998Z</time></trkpt><trkpt lat="44.73731666529465" lon="2.4201398185746568"><ele>603.3333333333334</ele><time>2026-03-27T08:22:04.998Z</time></trkpt><trkpt lat="44.73729592792253" lon="2.420045498445806"><ele>605.6666666666667</ele><time>2026-03-27T08:22:05.998Z</time></trkpt><trkpt lat="44.737252934647" lon="2.4199277505141845"><ele>608.0</ele><time>2026-03-27T08:22:08Z</time></trkpt><trkpt lat="44.73722052188869" lon="2.419838303950228"><ele>610.3333333333334</ele><time>2026-03-27T08:22:10Z</time></trkpt><trkpt lat="44.73718348537686" lon="2.419744214418605"><ele>612.6666666666666</ele><time>2026-03-27T08:22:13Z</time></trkpt><trkpt lat="44.73717573176265" lon="2.419643225467142"><ele>615.0</ele><time>2026-03-27T08:22:16Z</time></trkpt><trkpt lat="44.73720760488293" lon="2.4195018645939337"><ele>616.8333333333334</ele><time>2026-03-27T08:22:21Z</time></trkpt><trkpt lat="44.737249765441504" lon="2.419428792705351"><ele>618.6666666666666</ele><time>2026-03-27T08:22:22Z</time></trkpt><trkpt lat="44.737320262743346" lon="2.4193277066623433"><ele>620.5</ele><time>2026-03-27T08:22:24Z</time></trkpt><trkpt lat="44.73737283363274" lon="2.419256271570019"><ele>622.3333333333333</ele><time>2026-03-27T08:22:25Z</time></trkpt><trkpt lat="44.73742830056049" lon="2.419175349163566"><ele>624.1666666666666</ele><time>2026-03-27T08:22:26Z</time></trkpt><trkpt lat="44.737490366946645" lon="2.4191027802344416"><ele>626.0</ele><time>2026-03-27T08:22:27Z</time></trkpt><trkpt lat="44.73754288212168" lon="2.4190261539546634"><ele>626.0</ele><time>2026-03-27T08:22:28Z</time></trkpt><trkpt lat="44.73761384431758" lon="2.4189482251760186"><ele>626.0</ele><time>2026-03-27T08:22:29Z</time></trkpt><trkpt lat="44.73765156745549" lon="2.4188736670223117"><ele>626.0</ele><time>2026-03-27T08:22:30Z</time></trkpt><trkpt lat="44.73772470002926" lon="2.4187143306275227"><ele>626.0</ele><time>2026-03-27T08:22:32Z</time></trkpt><trkpt lat="44.737762342291944" lon="2.418608448820632"><ele>626.0</ele><time>2026-03-27T08:22:33Z</time></trkpt><trkpt lat="44.737808342928645" lon="2.41853948556001"><ele>626.0</ele><time>2026-03-27T08:22:34Z</time></trkpt><trkpt lat="44.737878452178514" lon="2.4184848012231774"><ele>629.1666666666666</ele><time>2026-03-27T08:22:35.999Z</time></trkpt><trkpt lat="44.73793344309382" lon="2.418431873691373"><ele>632.3333333333333</ele><time>2026-03-27T08:22:38.999Z</time></trkpt><trkpt lat="44.738019911084514" lon="2.4184088706656017"><ele>635.5</ele><time>2026-03-27T08:22:41.999Z</time></trkpt><trkpt lat="44.73810621999697" lon="2.418352739708484"><ele>638.6666666666666</ele><time>2026-03-27T08:22:43.999Z</time></trkpt><trkpt lat="44.73819973922037" lon="2.418293470701399"><ele>641.8333333333334</ele><time>2026-03-27T08:22:45.999Z</time></trkpt><trkpt lat="44.73820714439685" lon="2.4184140280734936"><ele>645.0</ele><time>2026-03-27T08:22:50.999Z</time></trkpt><trkpt lat="44.73817458886954" lon="2.418524150864485"><ele>645.0</ele><time>2026-03-27T08:22:53.999Z</time></trkpt><trkpt lat="44.73815153331829" lon="2.4186207586318393"><ele>645.0</ele><time>2026-03-27T08:22:54.999Z</time></trkpt><trkpt lat="44.738109469135146" lon="2.4187556722989196"><ele>645.0</ele><time>2026-03-27T08:22:56.999Z</time></trkpt><trkpt lat="44.73807704123075" lon="2.4188534104497954"><ele>645.0</ele><time>2026-03-27T08:22:58.999Z</time></trkpt><trkpt lat="44.73804875448487" lon="2.4189914223764735"><ele>645.0</ele><time>2026-03-27T08:23:00.999Z</time></trkpt><trkpt lat="44.73804017318525" lon="2.419082619898666"><ele>645.0</ele><time>2026-03-27T08:23:01.999Z</time></trkpt><trkpt lat="44.738032425243425" lon="2.4191785483464865"><ele>645.0</ele><time>2026-03-27T08:23:02.999Z</time></trkpt><trkpt lat="44.73798653449716" lon="2.41934679622885"><ele>645.0</ele><time>2026-03-27T08:23:03.999Z</time></trkpt><trkpt lat="44.73793338655568" lon="2.4195056071388796"><ele>645.0</ele><time>2026-03-27T08:23:04.999Z</time></trkpt><trkpt lat="44.73791252357538" lon="2.419598371223977"><ele>645.0</ele><time>2026-03-27T08:23:05.999Z</time></trkpt><trkpt lat="44.737886370613396" lon="2.41972245202754"><ele>645.0</ele><time>2026-03-27T08:23:07.999Z</time></trkpt><trkpt lat="44.737919042832544" lon="2.41984626772051"><ele>644.25</ele><time>2026-03-27T08:23:09.999Z</time></trkpt><trkpt lat="44.73797777310037" lon="2.41991014658335"><ele>643.5</ele><time>2026-03-27T08:23:12.999Z</time></trkpt><trkpt lat="44.73803726323695" lon="2.4200229233923274"><ele>642.75</ele><time>2026-03-27T08:23:14.999Z</time></trkpt><trkpt lat="44.73814883701484" lon="2.420137446310324"><ele>642.0</ele><time>2026-03-27T08:23:16.999Z</time></trkpt><trkpt lat="44.7382603055748" lon="2.4202775813901565"><ele>642.0</ele><time>2026-03-27T08:23:18.999Z</time></trkpt><trkpt lat="44.738331642615506" lon="2.4203658316191152"><ele>642.0</ele><time>2026-03-27T08:23:19.999Z</time></trkpt><trkpt lat="44.738383115284556" lon="2.420426814322329"><ele>642.0</ele><time>2026-03-27T08:23:20.999Z</time></trkpt><trkpt lat="44.738456270489664" lon="2.420511136385459"><ele>642.0</ele><time>2026-03-27T08:23:22.999Z</time></trkpt><trkpt lat="44.73854045378835" lon="2.4205301824736907"><ele>642.0</ele><time>2026-03-27T08:23:24.999Z</time></trkpt><trkpt lat="44.738606159833644" lon="2.420574954615673"><ele>642.0</ele><time>2026-03-27T08:23:25.999Z</time></trkpt><trkpt lat="44.73866552025936" lon="2.4206410361964976"><ele>641.8333333333334</ele><time>2026-03-27T08:23:26.999Z</time></trkpt><trkpt lat="44.738738056518876" lon="2.4207391766939734"><ele>641.6666666666666</ele><time>2026-03-27T08:23:29.999Z</time></trkpt><trkpt lat="44.73879078008546" lon="2.420799048937255"><ele>641.5</ele><time>2026-03-27T08:23:30.999Z</time></trkpt><trkpt lat="44.73885573680494" lon="2.420845629456029"><ele>641.3333333333333</ele><time>2026-03-27T08:23:31.999Z</time></trkpt><trkpt lat="44.738916410369036" lon="2.420895138854462"><ele>641.1666666666666</ele><time>2026-03-27T08:23:32.999Z</time></trkpt><trkpt lat="44.73898249733282" lon="2.420922057897067"><ele>641.0</ele><time>2026-03-27T08:23:33.999Z</time></trkpt><trkpt lat="44.73910801349944" lon="2.4209464427530887"><ele>641.0</ele><time>2026-03-27T08:23:35.999Z</time></trkpt><trkpt lat="44.73921194533206" lon="2.42099295306049"><ele>641.0</ele><time>2026-03-27T08:23:37.999Z</time></trkpt><trkpt lat="44.739299009571006" lon="2.420989231230578"><ele>641.0</ele><time>2026-03-27T08:23:38.999Z</time></trkpt><trkpt lat="44.73936649798236" lon="2.420998479341707"><ele>641.0</ele><time>2026-03-27T08:23:39.999Z</time></trkpt><trkpt lat="44.73943297250035" lon="2.4210281016627384"><ele>641.0</ele><time>2026-03-27T08:23:41.999Z</time></trkpt><trkpt lat="44.73952556729964" lon="2.421070750956793"><ele>641.0</ele><time>2026-03-27T08:23:44.999Z</time></trkpt><trkpt lat="44.73959465610942" lon="2.4211018645003195"><ele>642.8333333333333</ele><time>2026-03-27T08:23:46.999Z</time></trkpt><trkpt lat="44.739658611035395" lon="2.421142407385545"><ele>644.6666666666666</ele><time>2026-03-27T08:23:49.998Z</time></trkpt><trkpt lat="44.73972267315662" lon="2.4212120848386744"><ele>646.5</ele><time>2026-03-27T08:23:52.998Z</time></trkpt><trkpt lat="44.73978179363665" lon="2.4212609968379097"><ele>648.3333333333334</ele><time>2026-03-27T08:23:56.998Z</time></trkpt><trkpt lat="44.73987606643931" lon="2.4212422283699326"><ele>650.1666666666667</ele><time>2026-03-27T08:23:59.998Z</time></trkpt><trkpt lat="44.7399581081261" lon="2.4212898458614585"><ele>652.0</ele><time>2026-03-27T08:24:01.998Z</time></trkpt><trkpt lat="44.74002197279396" lon="2.4213423820226962"><ele>652.0</ele><time>2026-03-27T08:24:08.998Z</time></trkpt><trkpt lat="44.740084223932385" lon="2.421326484307194"><ele>652.0</ele><time>2026-03-27T08:24:14Z</time></trkpt><trkpt lat="44.74010730206605" lon="2.4212438291976293"><ele>652.0</ele><time>2026-03-27T08:24:17Z</time></trkpt><trkpt lat="44.74019627801915" lon="2.4212231309034244"><ele>652.0</ele><time>2026-03-27T08:24:26Z</time></trkpt><trkpt lat="44.74028348479619" lon="2.421140345288549"><ele>652.0</ele><time>2026-03-27T08:24:30Z</time></trkpt><trkpt lat="44.74034452520586" lon="2.421078355406391"><ele>652.0</ele><time>2026-03-27T08:24:34Z</time></trkpt><trkpt lat="44.74042691390711" lon="2.421069689878907"><ele>652.5</ele><time>2026-03-27T08:24:37Z</time></trkpt><trkpt lat="44.74053190807164" lon="2.4210819363865146"><ele>653.0</ele><time>2026-03-27T08:24:39Z</time></trkpt><trkpt lat="44.740616157147784" lon="2.4210554582033303"><ele>653.5</ele><time>2026-03-27T08:24:40.999Z</time></trkpt><trkpt lat="44.740684107356465" lon="2.421049959698117"><ele>654.0</ele><time>2026-03-27T08:24:42.999Z</time></trkpt><trkpt lat="44.74074988184856" lon="2.4210224513121528"><ele>654.5</ele><time>2026-03-27T08:24:45.999Z</time></trkpt><trkpt lat="44.74083205383348" lon="2.421090037898382"><ele>655.0</ele><time>2026-03-27T08:25:00.999Z</time></trkpt><trkpt lat="44.740896293646" lon="2.421115157734757"><ele>655.0</ele><time>2026-03-27T08:25:05.999Z</time></trkpt><trkpt lat="44.740960117726914" lon="2.421176263837012"><ele>655.0</ele><time>2026-03-27T08:25:59.998Z</time></trkpt><trkpt lat="44.741029395006315" lon="2.4212259034592796"><ele>655.0</ele><time>2026-03-27T08:26:03.998Z</time></trkpt><trkpt lat="44.74107051652591" lon="2.4213061401251132"><ele>655.0</ele><time>2026-03-27T08:26:19Z</time></trkpt><trkpt lat="44.741131764774074" lon="2.4213472006869683"><ele>655.0</ele><time>2026-03-27T08:26:26Z</time></trkpt><trkpt lat="44.7411759415627" lon="2.421425430970251"><ele>655.0</ele><time>2026-03-27T08:26:37Z</time></trkpt><trkpt lat="44.74120318812236" lon="2.4215125478863686"><ele>655.0</ele><time>2026-03-27T08:26:47.999Z</time></trkpt><trkpt lat="44.74115538060129" lon="2.4216003953532876"><ele>654.5</ele><time>2026-03-27T08:26:56.999Z</time></trkpt><trkpt lat="44.74116283646456" lon="2.4216947273006304"><ele>654.0</ele><time>2026-03-27T08:27:00.999Z</time></trkpt><trkpt lat="44.74111694622206" lon="2.4217755796313853"><ele>653.5</ele><time>2026-03-27T08:27:04.999Z</time></trkpt><trkpt lat="44.741051292926215" lon="2.421842392235335"><ele>653.0</ele><time>2026-03-27T08:27:06.999Z</time></trkpt><trkpt lat="44.740969416055634" lon="2.4218801050923267"><ele>652.5</ele><time>2026-03-27T08:27:09.999Z</time></trkpt><trkpt lat="44.74090715340121" lon="2.421965890560719"><ele>652.0</ele><time>2026-03-27T08:27:11.999Z</time></trkpt><trkpt lat="44.74086529359384" lon="2.422055718434799"><ele>652.5</ele><time>2026-03-27T08:27:15.999Z</time></trkpt><trkpt lat="44.740842627241356" lon="2.422139598540981"><ele>653.0</ele><time>2026-03-27T08:27:18.999Z</time></trkpt><trkpt lat="44.74083844841648" lon="2.4222633229883597"><ele>653.5</ele><time>2026-03-27T08:29:31.999Z</time></trkpt><trkpt lat="44.74091123659864" lon="2.4222978867031624"><ele>654.0</ele><time>2026-03-27T08:29:34.999Z</time></trkpt><trkpt lat="44.74098414813293" lon="2.4223042196796722"><ele>654.5</ele><time>2026-03-27T08:29:37.999Z</time></trkpt><trkpt lat="44.7410823326206" lon="2.422250752855877"><ele>655.0</ele><time>2026-03-27T08:29:39.999Z</time></trkpt><trkpt lat="44.74114750206351" lon="2.4221781534344107"><ele>654.5</ele><time>2026-03-27T08:29:41.999Z</time></trkpt><trkpt lat="44.741224631888535" lon="2.4221251201527285"><ele>654.0</ele><time>2026-03-27T08:29:43.999Z</time></trkpt><trkpt lat="44.741307533655785" lon="2.4221172153708124"><ele>653.5</ele><time>2026-03-27T08:29:44.999Z</time></trkpt><trkpt lat="44.74138225117317" lon="2.422133900778208"><ele>653.0</ele><time>2026-03-27T08:29:45.999Z</time></trkpt><trkpt lat="44.74145283859105" lon="2.422162943037074"><ele>652.5</ele><time>2026-03-27T08:29:46.999Z</time></trkpt><trkpt lat="44.741530650509326" lon="2.4221936796444017"><ele>652.0</ele><time>2026-03-27T08:29:47.999Z</time></trkpt><trkpt lat="44.74162045436659" lon="2.422228563557592"><ele>653.0</ele><time>2026-03-27T08:29:48.999Z</time></trkpt><trkpt lat="44.74169280461332" lon="2.4222164409027798"><ele>654.0</ele><time>2026-03-27T08:29:49.999Z</time></trkpt><trkpt lat="44.74176529027358" lon="2.4221988690359564"><ele>655.0</ele><time>2026-03-27T08:29:50.999Z</time></trkpt><trkpt lat="44.74185720459559" lon="2.4221795409011313"><ele>656.0</ele><time>2026-03-27T08:29:51.999Z</time></trkpt><trkpt lat="44.74195715385429" lon="2.4221607928595503"><ele>657.0</ele><time>2026-03-27T08:29:52.999Z</time></trkpt><trkpt lat="44.74205692938739" lon="2.4221415868150693"><ele>658.0</ele><time>2026-03-27T08:29:53.999Z</time></trkpt><trkpt lat="44.74214365709823" lon="2.422132159467837"><ele>658.5</ele><time>2026-03-27T08:29:54.999Z</time></trkpt><trkpt lat="44.74223943503514" lon="2.4221421174711404"><ele>659.0</ele><time>2026-03-27T08:29:55.998Z</time></trkpt><trkpt lat="44.742335053280584" lon="2.422148902350385"><ele>659.5</ele><time>2026-03-27T08:29:56.998Z</time></trkpt><trkpt lat="44.74241998895314" lon="2.4221410563903425"><ele>660.0</ele><time>2026-03-27T08:29:57.998Z</time></trkpt><trkpt lat="44.7424960032529" lon="2.4221317486350062"><ele>660.5</ele><time>2026-03-27T08:29:58.998Z</time></trkpt><trkpt lat="44.74258291315195" lon="2.422120385956269"><ele>661.0</ele><time>2026-03-27T08:29:59.998Z</time></trkpt><trkpt lat="44.74266055694851" lon="2.422090660616716"><ele>660.1999999999999</ele><time>2026-03-27T08:30:00.998Z</time></trkpt><trkpt lat="44.7427671532357" lon="2.422154256215802"><ele>659.4</ele><time>2026-03-27T08:30:02.998Z</time></trkpt><trkpt lat="44.742828228285425" lon="2.4222262267934394"><ele>658.6</ele><time>2026-03-27T08:30:04.998Z</time></trkpt><trkpt lat="44.74284498832664" lon="2.4223845847484817"><ele>657.8</ele><time>2026-03-27T08:30:06.998Z</time></trkpt><trkpt lat="44.742870115188104" lon="2.4225260305450127"><ele>657.0</ele><time>2026-03-27T08:30:08.998Z</time></trkpt><trkpt lat="44.74292219918874" lon="2.4226291915588014"><ele>657.0</ele><time>2026-03-27T08:30:10.998Z</time></trkpt><trkpt lat="44.74300444989768" lon="2.4226560081787043"><ele>657.0</ele><time>2026-03-27T08:30:12.998Z</time></trkpt><trkpt lat="44.74312411921896" lon="2.42262794101059"><ele>657.0</ele><time>2026-03-27T08:30:14.998Z</time></trkpt><trkpt lat="44.74322065231655" lon="2.4225962344686525"><ele>657.0</ele><time>2026-03-27T08:30:15.998Z</time></trkpt><trkpt lat="44.74331735555196" lon="2.422539821100598"><ele>657.0</ele><time>2026-03-27T08:30:16.998Z</time></trkpt><trkpt lat="44.743406012674384" lon="2.4224781125632973"><ele>657.0</ele><time>2026-03-27T08:30:17.998Z</time></trkpt><trkpt lat="44.74349681600767" lon="2.42242112300125"><ele>657.0</ele><time>2026-03-27T08:30:18.998Z</time></trkpt><trkpt lat="44.74356099885317" lon="2.422392136314882"><ele>657.0</ele><time>2026-03-27T08:30:19.998Z</time></trkpt><trkpt lat="44.74367634322135" lon="2.422341561490823"><ele>657.0</ele><time>2026-03-27T08:30:21.998Z</time></trkpt><trkpt lat="44.743741620762684" lon="2.4223043373251194"><ele>657.0</ele><time>2026-03-27T08:30:22.998Z</time></trkpt><trkpt lat="44.74381623963612" lon="2.4222592637475624"><ele>657.0</ele><time>2026-03-27T08:30:23.998Z</time></trkpt><trkpt lat="44.743883633410825" lon="2.422204523732842"><ele>658.2</ele><time>2026-03-27T08:30:24.998Z</time></trkpt><trkpt lat="44.743942712948346" lon="2.4221394581098816"><ele>659.4000000000001</ele><time>2026-03-27T08:30:25.998Z</time></trkpt><trkpt lat="44.744045598643496" lon="2.4221091664097276"><ele>660.5999999999999</ele><time>2026-03-27T08:30:26.998Z</time></trkpt><trkpt lat="44.74413747831992" lon="2.4220972317672977"><ele>661.8</ele><time>2026-03-27T08:30:27.998Z</time></trkpt><trkpt lat="44.74422762859556" lon="2.422067287605203"><ele>663.0</ele><time>2026-03-27T08:30:28.998Z</time></trkpt><trkpt lat="44.74432092270723" lon="2.422043584893535"><ele>663.25</ele><time>2026-03-27T08:30:30Z</time></trkpt><trkpt lat="44.744414596359036" lon="2.4220083702324913"><ele>663.5</ele><time>2026-03-27T08:30:31Z</time></trkpt><trkpt lat="44.74452832570646" lon="2.421954039753577"><ele>663.75</ele><time>2026-03-27T08:30:32Z</time></trkpt><trkpt lat="44.74465136111877" lon="2.421901322187736"><ele>664.0</ele><time>2026-03-27T08:30:33Z</time></trkpt><trkpt lat="44.74478304705505" lon="2.4218797654687387"><ele>664.0</ele><time>2026-03-27T08:30:34Z</time></trkpt><trkpt lat="44.74489551090278" lon="2.4218575915132194"><ele>664.0</ele><time>2026-03-27T08:30:35Z</time></trkpt><trkpt lat="44.74498209217391" lon="2.4218110929470025"><ele>664.0</ele><time>2026-03-27T08:30:36Z</time></trkpt><trkpt lat="44.745092127490246" lon="2.421792760304524"><ele>664.0</ele><time>2026-03-27T08:30:37Z</time></trkpt><trkpt lat="44.74517681020481" lon="2.4217624991054088"><ele>664.0</ele><time>2026-03-27T08:30:38Z</time></trkpt><trkpt lat="44.745272104637266" lon="2.421745197707448"><ele>664.1666666666667</ele><time>2026-03-27T08:30:39Z</time></trkpt><trkpt lat="44.74535509246991" lon="2.421723138577584"><ele>664.3333333333334</ele><time>2026-03-27T08:30:40Z</time></trkpt><trkpt lat="44.74542976743716" lon="2.421720346889773"><ele>664.5</ele><time>2026-03-27T08:30:41Z</time></trkpt><trkpt lat="44.745506570043666" lon="2.4217016122252764"><ele>664.6666666666666</ele><time>2026-03-27T08:30:42Z</time></trkpt><trkpt lat="44.74557108310603" lon="2.4216992405140525"><ele>664.8333333333333</ele><time>2026-03-27T08:30:43Z</time></trkpt><trkpt lat="44.74563366138501" lon="2.421677486658299"><ele>665.0</ele><time>2026-03-27T08:30:44Z</time></trkpt><trkpt lat="44.745772607465646" lon="2.4216547329076845"><ele>665.0</ele><time>2026-03-27T08:30:46Z</time></trkpt><trkpt lat="44.74585711780686" lon="2.421652604596175"><ele>665.0</ele><time>2026-03-27T08:30:47Z</time></trkpt><trkpt lat="44.745945944538335" lon="2.4216741828242876"><ele>665.0</ele><time>2026-03-27T08:30:47.999Z</time></trkpt><trkpt lat="44.74605670556653" lon="2.4216793585717533"><ele>665.0</ele><time>2026-03-27T08:30:48.999Z</time></trkpt><trkpt lat="44.746157304723404" lon="2.4216512528756415"><ele>665.0</ele><time>2026-03-27T08:30:49.999Z</time></trkpt><trkpt lat="44.74627796049336" lon="2.42166224897567"><ele>665.1666666666666</ele><time>2026-03-27T08:30:51.999Z</time></trkpt><trkpt lat="44.74637033492621" lon="2.421652747496742"><ele>665.3333333333333</ele><time>2026-03-27T08:30:52.999Z</time></trkpt><trkpt lat="44.746447756849925" lon="2.4216380352674345"><ele>665.5</ele><time>2026-03-27T08:30:53.999Z</time></trkpt><trkpt lat="44.746543637773236" lon="2.421627639436808"><ele>665.6666666666666</ele><time>2026-03-27T08:30:54.999Z</time></trkpt><trkpt lat="44.746638875155064" lon="2.421591411964403"><ele>665.8333333333334</ele><time>2026-03-27T08:30:55.999Z</time></trkpt><trkpt lat="44.74670932065612" lon="2.4215486210004675"><ele>666.0</ele><time>2026-03-27T08:30:56.999Z</time></trkpt><trkpt lat="44.74675896955079" lon="2.4214587002872228"><ele>666.0</ele><time>2026-03-27T08:30:58.999Z</time></trkpt><trkpt lat="44.746814768320974" lon="2.421403443526629"><ele>666.0</ele><time>2026-03-27T08:31:27.999Z</time></trkpt><trkpt lat="44.74685328819479" lon="2.42133023059135"><ele>666.0</ele><time>2026-03-27T08:31:29.999Z</time></trkpt><trkpt lat="44.74688977908638" lon="2.421230888610162"><ele>666.0</ele><time>2026-03-27T08:31:32.999Z</time></trkpt><trkpt lat="44.74694013940512" lon="2.421141866627327"><ele>666.0</ele><time>2026-03-27T08:31:36.999Z</time></trkpt><trkpt lat="44.746957845345335" lon="2.4212326878934642"><ele>666.0</ele><time>2026-03-27T08:31:44.999Z</time></trkpt><trkpt lat="44.74692323806053" lon="2.421349755772551"><ele>667.5999999999999</ele><time>2026-03-27T08:31:57.999Z</time></trkpt><trkpt lat="44.746904015396225" lon="2.4214404069233493"><ele>669.2</ele><time>2026-03-27T08:31:59.999Z</time></trkpt><trkpt lat="44.74696692766982" lon="2.42170545259698"><ele>670.8</ele><time>2026-03-27T08:32:08.998Z</time></trkpt><trkpt lat="44.747005941202694" lon="2.4217847279692974"><ele>672.4000000000001</ele><time>2026-03-27T08:32:12.998Z</time></trkpt><trkpt lat="44.74700074301837" lon="2.4219027480184403"><ele>674.0</ele><time>2026-03-27T08:32:17.998Z</time></trkpt><trkpt lat="44.74699513283123" lon="2.4220254383797273"><ele>674.0000000000001</ele><time>2026-03-27T08:32:19.998Z</time></trkpt><trkpt lat="44.747003510688046" lon="2.4221192779018024"><ele>674.0</ele><time>2026-03-27T08:32:22.998Z</time></trkpt><trkpt lat="44.74701092059093" lon="2.422224216100276"><ele>674.0</ele><time>2026-03-27T08:32:24.998Z</time></trkpt><trkpt lat="44.74704747297353" lon="2.422326518757402"><ele>674.0</ele><time>2026-03-27T08:32:28.998Z</time></trkpt><trkpt lat="44.747088010653165" lon="2.4224121370301774"><ele>674.0</ele><time>2026-03-27T08:32:31.998Z</time></trkpt><trkpt lat="44.747127968897225" lon="2.422486574619431"><ele>674.0000000000001</ele><time>2026-03-27T08:32:33.998Z</time></trkpt><trkpt lat="44.74716789342631" lon="2.4225635345257217"><ele>674.0</ele><time>2026-03-27T08:32:44Z</time></trkpt><trkpt lat="44.747212898515784" lon="2.4226306841733467"><ele>673.1666666666666</ele><time>2026-03-27T08:32:46Z</time></trkpt><trkpt lat="44.74727465113767" lon="2.4227022624867423"><ele>672.3333333333333</ele><time>2026-03-27T08:32:50Z</time></trkpt><trkpt lat="44.74733136794533" lon="2.422758662064375"><ele>671.5</ele><time>2026-03-27T08:32:53.999Z</time></trkpt><trkpt lat="44.747380116999025" lon="2.42285841041766"><ele>670.6666666666666</ele><time>2026-03-27T08:32:56.999Z</time></trkpt><trkpt lat="44.74745154203448" lon="2.422830038604189"><ele>669.8333333333334</ele><time>2026-03-27T08:32:59.999Z</time></trkpt><trkpt lat="44.747547394458415" lon="2.4228529731535406"><ele>669.0</ele><time>2026-03-27T08:33:01.999Z</time></trkpt><trkpt lat="44.74764962584388" lon="2.4228597843975583"><ele>670.1666666666666</ele><time>2026-03-27T08:33:04.999Z</time></trkpt><trkpt lat="44.74773595806947" lon="2.4228621289655203"><ele>671.3333333333334</ele><time>2026-03-27T08:33:07.999Z</time></trkpt><trkpt lat="44.747832657182315" lon="2.422849680630301"><ele>672.5</ele><time>2026-03-27T08:33:10.998Z</time></trkpt><trkpt lat="44.74790004362864" lon="2.422876179605268"><ele>673.6666666666667</ele><time>2026-03-27T08:33:12.998Z</time></trkpt><trkpt lat="44.74797218654355" lon="2.4229026639471027"><ele>674.8333333333334</ele><time>2026-03-27T08:33:15.998Z</time></trkpt><trkpt lat="44.74806483725447" lon="2.4229250665874975"><ele>676.0</ele><time>2026-03-27T08:33:22.998Z</time></trkpt><trkpt lat="44.74815109049436" lon="2.422906291932391"><ele>676.0</ele><time>2026-03-27T08:33:26.998Z</time></trkpt><trkpt lat="44.74821866474869" lon="2.422905800665364"><ele>676.0</ele><time>2026-03-27T08:33:28.998Z</time></trkpt><trkpt lat="44.748298434690035" lon="2.4228817573464183"><ele>676.0</ele><time>2026-03-27T08:33:31.998Z</time></trkpt><trkpt lat="44.74838479098604" lon="2.4229219830007156"><ele>676.0</ele><time>2026-03-27T08:33:33.998Z</time></trkpt><trkpt lat="44.74842892318996" lon="2.423012416060343"><ele>676.0</ele><time>2026-03-27T08:33:36.998Z</time></trkpt><trkpt lat="44.74842136091151" lon="2.423115263107049"><ele>676.0</ele><time>2026-03-27T08:33:39.998Z</time></trkpt><trkpt lat="44.748402101549885" lon="2.423247408996836"><ele>676.3333333333334</ele><time>2026-03-27T08:33:41.998Z</time></trkpt><trkpt lat="44.748460387214585" lon="2.423380952201031"><ele>676.6666666666667</ele><time>2026-03-27T08:33:44.998Z</time></trkpt><trkpt lat="44.74847878117728" lon="2.4234939257817736"><ele>677.0</ele><time>2026-03-27T08:33:46.998Z</time></trkpt><trkpt lat="44.74847821178449" lon="2.4236391341512746"><ele>677.3333333333334</ele><time>2026-03-27T08:33:48.998Z</time></trkpt><trkpt lat="44.74850858693146" lon="2.4237194690064463"><ele>677.6666666666666</ele><time>2026-03-27T08:33:50.998Z</time></trkpt><trkpt lat="44.74847592291991" lon="2.423809169440114"><ele>678.0</ele><time>2026-03-27T08:33:54.998Z</time></trkpt><trkpt lat="44.748410790017225" lon="2.4238370409741843"><ele>679.6666666666666</ele><time>2026-03-27T08:33:57.998Z</time></trkpt><trkpt lat="44.748327164003086" lon="2.4238754116118404"><ele>681.3333333333334</ele><time>2026-03-27T08:34:00.998Z</time></trkpt><trkpt lat="44.74825188550343" lon="2.4238830342819058"><ele>683.0</ele><time>2026-03-27T08:34:02.998Z</time></trkpt><trkpt lat="44.74818138128446" lon="2.4238961962926"><ele>684.6666666666667</ele><time>2026-03-27T08:34:05.997Z</time></trkpt><trkpt lat="44.74808888499496" lon="2.4238943417444796"><ele>686.3333333333334</ele><time>2026-03-27T08:34:08.997Z</time></trkpt><trkpt lat="44.7479834920405" lon="2.423901880038213"><ele>688.0</ele><time>2026-03-27T08:34:11.997Z</time></trkpt><trkpt lat="44.74790186970438" lon="2.4238811024002604"><ele>688.0</ele><time>2026-03-27T08:34:13.997Z</time></trkpt><trkpt lat="44.74783463792286" lon="2.4238793784091377"><ele>688.0</ele><time>2026-03-27T08:34:15.997Z</time></trkpt><trkpt lat="44.747739836186234" lon="2.4238229086370695"><ele>688.0</ele><time>2026-03-27T08:34:18.997Z</time></trkpt><trkpt lat="44.74726015788677" lon="2.423685951425012"><ele>688.5</ele><time>2026-03-27T08:34:21.998Z</time></trkpt><trkpt lat="44.747188008247015" lon="2.4236198803385647"><ele>689.0</ele><time>2026-03-27T08:34:24.998Z</time></trkpt><trkpt lat="44.74711920351988" lon="2.423570640561154"><ele>689.5</ele><time>2026-03-27T08:34:26.998Z</time></trkpt><trkpt lat="44.747057281507786" lon="2.42350112502894"><ele>690.0</ele><time>2026-03-27T08:34:29.998Z</time></trkpt><trkpt lat="44.746994473206264" lon="2.4234627235891386"><ele>690.5</ele><time>2026-03-27T08:34:34.998Z</time></trkpt><trkpt lat="44.74690902246458" lon="2.4234348679514697"><ele>691.0</ele><time>2026-03-27T08:34:37.998Z</time></trkpt><trkpt lat="44.74684987995419" lon="2.4233968691144643"><ele>691.0</ele><time>2026-03-27T08:34:39.998Z</time></trkpt><trkpt lat="44.74678110076523" lon="2.4233926420169207"><ele>691.0</ele><time>2026-03-27T08:34:42.999Z</time></trkpt><trkpt lat="44.746881161115574" lon="2.4234524650245377"><ele>691.0</ele><time>2026-03-27T08:34:43.999Z</time></trkpt><trkpt lat="44.74680260001207" lon="2.4234105092965295"><ele>691.0</ele><time>2026-03-27T08:34:46.999Z</time></trkpt><trkpt lat="44.74672535304144" lon="2.4233616823230477"><ele>691.0</ele><time>2026-03-27T08:34:49.999Z</time></trkpt><trkpt lat="44.746649430982345" lon="2.4233384931932793"><ele>691.0</ele><time>2026-03-27T08:34:51.999Z</time></trkpt><trkpt lat="44.74657768177961" lon="2.423278210347941"><ele>690.9999999999999</ele><time>2026-03-27T08:34:53.999Z</time></trkpt><trkpt lat="44.74650929568769" lon="2.4232260659949185"><ele>691.0</ele><time>2026-03-27T08:34:56.999Z</time></trkpt><trkpt lat="44.74646416352022" lon="2.4231598470055533"><ele>691.0</ele><time>2026-03-27T08:34:58.999Z</time></trkpt><trkpt lat="44.74641825978865" lon="2.4230645839220557"><ele>691.0</ele><time>2026-03-27T08:35:01.999Z</time></trkpt><trkpt lat="44.74639525371555" lon="2.422980497076653"><ele>691.0</ele><time>2026-03-27T08:35:03.999Z</time></trkpt><trkpt lat="44.746373452716895" lon="2.42289119613383"><ele>690.9999999999999</ele><time>2026-03-27T08:35:07.999Z</time></trkpt><trkpt lat="44.746337506656815" lon="2.4228126713654525"><ele>691.0</ele><time>2026-03-27T08:35:10.999Z</time></trkpt><trkpt lat="44.74629564011414" lon="2.4227148503376004"><ele>688.0</ele><time>2026-03-27T08:35:13.999Z</time></trkpt><trkpt lat="44.746262521877824" lon="2.42263710708349"><ele>685.0</ele><time>2026-03-27T08:35:16.999Z</time></trkpt><trkpt lat="44.746229560966476" lon="2.4225412132485302"><ele>682.0</ele><time>2026-03-27T08:35:19.999Z</time></trkpt><trkpt lat="44.7461324465165" lon="2.4225170422732103"><ele>679.0</ele><time>2026-03-27T08:35:22.999Z</time></trkpt><trkpt lat="44.746051893744806" lon="2.4225055552526054"><ele>676.0</ele><time>2026-03-27T08:35:24.999Z</time></trkpt><trkpt lat="44.74597182012169" lon="2.422511742605749"><ele>673.0</ele><time>2026-03-27T08:35:26.999Z</time></trkpt><trkpt lat="44.74589587252566" lon="2.422536279988509"><ele>672.3333333333334</ele><time>2026-03-27T08:35:29.999Z</time></trkpt><trkpt lat="44.74580377598113" lon="2.4225521817312248"><ele>671.6666666666667</ele><time>2026-03-27T08:35:31.999Z</time></trkpt><trkpt lat="44.74573468396754" lon="2.42252439573579"><ele>671.0</ele><time>2026-03-27T08:35:33.999Z</time></trkpt><trkpt lat="44.74567544616336" lon="2.4225585875310442"><ele>670.3333333333334</ele><time>2026-03-27T08:35:37.999Z</time></trkpt><trkpt lat="44.74559844607387" lon="2.422610160071047"><ele>669.6666666666666</ele><time>2026-03-27T08:35:40.999Z</time></trkpt><trkpt lat="44.74552880636759" lon="2.4227008998339046"><ele>669.0</ele><time>2026-03-27T08:35:44.999Z</time></trkpt><trkpt lat="44.74543877706658" lon="2.422717337571124"><ele>669.0</ele><time>2026-03-27T08:35:47.999Z</time></trkpt><trkpt lat="44.74537060654049" lon="2.422718074804966"><ele>669.0</ele><time>2026-03-27T08:35:49.999Z</time></trkpt><trkpt lat="44.745287986277454" lon="2.42272976643273"><ele>669.0</ele><time>2026-03-27T08:35:51.999Z</time></trkpt><trkpt lat="44.74521713071286" lon="2.422725252942116"><ele>669.0</ele><time>2026-03-27T08:35:53.999Z</time></trkpt><trkpt lat="44.74511976892341" lon="2.4227855360100903"><ele>669.0</ele><time>2026-03-27T08:35:56.999Z</time></trkpt><trkpt lat="44.74501898240228" lon="2.42280442394378"><ele>669.0</ele><time>2026-03-27T08:35:59.999Z</time></trkpt><trkpt lat="44.74495099259731" lon="2.422855835384921"><ele>668.3333333333334</ele><time>2026-03-27T08:36:01.999Z</time></trkpt><trkpt lat="44.74485760424859" lon="2.422877691854657"><ele>667.6666666666666</ele><time>2026-03-27T08:36:03.999Z</time></trkpt><trkpt lat="44.74478847033946" lon="2.422907474827007"><ele>667.0</ele><time>2026-03-27T08:36:05.998Z</time></trkpt><trkpt lat="44.74470097010922" lon="2.422906424682834"><ele>666.3333333333333</ele><time>2026-03-27T08:36:08.998Z</time></trkpt><trkpt lat="44.74462492759369" lon="2.4229172338416154"><ele>665.6666666666666</ele><time>2026-03-27T08:36:10.998Z</time></trkpt><trkpt lat="44.74456997048748" lon="2.42300314047398"><ele>665.0</ele><time>2026-03-27T08:36:12.998Z</time></trkpt><trkpt lat="44.74450351346912" lon="2.423014552975772"><ele>667.2857142857143</ele><time>2026-03-27T08:36:15.998Z</time></trkpt><trkpt lat="44.744438996813976" lon="2.4230118286899724"><ele>669.5714285714286</ele><time>2026-03-27T08:36:20.998Z</time></trkpt><trkpt lat="44.74439844001474" lon="2.4230830904964202"><ele>671.8571428571429</ele><time>2026-03-27T08:36:22.998Z</time></trkpt><trkpt lat="44.74438110731855" lon="2.423179734824315"><ele>674.1428571428571</ele><time>2026-03-27T08:36:25.998Z</time></trkpt><trkpt lat="44.744406008169705" lon="2.423269935989628"><ele>676.4285714285714</ele><time>2026-03-27T08:36:28.998Z</time></trkpt><trkpt lat="44.74439876424636" lon="2.4233656134455805"><ele>678.7142857142858</ele><time>2026-03-27T08:36:38.998Z</time></trkpt><trkpt lat="44.74444319138384" lon="2.4234416147997004"><ele>681.0</ele><time>2026-03-27T08:36:41.998Z</time></trkpt><trkpt lat="44.74450347971823" lon="2.423494002437389"><ele>681.0000000000001</ele><time>2026-03-27T08:36:44.998Z</time></trkpt><trkpt lat="44.74455884061153" lon="2.4235888845922853"><ele>681.0</ele><time>2026-03-27T08:36:48.999Z</time></trkpt><trkpt lat="44.744625024190704" lon="2.4236523446635916"><ele>681.0</ele><time>2026-03-27T08:36:50.999Z</time></trkpt><trkpt lat="44.74466868304519" lon="2.423725518769266"><ele>681.0</ele><time>2026-03-27T08:36:54.999Z</time></trkpt><trkpt lat="44.74470432201994" lon="2.4238037434740485"><ele>681.0</ele><time>2026-03-27T08:36:58.999Z</time></trkpt><trkpt lat="44.74474180263078" lon="2.4238749568372038"><ele>681.0000000000001</ele><time>2026-03-27T08:37:01.999Z</time></trkpt><trkpt lat="44.7447772382531" lon="2.42395840023499"><ele>681.0</ele><time>2026-03-27T08:37:03.999Z</time></trkpt><trkpt lat="44.74480840542769" lon="2.424081624329188"><ele>683.3333333333334</ele><time>2026-03-27T08:37:06.999Z</time></trkpt><trkpt lat="44.74484200273278" lon="2.424165944571133"><ele>685.6666666666666</ele><time>2026-03-27T08:37:08.999Z</time></trkpt><trkpt lat="44.74491731120041" lon="2.4242335746305934"><ele>688.0</ele><time>2026-03-27T08:37:11.999Z</time></trkpt><trkpt lat="44.74497925134036" lon="2.424326704763929"><ele>690.3333333333333</ele><time>2026-03-27T08:37:14.999Z</time></trkpt><trkpt lat="44.74505117666654" lon="2.424441568728157"><ele>692.6666666666666</ele><time>2026-03-27T08:37:17.999Z</time></trkpt><trkpt lat="44.74510989072646" lon="2.424535427590121"><ele>695.0</ele><time>2026-03-27T08:37:19.999Z</time></trkpt><trkpt lat="44.74515138726872" lon="2.4246816422682294"><ele>695.5714285714287</ele><time>2026-03-27T08:37:21.999Z</time></trkpt><trkpt lat="44.745170855988626" lon="2.4247741945696224"><ele>696.1428571428571</ele><time>2026-03-27T08:37:24.999Z</time></trkpt><trkpt lat="44.74519363071983" lon="2.4248804211297506"><ele>696.7142857142858</ele><time>2026-03-27T08:37:27.999Z</time></trkpt><trkpt lat="44.745215879098076" lon="2.4249669119173274"><ele>697.2857142857143</ele><time>2026-03-27T08:37:29.999Z</time></trkpt><trkpt lat="44.745256921394365" lon="2.425061143766643"><ele>697.8571428571429</ele><time>2026-03-27T08:37:32.999Z</time></trkpt><trkpt lat="44.745264951340125" lon="2.4251556592042944"><ele>698.4285714285714</ele><time>2026-03-27T08:37:35.999Z</time></trkpt><trkpt lat="44.745291196188134" lon="2.4252575932577836"><ele>699.0</ele><time>2026-03-27T08:37:39Z</time></trkpt><trkpt lat="44.74532458160638" lon="2.425350990263194"><ele>700.5</ele><time>2026-03-27T08:37:41Z</time></trkpt><trkpt lat="44.74534144454387" lon="2.425455005924776"><ele>702.0</ele><time>2026-03-27T08:37:43Z</time></trkpt><trkpt lat="44.745379237236385" lon="2.4255483602682766"><ele>703.5</ele><time>2026-03-27T08:37:45Z</time></trkpt><trkpt lat="44.74541978225944" lon="2.4256417535369237"><ele>705.0</ele><time>2026-03-27T08:37:47Z</time></trkpt><trkpt lat="44.74549394593639" lon="2.4256980065871683"><ele>706.5</ele><time>2026-03-27T08:37:49Z</time></trkpt><trkpt lat="44.7455716827089" lon="2.4257156660200874"><ele>708.0</ele><time>2026-03-27T08:37:51Z</time></trkpt><trkpt lat="44.745610366514086" lon="2.4258069259633306"><ele>708.1428571428572</ele><time>2026-03-27T08:37:53Z</time></trkpt><trkpt lat="44.74564904739082" lon="2.42588728378148"><ele>708.2857142857142</ele><time>2026-03-27T08:37:56Z</time></trkpt><trkpt lat="44.745673468358945" lon="2.4259793339181885"><ele>708.4285714285714</ele><time>2026-03-27T08:38:07Z</time></trkpt><trkpt lat="44.74575037036722" lon="2.425991327030859"><ele>708.5714285714287</ele><time>2026-03-27T08:42:54.999Z</time></trkpt><trkpt lat="44.74573799186781" lon="2.4261038410654066"><ele>708.7142857142858</ele><time>2026-03-27T08:42:57.999Z</time></trkpt><trkpt lat="44.7457293947529" lon="2.426195558763954"><ele>708.8571428571429</ele><time>2026-03-27T08:43:10Z</time></trkpt><trkpt lat="44.74574906044053" lon="2.4263096630270193"><ele>709.0</ele><time>2026-03-27T08:43:15.001Z</time></trkpt><trkpt lat="44.74576648040813" lon="2.4263950632044757"><ele>709.0</ele><time>2026-03-27T08:43:17Z</time></trkpt><trkpt lat="44.74578449862821" lon="2.4264829365901455"><ele>709.0</ele><time>2026-03-27T08:43:19Z</time></trkpt><trkpt lat="44.74580203931862" lon="2.4266446863999787"><ele>709.0</ele><time>2026-03-27T08:43:21Z</time></trkpt><trkpt lat="44.74582129806193" lon="2.4267396449338907"><ele>709.0</ele><time>2026-03-27T08:43:22Z</time></trkpt><trkpt lat="44.74584630670377" lon="2.4268554249558227"><ele>709.0</ele><time>2026-03-27T08:43:23Z</time></trkpt><trkpt lat="44.74587221176794" lon="2.4269695849929427"><ele>709.0</ele><time>2026-03-27T08:43:24Z</time></trkpt><trkpt lat="44.74590114784613" lon="2.4270811442907543"><ele>708.5714285714287</ele><time>2026-03-27T08:43:25Z</time></trkpt><trkpt lat="44.745928744704734" lon="2.4271894550168858"><ele>708.1428571428571</ele><time>2026-03-27T08:43:26Z</time></trkpt><trkpt lat="44.7459522650335" lon="2.427287141034217"><ele>707.7142857142858</ele><time>2026-03-27T08:43:27Z</time></trkpt><trkpt lat="44.745980936155384" lon="2.4273815689844236"><ele>707.2857142857143</ele><time>2026-03-27T08:43:28Z</time></trkpt><trkpt lat="44.74601805817835" lon="2.4274746745839457"><ele>706.8571428571429</ele><time>2026-03-27T08:43:29Z</time></trkpt><trkpt lat="44.74605889455769" lon="2.427555775982028"><ele>706.4285714285714</ele><time>2026-03-27T08:43:30Z</time></trkpt><trkpt lat="44.7461006813341" lon="2.427627342210373"><ele>706.0</ele><time>2026-03-27T08:43:31Z</time></trkpt><trkpt lat="44.74615458638" lon="2.4276961428311408"><ele>706.0</ele><time>2026-03-27T08:43:32Z</time></trkpt><trkpt lat="44.74622288114617" lon="2.4277648015324877"><ele>706.0</ele><time>2026-03-27T08:43:33Z</time></trkpt><trkpt lat="44.7463014727507" lon="2.4278155059515742"><ele>706.0</ele><time>2026-03-27T08:43:34Z</time></trkpt><trkpt lat="44.746386747641665" lon="2.427846229626638"><ele>706.0</ele><time>2026-03-27T08:43:35Z</time></trkpt><trkpt lat="44.746466772290276" lon="2.42785608762042"><ele>706.0</ele><time>2026-03-27T08:43:36Z</time></trkpt><trkpt lat="44.746538003356314" lon="2.4278649490493556"><ele>706.0</ele><time>2026-03-27T08:43:37Z</time></trkpt><trkpt lat="44.7465998044461" lon="2.427893065348729"><ele>706.0</ele><time>2026-03-27T08:43:38Z</time></trkpt><trkpt lat="44.74664877722882" lon="2.4279558907970005"><ele>706.0</ele><time>2026-03-27T08:43:39Z</time></trkpt><trkpt lat="44.74670348931623" lon="2.428056842918512"><ele>706.0</ele><time>2026-03-27T08:43:40Z</time></trkpt><trkpt lat="44.746775146991766" lon="2.4281492283531647"><ele>706.0</ele><time>2026-03-27T08:43:41Z</time></trkpt><trkpt lat="44.74684477872749" lon="2.428242922520726"><ele>706.0</ele><time>2026-03-27T08:43:42Z</time></trkpt><trkpt lat="44.74690147333934" lon="2.4283290727999236"><ele>706.0</ele><time>2026-03-27T08:43:43Z</time></trkpt><trkpt lat="44.74696154000403" lon="2.4283860774305563"><ele>707.5999999999999</ele><time>2026-03-27T08:43:44Z</time></trkpt><trkpt lat="44.74704681933563" lon="2.428449938261678"><ele>709.2</ele><time>2026-03-27T08:43:45Z</time></trkpt><trkpt lat="44.7471311352482" lon="2.428507305089874"><ele>710.8</ele><time>2026-03-27T08:43:46Z</time></trkpt><trkpt lat="44.747231161823564" lon="2.42858602771918"><ele>712.4000000000001</ele><time>2026-03-27T08:43:47Z</time></trkpt><trkpt lat="44.74733470418702" lon="2.428654908069958"><ele>714.0</ele><time>2026-03-27T08:43:48Z</time></trkpt><trkpt lat="44.74742251805522" lon="2.4287299862443077"><ele>714.0</ele><time>2026-03-27T08:43:49Z</time></trkpt><trkpt lat="44.747493259474155" lon="2.428808540572593"><ele>714.0</ele><time>2026-03-27T08:43:50Z</time></trkpt><trkpt lat="44.74756716721778" lon="2.4289092626526245"><ele>714.0</ele><time>2026-03-27T08:43:51Z</time></trkpt><trkpt lat="44.74763235910928" lon="2.429010895503157"><ele>714.0</ele><time>2026-03-27T08:43:52Z</time></trkpt><trkpt lat="44.74769095598807" lon="2.429152653447685"><ele>714.0</ele><time>2026-03-27T08:43:53Z</time></trkpt><trkpt lat="44.747774330892895" lon="2.4292872817554034"><ele>715.2</ele><time>2026-03-27T08:43:54Z</time></trkpt><trkpt lat="44.74785556789275" lon="2.429389584664725"><ele>716.4000000000001</ele><time>2026-03-27T08:43:55Z</time></trkpt><trkpt lat="44.747936010475755" lon="2.4294799370233893"><ele>717.6</ele><time>2026-03-27T08:43:56Z</time></trkpt><trkpt lat="44.74800866035913" lon="2.429533897694462"><ele>718.8</ele><time>2026-03-27T08:43:57Z</time></trkpt><trkpt lat="44.74808521848007" lon="2.429569569287976"><ele>720.0</ele><time>2026-03-27T08:43:58Z</time></trkpt><trkpt lat="44.748180743953576" lon="2.429610161848746"><ele>720.0</ele><time>2026-03-27T08:43:59Z</time></trkpt><trkpt lat="44.74827281413041" lon="2.4296624628288526"><ele>720.0</ele><time>2026-03-27T08:44:00Z</time></trkpt><trkpt lat="44.748357356490956" lon="2.4297260428271064"><ele>720.0</ele><time>2026-03-27T08:44:01Z</time></trkpt><trkpt lat="44.74844173631296" lon="2.4298195154438598"><ele>720.0</ele><time>2026-03-27T08:44:02Z</time></trkpt><trkpt lat="44.748509950903745" lon="2.4299205832686854"><ele>720.0</ele><time>2026-03-27T08:44:03Z</time></trkpt><trkpt lat="44.7485463396073" lon="2.430043977446148"><ele>720.0</ele><time>2026-03-27T08:44:04Z</time></trkpt><trkpt lat="44.748562993548624" lon="2.4301815339700856"><ele>720.0</ele><time>2026-03-27T08:44:05Z</time></trkpt><trkpt lat="44.748548077346776" lon="2.430340693597458"><ele>720.0</ele><time>2026-03-27T08:44:06Z</time></trkpt><trkpt lat="44.74853022319919" lon="2.430467050832069"><ele>720.0</ele><time>2026-03-27T08:44:07Z</time></trkpt><trkpt lat="44.74851214423" lon="2.430582397540252"><ele>720.0</ele><time>2026-03-27T08:44:08Z</time></trkpt><trkpt lat="44.74848088278598" lon="2.4306759719457784"><ele>719.6666666666666</ele><time>2026-03-27T08:44:09Z</time></trkpt><trkpt lat="44.7484236271084" lon="2.4307620165475035"><ele>719.3333333333334</ele><time>2026-03-27T08:44:10Z</time></trkpt><trkpt lat="44.74836635156787" lon="2.4308616607935507"><ele>719.0</ele><time>2026-03-27T08:44:11Z</time></trkpt><trkpt lat="44.74831822057637" lon="2.4309285157294664"><ele>718.6666666666667</ele><time>2026-03-27T08:44:12Z</time></trkpt><trkpt lat="44.74829792577417" lon="2.4310331922775603"><ele>718.3333333333334</ele><time>2026-03-27T08:44:14Z</time></trkpt><trkpt lat="44.74835023855762" lon="2.4311506405384096"><ele>718.0</ele><time>2026-03-27T08:44:16Z</time></trkpt><trkpt lat="44.748479096736375" lon="2.4312141789505137"><ele>717.8</ele><time>2026-03-27T08:44:18Z</time></trkpt><trkpt lat="44.7485615900339" lon="2.4312868741944844"><ele>717.5999999999999</ele><time>2026-03-27T08:44:19Z</time></trkpt><trkpt lat="44.748644093229814" lon="2.4314064352556346"><ele>717.4000000000001</ele><time>2026-03-27T08:44:21Z</time></trkpt><trkpt lat="44.748682504785805" lon="2.43152157646556"><ele>717.2</ele><time>2026-03-27T08:44:23Z</time></trkpt><trkpt lat="44.74873357075898" lon="2.4316325585065353"><ele>717.0</ele><time>2026-03-27T08:44:26.999Z</time></trkpt><trkpt lat="44.74879182976622" lon="2.431671572122415"><ele>716.1428571428571</ele><time>2026-03-27T08:44:28.999Z</time></trkpt><trkpt lat="44.74887134628046" lon="2.431699891357251"><ele>715.2857142857142</ele><time>2026-03-27T08:44:30.999Z</time></trkpt><trkpt lat="44.748933835907444" lon="2.4317407831869393"><ele>714.4285714285714</ele><time>2026-03-27T08:44:35.999Z</time></trkpt><trkpt lat="44.74899152593157" lon="2.4318143145111897"><ele>713.5714285714286</ele><time>2026-03-27T08:44:54.999Z</time></trkpt><trkpt lat="44.74903484048458" lon="2.4319058812020176"><ele>712.7142857142857</ele><time>2026-03-27T08:44:59.999Z</time></trkpt><trkpt lat="44.7490663805479" lon="2.431983752669508"><ele>711.8571428571429</ele><time>2026-03-27T08:45:01.999Z</time></trkpt><trkpt lat="44.7490984881442" lon="2.4320665937490333"><ele>711.0</ele><time>2026-03-27T08:45:03.999Z</time></trkpt><trkpt lat="44.749164869958015" lon="2.4321548971440605"><ele>709.6666666666666</ele><time>2026-03-27T08:45:05.999Z</time></trkpt><trkpt lat="44.74917694498435" lon="2.43224377480602"><ele>708.3333333333334</ele><time>2026-03-27T08:45:10Z</time></trkpt><trkpt lat="44.74923231476723" lon="2.4323189458806747"><ele>707.0</ele><time>2026-03-27T08:45:13Z</time></trkpt><trkpt lat="44.74930296034152" lon="2.4323824099049314"><ele>705.6666666666667</ele><time>2026-03-27T08:45:16Z</time></trkpt><trkpt lat="44.74936358749059" lon="2.432461537792655"><ele>704.3333333333334</ele><time>2026-03-27T08:45:19Z</time></trkpt><trkpt lat="44.74946751207914" lon="2.432531072832904"><ele>703.0</ele><time>2026-03-27T08:45:21Z</time></trkpt><trkpt lat="44.74953764472516" lon="2.432620014615849"><ele>702.8333333333334</ele><time>2026-03-27T08:45:23Z</time></trkpt><trkpt lat="44.74959589404015" lon="2.4326645824552617"><ele>702.6666666666667</ele><time>2026-03-27T08:45:25Z</time></trkpt><trkpt lat="44.74966486781757" lon="2.432728243011361"><ele>702.5</ele><time>2026-03-27T08:45:27Z</time></trkpt><trkpt lat="44.74975255390948" lon="2.432793702415426"><ele>702.3333333333334</ele><time>2026-03-27T08:45:29Z</time></trkpt><trkpt lat="44.74983326560526" lon="2.432870564174557"><ele>702.1666666666666</ele><time>2026-03-27T08:45:32Z</time></trkpt><trkpt lat="44.74988081459918" lon="2.4329379004778375"><ele>702.0</ele><time>2026-03-27T08:45:34Z</time></trkpt><trkpt lat="44.74994964903208" lon="2.4330119670989823"><ele>700.3333333333334</ele><time>2026-03-27T08:45:36Z</time></trkpt><trkpt lat="44.7500055343571" lon="2.4330757283111297"><ele>698.6666666666666</ele><time>2026-03-27T08:45:37Z</time></trkpt><trkpt lat="44.750067910768855" lon="2.433126877700611"><ele>697.0</ele><time>2026-03-27T08:45:38Z</time></trkpt><trkpt lat="44.7501662755156" lon="2.4332378690355783"><ele>695.3333333333333</ele><time>2026-03-27T08:45:40Z</time></trkpt><trkpt lat="44.750200701050225" lon="2.4333204036625955"><ele>693.6666666666666</ele><time>2026-03-27T08:45:42Z</time></trkpt><trkpt lat="44.75027679834855" lon="2.433399600126471"><ele>692.0</ele><time>2026-03-27T08:45:45Z</time></trkpt><trkpt lat="44.750321760139606" lon="2.4334845583334683"><ele>689.0</ele><time>2026-03-27T08:45:47Z</time></trkpt><trkpt lat="44.75036978148194" lon="2.4335691410046203"><ele>686.0</ele><time>2026-03-27T08:45:49Z</time></trkpt><trkpt lat="44.750426156873345" lon="2.4336661696675566"><ele>683.0</ele><time>2026-03-27T08:45:51Z</time></trkpt><trkpt lat="44.75048035279839" lon="2.4337362191572294"><ele>680.0</ele><time>2026-03-27T08:45:54Z</time></trkpt><trkpt lat="44.75053436105035" lon="2.4337979275550423"><ele>677.0</ele><time>2026-03-27T08:45:57Z</time></trkpt><trkpt lat="44.75062232310729" lon="2.4338558620080732"><ele>674.0</ele><time>2026-03-27T08:46:01Z</time></trkpt><trkpt lat="44.7506352750161" lon="2.433965874915549"><ele>673.2</ele><time>2026-03-27T08:46:31Z</time></trkpt><trkpt lat="44.750718595243725" lon="2.434064157145091"><ele>672.4000000000001</ele><time>2026-03-27T08:46:33Z</time></trkpt><trkpt lat="44.75077028688563" lon="2.4341615457226378"><ele>671.6</ele><time>2026-03-27T08:46:34.999Z</time></trkpt><trkpt lat="44.750815308053674" lon="2.4343056007929498"><ele>670.8</ele><time>2026-03-27T08:46:36.999Z</time></trkpt><trkpt lat="44.750930107589724" lon="2.4343123673172227"><ele>670.0</ele><time>2026-03-27T08:46:40.999Z</time></trkpt><trkpt lat="44.75098440991966" lon="2.4342644676237275"><ele>668.4</ele><time>2026-03-27T08:46:41.999Z</time></trkpt><trkpt lat="44.75106666008133" lon="2.4341999332813455"><ele>666.8</ele><time>2026-03-27T08:46:43.999Z</time></trkpt><trkpt lat="44.75112979557657" lon="2.43412743404676"><ele>665.2</ele><time>2026-03-27T08:46:45.999Z</time></trkpt><trkpt lat="44.75119186511979" lon="2.4342197738272486"><ele>663.6</ele><time>2026-03-27T08:46:48.999Z</time></trkpt><trkpt lat="44.751303779354544" lon="2.4343066582395716"><ele>662.0</ele><time>2026-03-27T08:46:49.999Z</time></trkpt><trkpt lat="44.751376480902934" lon="2.4343767596891372"><ele>662.0</ele><time>2026-03-27T08:46:50.999Z</time></trkpt><trkpt lat="44.751451875293206" lon="2.4344651650429396"><ele>662.0</ele><time>2026-03-27T08:46:51.999Z</time></trkpt><trkpt lat="44.7514964894282" lon="2.4345650338602254"><ele>662.0</ele><time>2026-03-27T08:46:52.999Z</time></trkpt><trkpt lat="44.75154493147784" lon="2.4346521777187493"><ele>662.0</ele><time>2026-03-27T08:46:53.999Z</time></trkpt><trkpt lat="44.751590770057" lon="2.4347618997922695"><ele>662.0</ele><time>2026-03-27T08:46:54.999Z</time></trkpt><trkpt lat="44.7516408936482" lon="2.4348619814732966"><ele>662.0</ele><time>2026-03-27T08:46:55.999Z</time></trkpt><trkpt lat="44.751635586152915" lon="2.4349710379868568"><ele>661.5</ele><time>2026-03-27T08:46:56.999Z</time></trkpt><trkpt lat="44.751680630726796" lon="2.4350535486958016"><ele>661.0</ele><time>2026-03-27T08:46:57.999Z</time></trkpt><trkpt lat="44.75167300582891" lon="2.435144000102398"><ele>660.5</ele><time>2026-03-27T08:46:58.999Z</time></trkpt><trkpt lat="44.751681631107694" lon="2.435277966015391"><ele>660.0</ele><time>2026-03-27T08:46:59.999Z</time></trkpt><trkpt lat="44.75167964168121" lon="2.435401808804277"><ele>659.5</ele><time>2026-03-27T08:47:01.999Z</time></trkpt><trkpt lat="44.751759536663805" lon="2.43553809497177"><ele>659.0</ele><time>2026-03-27T08:47:03.999Z</time></trkpt><trkpt lat="44.75182201279054" lon="2.435694518035987"><ele>656.4000000000001</ele><time>2026-03-27T08:47:05.999Z</time></trkpt><trkpt lat="44.751891661584814" lon="2.435818888727514"><ele>653.8</ele><time>2026-03-27T08:47:06.999Z</time></trkpt><trkpt lat="44.751947768610144" lon="2.435936797597699"><ele>651.2</ele><time>2026-03-27T08:47:07.999Z</time></trkpt><trkpt lat="44.75199765235717" lon="2.436048701354202"><ele>648.5999999999999</ele><time>2026-03-27T08:47:08.999Z</time></trkpt><trkpt lat="44.75207529056334" lon="2.4361588416270252"><ele>646.0</ele><time>2026-03-27T08:47:09.999Z</time></trkpt><trkpt lat="44.75210849460801" lon="2.4362894886781636"><ele>645.6666666666667</ele><time>2026-03-27T08:47:10.999Z</time></trkpt><trkpt lat="44.75209494647588" lon="2.4364024884823454"><ele>645.3333333333334</ele><time>2026-03-27T08:47:11.999Z</time></trkpt><trkpt lat="44.752083823575035" lon="2.436513584383694"><ele>645.0</ele><time>2026-03-27T08:47:12.999Z</time></trkpt><trkpt lat="44.75209180982023" lon="2.4366323249381887"><ele>644.6666666666666</ele><time>2026-03-27T08:47:13.999Z</time></trkpt><trkpt lat="44.75209036833235" lon="2.4367228236036023"><ele>644.3333333333333</ele><time>2026-03-27T08:47:15Z</time></trkpt><trkpt lat="44.75206157362422" lon="2.4368054847242515"><ele>644.0</ele><time>2026-03-27T08:47:16Z</time></trkpt><trkpt lat="44.752029537827426" lon="2.436959575116168"><ele>644.0</ele><time>2026-03-27T08:47:18Z</time></trkpt><trkpt lat="44.75196361882672" lon="2.4370981286727993"><ele>644.0</ele><time>2026-03-27T08:47:20Z</time></trkpt><trkpt lat="44.751905874338895" lon="2.437214041428712"><ele>644.0</ele><time>2026-03-27T08:47:22Z</time></trkpt><trkpt lat="44.75189053092939" lon="2.437300215601643"><ele>644.0</ele><time>2026-03-27T08:50:17Z</time></trkpt><trkpt lat="44.75184631811079" lon="2.437368366853569"><ele>644.0</ele><time>2026-03-27T08:50:24Z</time></trkpt><trkpt lat="44.75177746697789" lon="2.437410859028959"><ele>644.0</ele><time>2026-03-27T08:50:28Z</time></trkpt><trkpt lat="44.751714340706386" lon="2.437466474038155"><ele>643.0</ele><time>2026-03-27T08:50:33Z</time></trkpt><trkpt lat="44.75167055308889" lon="2.437540753700885"><ele>642.0</ele><time>2026-03-27T08:50:36.999Z</time></trkpt><trkpt lat="44.75164764575334" lon="2.4376413340093106"><ele>641.0</ele><time>2026-03-27T08:50:39.999Z</time></trkpt><trkpt lat="44.751649309705876" lon="2.437750947590197"><ele>640.0</ele><time>2026-03-27T08:50:42.999Z</time></trkpt><trkpt lat="44.75166805699698" lon="2.437847056053688"><ele>639.0</ele><time>2026-03-27T08:50:45.999Z</time></trkpt><trkpt lat="44.7516459100555" lon="2.4379955280841625"><ele>638.0</ele><time>2026-03-27T08:50:48.999Z</time></trkpt><trkpt lat="44.75166895428026" lon="2.438092285089137"><ele>637.7142857142858</ele><time>2026-03-27T08:50:50.999Z</time></trkpt><trkpt lat="44.75172135350564" lon="2.438147629594565"><ele>637.4285714285713</ele><time>2026-03-27T08:50:51.999Z</time></trkpt><trkpt lat="44.7517583905405" lon="2.438261674675856"><ele>637.1428571428571</ele><time>2026-03-27T08:50:53.999Z</time></trkpt><trkpt lat="44.75177669419887" lon="2.4383799718167003"><ele>636.8571428571429</ele><time>2026-03-27T08:50:55.999Z</time></trkpt><trkpt lat="44.751790330447776" lon="2.438473167968706"><ele>636.5714285714287</ele><time>2026-03-27T08:50:56.999Z</time></trkpt><trkpt lat="44.751801590153384" lon="2.4385645559441778"><ele>636.2857142857142</ele><time>2026-03-27T08:50:57.999Z</time></trkpt><trkpt lat="44.7517931484667" lon="2.4386553617687943"><ele>636.0</ele><time>2026-03-27T08:50:58.999Z</time></trkpt><trkpt lat="44.75181907298797" lon="2.4388290071839047"><ele>636.0</ele><time>2026-03-27T08:51:00.999Z</time></trkpt><trkpt lat="44.75182628171699" lon="2.438938980778546"><ele>636.0</ele><time>2026-03-27T08:51:02.999Z</time></trkpt><trkpt lat="44.751828712276556" lon="2.4390316996861237"><ele>636.0</ele><time>2026-03-27T08:51:03.999Z</time></trkpt><trkpt lat="44.751826364359225" lon="2.4391285254957187"><ele>636.0</ele><time>2026-03-27T08:51:06.999Z</time></trkpt><trkpt lat="44.751830726422135" lon="2.439246370053256"><ele>636.0</ele><time>2026-03-27T08:51:09.999Z</time></trkpt><trkpt lat="44.751828545519146" lon="2.439382228229387"><ele>636.0</ele><time>2026-03-27T08:51:12.999Z</time></trkpt><trkpt lat="44.75181446325208" lon="2.4395599554855876"><ele>636.0</ele><time>2026-03-27T08:51:14.999Z</time></trkpt><trkpt lat="44.75181960695038" lon="2.439682836228533"><ele>636.0</ele><time>2026-03-27T08:51:15.999Z</time></trkpt><trkpt lat="44.751824266959716" lon="2.4397913584277746"><ele>636.0</ele><time>2026-03-27T08:51:16.999Z</time></trkpt><trkpt lat="44.75184158593197" lon="2.439967281520757"><ele>636.0</ele><time>2026-03-27T08:51:18.999Z</time></trkpt><trkpt lat="44.751868414671364" lon="2.440059191770145"><ele>636.0</ele><time>2026-03-27T08:51:19.999Z</time></trkpt><trkpt lat="44.75193642219613" lon="2.440241307783108"><ele>633.8333333333334</ele><time>2026-03-27T08:51:21.999Z</time></trkpt><trkpt lat="44.751975800426926" lon="2.440342879823723"><ele>631.6666666666666</ele><time>2026-03-27T08:51:22.999Z</time></trkpt><trkpt lat="44.752025119706815" lon="2.440438722769695"><ele>629.5</ele><time>2026-03-27T08:51:23.999Z</time></trkpt><trkpt lat="44.75207812280005" lon="2.4405177893836916"><ele>627.3333333333333</ele><time>2026-03-27T08:51:24.999Z</time></trkpt><trkpt lat="44.752139809619806" lon="2.440640740044877"><ele>625.1666666666666</ele><time>2026-03-27T08:51:27Z</time></trkpt><trkpt lat="44.75220742931746" lon="2.4406680826022225"><ele>623.0</ele><time>2026-03-27T08:51:31Z</time></trkpt><trkpt lat="44.752290621359165" lon="2.440616107072867"><ele>621.4</ele><time>2026-03-27T08:51:34Z</time></trkpt><trkpt lat="44.75240553676618" lon="2.4406475631024622"><ele>619.8</ele><time>2026-03-27T08:51:36Z</time></trkpt><trkpt lat="44.752511893973036" lon="2.440676348517581"><ele>618.2</ele><time>2026-03-27T08:51:37Z</time></trkpt><trkpt lat="44.75258819318162" lon="2.4407029323332954"><ele>616.6</ele><time>2026-03-27T08:51:38Z</time></trkpt><trkpt lat="44.752673545120324" lon="2.4407488832106763"><ele>615.0</ele><time>2026-03-27T08:51:40Z</time></trkpt><trkpt lat="44.75274113733524" lon="2.440756259251875"><ele>618.0</ele><time>2026-03-27T08:51:42Z</time></trkpt><trkpt lat="44.75280769469997" lon="2.4407199756753495"><ele>621.0</ele><time>2026-03-27T08:51:44Z</time></trkpt><trkpt lat="44.75287341914559" lon="2.4407081749960087"><ele>624.0</ele><time>2026-03-27T08:51:46Z</time></trkpt><trkpt lat="44.75298169839463" lon="2.4406944192616913"><ele>627.0</ele><time>2026-03-27T08:51:48Z</time></trkpt><trkpt lat="44.75307768334413" lon="2.4406884786823904"><ele>630.0</ele><time>2026-03-27T08:51:50Z</time></trkpt><trkpt lat="44.75314321322286" lon="2.440688433965607"><ele>633.0</ele><time>2026-03-27T08:51:52Z</time></trkpt><trkpt lat="44.753223824277605" lon="2.4407016825235295"><ele>633.0</ele><time>2026-03-27T08:51:55Z</time></trkpt><trkpt lat="44.75328339372902" lon="2.440664829049767"><ele>633.0</ele><time>2026-03-27T08:51:57Z</time></trkpt><trkpt lat="44.75331719420423" lon="2.440583484428096"><ele>633.0</ele><time>2026-03-27T08:51:59Z</time></trkpt><trkpt lat="44.753255092546695" lon="2.4404721759420602"><ele>633.0</ele><time>2026-03-27T08:52:01Z</time></trkpt><trkpt lat="44.75313824814617" lon="2.4403922608072586"><ele>633.0</ele><time>2026-03-27T08:52:03Z</time></trkpt><trkpt lat="44.75304681118204" lon="2.4403264538149583"><ele>634.8</ele><time>2026-03-27T08:52:05Z</time></trkpt><trkpt lat="44.752985583195446" lon="2.440209209927077"><ele>636.5999999999999</ele><time>2026-03-27T08:52:07Z</time></trkpt><trkpt lat="44.75296489411859" lon="2.440034598048375"><ele>638.4000000000001</ele><time>2026-03-27T08:52:09Z</time></trkpt><trkpt lat="44.75294088364079" lon="2.4398980496053237"><ele>640.2</ele><time>2026-03-27T08:52:10Z</time></trkpt><trkpt lat="44.75293130054594" lon="2.43980256684475"><ele>642.0</ele><time>2026-03-27T08:52:11Z</time></trkpt><trkpt lat="44.75291798852831" lon="2.4396998386890187"><ele>645.0</ele><time>2026-03-27T08:52:12Z</time></trkpt><trkpt lat="44.75293006204267" lon="2.439529157186894"><ele>648.0</ele><time>2026-03-27T08:52:14Z</time></trkpt><trkpt lat="44.75291030331778" lon="2.4393870381216503"><ele>651.0</ele><time>2026-03-27T08:52:16Z</time></trkpt><trkpt lat="44.752853206133906" lon="2.439238324747941"><ele>654.0</ele><time>2026-03-27T08:52:18Z</time></trkpt><trkpt lat="44.75283630288233" lon="2.439144894111198"><ele>657.0</ele><time>2026-03-27T08:52:19Z</time></trkpt><trkpt lat="44.752812359255266" lon="2.439054265697098"><ele>657.0</ele><time>2026-03-27T08:52:20Z</time></trkpt><trkpt lat="44.752770291366396" lon="2.4388871220415433"><ele>657.0</ele><time>2026-03-27T08:52:21Z</time></trkpt><trkpt lat="44.75272634227569" lon="2.4387112005334117"><ele>657.0</ele><time>2026-03-27T08:52:22Z</time></trkpt><trkpt lat="44.75267535053832" lon="2.438551434125567"><ele>657.0</ele><time>2026-03-27T08:52:23Z</time></trkpt><trkpt lat="44.75260570943975" lon="2.4384040858606597"><ele>654.8</ele><time>2026-03-27T08:52:24Z</time></trkpt><trkpt lat="44.75253928645906" lon="2.438300544558112"><ele>652.6</ele><time>2026-03-27T08:52:25Z</time></trkpt><trkpt lat="44.7525137681888" lon="2.4382060267542602"><ele>650.4</ele><time>2026-03-27T08:52:26Z</time></trkpt><trkpt lat="44.75251651646796" lon="2.4380388299940186"><ele>648.1999999999999</ele><time>2026-03-27T08:52:28Z</time></trkpt><trkpt lat="44.75257353907854" lon="2.4378958050441635"><ele>646.0</ele><time>2026-03-27T08:52:30Z</time></trkpt><trkpt lat="44.75259839799552" lon="2.4377716515530676"><ele>645.8</ele><time>2026-03-27T08:52:31Z</time></trkpt><trkpt lat="44.75258564288966" lon="2.437603817772245"><ele>645.5999999999999</ele><time>2026-03-27T08:52:32Z</time></trkpt><trkpt lat="44.75262921483515" lon="2.437480906143732"><ele>645.4</ele><time>2026-03-27T08:52:33Z</time></trkpt><trkpt lat="44.75267742981365" lon="2.43738788422866"><ele>645.2</ele><time>2026-03-27T08:52:34Z</time></trkpt><trkpt lat="44.752752425631435" lon="2.4372887613282117"><ele>645.0</ele><time>2026-03-27T08:52:35Z</time></trkpt><trkpt lat="44.75283558112842" lon="2.4371675815726586"><ele>650.2</ele><time>2026-03-27T08:52:36Z</time></trkpt><trkpt lat="44.75290222134478" lon="2.437030678908479"><ele>655.4</ele><time>2026-03-27T08:52:37Z</time></trkpt><trkpt lat="44.75295940126036" lon="2.4369076289631244"><ele>660.5999999999999</ele><time>2026-03-27T08:52:38Z</time></trkpt><trkpt lat="44.75303593355455" lon="2.436823542790771"><ele>665.8</ele><time>2026-03-27T08:52:39Z</time></trkpt><trkpt lat="44.7530519147935" lon="2.436724824483432"><ele>671.0</ele><time>2026-03-27T08:52:40Z</time></trkpt><trkpt lat="44.75320349713172" lon="2.4365527778534757"><ele>671.0</ele><time>2026-03-27T08:52:46.999Z</time></trkpt><trkpt lat="44.75327614251066" lon="2.4364766965975693"><ele>671.0</ele><time>2026-03-27T08:52:47.999Z</time></trkpt><trkpt lat="44.75334976727392" lon="2.436394335445958"><ele>671.0</ele><time>2026-03-27T08:52:49.999Z</time></trkpt><trkpt lat="44.75340269163994" lon="2.4363389576968095"><ele>671.0</ele><time>2026-03-27T08:52:50.999Z</time></trkpt><trkpt lat="44.75355235041564" lon="2.4362848461712487"><ele>671.0</ele><time>2026-03-27T08:52:52.999Z</time></trkpt><trkpt lat="44.75365138395845" lon="2.4362856279841987"><ele>671.5</ele><time>2026-03-27T08:52:53.999Z</time></trkpt><trkpt lat="44.75378505876137" lon="2.436297470965668"><ele>672.0</ele><time>2026-03-27T08:52:54.999Z</time></trkpt><trkpt lat="44.75387536150515" lon="2.4363213111208153"><ele>672.5</ele><time>2026-03-27T08:52:55.999Z</time></trkpt><trkpt lat="44.753990305405644" lon="2.4363503156803317"><ele>673.0</ele><time>2026-03-27T08:52:56.999Z</time></trkpt><trkpt lat="44.754101848310235" lon="2.4363264523772012"><ele>673.0</ele><time>2026-03-27T08:52:57.999Z</time></trkpt><trkpt lat="44.75419289550449" lon="2.4363531286881033"><ele>673.0</ele><time>2026-03-27T08:52:58.999Z</time></trkpt><trkpt lat="44.754259909589436" lon="2.4363690911656453"><ele>673.0</ele><time>2026-03-27T08:52:59.999Z</time></trkpt><trkpt lat="44.75432802768352" lon="2.4363468192474134"><ele>673.0</ele><time>2026-03-27T08:53:01.999Z</time></trkpt><trkpt lat="44.75435569965763" lon="2.43619089521152"><ele>673.0</ele><time>2026-03-27T08:53:03.999Z</time></trkpt><trkpt lat="44.75437147163491" lon="2.436066881310791"><ele>673.0</ele><time>2026-03-27T08:53:04.999Z</time></trkpt><trkpt lat="44.754370178802574" lon="2.435942838479469"><ele>674.0</ele><time>2026-03-27T08:53:05.999Z</time></trkpt><trkpt lat="44.75439162380498" lon="2.4357808985906275"><ele>675.0</ele><time>2026-03-27T08:53:06.999Z</time></trkpt><trkpt lat="44.754416728667074" lon="2.435627112982531"><ele>676.0</ele><time>2026-03-27T08:53:07.999Z</time></trkpt><trkpt lat="44.75446854962915" lon="2.4354687211880184"><ele>677.0</ele><time>2026-03-27T08:53:08.999Z</time></trkpt><trkpt lat="44.754483615796445" lon="2.4353024791354616"><ele>677.8333333333333</ele><time>2026-03-27T08:53:09.999Z</time></trkpt><trkpt lat="44.754483849903174" lon="2.4351596894665666"><ele>678.6666666666666</ele><time>2026-03-27T08:53:10.999Z</time></trkpt><trkpt lat="44.754478699179266" lon="2.435051455249653"><ele>679.5</ele><time>2026-03-27T08:53:11.999Z</time></trkpt><trkpt lat="44.754484211053715" lon="2.4349346354890655"><ele>680.3333333333334</ele><time>2026-03-27T08:53:12.999Z</time></trkpt><trkpt lat="44.75454721893254" lon="2.4349516468607866"><ele>681.1666666666667</ele><time>2026-03-27T08:53:16.999Z</time></trkpt><trkpt lat="44.75458471295398" lon="2.435102147636507"><ele>682.0</ele><time>2026-03-27T08:53:18.999Z</time></trkpt><trkpt lat="44.75461110095335" lon="2.435206496464108"><ele>682.0</ele><time>2026-03-27T08:53:19.999Z</time></trkpt><trkpt lat="44.75465383126116" lon="2.435306028524168"><ele>682.0</ele><time>2026-03-27T08:53:21.999Z</time></trkpt><trkpt lat="44.75469157860441" lon="2.4353923858140076"><ele>682.0</ele><time>2026-03-27T08:53:23.999Z</time></trkpt><trkpt lat="44.7547646357976" lon="2.43543327333807"><ele>682.0</ele><time>2026-03-27T08:53:25.999Z</time></trkpt><trkpt lat="44.75485185583353" lon="2.4354905993615237"><ele>682.0</ele><time>2026-03-27T08:53:27.999Z</time></trkpt><trkpt lat="44.75490616158364" lon="2.435546896963895"><ele>682.0</ele><time>2026-03-27T08:53:29.999Z</time></trkpt><trkpt lat="44.75496097202543" lon="2.4356072013031937"><ele>681.1666666666667</ele><time>2026-03-27T08:53:32Z</time></trkpt><trkpt lat="44.75503747531658" lon="2.4357129887091213"><ele>680.3333333333334</ele><time>2026-03-27T08:53:34Z</time></trkpt><trkpt lat="44.755091605007046" lon="2.4357859890789384"><ele>679.5</ele><time>2026-03-27T08:53:36Z</time></trkpt><trkpt lat="44.75514045644523" lon="2.435844633622385"><ele>678.6666666666666</ele><time>2026-03-27T08:53:38Z</time></trkpt><trkpt lat="44.75519352955252" lon="2.4359059705207735"><ele>677.8333333333333</ele><time>2026-03-27T08:53:40Z</time></trkpt><trkpt lat="44.75525948674737" lon="2.4359909731313856"><ele>677.0</ele><time>2026-03-27T08:53:42Z</time></trkpt><trkpt lat="44.755339798881785" lon="2.4361227441700493"><ele>675.5</ele><time>2026-03-27T08:53:44Z</time></trkpt><trkpt lat="44.75538807235034" lon="2.436190929582708"><ele>674.0</ele><time>2026-03-27T08:53:45Z</time></trkpt><trkpt lat="44.75545703804181" lon="2.436292911950624"><ele>672.5</ele><time>2026-03-27T08:53:47Z</time></trkpt><trkpt lat="44.75551309545105" lon="2.4363601010205445"><ele>671.0</ele><time>2026-03-27T08:53:49Z</time></trkpt><trkpt lat="44.75556475880301" lon="2.436422899823893"><ele>669.5</ele><time>2026-03-27T08:53:51Z</time></trkpt><trkpt lat="44.755628521244255" lon="2.4364843127503515"><ele>668.0</ele><time>2026-03-27T08:53:54Z</time></trkpt><trkpt lat="44.75567919879839" lon="2.436558470263262"><ele>666.8333333333333</ele><time>2026-03-27T08:53:57Z</time></trkpt><trkpt lat="44.75574977791685" lon="2.436619719188016"><ele>665.6666666666666</ele><time>2026-03-27T08:54:00Z</time></trkpt><trkpt lat="44.75583025866288" lon="2.4366673632752125"><ele>664.5</ele><time>2026-03-27T08:54:03Z</time></trkpt><trkpt lat="44.75588718516899" lon="2.436711508858945"><ele>663.3333333333334</ele><time>2026-03-27T08:54:05Z</time></trkpt><trkpt lat="44.75597355419585" lon="2.4367829744392773"><ele>662.1666666666667</ele><time>2026-03-27T08:54:08Z</time></trkpt><trkpt lat="44.75603512771295" lon="2.436851095410236"><ele>661.0</ele><time>2026-03-27T08:54:12Z</time></trkpt><trkpt lat="44.75610591488888" lon="2.436886427992959"><ele>656.6666666666667</ele><time>2026-03-27T08:54:14Z</time></trkpt><trkpt lat="44.75617750797809" lon="2.4368210993970987"><ele>652.3333333333334</ele><time>2026-03-27T08:54:20Z</time></trkpt><trkpt lat="44.75622685166832" lon="2.4367401018959787"><ele>648.0</ele><time>2026-03-27T08:54:22Z</time></trkpt><trkpt lat="44.75625182703499" lon="2.4366472035506765"><ele>643.6666666666666</ele><time>2026-03-27T08:54:24Z</time></trkpt><trkpt lat="44.75624892636833" lon="2.4365267934299073"><ele>639.3333333333333</ele><time>2026-03-27T08:54:28Z</time></trkpt><trkpt lat="44.75624915541743" lon="2.436396833579428"><ele>635.0</ele><time>2026-03-27T08:54:31Z</time></trkpt><trkpt lat="44.756214995656784" lon="2.4362143764623645"><ele>635.0</ele><time>2026-03-27T08:54:33Z</time></trkpt><trkpt lat="44.75621172741454" lon="2.436107211176971"><ele>635.0</ele><time>2026-03-27T08:54:35Z</time></trkpt><trkpt lat="44.75621518011579" lon="2.4359651772099045"><ele>635.0</ele><time>2026-03-27T08:54:37Z</time></trkpt><trkpt lat="44.75621152314048" lon="2.4358715326671048"><ele>635.0</ele><time>2026-03-27T08:54:38Z</time></trkpt><trkpt lat="44.75617872098555" lon="2.4357704365590624"><ele>635.0</ele><time>2026-03-27T08:54:39Z</time></trkpt><trkpt lat="44.75617356327689" lon="2.4356352272383455"><ele>635.0</ele><time>2026-03-27T08:54:42Z</time></trkpt><trkpt lat="44.756160559358875" lon="2.4354846437911357"><ele>636.6666666666666</ele><time>2026-03-27T08:54:43.999Z</time></trkpt><trkpt lat="44.75614267099737" lon="2.4353584837309894"><ele>638.3333333333333</ele><time>2026-03-27T08:54:44.999Z</time></trkpt><trkpt lat="44.75608918648362" lon="2.4352321836315447"><ele>640.0</ele><time>2026-03-27T08:54:46.999Z</time></trkpt><trkpt lat="44.75607394270333" lon="2.4351001168703372"><ele>641.6666666666666</ele><time>2026-03-27T08:54:49.999Z</time></trkpt><trkpt lat="44.756031450762976" lon="2.435031471705554"><ele>643.3333333333334</ele><time>2026-03-27T08:54:50.999Z</time></trkpt><trkpt lat="44.75605781304668" lon="2.434909633554157"><ele>645.0</ele><time>2026-03-27T08:54:54.999Z</time></trkpt><trkpt lat="44.756233235893106" lon="2.434773358574943"><ele>645.0</ele><time>2026-03-27T08:55:15.999Z</time></trkpt><trkpt lat="44.7563236263504" lon="2.4348453083598485"><ele>645.0</ele><time>2026-03-27T08:55:17.999Z</time></trkpt><trkpt lat="44.75638454455025" lon="2.4349189794587986"><ele>645.0</ele><time>2026-03-27T08:55:19.999Z</time></trkpt><trkpt lat="44.75644723811517" lon="2.435020787518297"><ele>645.0</ele><time>2026-03-27T08:55:21.999Z</time></trkpt><trkpt lat="44.756491333347334" lon="2.4350948147804155"><ele>645.0</ele><time>2026-03-27T08:55:23.999Z</time></trkpt><trkpt lat="44.75653623227032" lon="2.435164350632544"><ele>645.0</ele><time>2026-03-27T08:55:42Z</time></trkpt><trkpt lat="44.75655489564198" lon="2.4352528897962933"><ele>645.0</ele><time>2026-03-27T08:56:00Z</time></trkpt><trkpt lat="44.75659260974956" lon="2.4353329475187353"><ele>645.0</ele><time>2026-03-27T08:56:03Z</time></trkpt><trkpt lat="44.75660458256389" lon="2.4354257279011953"><ele>645.0</ele><time>2026-03-27T08:56:47.999Z</time></trkpt><trkpt lat="44.75663618604154" lon="2.43551364419268"><ele>645.0</ele><time>2026-03-27T08:56:51.999Z</time></trkpt><trkpt lat="44.75668294399789" lon="2.4354204636522856"><ele>645.0</ele><time>2026-03-27T08:57:42.999Z</time></trkpt><trkpt lat="44.75667764989992" lon="2.435320503004918"><ele>645.0</ele><time>2026-03-27T08:57:46Z</time></trkpt><trkpt lat="44.756667123259184" lon="2.4351966257378215"><ele>645.0</ele><time>2026-03-27T08:57:50Z</time></trkpt><trkpt lat="44.756642693117314" lon="2.435100996809587"><ele>645.0</ele><time>2026-03-27T08:57:54Z</time></trkpt><trkpt lat="44.75659770745658" lon="2.4350077711639497"><ele>645.0</ele><time>2026-03-27T08:57:58Z</time></trkpt><trkpt lat="44.756541698789285" lon="2.434938720204387"><ele>645.0</ele><time>2026-03-27T08:58:02Z</time></trkpt><trkpt lat="44.756516574259486" lon="2.4348535061029537"><ele>645.0</ele><time>2026-03-27T08:58:10Z</time></trkpt><trkpt lat="44.75646043935724" lon="2.4347729408718246"><ele>645.0</ele><time>2026-03-27T08:58:15Z</time></trkpt><trkpt lat="44.75650779111279" lon="2.4348430071839604"><ele>645.0</ele><time>2026-03-27T09:04:46Z</time></trkpt><trkpt lat="44.75654742187429" lon="2.4349348132072226"><ele>645.0</ele><time>2026-03-27T09:04:51Z</time></trkpt><trkpt lat="44.75657514178358" lon="2.4350233223437945"><ele>645.0</ele><time>2026-03-27T09:04:54Z</time></trkpt><trkpt lat="44.7566202910366" lon="2.43508973309507"><ele>645.0</ele><time>2026-03-27T09:04:56Z</time></trkpt><trkpt lat="44.756673045769375" lon="2.4351406499491457"><ele>645.0</ele><time>2026-03-27T09:04:59Z</time></trkpt><trkpt lat="44.75673505558252" lon="2.4351753084211785"><ele>645.0</ele><time>2026-03-27T09:05:04Z</time></trkpt><trkpt lat="44.756704886281945" lon="2.435085605341364"><ele>645.0</ele><time>2026-03-27T09:05:11.999Z</time></trkpt><trkpt lat="44.756665418051725" lon="2.4350016006595583"><ele>645.0</ele><time>2026-03-27T09:05:16.999Z</time></trkpt><trkpt lat="44.756585351621894" lon="2.4348679243213125"><ele>645.0</ele><time>2026-03-27T09:05:22.999Z</time></trkpt><trkpt lat="44.75652902852074" lon="2.4348037568663976"><ele>645.0</ele><time>2026-03-27T09:05:23.999Z</time></trkpt><trkpt lat="44.756460961642084" lon="2.434700565552173"><ele>645.0</ele><time>2026-03-27T09:05:26.999Z</time></trkpt><trkpt lat="44.7564047215855" lon="2.4346139667426985"><ele>645.0</ele><time>2026-03-27T09:05:28.999Z</time></trkpt><trkpt lat="44.75636858179029" lon="2.4345351202647803"><ele>645.0</ele><time>2026-03-27T09:05:29.999Z</time></trkpt><trkpt lat="44.7562970642083" lon="2.4344338427446335"><ele>645.0</ele><time>2026-03-27T09:05:31.999Z</time></trkpt><trkpt lat="44.756276091064166" lon="2.434327917776196"><ele>648.0</ele><time>2026-03-27T09:05:36.999Z</time></trkpt><trkpt lat="44.756354860285896" lon="2.4344040340113025"><ele>651.0</ele><time>2026-03-27T09:05:50.999Z</time></trkpt><trkpt lat="44.75628366225514" lon="2.434358035048084"><ele>654.0</ele><time>2026-03-27T09:06:56Z</time></trkpt><trkpt lat="44.75622521785915" lon="2.4342608181892973"><ele>657.0</ele><time>2026-03-27T09:07:03Z</time></trkpt><trkpt lat="44.756179111419485" lon="2.4341837781810463"><ele>660.0</ele><time>2026-03-27T09:07:07Z</time></trkpt><trkpt lat="44.75613997930666" lon="2.4341136553162945"><ele>663.0</ele><time>2026-03-27T09:07:12Z</time></trkpt><trkpt lat="44.75618609436086" lon="2.434035768330828"><ele>663.0</ele><time>2026-03-27T09:11:37.999Z</time></trkpt><trkpt lat="44.75616431108115" lon="2.4339480298166203"><ele>663.0</ele><time>2026-03-27T09:11:43.999Z</time></trkpt><trkpt lat="44.75613763428326" lon="2.4338408796480726"><ele>663.0</ele><time>2026-03-27T09:11:47.999Z</time></trkpt><trkpt lat="44.75623261824763" lon="2.4338595183202143"><ele>663.0</ele><time>2026-03-27T09:11:58.999Z</time></trkpt><trkpt lat="44.75630388574832" lon="2.4339187197942267"><ele>663.0</ele><time>2026-03-27T09:12:02.999Z</time></trkpt><trkpt lat="44.756380509942524" lon="2.4339805954802607"><ele>663.0</ele><time>2026-03-27T09:12:05.999Z</time></trkpt><trkpt lat="44.75647353068523" lon="2.4340309991233715"><ele>663.0</ele><time>2026-03-27T09:12:08.999Z</time></trkpt><trkpt lat="44.756533054192765" lon="2.4340677866221796"><ele>663.0</ele><time>2026-03-27T09:12:11.999Z</time></trkpt><trkpt lat="44.75664603028767" lon="2.4340770889517223"><ele>663.0</ele><time>2026-03-27T09:12:14.999Z</time></trkpt><trkpt lat="44.756722207373805" lon="2.4341173703965815"><ele>663.0</ele><time>2026-03-27T09:12:16.999Z</time></trkpt><trkpt lat="44.75679996878314" lon="2.4341477779543945"><ele>663.0</ele><time>2026-03-27T09:12:19.999Z</time></trkpt><trkpt lat="44.75686070340062" lon="2.434205718048628"><ele>663.0</ele><time>2026-03-27T09:12:22.999Z</time></trkpt><trkpt lat="44.75688875369507" lon="2.434291783514203"><ele>661.8333333333334</ele><time>2026-03-27T09:12:26Z</time></trkpt><trkpt lat="44.75689914000457" lon="2.434412656473316"><ele>660.6666666666666</ele><time>2026-03-27T09:12:29Z</time></trkpt><trkpt lat="44.756961063415226" lon="2.43450958297282"><ele>659.5</ele><time>2026-03-27T09:12:32Z</time></trkpt><trkpt lat="44.75699219955213" lon="2.4346133585259526"><ele>658.3333333333333</ele><time>2026-03-27T09:12:34Z</time></trkpt><trkpt lat="44.75700637641187" lon="2.434702335385947"><ele>657.1666666666666</ele><time>2026-03-27T09:12:36Z</time></trkpt><trkpt lat="44.757003808464944" lon="2.434798433322632"><ele>656.0</ele><time>2026-03-27T09:12:38Z</time></trkpt><trkpt lat="44.75706879803306" lon="2.434742225896585"><ele>656.0</ele><time>2026-03-27T09:12:42Z</time></trkpt><trkpt lat="44.75712736476836" lon="2.434640700617293"><ele>656.0</ele><time>2026-03-27T09:12:46Z</time></trkpt><trkpt lat="44.75726279508416" lon="2.4345451875933515"><ele>656.0</ele><time>2026-03-27T09:12:49Z</time></trkpt><trkpt lat="44.75737988905978" lon="2.4344467841435677"><ele>656.0</ele><time>2026-03-27T09:12:51Z</time></trkpt><trkpt lat="44.75749147950411" lon="2.4343327778585597"><ele>656.0</ele><time>2026-03-27T09:12:53Z</time></trkpt><trkpt lat="44.75744059535067" lon="2.4341560037929004"><ele>656.0</ele><time>2026-03-27T09:13:00Z</time></trkpt><trkpt lat="44.75752157237868" lon="2.43404254498566"><ele>656.0</ele><time>2026-03-27T09:13:02Z</time></trkpt><trkpt lat="44.757591277534914" lon="2.433996104986505"><ele>656.0</ele><time>2026-03-27T09:13:04Z</time></trkpt><trkpt lat="44.75766202825449" lon="2.4339069140560103"><ele>656.0</ele><time>2026-03-27T09:13:06Z</time></trkpt><trkpt lat="44.75772229628537" lon="2.433858319072054"><ele>655.1999999999999</ele><time>2026-03-27T09:13:07Z</time></trkpt><trkpt lat="44.75780550118169" lon="2.43379931321627"><ele>654.4</ele><time>2026-03-27T09:13:08Z</time></trkpt><trkpt lat="44.75785531530109" lon="2.433744475548405"><ele>653.6</ele><time>2026-03-27T09:13:09Z</time></trkpt><trkpt lat="44.758008832615545" lon="2.4337519180342517"><ele>652.8</ele><time>2026-03-27T09:13:10Z</time></trkpt><trkpt lat="44.75807296337996" lon="2.433711121295787"><ele>652.0</ele><time>2026-03-27T09:13:14Z</time></trkpt><trkpt lat="44.758141752242814" lon="2.433636750239577"><ele>652.0</ele><time>2026-03-27T09:13:18Z</time></trkpt><trkpt lat="44.75818137631657" lon="2.433565035661879"><ele>652.0</ele><time>2026-03-27T09:13:35.999Z</time></trkpt><trkpt lat="44.75833231275624" lon="2.4335148096891954"><ele>652.0</ele><time>2026-03-27T09:13:40.999Z</time></trkpt><trkpt lat="44.75839359801437" lon="2.433385846062731"><ele>652.0</ele><time>2026-03-27T09:13:46.999Z</time></trkpt><trkpt lat="44.758441469709986" lon="2.433312897996762"><ele>652.0</ele><time>2026-03-27T09:13:48.999Z</time></trkpt><trkpt lat="44.75852123138555" lon="2.4333182044305897"><ele>649.75</ele><time>2026-03-27T09:13:50.999Z</time></trkpt><trkpt lat="44.758683676565575" lon="2.4333525879963"><ele>647.5</ele><time>2026-03-27T09:14:04.999Z</time></trkpt><trkpt lat="44.758748915360435" lon="2.433352006880814"><ele>645.25</ele><time>2026-03-27T09:14:07.999Z</time></trkpt><trkpt lat="44.75883380184474" lon="2.4333110154202804"><ele>643.0</ele><time>2026-03-27T09:14:12.999Z</time></trkpt><trkpt lat="44.75905581419619" lon="2.4332902565907286"><ele>643.0</ele><time>2026-03-27T09:14:18.999Z</time></trkpt><trkpt lat="44.75927554718006" lon="2.4333015237576077"><ele>643.0</ele><time>2026-03-27T09:14:48Z</time></trkpt><trkpt lat="44.75936048398428" lon="2.4332074858495023"><ele>643.0</ele><time>2026-03-27T09:14:51Z</time></trkpt><trkpt lat="44.759421726843534" lon="2.4331283725825625"><ele>643.0</ele><time>2026-03-27T09:14:54Z</time></trkpt><trkpt lat="44.75946677566684" lon="2.4330417666107786"><ele>643.5</ele><time>2026-03-27T09:14:57Z</time></trkpt><trkpt lat="44.75951328775835" lon="2.4329243710418735"><ele>644.0</ele><time>2026-03-27T09:14:59Z</time></trkpt><trkpt lat="44.759560923369854" lon="2.4328348365420167"><ele>644.5</ele><time>2026-03-27T09:15:01Z</time></trkpt><trkpt lat="44.75955421455077" lon="2.4326818330295144"><ele>645.0</ele><time>2026-03-27T09:15:05Z</time></trkpt><trkpt lat="44.75959579094494" lon="2.4326148129663934"><ele>645.5</ele><time>2026-03-27T09:15:08Z</time></trkpt><trkpt lat="44.75958378791088" lon="2.432516312645732"><ele>646.0</ele><time>2026-03-27T09:15:10Z</time></trkpt><trkpt lat="44.75961439329998" lon="2.4324340394587933"><ele>646.0</ele><time>2026-03-27T09:15:13Z</time></trkpt><trkpt lat="44.75962037405738" lon="2.432345329408065"><ele>646.0</ele><time>2026-03-27T09:15:15Z</time></trkpt><trkpt lat="44.7596172761015" lon="2.4322250064161755"><ele>646.0</ele><time>2026-03-27T09:15:18Z</time></trkpt><trkpt lat="44.75968075142402" lon="2.43213942131581"><ele>646.0</ele><time>2026-03-27T09:15:25Z</time></trkpt><trkpt lat="44.759698980048896" lon="2.4320425354465245"><ele>646.0</ele><time>2026-03-27T09:15:30.999Z</time></trkpt><trkpt lat="44.75975776410044" lon="2.431975679198941"><ele>646.0</ele><time>2026-03-27T09:15:33.999Z</time></trkpt><trkpt lat="44.75983013228383" lon="2.4319160808985494"><ele>647.1999999999999</ele><time>2026-03-27T09:15:35.999Z</time></trkpt><trkpt lat="44.75988915704114" lon="2.4318139939111836"><ele>648.4</ele><time>2026-03-27T09:15:37.999Z</time></trkpt><trkpt lat="44.759932044319825" lon="2.431705128800556"><ele>649.6</ele><time>2026-03-27T09:15:39.999Z</time></trkpt><trkpt lat="44.759980174491346" lon="2.431608765077741"><ele>650.8</ele><time>2026-03-27T09:15:42.999Z</time></trkpt><trkpt lat="44.76000935013964" lon="2.4314973735359997"><ele>652.0</ele><time>2026-03-27T09:15:45.999Z</time></trkpt><trkpt lat="44.7600904839503" lon="2.4314089415584506"><ele>652.3333333333334</ele><time>2026-03-27T09:15:48.999Z</time></trkpt><trkpt lat="44.760122373303666" lon="2.4312974068720483"><ele>652.6666666666667</ele><time>2026-03-27T09:15:50.999Z</time></trkpt><trkpt lat="44.76015078093858" lon="2.431194475863692"><ele>653.0</ele><time>2026-03-27T09:15:52.999Z</time></trkpt><trkpt lat="44.760136093773184" lon="2.4310747137932323"><ele>653.3333333333334</ele><time>2026-03-27T09:15:55.999Z</time></trkpt><trkpt lat="44.76010725501615" lon="2.4309933403859216"><ele>653.6666666666666</ele><time>2026-03-27T09:16:01.999Z</time></trkpt><trkpt lat="44.760188743494936" lon="2.430974469492444"><ele>654.0</ele><time>2026-03-27T09:16:20.999Z</time></trkpt><trkpt lat="44.76020688150553" lon="2.430874673958289"><ele>654.0</ele><time>2026-03-27T09:16:26.999Z</time></trkpt><trkpt lat="44.760208896694046" lon="2.4307854021569963"><ele>654.0</ele><time>2026-03-27T09:16:30.999Z</time></trkpt><trkpt lat="44.76026169635393" lon="2.4307252283406093"><ele>654.0</ele><time>2026-03-27T09:16:36Z</time></trkpt><trkpt lat="44.760257877579626" lon="2.430598393392193"><ele>654.0</ele><time>2026-03-27T09:16:39Z</time></trkpt><trkpt lat="44.76040241679829" lon="2.4305879752147157"><ele>654.0</ele><time>2026-03-27T09:17:29.999Z</time></trkpt><trkpt lat="44.760479066163306" lon="2.4306069833578103"><ele>654.0</ele><time>2026-03-27T09:17:33.999Z</time></trkpt><trkpt lat="44.76056034531083" lon="2.4305321738464523"><ele>655.0</ele><time>2026-03-27T09:17:36.999Z</time></trkpt><trkpt lat="44.76065134356891" lon="2.4304528496935203"><ele>656.0</ele><time>2026-03-27T09:17:38.999Z</time></trkpt><trkpt lat="44.76072595296903" lon="2.430420597858207"><ele>657.0</ele><time>2026-03-27T09:17:40.999Z</time></trkpt><trkpt lat="44.76080497228099" lon="2.430381778810312"><ele>658.0</ele><time>2026-03-27T09:17:43.999Z</time></trkpt><trkpt lat="44.76087468965517" lon="2.430348287821798"><ele>659.0</ele><time>2026-03-27T09:17:46.999Z</time></trkpt><trkpt lat="44.760952945937376" lon="2.430329053517676"><ele>660.0</ele><time>2026-03-27T09:17:49.999Z</time></trkpt><trkpt lat="44.761043539774796" lon="2.4303081608010157"><ele>660.8</ele><time>2026-03-27T09:17:52.999Z</time></trkpt><trkpt lat="44.76108603888445" lon="2.430377350291127"><ele>661.6</ele><time>2026-03-27T09:17:55.999Z</time></trkpt><trkpt lat="44.7612390858389" lon="2.4302458760039953"><ele>662.4000000000001</ele><time>2026-03-27T09:18:01.999Z</time></trkpt><trkpt lat="44.761280964607295" lon="2.4301701880815854"><ele>663.2</ele><time>2026-03-27T09:18:02.999Z</time></trkpt><trkpt lat="44.76138834127344" lon="2.4300830902712796"><ele>664.0</ele><time>2026-03-27T09:18:04.999Z</time></trkpt><trkpt lat="44.76144714356961" lon="2.4300204735229816"><ele>664.0</ele><time>2026-03-27T09:18:05.999Z</time></trkpt><trkpt lat="44.76152684760135" lon="2.4299229925082804"><ele>664.0</ele><time>2026-03-27T09:18:07.999Z</time></trkpt><trkpt lat="44.76163495378143" lon="2.4298348652988793"><ele>664.0</ele><time>2026-03-27T09:18:09.999Z</time></trkpt><trkpt lat="44.761707719815504" lon="2.429735267841461"><ele>664.0</ele><time>2026-03-27T09:18:10.999Z</time></trkpt><trkpt lat="44.76177385594644" lon="2.4296311122253305"><ele>664.0</ele><time>2026-03-27T09:18:11.999Z</time></trkpt><trkpt lat="44.76184634889652" lon="2.4294943656817494"><ele>664.5</ele><time>2026-03-27T09:18:13.999Z</time></trkpt><trkpt lat="44.761908071848346" lon="2.429438276289711"><ele>665.0</ele><time>2026-03-27T09:18:14.999Z</time></trkpt><trkpt lat="44.76195364579043" lon="2.4293161700147556"><ele>665.5</ele><time>2026-03-27T09:18:16.999Z</time></trkpt><trkpt lat="44.76198236824954" lon="2.429208360468857"><ele>666.0</ele><time>2026-03-27T09:18:18.999Z</time></trkpt><trkpt lat="44.76205114433224" lon="2.42915663879928"><ele>666.5</ele><time>2026-03-27T09:18:19.999Z</time></trkpt><trkpt lat="44.762114088148195" lon="2.4290812032635998"><ele>667.0</ele><time>2026-03-27T09:18:20.999Z</time></trkpt><trkpt lat="44.76216049271701" lon="2.4290149597782857"><ele>667.0</ele><time>2026-03-27T09:18:21.999Z</time></trkpt><trkpt lat="44.76220901172349" lon="2.4289428966093882"><ele>667.0</ele><time>2026-03-27T09:18:22.999Z</time></trkpt><trkpt lat="44.76225715781386" lon="2.4288166365624977"><ele>667.0</ele><time>2026-03-27T09:18:25.999Z</time></trkpt><trkpt lat="44.76234127065973" lon="2.4286629068683934"><ele>667.0</ele><time>2026-03-27T09:18:27.999Z</time></trkpt><trkpt lat="44.76239422176706" lon="2.4285885693777156"><ele>667.0</ele><time>2026-03-27T09:18:28.999Z</time></trkpt><trkpt lat="44.76243250157603" lon="2.428496855681746"><ele>666.5</ele><time>2026-03-27T09:18:29.999Z</time></trkpt><trkpt lat="44.76251434025526" lon="2.4283830789526153"><ele>666.0</ele><time>2026-03-27T09:18:30.999Z</time></trkpt><trkpt lat="44.762562543991706" lon="2.4282620553349674"><ele>665.5</ele><time>2026-03-27T09:18:31.999Z</time></trkpt><trkpt lat="44.762678127472945" lon="2.4281595204311808"><ele>665.0</ele><time>2026-03-27T09:18:32.999Z</time></trkpt><trkpt lat="44.76271064481707" lon="2.4280249407426187"><ele>668.0</ele><time>2026-03-27T09:18:33.999Z</time></trkpt><trkpt lat="44.76279422848871" lon="2.4278766934302927"><ele>671.0</ele><time>2026-03-27T09:18:34.999Z</time></trkpt><trkpt lat="44.76274994311643" lon="2.4277638255949694"><ele>674.0</ele><time>2026-03-27T09:18:35.999Z</time></trkpt><trkpt lat="44.76286616818993" lon="2.4277252248455046"><ele>677.0</ele><time>2026-03-27T09:18:36.999Z</time></trkpt><trkpt lat="44.762917692112126" lon="2.4275719448985513"><ele>677.0</ele><time>2026-03-27T09:18:37.999Z</time></trkpt><trkpt lat="44.762947629832695" lon="2.427445545680483"><ele>677.0</ele><time>2026-03-27T09:18:38.999Z</time></trkpt><trkpt lat="44.762939251943216" lon="2.427329936717709"><ele>677.0</ele><time>2026-03-27T09:18:39.999Z</time></trkpt><trkpt lat="44.762954391254425" lon="2.427230490664579"><ele>677.0</ele><time>2026-03-27T09:18:40.999Z</time></trkpt><trkpt lat="44.762981205900346" lon="2.427109781598276"><ele>677.0</ele><time>2026-03-27T09:18:43Z</time></trkpt><trkpt lat="44.76291570389383" lon="2.427075716261547"><ele>677.0</ele><time>2026-03-27T09:18:44Z</time></trkpt><trkpt lat="44.76295619166293" lon="2.426934195806086"><ele>676.0</ele><time>2026-03-27T09:18:46Z</time></trkpt><trkpt lat="44.76289491349043" lon="2.426867824163856"><ele>675.0</ele><time>2026-03-27T09:18:49Z</time></trkpt><trkpt lat="44.76277526462077" lon="2.4268525385234723"><ele>674.0</ele><time>2026-03-27T09:18:51Z</time></trkpt><trkpt lat="44.762676595257076" lon="2.426926227008698"><ele>673.0</ele><time>2026-03-27T09:18:53Z</time></trkpt><trkpt lat="44.76261244235935" lon="2.4270092340616127"><ele>672.0</ele><time>2026-03-27T09:18:54Z</time></trkpt><trkpt lat="44.76255841311669" lon="2.427111591772458"><ele>670.6</ele><time>2026-03-27T09:18:55Z</time></trkpt><trkpt lat="44.76252115235189" lon="2.427191076114623"><ele>669.2</ele><time>2026-03-27T09:18:56Z</time></trkpt><trkpt lat="44.762460415272926" lon="2.427299308291815"><ele>667.8</ele><time>2026-03-27T09:18:58Z</time></trkpt><trkpt lat="44.762350943745616" lon="2.4273635381196335"><ele>666.4</ele><time>2026-03-27T09:19:00Z</time></trkpt><trkpt lat="44.762231792669006" lon="2.427409815788354"><ele>665.0</ele><time>2026-03-27T09:19:02Z</time></trkpt><trkpt lat="44.76216413096706" lon="2.4274454531085263"><ele>665.0</ele><time>2026-03-27T09:19:03Z</time></trkpt><trkpt lat="44.76209725292788" lon="2.4274820673112707"><ele>665.0</ele><time>2026-03-27T09:19:06Z</time></trkpt><trkpt lat="44.76198253001663" lon="2.4274848764935584"><ele>665.0</ele><time>2026-03-27T09:19:08Z</time></trkpt><trkpt lat="44.76189385717093" lon="2.427431706135409"><ele>665.0</ele><time>2026-03-27T09:19:10Z</time></trkpt><trkpt lat="44.7617879160914" lon="2.4273151150979033"><ele>665.0</ele><time>2026-03-27T09:19:12Z</time></trkpt><trkpt lat="44.76169013938193" lon="2.4272979825065266"><ele>668.5714285714286</ele><time>2026-03-27T09:19:14Z</time></trkpt><trkpt lat="44.761648140943315" lon="2.4271771783513034"><ele>672.1428571428571</ele><time>2026-03-27T09:19:16Z</time></trkpt><trkpt lat="44.76158354359577" lon="2.4271539953535997"><ele>675.7142857142858</ele><time>2026-03-27T09:19:17Z</time></trkpt><trkpt lat="44.761530561282235" lon="2.427101668757094"><ele>679.2857142857142</ele><time>2026-03-27T09:19:18Z</time></trkpt><trkpt lat="44.76146131467615" lon="2.4270676503110074"><ele>682.8571428571429</ele><time>2026-03-27T09:19:19Z</time></trkpt><trkpt lat="44.76140189391163" lon="2.427030777742385"><ele>686.4285714285714</ele><time>2026-03-27T09:19:20Z</time></trkpt><trkpt lat="44.76133282503036" lon="2.426962926322964"><ele>690.0</ele><time>2026-03-27T09:19:21Z</time></trkpt><trkpt lat="44.76121660975639" lon="2.4270379802474045"><ele>690.0</ele><time>2026-03-27T09:19:23Z</time></trkpt><trkpt lat="44.76114754098325" lon="2.4269910434274724"><ele>690.0</ele><time>2026-03-27T09:19:24Z</time></trkpt><trkpt lat="44.76108998111754" lon="2.4269013922237326"><ele>690.0</ele><time>2026-03-27T09:19:27Z</time></trkpt><trkpt lat="44.76099268102437" lon="2.4269145218110886"><ele>690.0</ele><time>2026-03-27T09:19:29Z</time></trkpt><trkpt lat="44.76091356685301" lon="2.426947382609714"><ele>690.0</ele><time>2026-03-27T09:19:31Z</time></trkpt><trkpt lat="44.760876064781854" lon="2.4267689296812818"><ele>693.0</ele><time>2026-03-27T09:19:34Z</time></trkpt><trkpt lat="44.76078310195064" lon="2.4267826573999125"><ele>696.0</ele><time>2026-03-27T09:19:36Z</time></trkpt><trkpt lat="44.76085536664917" lon="2.426685445890855"><ele>699.0</ele><time>2026-03-27T09:19:40.999Z</time></trkpt><trkpt lat="44.7608348810308" lon="2.426568197774876"><ele>702.0</ele><time>2026-03-27T09:19:41.999Z</time></trkpt><trkpt lat="44.76079465429423" lon="2.4264763885399985"><ele>705.0</ele><time>2026-03-27T09:19:42.999Z</time></trkpt><trkpt lat="44.760736254822575" lon="2.42642027533858"><ele>708.0</ele><time>2026-03-27T09:19:43.999Z</time></trkpt><trkpt lat="44.76066534118035" lon="2.426431464915881"><ele>708.0</ele><time>2026-03-27T09:19:44.999Z</time></trkpt><trkpt lat="44.76057686072217" lon="2.426423124300124"><ele>708.0</ele><time>2026-03-27T09:19:46.999Z</time></trkpt><trkpt lat="44.760506013823985" lon="2.4263753992942796"><ele>708.0</ele><time>2026-03-27T09:19:47.999Z</time></trkpt><trkpt lat="44.76027318699108" lon="2.426560570958389"><ele>708.0</ele><time>2026-03-27T09:19:49.999Z</time></trkpt><trkpt lat="44.76014860425852" lon="2.4266035714928145"><ele>708.5999999999999</ele><time>2026-03-27T09:19:50.999Z</time></trkpt><trkpt lat="44.76005028189531" lon="2.426608108634807"><ele>709.1999999999999</ele><time>2026-03-27T09:19:51.999Z</time></trkpt><trkpt lat="44.760038808727046" lon="2.4264695026482337"><ele>709.8</ele><time>2026-03-27T09:19:52.999Z</time></trkpt><trkpt lat="44.760046071449146" lon="2.4263499071316823"><ele>710.4</ele><time>2026-03-27T09:19:53.999Z</time></trkpt><trkpt lat="44.75999990801102" lon="2.4261809119084075"><ele>711.0</ele><time>2026-03-27T09:19:55.999Z</time></trkpt><trkpt lat="44.7599813489526" lon="2.4260827583063533"><ele>713.0</ele><time>2026-03-27T09:19:56.999Z</time></trkpt><trkpt lat="44.75999023776146" lon="2.425959450206367"><ele>715.0</ele><time>2026-03-27T09:19:57.999Z</time></trkpt><trkpt lat="44.76004878590588" lon="2.4258061375548134"><ele>717.0</ele><time>2026-03-27T09:19:58.999Z</time></trkpt><trkpt lat="44.7601545001027" lon="2.425642075429415"><ele>719.0</ele><time>2026-03-27T09:19:59.999Z</time></trkpt><trkpt lat="44.76001808266741" lon="2.4256716661892224"><ele>719.0</ele><time>2026-03-27T09:20:00.999Z</time></trkpt><trkpt lat="44.759970453510974" lon="2.425574422502686"><ele>719.0</ele><time>2026-03-27T09:20:01.999Z</time></trkpt><trkpt lat="44.759920652677835" lon="2.4254468804518208"><ele>719.0</ele><time>2026-03-27T09:20:02.999Z</time></trkpt><trkpt lat="44.75989861162278" lon="2.4253241323631496"><ele>719.0</ele><time>2026-03-27T09:20:03.999Z</time></trkpt><trkpt lat="44.759851955130266" lon="2.425189842585617"><ele>719.0</ele><time>2026-03-27T09:20:04.999Z</time></trkpt><trkpt lat="44.75976520450445" lon="2.4251252628260804"><ele>720.0</ele><time>2026-03-27T09:20:05.999Z</time></trkpt><trkpt lat="44.759713889075464" lon="2.425005634019297"><ele>721.0</ele><time>2026-03-27T09:20:06.999Z</time></trkpt><trkpt lat="44.75923653502389" lon="2.4254800969994346"><ele>721.0</ele><time>2026-03-27T09:20:07.999Z</time></trkpt><trkpt lat="44.75913866492445" lon="2.4254114242889604"><ele>721.0</ele><time>2026-03-27T09:20:08.999Z</time></trkpt><trkpt lat="44.759077549557524" lon="2.4253099295185723"><ele>721.0</ele><time>2026-03-27T09:20:09.999Z</time></trkpt><trkpt lat="44.75902372210378" lon="2.4252408551936444"><ele>721.0</ele><time>2026-03-27T09:20:10.999Z</time></trkpt><trkpt lat="44.758933651911754" lon="2.4253271135410652"><ele>721.0</ele><time>2026-03-27T09:20:12.999Z</time></trkpt><trkpt lat="44.758894955884415" lon="2.425485609001551"><ele>723.5999999999999</ele><time>2026-03-27T09:20:13.999Z</time></trkpt><trkpt lat="44.75880659943627" lon="2.425466277853032"><ele>726.2</ele><time>2026-03-27T09:20:15.999Z</time></trkpt><trkpt lat="44.75877212014053" lon="2.4253705620510826"><ele>728.8</ele><time>2026-03-27T09:20:17.999Z</time></trkpt><trkpt lat="44.75892141185973" lon="2.425346585526074"><ele>731.4000000000001</ele><time>2026-03-27T09:20:19.072Z</time></trkpt><trkpt lat="44.75895759089719" lon="2.425239539160028"><ele>734.0</ele><time>2026-03-27T09:20:20.029Z</time></trkpt><trkpt lat="44.759067634069446" lon="2.425054732857174"><ele>741.0</ele><time>2026-03-27T09:20:21.029Z</time></trkpt><trkpt lat="44.759300752447565" lon="2.4246089474307206"><ele>748.0</ele><time>2026-03-27T09:20:22.027Z</time></trkpt><trkpt lat="44.759341481966345" lon="2.42450797756991"><ele>744.75</ele><time>2026-03-27T09:20:23.028Z</time></trkpt><trkpt lat="44.75944953956593" lon="2.424492300554631"><ele>741.5</ele><time>2026-03-27T09:20:24.032Z</time></trkpt><trkpt lat="44.75949129799491" lon="2.424393443272147"><ele>738.25</ele><time>2026-03-27T09:20:25.032Z</time></trkpt><trkpt lat="44.75946571780279" lon="2.424144100700886"><ele>735.0</ele><time>2026-03-27T09:20:26.032Z</time></trkpt><trkpt lat="44.7592171513153" lon="2.424763900741453"><ele>734.8</ele><time>2026-03-27T09:20:27.03Z</time></trkpt><trkpt lat="44.759245288427024" lon="2.424646338022867"><ele>734.6</ele><time>2026-03-27T09:20:28.032Z</time></trkpt><trkpt lat="44.759273759887144" lon="2.4244853210527517"><ele>734.4000000000001</ele><time>2026-03-27T09:20:29.027Z</time></trkpt><trkpt lat="44.759316584582066" lon="2.4243410029917656"><ele>734.2</ele><time>2026-03-27T09:20:30.03Z</time></trkpt><trkpt lat="44.75934920586152" lon="2.424195564364138"><ele>734.0</ele><time>2026-03-27T09:20:31.027Z</time></trkpt><trkpt lat="44.75953327629892" lon="2.4235842116624475"><ele>736.0</ele><time>2026-03-27T09:20:32.05Z</time></trkpt><trkpt lat="44.75951260629349" lon="2.423422488052034"><ele>738.0</ele><time>2026-03-27T09:20:34.045Z</time></trkpt><trkpt lat="44.7595095176965" lon="2.423298666684018"><ele>740.0</ele><time>2026-03-27T09:20:36.044Z</time></trkpt><trkpt lat="44.759459138048925" lon="2.4234369086767646"><ele>742.0</ele><time>2026-03-27T09:20:45.773Z</time></trkpt><trkpt lat="44.75949339020011" lon="2.4232984361824306"><ele>744.0</ele><time>2026-03-27T09:20:52.032Z</time></trkpt><trkpt lat="44.759520955867" lon="2.42320825083961"><ele>744.0</ele><time>2026-03-27T09:20:54.035Z</time></trkpt><trkpt lat="44.759552332419055" lon="2.423125094662901"><ele>744.0</ele><time>2026-03-27T09:21:07.031Z</time></trkpt><trkpt lat="44.76040266627196" lon="2.41906066387672"><ele>745.0</ele><time>2026-03-27T09:21:10.998Z</time></trkpt><trkpt lat="44.76035053612451" lon="2.4189230098802756"><ele>746.0</ele><time>2026-03-27T09:21:11.998Z</time></trkpt><trkpt lat="44.76030690471052" lon="2.41880074279667"><ele>747.0</ele><time>2026-03-27T09:21:12.998Z</time></trkpt><trkpt lat="44.76029463734861" lon="2.418669535164186"><ele>748.0</ele><time>2026-03-27T09:21:13.998Z</time></trkpt><trkpt lat="44.76026081118769" lon="2.4185367584307067"><ele>749.0</ele><time>2026-03-27T09:21:14.998Z</time></trkpt><trkpt lat="44.760232452847816" lon="2.418415404523823"><ele>749.0</ele><time>2026-03-27T09:21:15.998Z</time></trkpt><trkpt lat="44.76020466276399" lon="2.4182847309688094"><ele>749.0</ele><time>2026-03-27T09:21:16.998Z</time></trkpt><trkpt lat="44.76017589218038" lon="2.4181417105142318"><ele>749.0</ele><time>2026-03-27T09:21:18Z</time></trkpt><trkpt lat="44.76013708280595" lon="2.417999424357832"><ele>749.0</ele><time>2026-03-27T09:21:19Z</time></trkpt><trkpt lat="44.76012014961656" lon="2.4178458642246032"><ele>749.0</ele><time>2026-03-27T09:21:20Z</time></trkpt><trkpt lat="44.76011673733106" lon="2.4176856581634243"><ele>749.4000000000001</ele><time>2026-03-27T09:21:21Z</time></trkpt><trkpt lat="44.760123615005526" lon="2.417528100357824"><ele>749.8</ele><time>2026-03-27T09:21:22Z</time></trkpt><trkpt lat="44.760148880315576" lon="2.4173746626589816"><ele>750.2</ele><time>2026-03-27T09:21:23Z</time></trkpt><trkpt lat="44.76019921829696" lon="2.4172344191218236"><ele>750.5999999999999</ele><time>2026-03-27T09:21:24Z</time></trkpt><trkpt lat="44.760237892967744" lon="2.417085239316236"><ele>751.0</ele><time>2026-03-27T09:21:25Z</time></trkpt><trkpt lat="44.76027722242657" lon="2.416930060583955"><ele>751.0</ele><time>2026-03-27T09:21:26Z</time></trkpt><trkpt lat="44.760311153742734" lon="2.416764702969142"><ele>751.0</ele><time>2026-03-27T09:21:27Z</time></trkpt><trkpt lat="44.760326468161864" lon="2.416575845385797"><ele>751.0</ele><time>2026-03-27T09:21:28Z</time></trkpt><trkpt lat="44.760309068169434" lon="2.416382420898768"><ele>751.0</ele><time>2026-03-27T09:21:29Z</time></trkpt><trkpt lat="44.76031937478159" lon="2.416185915027148"><ele>753.25</ele><time>2026-03-27T09:21:30Z</time></trkpt><trkpt lat="44.760338017455794" lon="2.4160088734480674"><ele>755.5</ele><time>2026-03-27T09:21:31Z</time></trkpt><trkpt lat="44.76036517558365" lon="2.4158331638058224"><ele>757.75</ele><time>2026-03-27T09:21:32Z</time></trkpt><trkpt lat="44.76040258639595" lon="2.4156640693213176"><ele>760.0</ele><time>2026-03-27T09:21:33Z</time></trkpt><trkpt lat="44.760430451230114" lon="2.415513177257349"><ele>761.6</ele><time>2026-03-27T09:21:34Z</time></trkpt><trkpt lat="44.760459186516904" lon="2.415370215352896"><ele>763.2</ele><time>2026-03-27T09:21:35Z</time></trkpt><trkpt lat="44.760486173754764" lon="2.415244604197646"><ele>764.8</ele><time>2026-03-27T09:21:36Z</time></trkpt><trkpt lat="44.76050756653085" lon="2.415106663018291"><ele>766.4</ele><time>2026-03-27T09:21:37Z</time></trkpt><trkpt lat="44.760562177174734" lon="2.414967008402334"><ele>768.0</ele><time>2026-03-27T09:21:38Z</time></trkpt><trkpt lat="44.76063096838765" lon="2.4148479974640926"><ele>768.0</ele><time>2026-03-27T09:21:39Z</time></trkpt><trkpt lat="44.76069975049891" lon="2.4147545283366627"><ele>768.0</ele><time>2026-03-27T09:21:40Z</time></trkpt><trkpt lat="44.760779204398204" lon="2.4146622032687515"><ele>768.0</ele><time>2026-03-27T09:21:41Z</time></trkpt><trkpt lat="44.760862458975" lon="2.4145718646342877"><ele>768.0</ele><time>2026-03-27T09:21:42Z</time></trkpt><trkpt lat="44.76095306159773" lon="2.4144832940545666"><ele>768.0</ele><time>2026-03-27T09:21:43Z</time></trkpt><trkpt lat="44.761050897160224" lon="2.414397465346322"><ele>768.75</ele><time>2026-03-27T09:21:44Z</time></trkpt><trkpt lat="44.761157507964924" lon="2.4143138552724746"><ele>769.5</ele><time>2026-03-27T09:21:45Z</time></trkpt><trkpt lat="44.76126374539683" lon="2.414233267511724"><ele>770.25</ele><time>2026-03-27T09:21:46Z</time></trkpt><trkpt lat="44.761371930187046" lon="2.414148483841908"><ele>771.0</ele><time>2026-03-27T09:21:47Z</time></trkpt><trkpt lat="44.76147860219679" lon="2.4140585497409153"><ele>771.0</ele><time>2026-03-27T09:21:48Z</time></trkpt><trkpt lat="44.76157821582411" lon="2.413945222595688"><ele>771.0</ele><time>2026-03-27T09:21:49Z</time></trkpt><trkpt lat="44.76169365186117" lon="2.413871229552711"><ele>771.0</ele><time>2026-03-27T09:21:50Z</time></trkpt><trkpt lat="44.761799821364335" lon="2.4137719490594964"><ele>771.0</ele><time>2026-03-27T09:21:51Z</time></trkpt><trkpt lat="44.76189760043857" lon="2.413662787199901"><ele>771.75</ele><time>2026-03-27T09:21:52Z</time></trkpt><trkpt lat="44.76199046023316" lon="2.4135450335338176"><ele>772.5</ele><time>2026-03-27T09:21:53Z</time></trkpt><trkpt lat="44.76208008812301" lon="2.4134181840290947"><ele>773.25</ele><time>2026-03-27T09:21:54Z</time></trkpt><trkpt lat="44.762163830136764" lon="2.4132860162147263"><ele>774.0</ele><time>2026-03-27T09:21:55Z</time></trkpt><trkpt lat="44.762237752493306" lon="2.4131419243103602"><ele>774.0</ele><time>2026-03-27T09:21:56Z</time></trkpt><trkpt lat="44.76229723744455" lon="2.4129778945091953"><ele>774.0</ele><time>2026-03-27T09:21:57Z</time></trkpt><trkpt lat="44.762344560909504" lon="2.412802636577971"><ele>774.0</ele><time>2026-03-27T09:21:58Z</time></trkpt><trkpt lat="44.76237724351701" lon="2.412614352792059"><ele>774.0</ele><time>2026-03-27T09:21:59Z</time></trkpt><trkpt lat="44.76238812993177" lon="2.4124190029021655"><ele>774.0</ele><time>2026-03-27T09:22:00Z</time></trkpt><trkpt lat="44.76234799896446" lon="2.4122377107489092"><ele>774.0</ele><time>2026-03-27T09:22:01Z</time></trkpt><trkpt lat="44.76230520730552" lon="2.4120799801028765"><ele>774.0</ele><time>2026-03-27T09:22:02Z</time></trkpt><trkpt lat="44.762228326982196" lon="2.411948147220308"><ele>774.0</ele><time>2026-03-27T09:22:03Z</time></trkpt><trkpt lat="44.76213989181062" lon="2.411817688144803"><ele>774.5</ele><time>2026-03-27T09:22:04Z</time></trkpt><trkpt lat="44.762059713856935" lon="2.411657263588983"><ele>775.0</ele><time>2026-03-27T09:22:05Z</time></trkpt><trkpt lat="44.76199860383504" lon="2.4114757838091334"><ele>775.5</ele><time>2026-03-27T09:22:06Z</time></trkpt><trkpt lat="44.7619517922903" lon="2.4112847006273936"><ele>776.0</ele><time>2026-03-27T09:22:07Z</time></trkpt><trkpt lat="44.761904115817764" lon="2.4111171512756377"><ele>777.0</ele><time>2026-03-27T09:22:08Z</time></trkpt><trkpt lat="44.76183059282781" lon="2.4109618418608334"><ele>778.0</ele><time>2026-03-27T09:22:09Z</time></trkpt><trkpt lat="44.76173283950985" lon="2.410818143956921"><ele>779.0</ele><time>2026-03-27T09:22:10Z</time></trkpt><trkpt lat="44.76161500626391" lon="2.41068660455233"><ele>780.0</ele><time>2026-03-27T09:22:11Z</time></trkpt><trkpt lat="44.76148856313769" lon="2.410554166755486"><ele>778.75</ele><time>2026-03-27T09:22:12Z</time></trkpt><trkpt lat="44.76137460789845" lon="2.410431755512292"><ele>777.5</ele><time>2026-03-27T09:22:13Z</time></trkpt><trkpt lat="44.76126751315679" lon="2.4103445937205854"><ele>776.25</ele><time>2026-03-27T09:22:14Z</time></trkpt><trkpt lat="44.76115565269361" lon="2.4102693321545723"><ele>775.0</ele><time>2026-03-27T09:22:15Z</time></trkpt><trkpt lat="44.76103912480142" lon="2.410214004405973"><ele>776.6</ele><time>2026-03-27T09:22:16Z</time></trkpt><trkpt lat="44.7609236011577" lon="2.410164504891334"><ele>778.2</ele><time>2026-03-27T09:22:17Z</time></trkpt><trkpt lat="44.76081948360356" lon="2.41012171457544"><ele>779.8</ele><time>2026-03-27T09:22:17.999Z</time></trkpt><trkpt lat="44.76071686898747" lon="2.4100868309897248"><ele>781.4</ele><time>2026-03-27T09:22:18.999Z</time></trkpt><trkpt lat="44.76062044525454" lon="2.410059705900908"><ele>783.0</ele><time>2026-03-27T09:22:19.999Z</time></trkpt><trkpt lat="44.76053501442153" lon="2.4100366428867153"><ele>783.0</ele><time>2026-03-27T09:22:20.999Z</time></trkpt><trkpt lat="44.76046065438787" lon="2.410019869726117"><ele>783.0</ele><time>2026-03-27T09:22:21.999Z</time></trkpt><trkpt lat="44.76039213350174" lon="2.410005462247333"><ele>783.0</ele><time>2026-03-27T09:22:22.999Z</time></trkpt><trkpt lat="44.760285271541434" lon="2.409975404332962"><ele>783.0</ele><time>2026-03-27T09:22:24.999Z</time></trkpt><trkpt lat="44.760222916807635" lon="2.4099502809396784"><ele>783.0</ele><time>2026-03-27T09:22:26.999Z</time></trkpt><trkpt lat="44.76016564253661" lon="2.409897044839721"><ele>783.0</ele><time>2026-03-27T09:22:43.999Z</time></trkpt><trkpt lat="44.7601182832786" lon="2.409800277497406"><ele>783.8333333333334</ele><time>2026-03-27T09:22:45.999Z</time></trkpt><trkpt lat="44.760075310441515" lon="2.4097211801444463"><ele>784.6666666666667</ele><time>2026-03-27T09:22:46.999Z</time></trkpt><trkpt lat="44.76002782692303" lon="2.409630669769365"><ele>785.5</ele><time>2026-03-27T09:22:47.999Z</time></trkpt><trkpt lat="44.75998405575582" lon="2.4095212338114944"><ele>786.3333333333334</ele><time>2026-03-27T09:22:48.999Z</time></trkpt><trkpt lat="44.75994406637237" lon="2.409402161506646"><ele>787.1666666666667</ele><time>2026-03-27T09:22:49.999Z</time></trkpt><trkpt lat="44.75990340668611" lon="2.4092713614863803"><ele>788.0</ele><time>2026-03-27T09:22:50.999Z</time></trkpt><trkpt lat="44.75986174125424" lon="2.409132266576744"><ele>788.4</ele><time>2026-03-27T09:22:51.999Z</time></trkpt><trkpt lat="44.75981240730582" lon="2.408991976436605"><ele>788.8</ele><time>2026-03-27T09:22:52.999Z</time></trkpt><trkpt lat="44.7597596451603" lon="2.4088519278914178"><ele>789.2</ele><time>2026-03-27T09:22:53.999Z</time></trkpt><trkpt lat="44.75970790368066" lon="2.408711291939548"><ele>789.6</ele><time>2026-03-27T09:22:54.999Z</time></trkpt><trkpt lat="44.75966118386927" lon="2.408576646941044"><ele>790.0</ele><time>2026-03-27T09:22:55.999Z</time></trkpt><trkpt lat="44.759618795351535" lon="2.4084397070272434"><ele>790.0</ele><time>2026-03-27T09:22:56.999Z</time></trkpt><trkpt lat="44.75959664426103" lon="2.4082987023296787"><ele>790.0</ele><time>2026-03-27T09:22:57.999Z</time></trkpt><trkpt lat="44.759568446071015" lon="2.4081611362576205"><ele>790.0</ele><time>2026-03-27T09:22:58.999Z</time></trkpt><trkpt lat="44.75956474555072" lon="2.4080255796056016"><ele>790.0</ele><time>2026-03-27T09:22:59.999Z</time></trkpt><trkpt lat="44.75957366143197" lon="2.407873792951347"><ele>790.0</ele><time>2026-03-27T09:23:00.999Z</time></trkpt><trkpt lat="44.75960377239168" lon="2.4077316446173147"><ele>789.5</ele><time>2026-03-27T09:23:01.999Z</time></trkpt><trkpt lat="44.75965296929277" lon="2.40761743846239"><ele>789.0</ele><time>2026-03-27T09:23:02.999Z</time></trkpt><trkpt lat="44.7597212411637" lon="2.407480127262"><ele>788.5</ele><time>2026-03-27T09:23:03.999Z</time></trkpt><trkpt lat="44.75979885968931" lon="2.4073337678744386"><ele>788.0</ele><time>2026-03-27T09:23:04.999Z</time></trkpt><trkpt lat="44.75988913577519" lon="2.4071672519429135"><ele>786.75</ele><time>2026-03-27T09:23:05.999Z</time></trkpt><trkpt lat="44.759964720202085" lon="2.407032076664698"><ele>785.5</ele><time>2026-03-27T09:23:06.999Z</time></trkpt><trkpt lat="44.76004042213892" lon="2.4068875528668308"><ele>784.25</ele><time>2026-03-27T09:23:07.999Z</time></trkpt><trkpt lat="44.760097149251955" lon="2.4067374712563065"><ele>783.0</ele><time>2026-03-27T09:23:08.999Z</time></trkpt><trkpt lat="44.76012874496827" lon="2.4065278956848615"><ele>783.0</ele><time>2026-03-27T09:23:09.999Z</time></trkpt><trkpt lat="44.76012237713747" lon="2.406333652563083"><ele>783.0</ele><time>2026-03-27T09:23:10.999Z</time></trkpt><trkpt lat="44.76007407159435" lon="2.4061476318556907"><ele>783.0</ele><time>2026-03-27T09:23:11.999Z</time></trkpt><trkpt lat="44.76002148837635" lon="2.405981736304563"><ele>783.0</ele><time>2026-03-27T09:23:12.999Z</time></trkpt><trkpt lat="44.75996222720574" lon="2.4058092296383817"><ele>782.25</ele><time>2026-03-27T09:23:13.999Z</time></trkpt><trkpt lat="44.75989993192679" lon="2.40563336614313"><ele>781.5</ele><time>2026-03-27T09:23:14.999Z</time></trkpt><trkpt lat="44.75984201570406" lon="2.4054698649906987"><ele>780.75</ele><time>2026-03-27T09:23:15.999Z</time></trkpt><trkpt lat="44.75978438504322" lon="2.405303738612636"><ele>780.0</ele><time>2026-03-27T09:23:16.999Z</time></trkpt><trkpt lat="44.759715529839085" lon="2.4051490418111023"><ele>779.0</ele><time>2026-03-27T09:23:17.999Z</time></trkpt><trkpt lat="44.75966852438207" lon="2.404992171702715"><ele>778.0</ele><time>2026-03-27T09:23:18.999Z</time></trkpt><trkpt lat="44.75962577017997" lon="2.4048414763438397"><ele>777.0</ele><time>2026-03-27T09:23:19.999Z</time></trkpt><trkpt lat="44.75959657876674" lon="2.4046851635645523"><ele>776.0</ele><time>2026-03-27T09:23:20.999Z</time></trkpt><trkpt lat="44.75958322375852" lon="2.4045369978744975"><ele>775.8</ele><time>2026-03-27T09:23:21.999Z</time></trkpt><trkpt lat="44.759578387733804" lon="2.404387865327977"><ele>775.5999999999999</ele><time>2026-03-27T09:23:23Z</time></trkpt><trkpt lat="44.75959809678412" lon="2.4042256124157526"><ele>775.4</ele><time>2026-03-27T09:23:24Z</time></trkpt><trkpt lat="44.75961057386838" lon="2.4040648316931197"><ele>775.2</ele><time>2026-03-27T09:23:25Z</time></trkpt><trkpt lat="44.759625066628736" lon="2.403925210389894"><ele>775.0</ele><time>2026-03-27T09:23:26Z</time></trkpt><trkpt lat="44.75964351113035" lon="2.4037987871865396"><ele>775.8</ele><time>2026-03-27T09:23:27Z</time></trkpt><trkpt lat="44.75966355534387" lon="2.403690590142819"><ele>776.6</ele><time>2026-03-27T09:23:28Z</time></trkpt><trkpt lat="44.759553573299556" lon="2.4035302572712456"><ele>777.4000000000001</ele><time>2026-03-27T09:23:29Z</time></trkpt><trkpt lat="44.759527812100245" lon="2.403397093404895"><ele>778.2</ele><time>2026-03-27T09:23:30Z</time></trkpt><trkpt lat="44.75949278142993" lon="2.4032579559694907"><ele>779.0</ele><time>2026-03-27T09:23:31Z</time></trkpt><trkpt lat="44.75944485207428" lon="2.4031215739904326"><ele>778.75</ele><time>2026-03-27T09:23:32Z</time></trkpt><trkpt lat="44.759379398581366" lon="2.402989781927037"><ele>778.5</ele><time>2026-03-27T09:23:33Z</time></trkpt><trkpt lat="44.75931042538202" lon="2.4028610242413246"><ele>778.25</ele><time>2026-03-27T09:23:34Z</time></trkpt><trkpt lat="44.75923887005023" lon="2.402721117500927"><ele>778.0</ele><time>2026-03-27T09:23:35Z</time></trkpt><trkpt lat="44.759160055502505" lon="2.4025696439250064"><ele>778.0</ele><time>2026-03-27T09:23:36Z</time></trkpt><trkpt lat="44.75908225866369" lon="2.4024245153630126"><ele>778.0</ele><time>2026-03-27T09:23:37Z</time></trkpt><trkpt lat="44.759034314778305" lon="2.4022838810968277"><ele>778.0</ele><time>2026-03-27T09:23:38Z</time></trkpt><trkpt lat="44.7589693895119" lon="2.4021570908639625"><ele>778.0</ele><time>2026-03-27T09:23:39Z</time></trkpt><trkpt lat="44.75892471765128" lon="2.401994850362196"><ele>778.0</ele><time>2026-03-27T09:23:40Z</time></trkpt><trkpt lat="44.75889170237466" lon="2.401806708305771"><ele>778.0</ele><time>2026-03-27T09:23:41Z</time></trkpt><trkpt lat="44.75887874380472" lon="2.4015909922377885"><ele>778.0</ele><time>2026-03-27T09:23:42Z</time></trkpt><trkpt lat="44.758908090852145" lon="2.401366044285167"><ele>777.3333333333333</ele><time>2026-03-27T09:23:43Z</time></trkpt><trkpt lat="44.75893183944188" lon="2.4011366073265097"><ele>776.6666666666667</ele><time>2026-03-27T09:23:44Z</time></trkpt><trkpt lat="44.75894101592651" lon="2.4009137063970516"><ele>776.0</ele><time>2026-03-27T09:23:45Z</time></trkpt><trkpt lat="44.758945552971724" lon="2.4006896209505904"><ele>774.75</ele><time>2026-03-27T09:23:46Z</time></trkpt><trkpt lat="44.75894968740247" lon="2.4004854199916372"><ele>773.5</ele><time>2026-03-27T09:23:47Z</time></trkpt><trkpt lat="44.758954717690585" lon="2.4002974516853404"><ele>772.25</ele><time>2026-03-27T09:23:48Z</time></trkpt><trkpt lat="44.758951760665134" lon="2.4001151533332403"><ele>771.0</ele><time>2026-03-27T09:23:49Z</time></trkpt><trkpt lat="44.75897422430994" lon="2.399949038419971"><ele>771.0</ele><time>2026-03-27T09:23:50Z</time></trkpt><trkpt lat="44.75899317426246" lon="2.3997785360393533"><ele>771.0</ele><time>2026-03-27T09:23:51Z</time></trkpt><trkpt lat="44.75903240428126" lon="2.399621275221087"><ele>771.0</ele><time>2026-03-27T09:23:52Z</time></trkpt><trkpt lat="44.75903922629437" lon="2.399452529159471"><ele>771.0</ele><time>2026-03-27T09:23:53Z</time></trkpt><trkpt lat="44.75907230852513" lon="2.399289410028644"><ele>769.25</ele><time>2026-03-27T09:23:54Z</time></trkpt><trkpt lat="44.75908918412983" lon="2.399114153209092"><ele>767.5</ele><time>2026-03-27T09:23:55Z</time></trkpt><trkpt lat="44.75910505454726" lon="2.398932315823108"><ele>765.75</ele><time>2026-03-27T09:23:56Z</time></trkpt><trkpt lat="44.75911165358003" lon="2.398767231397236"><ele>764.0</ele><time>2026-03-27T09:23:57Z</time></trkpt><trkpt lat="44.75912814305327" lon="2.39859598596633"><ele>763.75</ele><time>2026-03-27T09:23:58Z</time></trkpt><trkpt lat="44.75913201660614" lon="2.398429884234475"><ele>763.5</ele><time>2026-03-27T09:23:59Z</time></trkpt><trkpt lat="44.75912363920133" lon="2.398264060047713"><ele>763.25</ele><time>2026-03-27T09:24:00Z</time></trkpt><trkpt lat="44.75910596079905" lon="2.3980977422613377"><ele>763.0</ele><time>2026-03-27T09:24:01Z</time></trkpt><trkpt lat="44.75906838548692" lon="2.397939743555487"><ele>764.0</ele><time>2026-03-27T09:24:02Z</time></trkpt><trkpt lat="44.7590522508882" lon="2.3977578802292654"><ele>765.0</ele><time>2026-03-27T09:24:03Z</time></trkpt><trkpt lat="44.759021645268305" lon="2.3975661506614805"><ele>766.0</ele><time>2026-03-27T09:24:04Z</time></trkpt><trkpt lat="44.758988938592786" lon="2.397362708350198"><ele>767.0</ele><time>2026-03-27T09:24:05Z</time></trkpt><trkpt lat="44.7589601638206" lon="2.397176915547074"><ele>768.0</ele><time>2026-03-27T09:24:06Z</time></trkpt><trkpt lat="44.75893614319921" lon="2.397013652084024"><ele>769.0</ele><time>2026-03-27T09:24:07Z</time></trkpt><trkpt lat="44.758915093424015" lon="2.3968624499578017"><ele>770.0</ele><time>2026-03-27T09:24:08Z</time></trkpt><trkpt lat="44.75889984133207" lon="2.396720930686539"><ele>771.0</ele><time>2026-03-27T09:24:09Z</time></trkpt><trkpt lat="44.75887411018689" lon="2.396551493733025"><ele>771.0</ele><time>2026-03-27T09:24:10Z</time></trkpt><trkpt lat="44.758866709247314" lon="2.3963607534952356"><ele>771.0</ele><time>2026-03-27T09:24:11Z</time></trkpt><trkpt lat="44.75887958373722" lon="2.396159779616945"><ele>771.0</ele><time>2026-03-27T09:24:12Z</time></trkpt><trkpt lat="44.758877465802314" lon="2.395954383690779"><ele>771.0</ele><time>2026-03-27T09:24:13Z</time></trkpt><trkpt lat="44.75887131300621" lon="2.395762150759674"><ele>770.75</ele><time>2026-03-27T09:24:14Z</time></trkpt><trkpt lat="44.75885553559646" lon="2.39557584953888"><ele>770.5</ele><time>2026-03-27T09:24:15Z</time></trkpt><trkpt lat="44.758847391814896" lon="2.395386035919298"><ele>770.25</ele><time>2026-03-27T09:24:16Z</time></trkpt><trkpt lat="44.758824403309184" lon="2.3951965603189387"><ele>770.0</ele><time>2026-03-27T09:24:17Z</time></trkpt><trkpt lat="44.75879326418851" lon="2.395041532817796"><ele>769.0</ele><time>2026-03-27T09:24:18Z</time></trkpt><trkpt lat="44.758762339905715" lon="2.3948773362715214"><ele>768.0</ele><time>2026-03-27T09:24:19Z</time></trkpt><trkpt lat="44.758741738229745" lon="2.394728673838832"><ele>767.0</ele><time>2026-03-27T09:24:20Z</time></trkpt><trkpt lat="44.75870574801135" lon="2.3945859194695074"><ele>766.0</ele><time>2026-03-27T09:24:21Z</time></trkpt><trkpt lat="44.75866042418926" lon="2.394474919137468"><ele>765.0</ele><time>2026-03-27T09:24:22Z</time></trkpt><trkpt lat="44.758620243840866" lon="2.394358863830791"><ele>764.0</ele><time>2026-03-27T09:24:23Z</time></trkpt><trkpt lat="44.75860770231292" lon="2.3942537037883453"><ele>763.0</ele><time>2026-03-27T09:24:24Z</time></trkpt><trkpt lat="44.75857537794851" lon="2.394109977616356"><ele>762.0</ele><time>2026-03-27T09:24:26Z</time></trkpt><trkpt lat="44.7585558411048" lon="2.394014267363405"><ele>761.0</ele><time>2026-03-27T09:24:28Z</time></trkpt><trkpt lat="44.75853497825777" lon="2.3938981784997435"><ele>760.0</ele><time>2026-03-27T09:24:30.999Z</time></trkpt><trkpt lat="44.758513452770316" lon="2.393803375052604"><ele>759.0</ele><time>2026-03-27T09:24:32.999Z</time></trkpt><trkpt lat="44.75849283788" lon="2.393690492991124"><ele>758.6</ele><time>2026-03-27T09:24:33.999Z</time></trkpt><trkpt lat="44.758459147616115" lon="2.3935189315856094"><ele>758.2</ele><time>2026-03-27T09:24:35.999Z</time></trkpt><trkpt lat="44.75843425453351" lon="2.393412802777878"><ele>757.8000000000001</ele><time>2026-03-27T09:24:37.999Z</time></trkpt><trkpt lat="44.7584263152071" lon="2.393311461408043"><ele>757.4000000000001</ele><time>2026-03-27T09:24:40.999Z</time></trkpt><trkpt lat="44.75845738911872" lon="2.3932247869925214"><ele>757.0</ele><time>2026-03-27T09:24:41.999Z</time></trkpt><trkpt lat="44.75877023165564" lon="2.393035782864872"><ele>753.6666666666667</ele><time>2026-03-27T09:24:42.999Z</time></trkpt><trkpt lat="44.758829397253855" lon="2.392942417126652"><ele>750.3333333333334</ele><time>2026-03-27T09:24:43.999Z</time></trkpt><trkpt lat="44.7589304679024" lon="2.392872975505128"><ele>747.0</ele><time>2026-03-27T09:24:44.999Z</time></trkpt><trkpt lat="44.75942240701573" lon="2.392829356020527"><ele>744.75</ele><time>2026-03-27T09:24:48.999Z</time></trkpt><trkpt lat="44.75953067370537" lon="2.392760699043753"><ele>742.5</ele><time>2026-03-27T09:24:49.999Z</time></trkpt><trkpt lat="44.75970678176044" lon="2.392621395292051"><ele>740.25</ele><time>2026-03-27T09:24:51.999Z</time></trkpt><trkpt lat="44.759793819497055" lon="2.392542863300609"><ele>738.0</ele><time>2026-03-27T09:24:52.999Z</time></trkpt><trkpt lat="44.759926523125685" lon="2.392437165790235"><ele>738.0</ele><time>2026-03-27T09:24:53.999Z</time></trkpt><trkpt lat="44.76000105006271" lon="2.3923439681944862"><ele>738.0</ele><time>2026-03-27T09:24:54.999Z</time></trkpt><trkpt lat="44.76005504575316" lon="2.392268720999061"><ele>738.0</ele><time>2026-03-27T09:24:55.999Z</time></trkpt><trkpt lat="44.76009444294228" lon="2.3921424883060287"><ele>738.0</ele><time>2026-03-27T09:24:56.999Z</time></trkpt><trkpt lat="44.76016976357603" lon="2.3920329042865087"><ele>738.0</ele><time>2026-03-27T09:24:57.999Z</time></trkpt><trkpt lat="44.76022756265536" lon="2.3919462831701"><ele>736.4</ele><time>2026-03-27T09:24:58.999Z</time></trkpt><trkpt lat="44.76031334950886" lon="2.391862021178129"><ele>734.8</ele><time>2026-03-27T09:24:59.999Z</time></trkpt><trkpt lat="44.76038143910777" lon="2.391810516220988"><ele>733.2</ele><time>2026-03-27T09:25:00.999Z</time></trkpt><trkpt lat="44.76051540541558" lon="2.391803066019648"><ele>731.6</ele><time>2026-03-27T09:25:02.999Z</time></trkpt><trkpt lat="44.7606096809894" lon="2.3917821465935702"><ele>730.0</ele><time>2026-03-27T09:25:03.999Z</time></trkpt><trkpt lat="44.76069644900559" lon="2.3917522966190963"><ele>730.0</ele><time>2026-03-27T09:25:04.999Z</time></trkpt><trkpt lat="44.76076401833059" lon="2.3917521512304853"><ele>730.0</ele><time>2026-03-27T09:25:05.999Z</time></trkpt><trkpt lat="44.76088454471595" lon="2.3917037401126415"><ele>730.0</ele><time>2026-03-27T09:25:07.999Z</time></trkpt><trkpt lat="44.76101877363626" lon="2.3915902622702787"><ele>730.0</ele><time>2026-03-27T09:25:10.999Z</time></trkpt><trkpt lat="44.76109511224716" lon="2.39149824558409"><ele>729.8</ele><time>2026-03-27T09:25:11.999Z</time></trkpt><trkpt lat="44.761169307839744" lon="2.3914545632866915"><ele>729.6</ele><time>2026-03-27T09:25:12.999Z</time></trkpt><trkpt lat="44.76121964000615" lon="2.3913887241784137"><ele>729.4000000000001</ele><time>2026-03-27T09:25:13.999Z</time></trkpt><trkpt lat="44.76125935482111" lon="2.3913131255873483"><ele>729.2</ele><time>2026-03-27T09:25:14.999Z</time></trkpt><trkpt lat="44.76137315621177" lon="2.3912784762331527"><ele>729.0</ele><time>2026-03-27T09:25:16.999Z</time></trkpt><trkpt lat="44.761539238630796" lon="2.3913277616169397"><ele>725.0</ele><time>2026-03-27T09:25:18.999Z</time></trkpt><trkpt lat="44.76217571204553" lon="2.391479740226328"><ele>725.0</ele><time>2026-03-27T09:25:26.999Z</time></trkpt><trkpt lat="44.76231934011728" lon="2.3915486423387753"><ele>725.0</ele><time>2026-03-27T09:25:28Z</time></trkpt><trkpt lat="44.76245666298398" lon="2.391605357170858"><ele>725.0</ele><time>2026-03-27T09:25:29Z</time></trkpt><trkpt lat="44.76246717089545" lon="2.3917422353517876"><ele>725.0</ele><time>2026-03-27T09:25:34Z</time></trkpt><trkpt lat="44.762540464442225" lon="2.391849203089763"><ele>725.0</ele><time>2026-03-27T09:25:36Z</time></trkpt><trkpt lat="44.76259063341186" lon="2.3919230852430577"><ele>725.0</ele><time>2026-03-27T09:25:37Z</time></trkpt><trkpt lat="44.762638669676996" lon="2.391998990991076"><ele>725.0</ele><time>2026-03-27T09:25:38Z</time></trkpt><trkpt lat="44.76269539960355" lon="2.3920828529271723"><ele>725.0</ele><time>2026-03-27T09:25:39Z</time></trkpt><trkpt lat="44.76270084067492" lon="2.392172507071369"><ele>725.0</ele><time>2026-03-27T09:25:41Z</time></trkpt><trkpt lat="44.76280014183527" lon="2.3922560988385193"><ele>725.0</ele><time>2026-03-27T09:25:43Z</time></trkpt><trkpt lat="44.76296203351688" lon="2.3923512644796223"><ele>725.25</ele><time>2026-03-27T09:25:49Z</time></trkpt><trkpt lat="44.763019967637184" lon="2.39243325473976"><ele>725.5</ele><time>2026-03-27T09:25:51Z</time></trkpt><trkpt lat="44.76302865557309" lon="2.3925462614046875"><ele>725.75</ele><time>2026-03-27T09:25:53Z</time></trkpt><trkpt lat="44.76321963206484" lon="2.3925741847078275"><ele>726.0</ele><time>2026-03-27T09:25:56Z</time></trkpt><trkpt lat="44.76328099901302" lon="2.3926802556809537"><ele>726.0</ele><time>2026-03-27T09:25:59Z</time></trkpt><trkpt lat="44.763336655444945" lon="2.39277684206652"><ele>726.0</ele><time>2026-03-27T09:26:01Z</time></trkpt><trkpt lat="44.763378186404374" lon="2.3928817836684115"><ele>726.0</ele><time>2026-03-27T09:26:03Z</time></trkpt><trkpt lat="44.763432429291626" lon="2.392957658410308"><ele>726.0</ele><time>2026-03-27T09:26:04Z</time></trkpt><trkpt lat="44.7634409335253" lon="2.3928436770365327"><ele>726.0</ele><time>2026-03-27T09:26:05Z</time></trkpt><trkpt lat="44.76356381173994" lon="2.3927912706878924"><ele>732.0</ele><time>2026-03-27T09:26:06Z</time></trkpt><trkpt lat="44.76367063365848" lon="2.392866088852225"><ele>738.0</ele><time>2026-03-27T09:26:19Z</time></trkpt><trkpt lat="44.765326647505084" lon="2.394201464436817"><ele>744.4</ele><time>2026-03-27T09:26:36Z</time></trkpt><trkpt lat="44.76543685612304" lon="2.394357133309539"><ele>750.8</ele><time>2026-03-27T09:26:37Z</time></trkpt><trkpt lat="44.7654697600475" lon="2.3944731093623415"><ele>757.2</ele><time>2026-03-27T09:26:38Z</time></trkpt><trkpt lat="44.7655450144279" lon="2.394516541933966"><ele>763.6</ele><time>2026-03-27T09:26:38.999Z</time></trkpt><trkpt lat="44.76551813722887" lon="2.3944123085269853"><ele>770.0</ele><time>2026-03-27T09:26:40.999Z</time></trkpt><trkpt lat="44.76557583544462" lon="2.3943292357496917"><ele>770.0</ele><time>2026-03-27T09:26:41.999Z</time></trkpt><trkpt lat="44.76556225559532" lon="2.394232765075665"><ele>770.0</ele><time>2026-03-27T09:26:42.999Z</time></trkpt><trkpt lat="44.76553530774637" lon="2.394126223749105"><ele>770.0</ele><time>2026-03-27T09:26:43.999Z</time></trkpt><trkpt lat="44.76538498680782" lon="2.393844379462563"><ele>770.0</ele><time>2026-03-27T09:26:45.999Z</time></trkpt><trkpt lat="44.765388625744066" lon="2.393732532178958"><ele>770.0000000000001</ele><time>2026-03-27T09:26:47.999Z</time></trkpt><trkpt lat="44.76546250837796" lon="2.3937500637049856"><ele>770.0</ele><time>2026-03-27T09:26:49.999Z</time></trkpt><trkpt lat="44.765475732878485" lon="2.393844291227874"><ele>770.0</ele><time>2026-03-27T09:26:51.999Z</time></trkpt><trkpt lat="44.76555384670856" lon="2.3938662968153706"><ele>770.0</ele><time>2026-03-27T09:26:52.999Z</time></trkpt><trkpt lat="44.76561324942623" lon="2.3939528762871936"><ele>770.0000000000001</ele><time>2026-03-27T09:26:54.999Z</time></trkpt><trkpt lat="44.76560261235065" lon="2.39407921188728"><ele>770.0</ele><time>2026-03-27T09:26:57.999Z</time></trkpt><trkpt lat="44.76565255628576" lon="2.3941920336456866"><ele>770.0</ele><time>2026-03-27T09:26:59.999Z</time></trkpt><trkpt lat="44.7657673499112" lon="2.3942871287603102"><ele>770.0</ele><time>2026-03-27T09:27:01.999Z</time></trkpt><trkpt lat="44.7658323883755" lon="2.3943318377068783"><ele>770.0</ele><time>2026-03-27T09:27:03.999Z</time></trkpt><trkpt lat="44.76590146266014" lon="2.394411826756727"><ele>770.0</ele><time>2026-03-27T09:27:04.999Z</time></trkpt><trkpt lat="44.76597538370521" lon="2.3943996798352094"><ele>770.0</ele><time>2026-03-27T09:27:06.999Z</time></trkpt><trkpt lat="44.76624301305622" lon="2.394237604798778"><ele>770.0000000000001</ele><time>2026-03-27T09:27:07.999Z</time></trkpt><trkpt lat="44.766297639751166" lon="2.3941184443218324"><ele>770.0</ele><time>2026-03-27T09:27:08.999Z</time></trkpt><trkpt lat="44.76635280765668" lon="2.393999089052011"><ele>770.0</ele><time>2026-03-27T09:27:09.999Z</time></trkpt><trkpt lat="44.766400448525886" lon="2.3939041146711393"><ele>770.0</ele><time>2026-03-27T09:27:10.999Z</time></trkpt><trkpt lat="44.76644501037479" lon="2.3938204808894366"><ele>770.0000000000001</ele><time>2026-03-27T09:27:11.999Z</time></trkpt><trkpt lat="44.76649242944062" lon="2.3937528280071416"><ele>770.0</ele><time>2026-03-27T09:27:12.999Z</time></trkpt><trkpt lat="44.766569083906965" lon="2.393666140478937"><ele>770.0</ele><time>2026-03-27T09:27:14.999Z</time></trkpt><trkpt lat="44.766657426853044" lon="2.3936223735820867"><ele>770.0</ele><time>2026-03-27T09:27:16.999Z</time></trkpt><trkpt lat="44.76670630591226" lon="2.3936832876237406"><ele>770.0</ele><time>2026-03-27T09:27:20.999Z</time></trkpt><trkpt lat="44.766824251472556" lon="2.3936707755059277"><ele>770.0</ele><time>2026-03-27T09:27:35Z</time></trkpt><trkpt lat="44.76691886427833" lon="2.39366804448694"><ele>770.0</ele><time>2026-03-27T09:27:38Z</time></trkpt><trkpt lat="44.76700953545865" lon="2.3936842848899715"><ele>769.2</ele><time>2026-03-27T09:27:40Z</time></trkpt><trkpt lat="44.767139362886134" lon="2.3937678874660735"><ele>768.4</ele><time>2026-03-27T09:27:42Z</time></trkpt><trkpt lat="44.76720793425183" lon="2.3938146628248327"><ele>767.5999999999999</ele><time>2026-03-27T09:27:43Z</time></trkpt><trkpt lat="44.767283813728575" lon="2.3939007990195513"><ele>766.8</ele><time>2026-03-27T09:27:44Z</time></trkpt><trkpt lat="44.767339146254024" lon="2.3939839657186317"><ele>766.0</ele><time>2026-03-27T09:27:45Z</time></trkpt><trkpt lat="44.76740170693611" lon="2.394093022994239"><ele>764.4</ele><time>2026-03-27T09:27:46Z</time></trkpt><trkpt lat="44.76746368567841" lon="2.394185548547048"><ele>762.8</ele><time>2026-03-27T09:27:47Z</time></trkpt><trkpt lat="44.76751250381611" lon="2.3942478635483053"><ele>761.1999999999999</ele><time>2026-03-27T09:27:48Z</time></trkpt><trkpt lat="44.7676085805211" lon="2.394318271744561"><ele>759.5999999999999</ele><time>2026-03-27T09:27:50Z</time></trkpt><trkpt lat="44.76766922535969" lon="2.394403767926219"><ele>758.0</ele><time>2026-03-27T09:27:52Z</time></trkpt><trkpt lat="44.7677252934717" lon="2.394538800225859"><ele>756.3333333333333</ele><time>2026-03-27T09:27:54Z</time></trkpt><trkpt lat="44.76778362262562" lon="2.3946341592834144"><ele>754.6666666666666</ele><time>2026-03-27T09:27:57Z</time></trkpt><trkpt lat="44.76783463923049" lon="2.3947032486256474"><ele>753.0</ele><time>2026-03-27T09:27:59Z</time></trkpt><trkpt lat="44.76789576714957" lon="2.3947375837749147"><ele>751.3333333333334</ele><time>2026-03-27T09:28:01Z</time></trkpt><trkpt lat="44.767975636387725" lon="2.394766031999986"><ele>749.6666666666667</ele><time>2026-03-27T09:28:04Z</time></trkpt><trkpt lat="44.768044117471185" lon="2.3947575906984646"><ele>748.0</ele><time>2026-03-27T09:28:07Z</time></trkpt><trkpt lat="44.768239105403" lon="2.3946924984648494"><ele>748.0</ele><time>2026-03-27T09:28:16Z</time></trkpt><trkpt lat="44.768314319056465" lon="2.394633579133899"><ele>748.0</ele><time>2026-03-27T09:28:20Z</time></trkpt><trkpt lat="44.768400363476076" lon="2.394602255201725"><ele>748.0</ele><time>2026-03-27T09:28:22Z</time></trkpt><trkpt lat="44.768501024654405" lon="2.394544617221744"><ele>748.0</ele><time>2026-03-27T09:28:24Z</time></trkpt><trkpt lat="44.768598203556465" lon="2.394494115184349"><ele>748.0</ele><time>2026-03-27T09:28:26Z</time></trkpt><trkpt lat="44.76866610081508" lon="2.3944340194154754"><ele>745.8</ele><time>2026-03-27T09:28:27Z</time></trkpt><trkpt lat="44.76877435304985" lon="2.3943717154654593"><ele>743.5999999999999</ele><time>2026-03-27T09:28:29Z</time></trkpt><trkpt lat="44.7688574097436" lon="2.394310089934193"><ele>741.4000000000001</ele><time>2026-03-27T09:28:31Z</time></trkpt><trkpt lat="44.76892088214105" lon="2.394197125652378"><ele>739.2</ele><time>2026-03-27T09:28:34Z</time></trkpt><trkpt lat="44.76897715449503" lon="2.3941250328983217"><ele>737.0</ele><time>2026-03-27T09:28:36Z</time></trkpt><trkpt lat="44.76905901667636" lon="2.3940456344987626"><ele>737.0</ele><time>2026-03-27T09:28:38.999Z</time></trkpt><trkpt lat="44.769051869489346" lon="2.393940967984693"><ele>737.0</ele><time>2026-03-27T09:28:40.999Z</time></trkpt><trkpt lat="44.76911710097147" lon="2.3938538402928864"><ele>737.0</ele><time>2026-03-27T09:28:44.999Z</time></trkpt><trkpt lat="44.76922470396843" lon="2.393765116065555"><ele>737.0</ele><time>2026-03-27T09:28:46.999Z</time></trkpt><trkpt lat="44.76939280237955" lon="2.3938033420441007"><ele>737.5</ele><time>2026-03-27T09:28:56.999Z</time></trkpt><trkpt lat="44.769523495064355" lon="2.393829356175458"><ele>738.0</ele><time>2026-03-27T09:28:59.999Z</time></trkpt><trkpt lat="44.76965866488906" lon="2.393828315387428"><ele>738.5</ele><time>2026-03-27T09:29:01.999Z</time></trkpt><trkpt lat="44.76980281205993" lon="2.393773910185702"><ele>739.0</ele><time>2026-03-27T09:29:03.999Z</time></trkpt><trkpt lat="44.76994285827335" lon="2.393724199070392"><ele>739.0</ele><time>2026-03-27T09:29:04.999Z</time></trkpt><trkpt lat="44.770021237016316" lon="2.3936980648015838"><ele>739.0</ele><time>2026-03-27T09:29:05.999Z</time></trkpt><trkpt lat="44.770097512954614" lon="2.393633269825201"><ele>739.0</ele><time>2026-03-27T09:29:06.999Z</time></trkpt><trkpt lat="44.77016594558458" lon="2.39356350730877"><ele>739.0</ele><time>2026-03-27T09:29:07.999Z</time></trkpt><trkpt lat="44.77017073367371" lon="2.393467725495267"><ele>739.0</ele><time>2026-03-27T09:29:10.999Z</time></trkpt><trkpt lat="44.77018787784931" lon="2.3933563645915776"><ele>739.0</ele><time>2026-03-27T09:29:12.999Z</time></trkpt><trkpt lat="44.770213756573135" lon="2.3932737010806786"><ele>738.5</ele><time>2026-03-27T09:29:13.999Z</time></trkpt><trkpt lat="44.77031085817325" lon="2.3931790268527853"><ele>738.0</ele><time>2026-03-27T09:29:15.999Z</time></trkpt><trkpt lat="44.77145874177395" lon="2.3930016476762845"><ele>738.0</ele><time>2026-03-27T09:29:16.999Z</time></trkpt><trkpt lat="44.771540605338124" lon="2.392852858115793"><ele>738.0</ele><time>2026-03-27T09:29:17.999Z</time></trkpt><trkpt lat="44.77160608533189" lon="2.3927385700277517"><ele>738.0</ele><time>2026-03-27T09:29:18.999Z</time></trkpt><trkpt lat="44.77167448898712" lon="2.3925845123814944"><ele>738.0</ele><time>2026-03-27T09:29:19.999Z</time></trkpt><trkpt lat="44.771785327792955" lon="2.3924351299683693"><ele>737.75</ele><time>2026-03-27T09:29:20.999Z</time></trkpt><trkpt lat="44.771879427488194" lon="2.3923152115257875"><ele>737.5</ele><time>2026-03-27T09:29:21.999Z</time></trkpt><trkpt lat="44.7719788832888" lon="2.3921662166793896"><ele>737.25</ele><time>2026-03-27T09:29:22.999Z</time></trkpt><trkpt lat="44.77207980113093" lon="2.392050713019408"><ele>737.0</ele><time>2026-03-27T09:29:23.999Z</time></trkpt><trkpt lat="44.77214188144433" lon="2.391934028296552"><ele>737.0</ele><time>2026-03-27T09:29:24.999Z</time></trkpt><trkpt lat="44.772229103934244" lon="2.3918467564036545"><ele>737.0</ele><time>2026-03-27T09:29:25.999Z</time></trkpt><trkpt lat="44.77228228723767" lon="2.3917768964804407"><ele>737.0</ele><time>2026-03-27T09:29:26.999Z</time></trkpt><trkpt lat="44.77232837657906" lon="2.3917129384708664"><ele>737.0</ele><time>2026-03-27T09:29:27.999Z</time></trkpt><trkpt lat="44.77238441115033" lon="2.391649446679226"><ele>737.0</ele><time>2026-03-27T09:29:28.999Z</time></trkpt><trkpt lat="44.77246069240655" lon="2.3915479768738983"><ele>737.0</ele><time>2026-03-27T09:29:30.999Z</time></trkpt><trkpt lat="44.772510662826704" lon="2.391484070355785"><ele>737.0</ele><time>2026-03-27T09:29:31.999Z</time></trkpt><trkpt lat="44.77255965390381" lon="2.391422724768704"><ele>737.0</ele><time>2026-03-27T09:29:32.999Z</time></trkpt><trkpt lat="44.7726132340572" lon="2.391347479887448"><ele>737.0</ele><time>2026-03-27T09:29:33.999Z</time></trkpt><trkpt lat="44.77267214013264" lon="2.3912570511026012"><ele>737.0</ele><time>2026-03-27T09:29:34.999Z</time></trkpt><trkpt lat="44.77271841406471" lon="2.3911533524968913"><ele>737.0</ele><time>2026-03-27T09:29:35.999Z</time></trkpt><trkpt lat="44.772765208269725" lon="2.391035815970567"><ele>737.0</ele><time>2026-03-27T09:29:36.999Z</time></trkpt><trkpt lat="44.77275623857488" lon="2.3907897814417725"><ele>735.8</ele><time>2026-03-27T09:29:37.999Z</time></trkpt><trkpt lat="44.77278168135378" lon="2.3906389120314464"><ele>734.6</ele><time>2026-03-27T09:29:39Z</time></trkpt><trkpt lat="44.77278539903991" lon="2.390506876098526"><ele>733.4</ele><time>2026-03-27T09:29:40Z</time></trkpt><trkpt lat="44.77277108471571" lon="2.390325702473916"><ele>732.1999999999999</ele><time>2026-03-27T09:29:41Z</time></trkpt><trkpt lat="44.77276201321409" lon="2.390174615709654"><ele>731.0</ele><time>2026-03-27T09:29:42Z</time></trkpt><trkpt lat="44.77276409226607" lon="2.3900125505913725"><ele>729.0</ele><time>2026-03-27T09:29:43Z</time></trkpt><trkpt lat="44.77277130081163" lon="2.3898671754346603"><ele>727.0</ele><time>2026-03-27T09:29:44Z</time></trkpt><trkpt lat="44.77279769201048" lon="2.3897306670357916"><ele>725.0</ele><time>2026-03-27T09:29:45Z</time></trkpt><trkpt lat="44.77279886628939" lon="2.3896075025980474"><ele>723.0</ele><time>2026-03-27T09:29:46Z</time></trkpt><trkpt lat="44.77278856274673" lon="2.389493503582273"><ele>721.0</ele><time>2026-03-27T09:29:47Z</time></trkpt><trkpt lat="44.77277037991439" lon="2.3893774932682517"><ele>721.5999999999999</ele><time>2026-03-27T09:29:48Z</time></trkpt><trkpt lat="44.77275663778346" lon="2.389279573211319"><ele>722.2</ele><time>2026-03-27T09:29:49Z</time></trkpt><trkpt lat="44.77269054506352" lon="2.389165419516526"><ele>722.8</ele><time>2026-03-27T09:29:50Z</time></trkpt><trkpt lat="44.77264566091071" lon="2.3890818149092246"><ele>723.4000000000001</ele><time>2026-03-27T09:29:51Z</time></trkpt><trkpt lat="44.77259637617971" lon="2.38895768130449"><ele>724.0</ele><time>2026-03-27T09:29:52Z</time></trkpt><trkpt lat="44.77254245599936" lon="2.3888035857776875"><ele>724.0</ele><time>2026-03-27T09:29:54Z</time></trkpt><trkpt lat="44.772545142188186" lon="2.388622286281877"><ele>724.0</ele><time>2026-03-27T09:29:56Z</time></trkpt><trkpt lat="44.77258098591157" lon="2.388518777224849"><ele>724.0</ele><time>2026-03-27T09:29:57Z</time></trkpt><trkpt lat="44.772764847570556" lon="2.388481955987373"><ele>724.0</ele><time>2026-03-27T09:29:59Z</time></trkpt><trkpt lat="44.7727922331553" lon="2.388339133561048"><ele>723.0</ele><time>2026-03-27T09:30:00Z</time></trkpt><trkpt lat="44.77275846448316" lon="2.3881764271149835"><ele>722.0</ele><time>2026-03-27T09:30:01Z</time></trkpt><trkpt lat="44.7727822949445" lon="2.3880226909564506"><ele>721.0</ele><time>2026-03-27T09:30:02Z</time></trkpt><trkpt lat="44.77272469748474" lon="2.3877623861977395"><ele>720.0</ele><time>2026-03-27T09:30:03Z</time></trkpt><trkpt lat="44.772635367297646" lon="2.3875650468965026"><ele>720.0</ele><time>2026-03-27T09:30:04Z</time></trkpt><trkpt lat="44.772649123102006" lon="2.387380034045674"><ele>720.0</ele><time>2026-03-27T09:30:05Z</time></trkpt><trkpt lat="44.77264471978446" lon="2.3872272185663816"><ele>720.0</ele><time>2026-03-27T09:30:06Z</time></trkpt><trkpt lat="44.77320160216815" lon="2.38722756862742"><ele>725.0</ele><time>2026-03-27T09:30:12Z</time></trkpt><trkpt lat="44.77314650591936" lon="2.387129757205631"><ele>730.0</ele><time>2026-03-27T09:30:14Z</time></trkpt><trkpt lat="44.77320400715034" lon="2.387083121103922"><ele>735.0</ele><time>2026-03-27T09:30:15Z</time></trkpt><trkpt lat="44.77359240986891" lon="2.3842401717302493"><ele>740.5</ele><time>2026-03-27T09:30:35Z</time></trkpt><trkpt lat="44.77350888440814" lon="2.3840708134531576"><ele>746.0</ele><time>2026-03-27T09:30:36Z</time></trkpt><trkpt lat="44.77322223199645" lon="2.3836597249769933"><ele>746.0</ele><time>2026-03-27T09:30:39.999Z</time></trkpt><trkpt lat="44.7731746940628" lon="2.3835734876138304"><ele>746.0</ele><time>2026-03-27T09:30:40.999Z</time></trkpt><trkpt lat="44.773100828832135" lon="2.383429312155399"><ele>746.0</ele><time>2026-03-27T09:30:42.999Z</time></trkpt><trkpt lat="44.77306204361791" lon="2.3833577970001505"><ele>746.0</ele><time>2026-03-27T09:30:43.999Z</time></trkpt><trkpt lat="44.77313023012229" lon="2.3830809201562033"><ele>746.0</ele><time>2026-03-27T09:30:48.999Z</time></trkpt><trkpt lat="44.77329573316654" lon="2.383303968385065"><ele>746.0</ele><time>2026-03-27T09:30:53.999Z</time></trkpt><trkpt lat="44.77334854972969" lon="2.3831903529242298"><ele>746.0</ele><time>2026-03-27T09:30:54.999Z</time></trkpt><trkpt lat="44.77342344929737" lon="2.3830678917485413"><ele>746.0</ele><time>2026-03-27T09:30:55.999Z</time></trkpt><trkpt lat="44.773503556239035" lon="2.3829513082742233"><ele>744.0</ele><time>2026-03-27T09:30:56.999Z</time></trkpt><trkpt lat="44.773584240168525" lon="2.3827711037145924"><ele>742.0</ele><time>2026-03-27T09:30:58.999Z</time></trkpt><trkpt lat="44.77367898061266" lon="2.3827233274409196"><ele>740.0</ele><time>2026-03-27T09:31:00.999Z</time></trkpt><trkpt lat="44.773746878276974" lon="2.382745671720219"><ele>738.0</ele><time>2026-03-27T09:31:03.999Z</time></trkpt><trkpt lat="44.77380341777181" lon="2.3828021763693927"><ele>736.0</ele><time>2026-03-27T09:31:04.999Z</time></trkpt><trkpt lat="44.773879254756885" lon="2.3828487604575375"><ele>736.0</ele><time>2026-03-27T09:31:06.999Z</time></trkpt><trkpt lat="44.77396403665994" lon="2.382903181459097"><ele>736.0</ele><time>2026-03-27T09:31:09.999Z</time></trkpt><trkpt lat="44.77406861367814" lon="2.383062430619119"><ele>736.0</ele><time>2026-03-27T09:31:11.999Z</time></trkpt><trkpt lat="44.77413508115715" lon="2.3831481444534472"><ele>736.0</ele><time>2026-03-27T09:31:12.999Z</time></trkpt><trkpt lat="44.77419086977038" lon="2.383202391767566"><ele>736.0</ele><time>2026-03-27T09:31:13.999Z</time></trkpt><trkpt lat="44.77422824215742" lon="2.383277982703952"><ele>733.0</ele><time>2026-03-27T09:31:14.999Z</time></trkpt><trkpt lat="44.774354961775785" lon="2.383394651569758"><ele>730.0</ele><time>2026-03-27T09:31:16.999Z</time></trkpt><trkpt lat="44.77442338536345" lon="2.3834174071479515"><ele>727.0</ele><time>2026-03-27T09:31:17.999Z</time></trkpt><trkpt lat="44.77448819538571" lon="2.383417847820406"><ele>724.0</ele><time>2026-03-27T09:31:18.999Z</time></trkpt><trkpt lat="44.774574224125615" lon="2.3834242229522755"><ele>721.0</ele><time>2026-03-27T09:31:19.999Z</time></trkpt><trkpt lat="44.774649915896084" lon="2.3834591941755647"><ele>721.0</ele><time>2026-03-27T09:31:20.999Z</time></trkpt><trkpt lat="44.77478460490044" lon="2.383465923393151"><ele>721.0</ele><time>2026-03-27T09:31:22.999Z</time></trkpt><trkpt lat="44.774856858422574" lon="2.3834857733073953"><ele>721.0</ele><time>2026-03-27T09:31:29.999Z</time></trkpt><trkpt lat="44.774952797627826" lon="2.383534611311535"><ele>721.0</ele><time>2026-03-27T09:31:41.999Z</time></trkpt><trkpt lat="44.77501770510501" lon="2.3835647750760143"><ele>721.0</ele><time>2026-03-27T09:31:42.999Z</time></trkpt><trkpt lat="44.77510631276748" lon="2.383620132900938"><ele>719.5999999999999</ele><time>2026-03-27T09:31:45Z</time></trkpt><trkpt lat="44.77528797680146" lon="2.3835448617145634"><ele>718.2</ele><time>2026-03-27T09:31:54Z</time></trkpt><trkpt lat="44.775356965989054" lon="2.383538532069006"><ele>716.8</ele><time>2026-03-27T09:31:57Z</time></trkpt><trkpt lat="44.77545266292195" lon="2.383487215891847"><ele>715.4000000000001</ele><time>2026-03-27T09:32:01Z</time></trkpt><trkpt lat="44.775517069048696" lon="2.3834380303491227"><ele>714.0</ele><time>2026-03-27T09:32:04Z</time></trkpt><trkpt lat="44.77563536470816" lon="2.3834768254409484"><ele>714.0</ele><time>2026-03-27T09:32:06Z</time></trkpt><trkpt lat="44.77575155805418" lon="2.3835053636653796"><ele>714.0</ele><time>2026-03-27T09:32:08Z</time></trkpt><trkpt lat="44.77582652763645" lon="2.383565361568157"><ele>714.0</ele><time>2026-03-27T09:32:11Z</time></trkpt><trkpt lat="44.77587378541023" lon="2.3836541446835913"><ele>714.0</ele><time>2026-03-27T09:32:13Z</time></trkpt><trkpt lat="44.77588930682576" lon="2.3837586503268096"><ele>714.0</ele><time>2026-03-27T09:32:15Z</time></trkpt><trkpt lat="44.77578929195258" lon="2.383875239105447"><ele>714.5</ele><time>2026-03-27T09:32:16Z</time></trkpt><trkpt lat="44.77593886210399" lon="2.383874381794064"><ele>715.0</ele><time>2026-03-27T09:32:18Z</time></trkpt><trkpt lat="44.77630383073087" lon="2.383910124231827"><ele>712.5</ele><time>2026-03-27T09:32:30Z</time></trkpt><trkpt lat="44.77649205575227" lon="2.38394044135946"><ele>710.0</ele><time>2026-03-27T09:32:31Z</time></trkpt><trkpt lat="44.77657529605642" lon="2.3839501246334853"><ele>707.5</ele><time>2026-03-27T09:32:33Z</time></trkpt><trkpt lat="44.77659002876412" lon="2.383791389624989"><ele>705.0</ele><time>2026-03-27T09:39:12.999Z</time></trkpt><trkpt lat="44.77662870072046" lon="2.3837005520141807"><ele>704.8333333333334</ele><time>2026-03-27T09:39:23.999Z</time></trkpt><trkpt lat="44.776677300373365" lon="2.3836368071318006"><ele>704.6666666666666</ele><time>2026-03-27T09:39:25.999Z</time></trkpt><trkpt lat="44.77673301584072" lon="2.3835692191507043"><ele>704.5</ele><time>2026-03-27T09:39:27.999Z</time></trkpt><trkpt lat="44.77681697334242" lon="2.383532075500221"><ele>704.3333333333333</ele><time>2026-03-27T09:39:29.999Z</time></trkpt><trkpt lat="44.77689502667417" lon="2.3834653779527404"><ele>704.1666666666666</ele><time>2026-03-27T09:39:31.999Z</time></trkpt><trkpt lat="44.776968309641255" lon="2.383418083821925"><ele>704.0</ele><time>2026-03-27T09:39:33.999Z</time></trkpt><trkpt lat="44.777006411759764" lon="2.383327428738234"><ele>703.0</ele><time>2026-03-27T09:39:35.999Z</time></trkpt><trkpt lat="44.77707498766343" lon="2.3832598250283867"><ele>702.0</ele><time>2026-03-27T09:39:37.999Z</time></trkpt><trkpt lat="44.777120871103925" lon="2.3831890348258393"><ele>701.0</ele><time>2026-03-27T09:39:38.999Z</time></trkpt><trkpt lat="44.77720223331198" lon="2.38310484041309"><ele>700.0</ele><time>2026-03-27T09:39:39.999Z</time></trkpt><trkpt lat="44.77726682142424" lon="2.3830184979965505"><ele>699.0</ele><time>2026-03-27T09:39:40.999Z</time></trkpt><trkpt lat="44.77734081090606" lon="2.382916336727576"><ele>698.0</ele><time>2026-03-27T09:39:41.999Z</time></trkpt><trkpt lat="44.77737988110953" lon="2.382833459222312"><ele>698.0</ele><time>2026-03-27T09:39:42.999Z</time></trkpt><trkpt lat="44.777427597069924" lon="2.382763610949899"><ele>698.0</ele><time>2026-03-27T09:39:43.999Z</time></trkpt><trkpt lat="44.77750097385551" lon="2.3826549636402685"><ele>698.0</ele><time>2026-03-27T09:39:45.999Z</time></trkpt><trkpt lat="44.77752722025515" lon="2.3825625661913574"><ele>698.0</ele><time>2026-03-27T09:39:46.999Z</time></trkpt><trkpt lat="44.77759191109608" lon="2.382508577567638"><ele>698.0</ele><time>2026-03-27T09:39:48.999Z</time></trkpt><trkpt lat="44.777614358838775" lon="2.3824028157652615"><ele>698.0</ele><time>2026-03-27T09:39:51.999Z</time></trkpt><trkpt lat="44.77767533386884" lon="2.3822947191991926"><ele>697.5999999999999</ele><time>2026-03-27T09:39:53.999Z</time></trkpt><trkpt lat="44.77769090200876" lon="2.382151062770757"><ele>697.1999999999999</ele><time>2026-03-27T09:39:56.999Z</time></trkpt><trkpt lat="44.777745184221125" lon="2.3820436153364364"><ele>696.8</ele><time>2026-03-27T09:39:58.999Z</time></trkpt><trkpt lat="44.777783426426964" lon="2.3819595258679094"><ele>696.4</ele><time>2026-03-27T09:40:00.999Z</time></trkpt><trkpt lat="44.77781163687593" lon="2.3818521580245693"><ele>696.0</ele><time>2026-03-27T09:40:04.998Z</time></trkpt><trkpt lat="44.77768244409648" lon="2.381583136341993"><ele>696.0</ele><time>2026-03-27T09:40:57.999Z</time></trkpt><trkpt lat="44.77769486925528" lon="2.381473195626667"><ele>696.0</ele><time>2026-03-27T09:41:17.999Z</time></trkpt><trkpt lat="44.77771034787115" lon="2.3813787493942487"><ele>696.0</ele><time>2026-03-27T09:41:19.999Z</time></trkpt><trkpt lat="44.77773998904461" lon="2.381280995131347"><ele>696.0</ele><time>2026-03-27T09:41:21.999Z</time></trkpt><trkpt lat="44.77777681141102" lon="2.381148712043746"><ele>696.0</ele><time>2026-03-27T09:41:23.999Z</time></trkpt><trkpt lat="44.77780709817103" lon="2.3810531772089663"><ele>696.0</ele><time>2026-03-27T09:41:26.999Z</time></trkpt><trkpt lat="44.77790198130606" lon="2.3810266586723476"><ele>698.8</ele><time>2026-03-27T09:41:28.999Z</time></trkpt><trkpt lat="44.77779394034628" lon="2.3808365739710475"><ele>701.5999999999999</ele><time>2026-03-27T09:41:49.999Z</time></trkpt><trkpt lat="44.77773177995195" lon="2.380797966575939"><ele>704.4</ele><time>2026-03-27T09:47:28.999Z</time></trkpt><trkpt lat="44.77767260480081" lon="2.3807166580865986"><ele>707.2</ele><time>2026-03-27T09:47:32.999Z</time></trkpt><trkpt lat="44.777621826532034" lon="2.380587319977353"><ele>710.0</ele><time>2026-03-27T09:47:35.999Z</time></trkpt><trkpt lat="44.777593392222364" lon="2.380507888016078"><ele>712.5</ele><time>2026-03-27T09:47:36.999Z</time></trkpt><trkpt lat="44.777547565148865" lon="2.380365186643274"><ele>715.0</ele><time>2026-03-27T09:47:38.999Z</time></trkpt><trkpt lat="44.77754424367908" lon="2.3802574638221468"><ele>717.5</ele><time>2026-03-27T09:47:39.999Z</time></trkpt><trkpt lat="44.777516914567165" lon="2.3800688277826163"><ele>720.0</ele><time>2026-03-27T09:47:41.999Z</time></trkpt><trkpt lat="44.77748159332995" lon="2.379890089563875"><ele>720.0</ele><time>2026-03-27T09:47:43.999Z</time></trkpt><trkpt lat="44.7774581227334" lon="2.3797500766027944"><ele>720.0</ele><time>2026-03-27T09:47:44.999Z</time></trkpt><trkpt lat="44.777418894756856" lon="2.379608754114162"><ele>720.0</ele><time>2026-03-27T09:47:45.999Z</time></trkpt><trkpt lat="44.77738246904432" lon="2.3794310453705463"><ele>720.0</ele><time>2026-03-27T09:47:46.999Z</time></trkpt><trkpt lat="44.7773365621452" lon="2.379275511479097"><ele>721.4</ele><time>2026-03-27T09:47:47.999Z</time></trkpt><trkpt lat="44.7773378747561" lon="2.379150554509152"><ele>722.8</ele><time>2026-03-27T09:47:49.999Z</time></trkpt><trkpt lat="44.777411605416695" lon="2.379038983990904"><ele>724.2</ele><time>2026-03-27T09:47:51.999Z</time></trkpt><trkpt lat="44.77752308496675" lon="2.379078568524312"><ele>725.6</ele><time>2026-03-27T09:47:53.999Z</time></trkpt><trkpt lat="44.77759334038554" lon="2.3791223341525414"><ele>727.0</ele><time>2026-03-27T09:47:54.999Z</time></trkpt><trkpt lat="44.777645989747896" lon="2.3791913560999554"><ele>726.75</ele><time>2026-03-27T09:47:55.999Z</time></trkpt><trkpt lat="44.77773818571047" lon="2.3792424971386996"><ele>726.5</ele><time>2026-03-27T09:47:57.999Z</time></trkpt><trkpt lat="44.777868646022036" lon="2.3792792067765367"><ele>726.25</ele><time>2026-03-27T09:47:59.999Z</time></trkpt><trkpt lat="44.777975843028486" lon="2.3792672698304713"><ele>726.0</ele><time>2026-03-27T09:48:00.999Z</time></trkpt><trkpt lat="44.77808470983678" lon="2.3793167770288264"><ele>726.0</ele><time>2026-03-27T09:48:01.999Z</time></trkpt><trkpt lat="44.77817983168864" lon="2.379346867606069"><ele>726.0</ele><time>2026-03-27T09:48:02.999Z</time></trkpt><trkpt lat="44.77826685407921" lon="2.379342741317988"><ele>726.0</ele><time>2026-03-27T09:48:03.999Z</time></trkpt><trkpt lat="44.77833416553564" lon="2.3793437033902487"><ele>726.0</ele><time>2026-03-27T09:48:04.999Z</time></trkpt><trkpt lat="44.77839726555653" lon="2.3793396792069377"><ele>726.0</ele><time>2026-03-27T09:48:05.999Z</time></trkpt><trkpt lat="44.77847765727942" lon="2.3793525096440122"><ele>726.0</ele><time>2026-03-27T09:48:06.999Z</time></trkpt><trkpt lat="44.778540725818104" lon="2.3793410084213376"><ele>723.8333333333334</ele><time>2026-03-27T09:48:07.999Z</time></trkpt><trkpt lat="44.778654348682856" lon="2.379307834605202"><ele>721.6666666666666</ele><time>2026-03-27T09:48:09.999Z</time></trkpt><trkpt lat="44.77871685496792" lon="2.3792403868836627"><ele>719.5</ele><time>2026-03-27T09:48:11.999Z</time></trkpt><trkpt lat="44.77879138193245" lon="2.379201144223703"><ele>717.3333333333333</ele><time>2026-03-27T09:48:13.999Z</time></trkpt><trkpt lat="44.778880618267976" lon="2.379166987134041"><ele>715.1666666666666</ele><time>2026-03-27T09:48:15.998Z</time></trkpt><trkpt lat="44.77894766451049" lon="2.379148838496971"><ele>713.0</ele><time>2026-03-27T09:48:20.998Z</time></trkpt><trkpt lat="44.7790023805607" lon="2.379075232540631"><ele>713.0</ele><time>2026-03-27T09:48:24.998Z</time></trkpt><trkpt lat="44.77904071731241" lon="2.378966857852065"><ele>713.0</ele><time>2026-03-27T09:48:28.998Z</time></trkpt><trkpt lat="44.779109687061066" lon="2.378943456074892"><ele>713.0</ele><time>2026-03-27T09:48:30.998Z</time></trkpt><trkpt lat="44.77919426436707" lon="2.3788683192097957"><ele>713.0</ele><time>2026-03-27T09:48:36Z</time></trkpt><trkpt lat="44.779220645355544" lon="2.378782289596294"><ele>713.0</ele><time>2026-03-27T09:48:41Z</time></trkpt><trkpt lat="44.779275044739826" lon="2.3787351555268366"><ele>713.0</ele><time>2026-03-27T09:48:43Z</time></trkpt><trkpt lat="44.779344883026916" lon="2.3786939318279585"><ele>713.1428571428571</ele><time>2026-03-27T09:48:47Z</time></trkpt><trkpt lat="44.77939625079006" lon="2.3786405783196516"><ele>713.2857142857143</ele><time>2026-03-27T09:48:49Z</time></trkpt><trkpt lat="44.779452614491234" lon="2.3785602362570595"><ele>713.4285714285714</ele><time>2026-03-27T09:48:52Z</time></trkpt><trkpt lat="44.77950327078044" lon="2.378492164381439"><ele>713.5714285714286</ele><time>2026-03-27T09:48:55Z</time></trkpt><trkpt lat="44.779548174696714" lon="2.3784230384532727"><ele>713.7142857142858</ele><time>2026-03-27T09:48:58Z</time></trkpt><trkpt lat="44.77957936658545" lon="2.378332125826515"><ele>713.8571428571429</ele><time>2026-03-27T09:49:01Z</time></trkpt><trkpt lat="44.77963114237832" lon="2.378236301425089"><ele>714.0</ele><time>2026-03-27T09:49:03.999Z</time></trkpt><trkpt lat="44.77968225190244" lon="2.3781573450202256"><ele>714.0</ele><time>2026-03-27T09:49:06.999Z</time></trkpt><trkpt lat="44.77973892870537" lon="2.378073816517822"><ele>714.0</ele><time>2026-03-27T09:49:47.999Z</time></trkpt><trkpt lat="44.77969317087251" lon="2.3779998638110116"><ele>714.0</ele><time>2026-03-27T09:49:58.999Z</time></trkpt><trkpt lat="44.77971123936548" lon="2.377914451173567"><ele>714.0</ele><time>2026-03-27T09:50:02.999Z</time></trkpt><trkpt lat="44.77970616558729" lon="2.3777727980773693"><ele>714.0</ele><time>2026-03-27T09:50:04.999Z</time></trkpt><trkpt lat="44.779759643447875" lon="2.3777050170997174"><ele>714.0</ele><time>2026-03-27T09:50:08.999Z</time></trkpt><trkpt lat="44.779808851887836" lon="2.3777691454163623"><ele>714.0</ele><time>2026-03-27T09:54:08.999Z</time></trkpt><trkpt lat="44.779790843767266" lon="2.377876688741707"><ele>714.0</ele><time>2026-03-27T09:54:28.999Z</time></trkpt><trkpt lat="44.77976276942076" lon="2.377971029459145"><ele>714.0</ele><time>2026-03-27T09:54:37.998Z</time></trkpt><trkpt lat="44.77974603725601" lon="2.37805855064675"><ele>714.0</ele><time>2026-03-27T09:54:46.998Z</time></trkpt><trkpt lat="44.77970594920515" lon="2.3781714547154476"><ele>714.0</ele><time>2026-03-27T09:54:50.999Z</time></trkpt><trkpt lat="44.779670460173804" lon="2.3782576149022465"><ele>714.0</ele><time>2026-03-27T09:54:53.999Z</time></trkpt><trkpt lat="44.77963468579796" lon="2.3783484382900553"><ele>714.0</ele><time>2026-03-27T09:54:57.999Z</time></trkpt><trkpt lat="44.7796078394419" lon="2.378430330650336"><ele>714.0</ele><time>2026-03-27T09:55:08.999Z</time></trkpt><trkpt lat="44.77963798842202" lon="2.3785135252308245"><ele>714.0</ele><time>2026-03-27T09:55:11.999Z</time></trkpt><trkpt lat="44.779706692661605" lon="2.3785430998672066"><ele>714.0</ele><time>2026-03-27T09:56:49.998Z</time></trkpt><trkpt lat="44.779729269006914" lon="2.378627920319251"><ele>714.0</ele><time>2026-03-27T09:56:58Z</time></trkpt><trkpt lat="44.779742199082904" lon="2.378717087415142"><ele>714.0</ele><time>2026-03-27T09:57:05Z</time></trkpt><trkpt lat="44.779864297865" lon="2.3787385105779646"><ele>714.0</ele><time>2026-03-27T09:57:19Z</time></trkpt><trkpt lat="44.77992855310342" lon="2.3788035782371852"><ele>714.0</ele><time>2026-03-27T09:57:24Z</time></trkpt><trkpt lat="44.77999765281341" lon="2.3788422999514824"><ele>714.0</ele><time>2026-03-27T09:57:26.999Z</time></trkpt><trkpt lat="44.780172614520154" lon="2.378816637860922"><ele>714.0</ele><time>2026-03-27T09:57:32.999Z</time></trkpt><trkpt lat="44.78039231374367" lon="2.378810021257161"><ele>712.8333333333334</ele><time>2026-03-27T09:57:40.999Z</time></trkpt><trkpt lat="44.780473638441514" lon="2.3788013463481867"><ele>711.6666666666666</ele><time>2026-03-27T09:57:42.999Z</time></trkpt><trkpt lat="44.78057737900237" lon="2.378802154589694"><ele>710.5</ele><time>2026-03-27T09:57:45.999Z</time></trkpt><trkpt lat="44.78061752693844" lon="2.378870647434091"><ele>709.3333333333333</ele><time>2026-03-27T09:57:48.999Z</time></trkpt><trkpt lat="44.780684479694216" lon="2.378892971798292"><ele>708.1666666666666</ele><time>2026-03-27T09:57:51.999Z</time></trkpt><trkpt lat="44.78077077609466" lon="2.378873491802725"><ele>707.0</ele><time>2026-03-27T09:57:55.999Z</time></trkpt><trkpt lat="44.78082276318563" lon="2.378815834887271"><ele>707.0</ele><time>2026-03-27T09:57:58.999Z</time></trkpt><trkpt lat="44.78087581737491" lon="2.3787328642157353"><ele>707.0</ele><time>2026-03-27T09:58:01.999Z</time></trkpt><trkpt lat="44.78095993697023" lon="2.3786852757044645"><ele>707.0</ele><time>2026-03-27T09:58:04.999Z</time></trkpt><trkpt lat="44.78100893077868" lon="2.378625707455211"><ele>707.0</ele><time>2026-03-27T09:58:08.999Z</time></trkpt><trkpt lat="44.78110458375895" lon="2.378558673531237"><ele>707.0</ele><time>2026-03-27T09:58:18.999Z</time></trkpt><trkpt lat="44.78115292960214" lon="2.3784807531372123"><ele>707.0</ele><time>2026-03-27T09:58:20.999Z</time></trkpt><trkpt lat="44.781210011672954" lon="2.3784106106686"><ele>705.0</ele><time>2026-03-27T09:58:22.999Z</time></trkpt><trkpt lat="44.78126919420071" lon="2.3782873988793676"><ele>703.0</ele><time>2026-03-27T09:58:24.999Z</time></trkpt><trkpt lat="44.78131792745225" lon="2.378148819012155"><ele>701.0</ele><time>2026-03-27T09:58:26.999Z</time></trkpt><trkpt lat="44.781364965179066" lon="2.378056911504829"><ele>699.0</ele><time>2026-03-27T09:58:28.999Z</time></trkpt><trkpt lat="44.78138328286455" lon="2.3779499591628057"><ele>697.0</ele><time>2026-03-27T09:58:29.999Z</time></trkpt><trkpt lat="44.781372336441" lon="2.377826231397183"><ele>697.0</ele><time>2026-03-27T09:58:31.999Z</time></trkpt><trkpt lat="44.78131864893991" lon="2.377697941669327"><ele>697.0</ele><time>2026-03-27T09:58:33.999Z</time></trkpt><trkpt lat="44.78131080986406" lon="2.3775708860040337"><ele>697.0</ele><time>2026-03-27T09:58:35.999Z</time></trkpt><trkpt lat="44.78134571395414" lon="2.3774599271170436"><ele>697.0</ele><time>2026-03-27T09:58:37.999Z</time></trkpt><trkpt lat="44.78138455120287" lon="2.377374187436978"><ele>697.0</ele><time>2026-03-27T09:58:38.999Z</time></trkpt><trkpt lat="44.78141452871528" lon="2.3772585389036647"><ele>697.0</ele><time>2026-03-27T09:58:40.999Z</time></trkpt><trkpt lat="44.781378896164014" lon="2.377137143914135"><ele>697.2857142857143</ele><time>2026-03-27T09:58:42.999Z</time></trkpt><trkpt lat="44.78142245192641" lon="2.377060473739224"><ele>697.5714285714286</ele><time>2026-03-27T09:58:46.999Z</time></trkpt><trkpt lat="44.78142676182394" lon="2.376966095355042"><ele>697.8571428571429</ele><time>2026-03-27T09:58:48.999Z</time></trkpt><trkpt lat="44.78147877524688" lon="2.3768829242688927"><ele>698.1428571428571</ele><time>2026-03-27T09:58:52.999Z</time></trkpt><trkpt lat="44.78148703941991" lon="2.3767936344232035"><ele>698.4285714285714</ele><time>2026-03-27T09:58:54.999Z</time></trkpt><trkpt lat="44.781520021420576" lon="2.376677059340642"><ele>698.7142857142857</ele><time>2026-03-27T09:58:56.999Z</time></trkpt><trkpt lat="44.7815343997249" lon="2.376568021696579"><ele>699.0</ele><time>2026-03-27T09:58:58.999Z</time></trkpt><trkpt lat="44.78151670337009" lon="2.3763818326668633"><ele>699.0</ele><time>2026-03-27T09:59:01Z</time></trkpt><trkpt lat="44.78152570822158" lon="2.376250072166102"><ele>699.0</ele><time>2026-03-27T09:59:02Z</time></trkpt><trkpt lat="44.781639608257116" lon="2.3762256506367945"><ele>699.0</ele><time>2026-03-27T09:59:08Z</time></trkpt><trkpt lat="44.78168068426614" lon="2.3762994807842244"><ele>699.0</ele><time>2026-03-27T09:59:10Z</time></trkpt><trkpt lat="44.78174737723689" lon="2.376352052716844"><ele>699.0</ele><time>2026-03-27T09:59:12Z</time></trkpt><trkpt lat="44.78176920270074" lon="2.376462144549015"><ele>699.0</ele><time>2026-03-27T09:59:14Z</time></trkpt><trkpt lat="44.78177297481894" lon="2.376575369328939"><ele>699.0</ele><time>2026-03-27T09:59:16Z</time></trkpt><trkpt lat="44.78182006715334" lon="2.3766767624017224"><ele>699.0</ele><time>2026-03-27T09:59:18Z</time></trkpt><trkpt lat="44.781823399274806" lon="2.3767703929115647"><ele>699.0</ele><time>2026-03-27T09:59:20Z</time></trkpt><trkpt lat="44.78185350570098" lon="2.37685107473633"><ele>699.0</ele><time>2026-03-27T09:59:22Z</time></trkpt><trkpt lat="44.781813793517486" lon="2.3769222195765614"><ele>699.0</ele><time>2026-03-27T09:59:25Z</time></trkpt><trkpt lat="44.781721154370594" lon="2.376987858270538"><ele>699.0</ele><time>2026-03-27T09:59:28Z</time></trkpt><trkpt lat="44.78177460388024" lon="2.3770950365506898"><ele>699.0</ele><time>2026-03-27T09:59:30Z</time></trkpt><trkpt lat="44.781828159332136" lon="2.377151731415515"><ele>699.0</ele><time>2026-03-27T09:59:31.999Z</time></trkpt><trkpt lat="44.78187428865346" lon="2.3772134525172497"><ele>699.0</ele><time>2026-03-27T09:59:41.999Z</time></trkpt><trkpt lat="44.781969037066624" lon="2.3772225875431725"><ele>699.0</ele><time>2026-03-27T10:00:01.999Z</time></trkpt><trkpt lat="44.78205243249938" lon="2.377221426193534"><ele>699.0</ele><time>2026-03-27T10:00:09.999Z</time></trkpt><trkpt lat="44.78210524112247" lon="2.3771464905923225"><ele>699.0</ele><time>2026-03-27T10:00:13.999Z</time></trkpt><trkpt lat="44.78215886347932" lon="2.377078885953262"><ele>694.3333333333334</ele><time>2026-03-27T10:00:24.999Z</time></trkpt><trkpt lat="44.78222662991962" lon="2.377014017171501"><ele>689.6666666666666</ele><time>2026-03-27T10:00:29.999Z</time></trkpt><trkpt lat="44.78228867805969" lon="2.3769633080974404"><ele>685.0</ele><time>2026-03-27T10:00:32.999Z</time></trkpt><trkpt lat="44.78229668414685" lon="2.376849571914197"><ele>680.3333333333333</ele><time>2026-03-27T10:00:36.999Z</time></trkpt><trkpt lat="44.7823311047375" lon="2.3767642229641446"><ele>675.6666666666666</ele><time>2026-03-27T10:00:38.999Z</time></trkpt><trkpt lat="44.78233215090036" lon="2.3766370629585825"><ele>671.0</ele><time>2026-03-27T10:00:40.999Z</time></trkpt><trkpt lat="44.78227626525689" lon="2.376539781041825"><ele>671.0</ele><time>2026-03-27T10:00:42.999Z</time></trkpt><trkpt lat="44.78221754764674" lon="2.3764578293625274"><ele>671.0</ele><time>2026-03-27T10:00:44.999Z</time></trkpt><trkpt lat="44.782147592306806" lon="2.3763402093895727"><ele>671.0</ele><time>2026-03-27T10:00:47.999Z</time></trkpt><trkpt lat="44.78210522281596" lon="2.3762610574417566"><ele>671.0</ele><time>2026-03-27T10:00:49.999Z</time></trkpt><trkpt lat="44.78206763495199" lon="2.3761742530031733"><ele>671.0</ele><time>2026-03-27T10:00:52.999Z</time></trkpt><trkpt lat="44.78207525360921" lon="2.3760791412766613"><ele>671.0</ele><time>2026-03-27T10:00:59.999Z</time></trkpt><trkpt lat="44.78208593403013" lon="2.375969373322339"><ele>671.1999999999999</ele><time>2026-03-27T10:01:58.999Z</time></trkpt><trkpt lat="44.78217200666176" lon="2.375913835324555"><ele>671.4</ele><time>2026-03-27T10:02:04.999Z</time></trkpt><trkpt lat="44.78224898142724" lon="2.375926380645702"><ele>671.6</ele><time>2026-03-27T10:02:08.999Z</time></trkpt><trkpt lat="44.78231405478301" lon="2.3759479148092693"><ele>671.8</ele><time>2026-03-27T10:02:10.999Z</time></trkpt><trkpt lat="44.78239013390996" lon="2.3759843265789407"><ele>672.0</ele><time>2026-03-27T10:02:14.999Z</time></trkpt><trkpt lat="44.78253429317043" lon="2.375967542976366"><ele>672.0</ele><time>2026-03-27T10:02:22.999Z</time></trkpt><trkpt lat="44.782597230591016" lon="2.3759347863375604"><ele>672.0</ele><time>2026-03-27T10:02:24.999Z</time></trkpt><trkpt lat="44.7826702622674" lon="2.375904799844248"><ele>672.0</ele><time>2026-03-27T10:02:27.999Z</time></trkpt><trkpt lat="44.782897196497" lon="2.3758494809191517"><ele>672.0</ele><time>2026-03-27T10:02:37.999Z</time></trkpt><trkpt lat="44.782968800591824" lon="2.375804630617176"><ele>672.4000000000001</ele><time>2026-03-27T10:02:40.999Z</time></trkpt><trkpt lat="44.78304202096286" lon="2.3757562381518245"><ele>672.8000000000001</ele><time>2026-03-27T10:02:43.999Z</time></trkpt><trkpt lat="44.78315037733545" lon="2.3756793009689816"><ele>673.2</ele><time>2026-03-27T10:02:48.999Z</time></trkpt><trkpt lat="44.78321877154949" lon="2.3756012193850067"><ele>673.6</ele><time>2026-03-27T10:02:50.999Z</time></trkpt><trkpt lat="44.78330325910867" lon="2.375533528049862"><ele>674.0</ele><time>2026-03-27T10:02:53.999Z</time></trkpt><trkpt lat="44.783347042242156" lon="2.3754292959404735"><ele>674.0</ele><time>2026-03-27T10:02:56.999Z</time></trkpt><trkpt lat="44.7833803507061" lon="2.3753293296984457"><ele>674.0</ele><time>2026-03-27T10:02:58.999Z</time></trkpt><trkpt lat="44.78342148870162" lon="2.3752073058860934"><ele>674.0</ele><time>2026-03-27T10:03:01.999Z</time></trkpt><trkpt lat="44.78342777515082" lon="2.3750881407929216"><ele>674.0</ele><time>2026-03-27T10:03:05.999Z</time></trkpt><trkpt lat="44.78343562362864" lon="2.3749706505655634"><ele>674.0</ele><time>2026-03-27T10:03:08.999Z</time></trkpt><trkpt lat="44.78346608172876" lon="2.374855129392472"><ele>674.0</ele><time>2026-03-27T10:03:10.998Z</time></trkpt><trkpt lat="44.78350665937543" lon="2.374714925228607"><ele>672.1666666666666</ele><time>2026-03-27T10:03:13Z</time></trkpt><trkpt lat="44.78354231121947" lon="2.374614608080413"><ele>670.3333333333333</ele><time>2026-03-27T10:03:15Z</time></trkpt><trkpt lat="44.78357493832052" lon="2.3745217745591916"><ele>668.5</ele><time>2026-03-27T10:03:17Z</time></trkpt><trkpt lat="44.783637467665166" lon="2.374405347399428"><ele>666.6666666666666</ele><time>2026-03-27T10:03:19Z</time></trkpt><trkpt lat="44.783644542940564" lon="2.3742620200319235"><ele>664.8333333333334</ele><time>2026-03-27T10:03:21Z</time></trkpt><trkpt lat="44.783680086824646" lon="2.37415549384282"><ele>663.0</ele><time>2026-03-27T10:03:24Z</time></trkpt><trkpt lat="44.78365406904748" lon="2.374053305166074"><ele>663.0</ele><time>2026-03-27T10:03:27Z</time></trkpt><trkpt lat="44.783718900262336" lon="2.373974327983328"><ele>663.0</ele><time>2026-03-27T10:03:30Z</time></trkpt><trkpt lat="44.783837141838475" lon="2.3738924874139804"><ele>663.0</ele><time>2026-03-27T10:03:34Z</time></trkpt><trkpt lat="44.78386687848375" lon="2.373764092100228"><ele>663.0</ele><time>2026-03-27T10:03:37Z</time></trkpt><trkpt lat="44.7838656588544" lon="2.3736543036847406"><ele>663.0</ele><time>2026-03-27T10:03:39Z</time></trkpt><trkpt lat="44.7838064031842" lon="2.373567785433331"><ele>663.6666666666666</ele><time>2026-03-27T10:03:42Z</time></trkpt><trkpt lat="44.783829646155155" lon="2.3734499097687185"><ele>664.3333333333334</ele><time>2026-03-27T10:03:43.999Z</time></trkpt><trkpt lat="44.78383608503187" lon="2.3733562490294884"><ele>665.0</ele><time>2026-03-27T10:03:45.999Z</time></trkpt><trkpt lat="44.78386454669758" lon="2.373270043693672"><ele>665.6666666666667</ele><time>2026-03-27T10:03:47.999Z</time></trkpt><trkpt lat="44.78383753239668" lon="2.373162355215078"><ele>666.3333333333334</ele><time>2026-03-27T10:03:49.999Z</time></trkpt><trkpt lat="44.783825818076565" lon="2.373070644786998"><ele>667.0</ele><time>2026-03-27T10:03:51.999Z</time></trkpt><trkpt lat="44.78387942115414" lon="2.372970903461827"><ele>669.0</ele><time>2026-03-27T10:03:54.999Z</time></trkpt><trkpt lat="44.7838970974456" lon="2.372881408494143"><ele>671.0</ele><time>2026-03-27T10:03:57.999Z</time></trkpt><trkpt lat="44.78396205095163" lon="2.3728322168274567"><ele>673.0</ele><time>2026-03-27T10:03:59.999Z</time></trkpt><trkpt lat="44.78402537861169" lon="2.372707515124081"><ele>675.0</ele><time>2026-03-27T10:04:03.999Z</time></trkpt><trkpt lat="44.78405684096443" lon="2.372617354886734"><ele>677.0</ele><time>2026-03-27T10:04:05.999Z</time></trkpt><trkpt lat="44.784090347496935" lon="2.3725283593418984"><ele>679.0</ele><time>2026-03-27T10:04:08.999Z</time></trkpt><trkpt lat="44.784218188851185" lon="2.372451957487299"><ele>679.0</ele><time>2026-03-27T10:04:17.999Z</time></trkpt><trkpt lat="44.784284941493745" lon="2.3724198040868587"><ele>679.0</ele><time>2026-03-27T10:04:19.999Z</time></trkpt><trkpt lat="44.78434791952361" lon="2.3723913126011524"><ele>679.0</ele><time>2026-03-27T10:04:21.999Z</time></trkpt><trkpt lat="44.78438985428593" lon="2.3723061080024657"><ele>679.0</ele><time>2026-03-27T10:04:23.999Z</time></trkpt><trkpt lat="44.78445292862922" lon="2.3721947123494203"><ele>679.0</ele><time>2026-03-27T10:04:25.999Z</time></trkpt><trkpt lat="44.784479607220064" lon="2.3720960195533363"><ele>679.0</ele><time>2026-03-27T10:04:28.999Z</time></trkpt><trkpt lat="44.78455408650042" lon="2.3719566284097606"><ele>678.6</ele><time>2026-03-27T10:04:31.999Z</time></trkpt><trkpt lat="44.78462952734937" lon="2.3718531146486"><ele>678.2</ele><time>2026-03-27T10:04:34.999Z</time></trkpt><trkpt lat="44.78476416438312" lon="2.3717344259334996"><ele>677.8000000000001</ele><time>2026-03-27T10:04:36.999Z</time></trkpt><trkpt lat="44.78482045112186" lon="2.3716464278619167"><ele>677.4000000000001</ele><time>2026-03-27T10:04:38.999Z</time></trkpt><trkpt lat="44.78486428548365" lon="2.3715769021311885"><ele>677.0</ele><time>2026-03-27T10:04:40.999Z</time></trkpt><trkpt lat="44.784916884670324" lon="2.3714884401892653"><ele>676.9999999999999</ele><time>2026-03-27T10:04:45.999Z</time></trkpt><trkpt lat="44.78492430946799" lon="2.3713938094482137"><ele>677.0</ele><time>2026-03-27T10:05:00.999Z</time></trkpt><trkpt lat="44.78491015713901" lon="2.3712855280630443"><ele>677.0</ele><time>2026-03-27T10:09:59.999Z</time></trkpt><trkpt lat="44.784868949184236" lon="2.371206526581517"><ele>677.0</ele><time>2026-03-27T10:10:03.999Z</time></trkpt><trkpt lat="44.78491867945939" lon="2.3711289546443313"><ele>677.0</ele><time>2026-03-27T10:10:16.999Z</time></trkpt><trkpt lat="44.78499917706202" lon="2.3710698299202995"><ele>676.9999999999999</ele><time>2026-03-27T10:11:19.999Z</time></trkpt><trkpt lat="44.78506020028704" lon="2.371024213808385"><ele>677.0</ele><time>2026-03-27T10:11:39Z</time></trkpt><trkpt lat="44.78505661418419" lon="2.3709329100160805"><ele>677.6666666666666</ele><time>2026-03-27T10:11:51Z</time></trkpt><trkpt lat="44.785121630116286" lon="2.370865629647885"><ele>678.3333333333333</ele><time>2026-03-27T10:12:24.999Z</time></trkpt><trkpt lat="44.785181926935" lon="2.370833186787588"><ele>679.0</ele><time>2026-03-27T10:12:26.999Z</time></trkpt><trkpt lat="44.78526648961496" lon="2.3708173667061456"><ele>679.6666666666666</ele><time>2026-03-27T10:12:28.999Z</time></trkpt><trkpt lat="44.78532706473221" lon="2.3707906427207166"><ele>680.3333333333334</ele><time>2026-03-27T10:12:30.999Z</time></trkpt><trkpt lat="44.78537688307736" lon="2.3707299911791933"><ele>681.0</ele><time>2026-03-27T10:12:32.999Z</time></trkpt><trkpt lat="44.78544371804503" lon="2.3706183054264667"><ele>677.8333333333334</ele><time>2026-03-27T10:12:34.999Z</time></trkpt><trkpt lat="44.78547070923081" lon="2.3705066796459255"><ele>674.6666666666666</ele><time>2026-03-27T10:12:36.999Z</time></trkpt><trkpt lat="44.78547258990137" lon="2.370377654868509"><ele>671.5</ele><time>2026-03-27T10:12:38.999Z</time></trkpt><trkpt lat="44.78547911230454" lon="2.3702718897956236"><ele>668.3333333333333</ele><time>2026-03-27T10:12:40.999Z</time></trkpt><trkpt lat="44.78550671962112" lon="2.370139996064492"><ele>665.1666666666666</ele><time>2026-03-27T10:12:43.999Z</time></trkpt><trkpt lat="44.785443209689426" lon="2.3700750391373693"><ele>662.0</ele><time>2026-03-27T10:12:47.999Z</time></trkpt><trkpt lat="44.78538613705966" lon="2.3700317219980342"><ele>662.0</ele><time>2026-03-27T10:12:49.999Z</time></trkpt><trkpt lat="44.78531565151322" lon="2.369957940009374"><ele>662.0</ele><time>2026-03-27T10:12:52.999Z</time></trkpt><trkpt lat="44.785255273292485" lon="2.369835103677275"><ele>662.0</ele><time>2026-03-27T10:12:54.999Z</time></trkpt><trkpt lat="44.7851729130002" lon="2.3697430954663687"><ele>662.0</ele><time>2026-03-27T10:12:56.999Z</time></trkpt><trkpt lat="44.78510056679411" lon="2.3696241049598328"><ele>662.0</ele><time>2026-03-27T10:12:58.999Z</time></trkpt><trkpt lat="44.785061038588374" lon="2.3695295389278535"><ele>661.5</ele><time>2026-03-27T10:12:59.999Z</time></trkpt><trkpt lat="44.785057063363894" lon="2.369432450692982"><ele>661.0</ele><time>2026-03-27T10:13:01.999Z</time></trkpt><trkpt lat="44.785070800528054" lon="2.3693341609977554"><ele>660.5</ele><time>2026-03-27T10:13:02.999Z</time></trkpt><trkpt lat="44.78507782825846" lon="2.3692360252038753"><ele>660.0</ele><time>2026-03-27T10:13:03.999Z</time></trkpt><trkpt lat="44.78505104348787" lon="2.369085252213382"><ele>659.5</ele><time>2026-03-27T10:13:05.999Z</time></trkpt><trkpt lat="44.78502922310498" lon="2.368986826449392"><ele>659.0</ele><time>2026-03-27T10:13:06.999Z</time></trkpt><trkpt lat="44.78498482947078" lon="2.3688991331267224"><ele>656.6666666666666</ele><time>2026-03-27T10:13:07.999Z</time></trkpt><trkpt lat="44.784934809049005" lon="2.3687914965680337"><ele>654.3333333333333</ele><time>2026-03-27T10:13:08.999Z</time></trkpt><trkpt lat="44.78485933532302" lon="2.368673197782431"><ele>652.0</ele><time>2026-03-27T10:13:10.999Z</time></trkpt><trkpt lat="44.78478068941283" lon="2.3686157287043708"><ele>649.6666666666666</ele><time>2026-03-27T10:13:12.999Z</time></trkpt><trkpt lat="44.784713556032294" lon="2.368604973572152"><ele>647.3333333333334</ele><time>2026-03-27T10:13:14.999Z</time></trkpt><trkpt lat="44.78463775853494" lon="2.3685435352934903"><ele>645.0</ele><time>2026-03-27T10:13:17.999Z</time></trkpt><trkpt lat="44.7845800699853" lon="2.3684632849079876"><ele>645.0</ele><time>2026-03-27T10:13:19.999Z</time></trkpt><trkpt lat="44.78452048984638" lon="2.36838017414597"><ele>645.0</ele><time>2026-03-27T10:13:21.999Z</time></trkpt><trkpt lat="44.7844109603086" lon="2.368335985956537"><ele>645.0</ele><time>2026-03-27T10:13:23.999Z</time></trkpt><trkpt lat="44.78429889501719" lon="2.368326518735849"><ele>645.0</ele><time>2026-03-27T10:13:26.999Z</time></trkpt><trkpt lat="44.78431670404813" lon="2.3682264425231097"><ele>645.0</ele><time>2026-03-27T10:13:29.999Z</time></trkpt><trkpt lat="44.784234641029514" lon="2.368115637226669"><ele>645.8333333333334</ele><time>2026-03-27T10:13:31.999Z</time></trkpt><trkpt lat="44.784269385710296" lon="2.367962050619914"><ele>646.6666666666666</ele><time>2026-03-27T10:13:33.999Z</time></trkpt><trkpt lat="44.78433039734408" lon="2.367880344473188"><ele>647.5</ele><time>2026-03-27T10:13:34.999Z</time></trkpt><trkpt lat="44.784370084055126" lon="2.3677890541247852"><ele>648.3333333333333</ele><time>2026-03-27T10:13:35.998Z</time></trkpt><trkpt lat="44.78442237307879" lon="2.3677328872836623"><ele>649.1666666666666</ele><time>2026-03-27T10:13:36.998Z</time></trkpt><trkpt lat="44.78449771108435" lon="2.367634237032307"><ele>650.0</ele><time>2026-03-27T10:13:38.998Z</time></trkpt><trkpt lat="44.784559544820574" lon="2.3675700212056103"><ele>650.0</ele><time>2026-03-27T10:13:39.998Z</time></trkpt><trkpt lat="44.784642517766954" lon="2.367468611511767"><ele>650.0</ele><time>2026-03-27T10:13:40.998Z</time></trkpt><trkpt lat="44.78472753266784" lon="2.367380537675828"><ele>650.0</ele><time>2026-03-27T10:13:41.999Z</time></trkpt><trkpt lat="44.78478384567649" lon="2.367337266157948"><ele>650.0</ele><time>2026-03-27T10:13:42.999Z</time></trkpt><trkpt lat="44.78500670793263" lon="2.3673203152394433"><ele>650.0</ele><time>2026-03-27T10:14:03.999Z</time></trkpt><trkpt lat="44.78506873229329" lon="2.367396431148768"><ele>650.0</ele><time>2026-03-27T10:14:08.999Z</time></trkpt><trkpt lat="44.785128416800994" lon="2.367483181439065"><ele>650.0</ele><time>2026-03-27T10:14:11.999Z</time></trkpt><trkpt lat="44.785202213344796" lon="2.367543642335064"><ele>650.0</ele><time>2026-03-27T10:14:16.999Z</time></trkpt><trkpt lat="44.785254158842314" lon="2.3676447982624853"><ele>650.0</ele><time>2026-03-27T10:14:19.999Z</time></trkpt><trkpt lat="44.78528269687425" lon="2.3677399640492043"><ele>650.0</ele><time>2026-03-27T10:14:21.999Z</time></trkpt><trkpt lat="44.78532051158902" lon="2.3678148992317376"><ele>648.0</ele><time>2026-03-27T10:14:24.999Z</time></trkpt><trkpt lat="44.78534339789952" lon="2.3679017647258593"><ele>646.0</ele><time>2026-03-27T10:14:27.999Z</time></trkpt><trkpt lat="44.78532108090102" lon="2.3680083988676857"><ele>644.0</ele><time>2026-03-27T10:14:30.999Z</time></trkpt><trkpt lat="44.785355864615546" lon="2.3681197027634764"><ele>642.0</ele><time>2026-03-27T10:14:33.999Z</time></trkpt><trkpt lat="44.78541643496999" lon="2.3682087280991846"><ele>640.0</ele><time>2026-03-27T10:14:35.999Z</time></trkpt><trkpt lat="44.78548444513069" lon="2.3681717716703328"><ele>638.0</ele><time>2026-03-27T10:21:58.998Z</time></trkpt><trkpt lat="44.785555415986614" lon="2.3682056412879584"><ele>636.6</ele><time>2026-03-27T10:22:04Z</time></trkpt><trkpt lat="44.785649847621606" lon="2.3682296477553813"><ele>635.1999999999999</ele><time>2026-03-27T10:22:07Z</time></trkpt><trkpt lat="44.78575737529919" lon="2.3682514000310704"><ele>633.8</ele><time>2026-03-27T10:22:09Z</time></trkpt><trkpt lat="44.785859045960336" lon="2.3682430084083923"><ele>632.4</ele><time>2026-03-27T10:22:13Z</time></trkpt><trkpt lat="44.785944153757754" lon="2.368231123681298"><ele>631.0</ele><time>2026-03-27T10:22:16Z</time></trkpt><trkpt lat="44.78602890971288" lon="2.3682048050551594"><ele>630.0</ele><time>2026-03-27T10:22:19Z</time></trkpt><trkpt lat="44.78606602281532" lon="2.368128388981665"><ele>629.0</ele><time>2026-03-27T10:22:21Z</time></trkpt><trkpt lat="44.78613065853279" lon="2.3680857121214927"><ele>628.0</ele><time>2026-03-27T10:22:31.999Z</time></trkpt><trkpt lat="44.786225811450805" lon="2.368059625662336"><ele>627.0</ele><time>2026-03-27T10:22:34.999Z</time></trkpt><trkpt lat="44.78629272333362" lon="2.3680129742225353"><ele>626.0</ele><time>2026-03-27T10:22:36.999Z</time></trkpt><trkpt lat="44.78636765319524" lon="2.3679738228367695"><ele>625.0</ele><time>2026-03-27T10:22:39.999Z</time></trkpt><trkpt lat="44.78643521971939" lon="2.36790318987139"><ele>623.1666666666667</ele><time>2026-03-27T10:22:41.999Z</time></trkpt><trkpt lat="44.78648240023898" lon="2.3678421553374487"><ele>621.3333333333334</ele><time>2026-03-27T10:22:42.999Z</time></trkpt><trkpt lat="44.786542329801804" lon="2.367786062870565"><ele>619.5</ele><time>2026-03-27T10:22:43.999Z</time></trkpt><trkpt lat="44.786598916594684" lon="2.3677287985382605"><ele>617.6666666666666</ele><time>2026-03-27T10:22:44.999Z</time></trkpt><trkpt lat="44.786688622165265" lon="2.367642887087107"><ele>615.8333333333333</ele><time>2026-03-27T10:22:45.999Z</time></trkpt><trkpt lat="44.78678569444898" lon="2.3675452483508788"><ele>614.0</ele><time>2026-03-27T10:22:46.999Z</time></trkpt><trkpt lat="44.78690416648371" lon="2.3674821491169484"><ele>612.25</ele><time>2026-03-27T10:22:47.999Z</time></trkpt><trkpt lat="44.78702404468014" lon="2.367440357602289"><ele>610.5</ele><time>2026-03-27T10:22:48.999Z</time></trkpt><trkpt lat="44.787134498664564" lon="2.3673897606824186"><ele>608.75</ele><time>2026-03-27T10:22:49.999Z</time></trkpt><trkpt lat="44.787248260265116" lon="2.3672964652064192"><ele>607.0</ele><time>2026-03-27T10:22:50.999Z</time></trkpt><trkpt lat="44.78733419652141" lon="2.3671828143725517"><ele>607.0</ele><time>2026-03-27T10:22:51.999Z</time></trkpt><trkpt lat="44.78741831254747" lon="2.3670652857492565"><ele>607.0</ele><time>2026-03-27T10:22:52.999Z</time></trkpt><trkpt lat="44.787500883893124" lon="2.366988780347375"><ele>607.0</ele><time>2026-03-27T10:22:53.999Z</time></trkpt><trkpt lat="44.787582394058184" lon="2.366919553650197"><ele>607.0</ele><time>2026-03-27T10:22:54.999Z</time></trkpt><trkpt lat="44.78765622937343" lon="2.366873623323391"><ele>607.0</ele><time>2026-03-27T10:22:55.999Z</time></trkpt><trkpt lat="44.78772338184212" lon="2.3668580974754674"><ele>609.4</ele><time>2026-03-27T10:22:56.999Z</time></trkpt><trkpt lat="44.78780448862339" lon="2.3668587003781534"><ele>611.8000000000001</ele><time>2026-03-27T10:22:57.999Z</time></trkpt><trkpt lat="44.787886198599594" lon="2.3669628024399563"><ele>614.2</ele><time>2026-03-27T10:22:58.999Z</time></trkpt><trkpt lat="44.78796134072825" lon="2.3670698751677945"><ele>616.6</ele><time>2026-03-27T10:22:59.999Z</time></trkpt><trkpt lat="44.78801572786847" lon="2.36712561742516"><ele>619.0</ele><time>2026-03-27T10:23:00.999Z</time></trkpt><trkpt lat="44.78807875810914" lon="2.3672080294803055"><ele>619.0</ele><time>2026-03-27T10:23:02.999Z</time></trkpt><trkpt lat="44.788129581581444" lon="2.367110641355311"><ele>619.0</ele><time>2026-03-27T10:23:04.999Z</time></trkpt><trkpt lat="44.78818349124385" lon="2.367029751986312"><ele>619.0</ele><time>2026-03-27T10:23:05.999Z</time></trkpt><trkpt lat="44.78824370127951" lon="2.366977696691296"><ele>619.0</ele><time>2026-03-27T10:23:06.999Z</time></trkpt><trkpt lat="44.78834641454004" lon="2.366933357479683"><ele>619.0</ele><time>2026-03-27T10:23:07.999Z</time></trkpt><trkpt lat="44.788414568498034" lon="2.3668936866063643"><ele>619.0</ele><time>2026-03-27T10:23:08.999Z</time></trkpt><trkpt lat="44.78851736468458" lon="2.36674190791471"><ele>621.6</ele><time>2026-03-27T10:23:10.999Z</time></trkpt><trkpt lat="44.788580736078295" lon="2.3666234588586548"><ele>624.2</ele><time>2026-03-27T10:23:11.999Z</time></trkpt><trkpt lat="44.78867668732353" lon="2.3665338394497555"><ele>626.8000000000001</ele><time>2026-03-27T10:23:12.999Z</time></trkpt><trkpt lat="44.78877622532907" lon="2.3664344806187203"><ele>629.4</ele><time>2026-03-27T10:23:13.999Z</time></trkpt><trkpt lat="44.788845836413465" lon="2.3663251321699774"><ele>632.0</ele><time>2026-03-27T10:23:14.999Z</time></trkpt><trkpt lat="44.788926189372745" lon="2.3662112152021737"><ele>632.0</ele><time>2026-03-27T10:23:15.999Z</time></trkpt><trkpt lat="44.78899146876924" lon="2.366099186313509"><ele>632.0</ele><time>2026-03-27T10:23:16.999Z</time></trkpt><trkpt lat="44.789063348192485" lon="2.3660045056821626"><ele>632.0</ele><time>2026-03-27T10:23:17.999Z</time></trkpt><trkpt lat="44.78915607675661" lon="2.365908690846599"><ele>632.0</ele><time>2026-03-27T10:23:18.999Z</time></trkpt><trkpt lat="44.78922836183311" lon="2.365813313633722"><ele>632.0</ele><time>2026-03-27T10:23:19.999Z</time></trkpt><trkpt lat="44.78928260098896" lon="2.365744527243373"><ele>632.0</ele><time>2026-03-27T10:23:20.999Z</time></trkpt><trkpt lat="44.78937483315151" lon="2.36567019930737"><ele>632.0</ele><time>2026-03-27T10:23:22.999Z</time></trkpt><trkpt lat="44.789355048199745" lon="2.365767779078509"><ele>632.0</ele><time>2026-03-27T10:23:24.999Z</time></trkpt><trkpt lat="44.789306916372205" lon="2.3659175336802503"><ele>632.0</ele><time>2026-03-27T10:23:26.999Z</time></trkpt><trkpt lat="44.78928639266593" lon="2.366028396035388"><ele>632.0</ele><time>2026-03-27T10:23:29.999Z</time></trkpt><trkpt lat="44.789204420273855" lon="2.3661721847920627"><ele>632.0</ele><time>2026-03-27T10:23:31.999Z</time></trkpt><trkpt lat="44.78925497161207" lon="2.366284968957506"><ele>632.0</ele><time>2026-03-27T10:23:34.999Z</time></trkpt><trkpt lat="44.7892184689229" lon="2.3663700172790594"><ele>632.0</ele><time>2026-03-27T10:23:36.999Z</time></trkpt><trkpt lat="44.789245151565304" lon="2.3664584103150066"><ele>632.0</ele><time>2026-03-27T10:23:38.999Z</time></trkpt><trkpt lat="44.78926911665809" lon="2.3667804538774058"><ele>635.5</ele><time>2026-03-27T10:23:43.999Z</time></trkpt><trkpt lat="44.78933990241588" lon="2.3669766025701193"><ele>639.0</ele><time>2026-03-27T10:23:44.999Z</time></trkpt><trkpt lat="44.789369844073384" lon="2.367149832662062"><ele>642.5</ele><time>2026-03-27T10:23:45.999Z</time></trkpt><trkpt lat="44.78936789497571" lon="2.3673692612964596"><ele>646.0</ele><time>2026-03-27T10:23:46.999Z</time></trkpt><trkpt lat="44.789351631526884" lon="2.367630923930477"><ele>655.6666666666667</ele><time>2026-03-27T10:23:47.999Z</time></trkpt><trkpt lat="44.78936947393023" lon="2.3679258798056826"><ele>665.3333333333334</ele><time>2026-03-27T10:23:48.999Z</time></trkpt><trkpt lat="44.789421541189846" lon="2.3681679926836083"><ele>675.0</ele><time>2026-03-27T10:23:49.999Z</time></trkpt><trkpt lat="44.78945597717388" lon="2.368456346061428"><ele>676.6666666666666</ele><time>2026-03-27T10:23:50.999Z</time></trkpt><trkpt lat="44.789461532200306" lon="2.3686850508912793"><ele>678.3333333333333</ele><time>2026-03-27T10:23:51.999Z</time></trkpt><trkpt lat="44.78949588203107" lon="2.3689397767050804"><ele>680.0</ele><time>2026-03-27T10:23:52.999Z</time></trkpt><trkpt lat="44.78951592599828" lon="2.369121426249387"><ele>680.6666666666666</ele><time>2026-03-27T10:23:53.998Z</time></trkpt><trkpt lat="44.78951479749321" lon="2.369392942905375"><ele>681.3333333333334</ele><time>2026-03-27T10:23:54.998Z</time></trkpt><trkpt lat="44.78953300497671" lon="2.3696325296476557"><ele>682.0</ele><time>2026-03-27T10:23:55.998Z</time></trkpt><trkpt lat="44.78948140131734" lon="2.369783515054044"><ele>682.0</ele><time>2026-03-27T10:23:56.998Z</time></trkpt><trkpt lat="44.78943819364383" lon="2.370083540884514"><ele>682.0</ele><time>2026-03-27T10:23:57.998Z</time></trkpt><trkpt lat="44.789461361779395" lon="2.3702479328690647"><ele>682.0</ele><time>2026-03-27T10:23:58.998Z</time></trkpt><trkpt lat="44.789485700960775" lon="2.3703910006451556"><ele>682.0</ele><time>2026-03-27T10:23:59.998Z</time></trkpt><trkpt lat="44.789512342514875" lon="2.370541707175366"><ele>681.0</ele><time>2026-03-27T10:24:00.998Z</time></trkpt><trkpt lat="44.789540107803155" lon="2.370658103607157"><ele>680.0</ele><time>2026-03-27T10:24:01.998Z</time></trkpt><trkpt lat="44.78955727066149" lon="2.370805441685107"><ele>679.0</ele><time>2026-03-27T10:24:02.998Z</time></trkpt><trkpt lat="44.789530329096074" lon="2.3709331432967873"><ele>678.0</ele><time>2026-03-27T10:24:03.998Z</time></trkpt><trkpt lat="44.78946270924441" lon="2.3710569327424342"><ele>677.0</ele><time>2026-03-27T10:24:05.998Z</time></trkpt><trkpt lat="44.78944046250419" lon="2.371157304108544"><ele>677.0</ele><time>2026-03-27T10:24:07.998Z</time></trkpt><trkpt lat="44.78951137087058" lon="2.371166576422309"><ele>677.0</ele><time>2026-03-27T10:24:11Z</time></trkpt><trkpt lat="44.78946999916553" lon="2.3710554883360624"><ele>677.0</ele><time>2026-03-27T10:24:13Z</time></trkpt><trkpt lat="44.78946555123436" lon="2.3709404143364874"><ele>677.0</ele><time>2026-03-27T10:24:14Z</time></trkpt><trkpt lat="44.78949625507393" lon="2.3708020549963393"><ele>677.0</ele><time>2026-03-27T10:24:15Z</time></trkpt><trkpt lat="44.78956496350031" lon="2.3707272199173786"><ele>677.0</ele><time>2026-03-27T10:24:16Z</time></trkpt><trkpt lat="44.7896924955901" lon="2.370565805245752"><ele>678.25</ele><time>2026-03-27T10:24:17Z</time></trkpt><trkpt lat="44.78977852015013" lon="2.370420152462102"><ele>679.5</ele><time>2026-03-27T10:24:18Z</time></trkpt><trkpt lat="44.78981381113992" lon="2.3702772777931367"><ele>680.75</ele><time>2026-03-27T10:24:19Z</time></trkpt><trkpt lat="44.78984221705698" lon="2.3701289467550763"><ele>682.0</ele><time>2026-03-27T10:24:20Z</time></trkpt><trkpt lat="44.78989177216491" lon="2.369985773110351"><ele>682.0</ele><time>2026-03-27T10:24:21Z</time></trkpt><trkpt lat="44.7898325845756" lon="2.3698339818001557"><ele>682.0</ele><time>2026-03-27T10:24:29Z</time></trkpt><trkpt lat="44.78984789962487" lon="2.3697231486043355"><ele>682.0</ele><time>2026-03-27T10:24:30.999Z</time></trkpt><trkpt lat="44.78987908014695" lon="2.369628129864506"><ele>682.0</ele><time>2026-03-27T10:24:31.999Z</time></trkpt><trkpt lat="44.78992681029143" lon="2.369538288926961"><ele>682.0</ele><time>2026-03-27T10:24:33.999Z</time></trkpt><trkpt lat="44.789996192036035" lon="2.369500939229824"><ele>682.0</ele><time>2026-03-27T10:24:35.999Z</time></trkpt><trkpt lat="44.79007403709248" lon="2.3695734242367372"><ele>682.5</ele><time>2026-03-27T10:24:37.999Z</time></trkpt><trkpt lat="44.79008563207046" lon="2.369372319304463"><ele>683.0</ele><time>2026-03-27T10:24:42.999Z</time></trkpt><trkpt lat="44.790150631553956" lon="2.3693518733227026"><ele>683.5</ele><time>2026-03-27T10:24:46.999Z</time></trkpt><trkpt lat="44.790308794609274" lon="2.3693090199887306"><ele>684.0</ele><time>2026-03-27T10:24:49Z</time></trkpt><trkpt lat="44.79040637863535" lon="2.3693620254923675"><ele>678.3333333333334</ele><time>2026-03-27T10:24:50Z</time></trkpt><trkpt lat="44.79061672405871" lon="2.3696994306135246"><ele>672.6666666666667</ele><time>2026-03-27T10:24:53Z</time></trkpt><trkpt lat="44.79068292704131" lon="2.36979255760851"><ele>667.0</ele><time>2026-03-27T10:24:54Z</time></trkpt><trkpt lat="44.790963162934744" lon="2.36984391026259"><ele>660.75</ele><time>2026-03-27T10:24:55Z</time></trkpt><trkpt lat="44.7910532660296" lon="2.3699214823916006"><ele>654.5</ele><time>2026-03-27T10:24:56Z</time></trkpt><trkpt lat="44.791129109346464" lon="2.370046768479566"><ele>648.25</ele><time>2026-03-27T10:24:57Z</time></trkpt><trkpt lat="44.791249102760666" lon="2.370145673072784"><ele>642.0</ele><time>2026-03-27T10:24:58Z</time></trkpt><trkpt lat="44.79124928664161" lon="2.3703014656632138"><ele>642.0</ele><time>2026-03-27T10:24:59Z</time></trkpt><trkpt lat="44.7912265731781" lon="2.370442956910828"><ele>642.0</ele><time>2026-03-27T10:25:00Z</time></trkpt><trkpt lat="44.791176730549225" lon="2.3705700292874106"><ele>642.0</ele><time>2026-03-27T10:25:01Z</time></trkpt><trkpt lat="44.7911197918965" lon="2.3706691787163807"><ele>642.0</ele><time>2026-03-27T10:25:02Z</time></trkpt><trkpt lat="44.79111910886588" lon="2.370808757071991"><ele>642.0</ele><time>2026-03-27T10:25:03Z</time></trkpt><trkpt lat="44.791096660012016" lon="2.3709690380973716"><ele>644.6</ele><time>2026-03-27T10:25:04Z</time></trkpt><trkpt lat="44.79098218730903" lon="2.370958278813955"><ele>647.2</ele><time>2026-03-27T10:25:05Z</time></trkpt><trkpt lat="44.79090857296297" lon="2.3710154073594856"><ele>649.8</ele><time>2026-03-27T10:25:06Z</time></trkpt><trkpt lat="44.79085224997073" lon="2.371111438335821"><ele>652.4</ele><time>2026-03-27T10:25:07Z</time></trkpt><trkpt lat="44.79077880407715" lon="2.3711820990311665"><ele>655.0</ele><time>2026-03-27T10:25:08Z</time></trkpt><trkpt lat="44.790699941472525" lon="2.3712832226496285"><ele>653.0</ele><time>2026-03-27T10:25:09Z</time></trkpt><trkpt lat="44.79062132275869" lon="2.3713725122436267"><ele>651.0</ele><time>2026-03-27T10:25:10Z</time></trkpt><trkpt lat="44.790551011711216" lon="2.3715079265722605"><ele>649.0</ele><time>2026-03-27T10:25:11Z</time></trkpt><trkpt lat="44.7905135272494" lon="2.371631394953745"><ele>647.0</ele><time>2026-03-27T10:25:12Z</time></trkpt><trkpt lat="44.790470444066436" lon="2.37173337369815"><ele>645.0</ele><time>2026-03-27T10:25:13Z</time></trkpt><trkpt lat="44.79042999948905" lon="2.3718307337451567"><ele>645.0</ele><time>2026-03-27T10:25:14Z</time></trkpt><trkpt lat="44.7903742557006" lon="2.3718929341303103"><ele>645.0</ele><time>2026-03-27T10:25:15Z</time></trkpt><trkpt lat="44.79034635109245" lon="2.37209400323109"><ele>645.0</ele><time>2026-03-27T10:25:17Z</time></trkpt><trkpt lat="44.79036785266678" lon="2.3722496728169498"><ele>645.0</ele><time>2026-03-27T10:25:19Z</time></trkpt><trkpt lat="44.79043164319054" lon="2.372396123046218"><ele>646.2</ele><time>2026-03-27T10:25:20Z</time></trkpt><trkpt lat="44.790469449884775" lon="2.3725365607460387"><ele>647.4</ele><time>2026-03-27T10:25:21Z</time></trkpt><trkpt lat="44.790501457007466" lon="2.372695739379317"><ele>648.5999999999999</ele><time>2026-03-27T10:25:22Z</time></trkpt><trkpt lat="44.79051055967801" lon="2.3728295521845117"><ele>649.8</ele><time>2026-03-27T10:25:23Z</time></trkpt><trkpt lat="44.790543220229225" lon="2.372960362561702"><ele>651.0</ele><time>2026-03-27T10:25:24Z</time></trkpt><trkpt lat="44.790571958894105" lon="2.373139605146319"><ele>653.4</ele><time>2026-03-27T10:25:26Z</time></trkpt><trkpt lat="44.79059791038911" lon="2.3733093682380217"><ele>655.8</ele><time>2026-03-27T10:25:28Z</time></trkpt><trkpt lat="44.79061881827787" lon="2.3734069094530232"><ele>658.1999999999999</ele><time>2026-03-27T10:25:29Z</time></trkpt><trkpt lat="44.79065775414683" lon="2.3734983790518083"><ele>660.5999999999999</ele><time>2026-03-27T10:25:30Z</time></trkpt><trkpt lat="44.7906756938343" lon="2.3736012749040833"><ele>663.0</ele><time>2026-03-27T10:25:31Z</time></trkpt><trkpt lat="44.790716320393315" lon="2.3737676065865903"><ele>665.0</ele><time>2026-03-27T10:25:32Z</time></trkpt><trkpt lat="44.790753647105326" lon="2.3739005952023433"><ele>667.0</ele><time>2026-03-27T10:25:33Z</time></trkpt><trkpt lat="44.79075674862357" lon="2.3741119583897965"><ele>669.0</ele><time>2026-03-27T10:25:34Z</time></trkpt><trkpt lat="44.790785790832004" lon="2.374280527675599"><ele>671.0</ele><time>2026-03-27T10:25:35Z</time></trkpt><trkpt lat="44.790758582565616" lon="2.3744405701507802"><ele>671.0</ele><time>2026-03-27T10:25:36Z</time></trkpt><trkpt lat="44.790745931866674" lon="2.3745627727384035"><ele>671.0</ele><time>2026-03-27T10:25:37Z</time></trkpt><trkpt lat="44.790756891516025" lon="2.374651111048929"><ele>671.0</ele><time>2026-03-27T10:25:38Z</time></trkpt><trkpt lat="44.7908234500156" lon="2.3748019647831864"><ele>671.0</ele><time>2026-03-27T10:25:40Z</time></trkpt><trkpt lat="44.79085746265689" lon="2.3748880072994756"><ele>671.0</ele><time>2026-03-27T10:25:41Z</time></trkpt><trkpt lat="44.7909687411666" lon="2.3749763800707684"><ele>672.4</ele><time>2026-03-27T10:25:43Z</time></trkpt><trkpt lat="44.7910332887665" lon="2.3750363557923246"><ele>673.8</ele><time>2026-03-27T10:25:44Z</time></trkpt><trkpt lat="44.79118984446072" lon="2.3749979861639776"><ele>675.1999999999999</ele><time>2026-03-27T10:25:46Z</time></trkpt><trkpt lat="44.79124544301091" lon="2.3749278020344025"><ele>676.5999999999999</ele><time>2026-03-27T10:25:47Z</time></trkpt><trkpt lat="44.79128284439849" lon="2.3747821118241883"><ele>678.0</ele><time>2026-03-27T10:25:48Z</time></trkpt><trkpt lat="44.79135560761503" lon="2.3746557419191423"><ele>678.0</ele><time>2026-03-27T10:25:50Z</time></trkpt><trkpt lat="44.79142566356872" lon="2.3746246767156842"><ele>678.0</ele><time>2026-03-27T10:25:51Z</time></trkpt><trkpt lat="44.791603454274295" lon="2.3746567046568003"><ele>678.0</ele><time>2026-03-27T10:26:21Z</time></trkpt><trkpt lat="44.791663321031265" lon="2.3747238503023733"><ele>678.0</ele><time>2026-03-27T10:26:22Z</time></trkpt><trkpt lat="44.791766578330005" lon="2.374812568508273"><ele>675.2</ele><time>2026-03-27T10:26:24Z</time></trkpt><trkpt lat="44.79184848019367" lon="2.37491812262789"><ele>672.4</ele><time>2026-03-27T10:26:25Z</time></trkpt><trkpt lat="44.79193428467485" lon="2.375050095284987"><ele>669.6</ele><time>2026-03-27T10:26:26Z</time></trkpt><trkpt lat="44.79198993298725" lon="2.3751605477652005"><ele>666.8000000000001</ele><time>2026-03-27T10:26:27Z</time></trkpt><trkpt lat="44.792037475757404" lon="2.375290366173281"><ele>664.0</ele><time>2026-03-27T10:26:28Z</time></trkpt><trkpt lat="44.792055526390804" lon="2.3754023331035046"><ele>664.25</ele><time>2026-03-27T10:26:29Z</time></trkpt><trkpt lat="44.79207168630714" lon="2.3755707549578706"><ele>664.5</ele><time>2026-03-27T10:26:30Z</time></trkpt><trkpt lat="44.79203568268737" lon="2.3757352001306162"><ele>664.75</ele><time>2026-03-27T10:26:31Z</time></trkpt><trkpt lat="44.79201500852413" lon="2.3759255980056606"><ele>665.0</ele><time>2026-03-27T10:26:32Z</time></trkpt><trkpt lat="44.79199372036679" lon="2.3761106435707773"><ele>665.0</ele><time>2026-03-27T10:26:33Z</time></trkpt><trkpt lat="44.791970211077675" lon="2.3762836869913055"><ele>665.0</ele><time>2026-03-27T10:26:34Z</time></trkpt><trkpt lat="44.79197653447149" lon="2.3764513229153774"><ele>665.0</ele><time>2026-03-27T10:26:35Z</time></trkpt><trkpt lat="44.7919541859257" lon="2.376592072885051"><ele>665.0</ele><time>2026-03-27T10:26:36Z</time></trkpt><trkpt lat="44.791941017294654" lon="2.3767062512911723"><ele>665.0</ele><time>2026-03-27T10:26:37Z</time></trkpt><trkpt lat="44.79197841575262" lon="2.3768630005440405"><ele>665.6</ele><time>2026-03-27T10:26:39Z</time></trkpt><trkpt lat="44.791994901293236" lon="2.376988149803455"><ele>666.2</ele><time>2026-03-27T10:26:40Z</time></trkpt><trkpt lat="44.79203892765744" lon="2.3770840538956923"><ele>666.8</ele><time>2026-03-27T10:26:41Z</time></trkpt><trkpt lat="44.79211997443433" lon="2.3772173741615097"><ele>667.4</ele><time>2026-03-27T10:26:43Z</time></trkpt><trkpt lat="44.792170006552006" lon="2.377293794363891"><ele>668.0</ele><time>2026-03-27T10:26:44Z</time></trkpt><trkpt lat="44.792274485123" lon="2.3772352640916186"><ele>668.25</ele><time>2026-03-27T10:26:45Z</time></trkpt><trkpt lat="44.79233875828216" lon="2.3772299488980124"><ele>668.5</ele><time>2026-03-27T10:26:46Z</time></trkpt><trkpt lat="44.792525311802905" lon="2.377216973450777"><ele>668.75</ele><time>2026-03-27T10:26:48Z</time></trkpt><trkpt lat="44.79268232413612" lon="2.3770909963457734"><ele>669.0</ele><time>2026-03-27T10:26:49Z</time></trkpt><trkpt lat="44.79279701562632" lon="2.3770246187583366"><ele>669.0</ele><time>2026-03-27T10:26:50Z</time></trkpt><trkpt lat="44.79294896104445" lon="2.376981004121508"><ele>669.0</ele><time>2026-03-27T10:26:51Z</time></trkpt><trkpt lat="44.793218473297884" lon="2.3770175830256313"><ele>669.0</ele><time>2026-03-27T10:26:53Z</time></trkpt><trkpt lat="44.79329089517283" lon="2.3770564623732366"><ele>669.0</ele><time>2026-03-27T10:26:54Z</time></trkpt><trkpt lat="44.7933788127286" lon="2.3771023987210245"><ele>669.0</ele><time>2026-03-27T10:26:55Z</time></trkpt><trkpt lat="44.793454451055354" lon="2.3771611191155175"><ele>669.0</ele><time>2026-03-27T10:26:56Z</time></trkpt><trkpt lat="44.79355119472031" lon="2.3772388910609457"><ele>669.0</ele><time>2026-03-27T10:26:57Z</time></trkpt><trkpt lat="44.79365342279509" lon="2.3773230442041267"><ele>669.0</ele><time>2026-03-27T10:26:58Z</time></trkpt><trkpt lat="44.7937557247241" lon="2.377441295633091"><ele>669.2</ele><time>2026-03-27T10:26:59Z</time></trkpt><trkpt lat="44.79383070102988" lon="2.3775882209959684"><ele>669.4000000000001</ele><time>2026-03-27T10:27:00Z</time></trkpt><trkpt lat="44.79389022215071" lon="2.3776991044858202"><ele>669.6</ele><time>2026-03-27T10:27:01Z</time></trkpt><trkpt lat="44.79384927859495" lon="2.3777933595286727"><ele>669.8</ele><time>2026-03-27T10:27:02Z</time></trkpt><trkpt lat="44.79375428752999" lon="2.3778809561346566"><ele>670.0</ele><time>2026-03-27T10:27:03Z</time></trkpt><trkpt lat="44.79363033362122" lon="2.3780242816607156"><ele>670.0</ele><time>2026-03-27T10:27:04Z</time></trkpt><trkpt lat="44.79356242479407" lon="2.3781326240427823"><ele>670.0</ele><time>2026-03-27T10:27:05Z</time></trkpt><trkpt lat="44.793479320671814" lon="2.3781439492179843"><ele>670.0</ele><time>2026-03-27T10:27:08Z</time></trkpt><trkpt lat="44.793371080661124" lon="2.3780388020900487"><ele>670.0</ele><time>2026-03-27T10:27:09Z</time></trkpt><trkpt lat="44.79326939229536" lon="2.3779586782842546"><ele>670.0</ele><time>2026-03-27T10:27:10Z</time></trkpt><trkpt lat="44.79319281373767" lon="2.3778878258998772"><ele>671.5</ele><time>2026-03-27T10:27:11Z</time></trkpt><trkpt lat="44.793117283838576" lon="2.377808498243622"><ele>673.0</ele><time>2026-03-27T10:27:12Z</time></trkpt><trkpt lat="44.793013273239794" lon="2.3777206516183456"><ele>674.5</ele><time>2026-03-27T10:27:13Z</time></trkpt><trkpt lat="44.79288459578198" lon="2.377644144722587"><ele>676.0</ele><time>2026-03-27T10:27:14Z</time></trkpt><trkpt lat="44.79274329291888" lon="2.3775885745639367"><ele>676.0</ele><time>2026-03-27T10:27:15Z</time></trkpt><trkpt lat="44.79261171146467" lon="2.377579675172207"><ele>676.0</ele><time>2026-03-27T10:27:16Z</time></trkpt><trkpt lat="44.79251281087545" lon="2.3775462522278885"><ele>676.0</ele><time>2026-03-27T10:27:17Z</time></trkpt><trkpt lat="44.79234875775775" lon="2.3775172430694833"><ele>676.0</ele><time>2026-03-27T10:27:18Z</time></trkpt><trkpt lat="44.79214853829709" lon="2.377487391672146"><ele>676.0</ele><time>2026-03-27T10:27:19Z</time></trkpt><trkpt lat="44.791962765128474" lon="2.3774669526401877"><ele>676.0</ele><time>2026-03-27T10:27:20Z</time></trkpt><trkpt lat="44.791809951611675" lon="2.3774272044483546"><ele>676.0</ele><time>2026-03-27T10:27:21Z</time></trkpt><trkpt lat="44.79165091503248" lon="2.3774100780679497"><ele>678.6666666666667</ele><time>2026-03-27T10:27:22Z</time></trkpt><trkpt lat="44.79151263524353" lon="2.3773953755935535"><ele>681.3333333333334</ele><time>2026-03-27T10:27:23Z</time></trkpt><trkpt lat="44.79133582729578" lon="2.3773856869317007"><ele>684.0</ele><time>2026-03-27T10:27:24Z</time></trkpt><trkpt lat="44.791179910108696" lon="2.3773793175763918"><ele>684.0</ele><time>2026-03-27T10:27:25Z</time></trkpt><trkpt lat="44.79106666453566" lon="2.3773822271376117"><ele>684.0</ele><time>2026-03-27T10:27:26Z</time></trkpt><trkpt lat="44.790916796820206" lon="2.377373284690997"><ele>684.0</ele><time>2026-03-27T10:27:27Z</time></trkpt><trkpt lat="44.790770504780276" lon="2.377352880303955"><ele>684.0</ele><time>2026-03-27T10:27:28Z</time></trkpt><trkpt lat="44.79064577499314" lon="2.37736841578557"><ele>685.2</ele><time>2026-03-27T10:27:29Z</time></trkpt><trkpt lat="44.79052082652924" lon="2.377389073489016"><ele>686.4000000000001</ele><time>2026-03-27T10:27:30Z</time></trkpt><trkpt lat="44.79039269903105" lon="2.377419220668111"><ele>687.6</ele><time>2026-03-27T10:27:31Z</time></trkpt><trkpt lat="44.79030431116815" lon="2.3774276526891733"><ele>688.8</ele><time>2026-03-27T10:27:32Z</time></trkpt><trkpt lat="44.79021415568993" lon="2.377429403315639"><ele>690.0</ele><time>2026-03-27T10:27:34Z</time></trkpt><trkpt lat="44.79044992112769" lon="2.3773727553499335"><ele>690.0</ele><time>2026-03-27T10:27:36Z</time></trkpt><trkpt lat="44.790514689279284" lon="2.3773589024063386"><ele>690.0</ele><time>2026-03-27T10:27:37Z</time></trkpt><trkpt lat="44.790457732287365" lon="2.3773187917257115"><ele>690.0</ele><time>2026-03-27T10:28:53Z</time></trkpt><trkpt lat="44.79038143280345" lon="2.3773343070871977"><ele>690.0</ele><time>2026-03-27T10:29:11Z</time></trkpt><trkpt lat="44.79031106637406" lon="2.377351043752005"><ele>690.0</ele><time>2026-03-27T10:29:15Z</time></trkpt><trkpt lat="44.79021513332185" lon="2.37734978588796"><ele>690.0</ele><time>2026-03-27T10:30:32.001Z</time></trkpt><trkpt lat="44.790132868679734" lon="2.377417847624485"><ele>688.6666666666666</ele><time>2026-03-27T10:30:35.001Z</time></trkpt><trkpt lat="44.790089552610084" lon="2.3774826402305216"><ele>687.3333333333334</ele><time>2026-03-27T10:30:36.001Z</time></trkpt><trkpt lat="44.79003782685898" lon="2.377574452242442"><ele>686.0</ele><time>2026-03-27T10:30:37Z</time></trkpt><trkpt lat="44.78998027990183" lon="2.377677060553027"><ele>684.6666666666667</ele><time>2026-03-27T10:30:38Z</time></trkpt><trkpt lat="44.78991596113711" lon="2.3777754536280797"><ele>683.3333333333334</ele><time>2026-03-27T10:30:39Z</time></trkpt><trkpt lat="44.789878654010096" lon="2.3778631376541832"><ele>682.0</ele><time>2026-03-27T10:30:40Z</time></trkpt><trkpt lat="44.78984147957927" lon="2.3779475483282266"><ele>681.5</ele><time>2026-03-27T10:30:41Z</time></trkpt><trkpt lat="44.78980503802423" lon="2.378036390638287"><ele>681.0</ele><time>2026-03-27T10:30:42Z</time></trkpt><trkpt lat="44.78976710610676" lon="2.3781268828420075"><ele>680.5</ele><time>2026-03-27T10:30:43Z</time></trkpt><trkpt lat="44.78972229424541" lon="2.378212233862582"><ele>680.0</ele><time>2026-03-27T10:30:44Z</time></trkpt><trkpt lat="44.789668027133104" lon="2.3783204193663283"><ele>679.5</ele><time>2026-03-27T10:30:45Z</time></trkpt><trkpt lat="44.78959660301484" lon="2.378464999375835"><ele>679.0</ele><time>2026-03-27T10:30:46Z</time></trkpt><trkpt lat="44.78952725215874" lon="2.3786270098621145"><ele>679.0</ele><time>2026-03-27T10:30:47Z</time></trkpt><trkpt lat="44.78946933084186" lon="2.378768804962917"><ele>679.0</ele><time>2026-03-27T10:30:48Z</time></trkpt><trkpt lat="44.78941723673073" lon="2.378901760908488"><ele>679.0</ele><time>2026-03-27T10:30:49Z</time></trkpt><trkpt lat="44.78936089427859" lon="2.3790412460427226"><ele>679.0</ele><time>2026-03-27T10:30:50Z</time></trkpt><trkpt lat="44.78930441081884" lon="2.3791735750907863"><ele>679.0</ele><time>2026-03-27T10:30:51Z</time></trkpt><trkpt lat="44.78925421252429" lon="2.379299240706791"><ele>679.0</ele><time>2026-03-27T10:30:52Z</time></trkpt><trkpt lat="44.789203328393306" lon="2.37942857685328"><ele>679.0</ele><time>2026-03-27T10:30:53Z</time></trkpt><trkpt lat="44.789149158684914" lon="2.37956062744285"><ele>679.0</ele><time>2026-03-27T10:30:54Z</time></trkpt><trkpt lat="44.7891036756246" lon="2.3797020285494805"><ele>679.0</ele><time>2026-03-27T10:30:55Z</time></trkpt><trkpt lat="44.789053169691215" lon="2.379851109783999"><ele>679.0</ele><time>2026-03-27T10:30:56Z</time></trkpt><trkpt lat="44.789004932562456" lon="2.3799995296090533"><ele>679.25</ele><time>2026-03-27T10:30:57Z</time></trkpt><trkpt lat="44.78894470889271" lon="2.3801437552315523"><ele>679.5</ele><time>2026-03-27T10:30:58Z</time></trkpt><trkpt lat="44.78887229497625" lon="2.380282738068765"><ele>679.75</ele><time>2026-03-27T10:30:59Z</time></trkpt><trkpt lat="44.788804319276984" lon="2.3804238380131686"><ele>680.0</ele><time>2026-03-27T10:31:00Z</time></trkpt><trkpt lat="44.788732947158955" lon="2.380549347330358"><ele>680.0</ele><time>2026-03-27T10:31:01Z</time></trkpt><trkpt lat="44.78866080280019" lon="2.380664542655241"><ele>680.0</ele><time>2026-03-27T10:31:02Z</time></trkpt><trkpt lat="44.788589384442865" lon="2.3807857860502026"><ele>680.0</ele><time>2026-03-27T10:31:03Z</time></trkpt><trkpt lat="44.78852584956807" lon="2.3809099880684923"><ele>680.0</ele><time>2026-03-27T10:31:04Z</time></trkpt><trkpt lat="44.788466870812236" lon="2.381026210191042"><ele>680.0</ele><time>2026-03-27T10:31:05Z</time></trkpt><trkpt lat="44.78840079950313" lon="2.3811241840589776"><ele>681.8</ele><time>2026-03-27T10:31:06Z</time></trkpt><trkpt lat="44.78833858746304" lon="2.3812165165489962"><ele>683.6</ele><time>2026-03-27T10:31:07Z</time></trkpt><trkpt lat="44.788290846920916" lon="2.381304239041578"><ele>685.4000000000001</ele><time>2026-03-27T10:31:08Z</time></trkpt><trkpt lat="44.788242124328725" lon="2.3814073514541074"><ele>687.2</ele><time>2026-03-27T10:31:09Z</time></trkpt><trkpt lat="44.788179543805214" lon="2.3815370239153637"><ele>689.0</ele><time>2026-03-27T10:31:10Z</time></trkpt><trkpt lat="44.7881099086572" lon="2.3817026625177173"><ele>689.0</ele><time>2026-03-27T10:31:11Z</time></trkpt><trkpt lat="44.788068416015726" lon="2.3818654118502716"><ele>689.0</ele><time>2026-03-27T10:31:12Z</time></trkpt><trkpt lat="44.78802831700221" lon="2.381996987202244"><ele>689.0</ele><time>2026-03-27T10:31:13Z</time></trkpt><trkpt lat="44.78798291076651" lon="2.38211517870321"><ele>689.0</ele><time>2026-03-27T10:31:14Z</time></trkpt><trkpt lat="44.787936338085466" lon="2.3822234601503807"><ele>689.0</ele><time>2026-03-27T10:31:15Z</time></trkpt><trkpt lat="44.78790376756895" lon="2.3823098717910067"><ele>689.0</ele><time>2026-03-27T10:31:16Z</time></trkpt><trkpt lat="44.78785815492285" lon="2.3824549222479443"><ele>689.0</ele><time>2026-03-27T10:31:18Z</time></trkpt><trkpt lat="44.78780582419738" lon="2.3825886368764584"><ele>689.0</ele><time>2026-03-27T10:31:20Z</time></trkpt><trkpt lat="44.78775318581963" lon="2.382708944177348"><ele>689.0</ele><time>2026-03-27T10:31:22Z</time></trkpt><trkpt lat="44.787707946087956" lon="2.382789654000778"><ele>689.0</ele><time>2026-03-27T10:31:25Z</time></trkpt><trkpt lat="44.78770102835844" lon="2.382892942011056"><ele>688.0</ele><time>2026-03-27T10:31:36Z</time></trkpt><trkpt lat="44.78769582185632" lon="2.3830572519526068"><ele>687.0</ele><time>2026-03-27T10:31:38Z</time></trkpt><trkpt lat="44.787700391223076" lon="2.383149271765366"><ele>686.0</ele><time>2026-03-27T10:31:39Z</time></trkpt><trkpt lat="44.78771372087473" lon="2.383252149942585"><ele>685.0</ele><time>2026-03-27T10:31:40Z</time></trkpt><trkpt lat="44.78773782860029" lon="2.3833374743650633"><ele>684.0</ele><time>2026-03-27T10:31:41Z</time></trkpt><trkpt lat="44.7877741894337" lon="2.383417573912409"><ele>683.0</ele><time>2026-03-27T10:31:42Z</time></trkpt><trkpt lat="44.787813513913086" lon="2.383493256148097"><ele>683.0</ele><time>2026-03-27T10:31:43Z</time></trkpt><trkpt lat="44.78790671656117" lon="2.383627000480066"><ele>683.0</ele><time>2026-03-27T10:31:45Z</time></trkpt><trkpt lat="44.78795505559626" lon="2.383705077399656"><ele>683.0</ele><time>2026-03-27T10:31:46Z</time></trkpt><trkpt lat="44.788012118850006" lon="2.3837920619535873"><ele>683.0</ele><time>2026-03-27T10:31:47Z</time></trkpt><trkpt lat="44.78806295064502" lon="2.3838950437454716"><ele>683.0</ele><time>2026-03-27T10:31:48Z</time></trkpt><trkpt lat="44.78811291016095" lon="2.3840076972683617"><ele>683.3333333333333</ele><time>2026-03-27T10:31:49Z</time></trkpt><trkpt lat="44.788140126199494" lon="2.3841207498372583"><ele>683.6666666666666</ele><time>2026-03-27T10:31:50Z</time></trkpt><trkpt lat="44.78816318472366" lon="2.3842221445486085"><ele>684.0</ele><time>2026-03-27T10:31:51Z</time></trkpt><trkpt lat="44.788184595804196" lon="2.3843499599043083"><ele>684.3333333333334</ele><time>2026-03-27T10:31:52Z</time></trkpt><trkpt lat="44.788201192076464" lon="2.3844781672743944"><ele>684.6666666666667</ele><time>2026-03-27T10:31:53Z</time></trkpt><trkpt lat="44.78820748147396" lon="2.384609870499035"><ele>685.0</ele><time>2026-03-27T10:31:54Z</time></trkpt><trkpt lat="44.78821262451922" lon="2.384749562407753"><ele>685.0</ele><time>2026-03-27T10:31:55Z</time></trkpt><trkpt lat="44.788222606385354" lon="2.384903678673871"><ele>685.0</ele><time>2026-03-27T10:31:56Z</time></trkpt><trkpt lat="44.78823831425405" lon="2.3850715128672717"><ele>685.0</ele><time>2026-03-27T10:31:57Z</time></trkpt><trkpt lat="44.78826290546486" lon="2.3852517016528774"><ele>685.0</ele><time>2026-03-27T10:31:58Z</time></trkpt><trkpt lat="44.78828483155632" lon="2.385423936560232"><ele>685.75</ele><time>2026-03-27T10:31:59Z</time></trkpt><trkpt lat="44.78830667661788" lon="2.385598860273768"><ele>686.5</ele><time>2026-03-27T10:32:00Z</time></trkpt><trkpt lat="44.78832957674073" lon="2.3857740003752346"><ele>687.25</ele><time>2026-03-27T10:32:01Z</time></trkpt><trkpt lat="44.78835774523123" lon="2.38595868022073"><ele>688.0</ele><time>2026-03-27T10:32:02Z</time></trkpt><trkpt lat="44.788389674337" lon="2.386151626613727"><ele>689.0</ele><time>2026-03-27T10:32:03Z</time></trkpt><trkpt lat="44.78842609332415" lon="2.386354968692251"><ele>690.0</ele><time>2026-03-27T10:32:04Z</time></trkpt><trkpt lat="44.78846926440051" lon="2.3865612709744695"><ele>691.0</ele><time>2026-03-27T10:32:04.999Z</time></trkpt><trkpt lat="44.788516162245365" lon="2.3867704657419564"><ele>692.0</ele><time>2026-03-27T10:32:05.999Z</time></trkpt><trkpt lat="44.78856286255993" lon="2.3869876035090565"><ele>693.0</ele><time>2026-03-27T10:32:06.999Z</time></trkpt><trkpt lat="44.7886047178286" lon="2.3871923788212053"><ele>694.0</ele><time>2026-03-27T10:32:07.999Z</time></trkpt><trkpt lat="44.78864313573167" lon="2.387419615734018"><ele>696.0</ele><time>2026-03-27T10:32:08.999Z</time></trkpt><trkpt lat="44.78868043734066" lon="2.387607024090392"><ele>698.0</ele><time>2026-03-27T10:32:09.999Z</time></trkpt><trkpt lat="44.78871400619246" lon="2.387796620606855"><ele>700.0</ele><time>2026-03-27T10:32:10.999Z</time></trkpt><trkpt lat="44.78875112179995" lon="2.3879829408803843"><ele>702.0</ele><time>2026-03-27T10:32:11.999Z</time></trkpt><trkpt lat="44.78878692018911" lon="2.3881746663123"><ele>702.75</ele><time>2026-03-27T10:32:12.999Z</time></trkpt><trkpt lat="44.788821422014955" lon="2.388354641807351"><ele>703.5</ele><time>2026-03-27T10:32:13.999Z</time></trkpt><trkpt lat="44.788857898585974" lon="2.3885315672837923"><ele>704.25</ele><time>2026-03-27T10:32:14.999Z</time></trkpt><trkpt lat="44.788897927165294" lon="2.3887105148053407"><ele>705.0</ele><time>2026-03-27T10:32:15.999Z</time></trkpt><trkpt lat="44.78893016099486" lon="2.3888865671552955"><ele>705.5</ele><time>2026-03-27T10:32:16.999Z</time></trkpt><trkpt lat="44.78896993154704" lon="2.3890579730847383"><ele>706.0</ele><time>2026-03-27T10:32:17.999Z</time></trkpt><trkpt lat="44.789007830400905" lon="2.389230030040177"><ele>706.5</ele><time>2026-03-27T10:32:18.999Z</time></trkpt><trkpt lat="44.78904515334382" lon="2.389404029213791"><ele>707.0</ele><time>2026-03-27T10:32:19.999Z</time></trkpt><trkpt lat="44.78908354150686" lon="2.3895809053995856"><ele>708.0</ele><time>2026-03-27T10:32:20.999Z</time></trkpt><trkpt lat="44.789119575638814" lon="2.38975318439455"><ele>709.0</ele><time>2026-03-27T10:32:21.999Z</time></trkpt><trkpt lat="44.78915713426624" lon="2.3899335203663137"><ele>710.0</ele><time>2026-03-27T10:32:22.999Z</time></trkpt><trkpt lat="44.78919549685117" lon="2.3901089031768197"><ele>711.0</ele><time>2026-03-27T10:32:23.999Z</time></trkpt><trkpt lat="44.78923386158575" lon="2.390286294598051"><ele>711.0</ele><time>2026-03-27T10:32:24.999Z</time></trkpt><trkpt lat="44.78926894114392" lon="2.3904566324191854"><ele>711.0</ele><time>2026-03-27T10:32:25.999Z</time></trkpt><trkpt lat="44.78930017241867" lon="2.3906265125083834"><ele>711.0</ele><time>2026-03-27T10:32:26.999Z</time></trkpt><trkpt lat="44.789319572597456" lon="2.3907818530187908"><ele>711.0</ele><time>2026-03-27T10:32:27.999Z</time></trkpt><trkpt lat="44.78932396368435" lon="2.3909407227787614"><ele>713.0</ele><time>2026-03-27T10:32:28.999Z</time></trkpt><trkpt lat="44.78931456369472" lon="2.3911019404492033"><ele>715.0</ele><time>2026-03-27T10:32:29.999Z</time></trkpt><trkpt lat="44.78930710525694" lon="2.39126059156984"><ele>717.0</ele><time>2026-03-27T10:32:30.999Z</time></trkpt><trkpt lat="44.789317737214446" lon="2.3914189333752427"><ele>719.0</ele><time>2026-03-27T10:32:31.999Z</time></trkpt><trkpt lat="44.78936202931927" lon="2.3915809431300885"><ele>719.0</ele><time>2026-03-27T10:32:33Z</time></trkpt><trkpt lat="44.78941756578911" lon="2.391751854474257"><ele>719.0</ele><time>2026-03-27T10:32:34Z</time></trkpt><trkpt lat="44.78946547888776" lon="2.3919386876025768"><ele>719.0</ele><time>2026-03-27T10:32:35Z</time></trkpt><trkpt lat="44.78949637787598" lon="2.392139144417776"><ele>719.0</ele><time>2026-03-27T10:32:36Z</time></trkpt><trkpt lat="44.78950887757076" lon="2.392356542531698"><ele>719.6666666666666</ele><time>2026-03-27T10:32:37Z</time></trkpt><trkpt lat="44.78950245706158" lon="2.392575939953935"><ele>720.3333333333334</ele><time>2026-03-27T10:32:38Z</time></trkpt><trkpt lat="44.78950095958712" lon="2.3927949324415225"><ele>721.0</ele><time>2026-03-27T10:32:39Z</time></trkpt><trkpt lat="44.78950021895827" lon="2.3930147815873557"><ele>721.5</ele><time>2026-03-27T10:32:40Z</time></trkpt><trkpt lat="44.78949930332307" lon="2.3932307176246357"><ele>722.0</ele><time>2026-03-27T10:32:41Z</time></trkpt><trkpt lat="44.78950275114943" lon="2.393432275743522"><ele>722.5</ele><time>2026-03-27T10:32:42Z</time></trkpt><trkpt lat="44.789520775163126" lon="2.393613334134799"><ele>723.0</ele><time>2026-03-27T10:32:43Z</time></trkpt><trkpt lat="44.78955456311492" lon="2.393796664764203"><ele>725.0</ele><time>2026-03-27T10:32:44Z</time></trkpt><trkpt lat="44.78959837054163" lon="2.393980268744015"><ele>727.0</ele><time>2026-03-27T10:32:45Z</time></trkpt><trkpt lat="44.789646934160345" lon="2.394166504579774"><ele>729.0</ele><time>2026-03-27T10:32:46Z</time></trkpt><trkpt lat="44.78969810636162" lon="2.394354033122719"><ele>731.0</ele><time>2026-03-27T10:32:47Z</time></trkpt><trkpt lat="44.789753376491745" lon="2.3945529160495127"><ele>731.75</ele><time>2026-03-27T10:32:48Z</time></trkpt><trkpt lat="44.789813467241096" lon="2.3947514858638717"><ele>732.5</ele><time>2026-03-27T10:32:49Z</time></trkpt><trkpt lat="44.78987009526181" lon="2.3949399485144256"><ele>733.25</ele><time>2026-03-27T10:32:50Z</time></trkpt><trkpt lat="44.78991840423797" lon="2.395098758333491"><ele>734.0</ele><time>2026-03-27T10:32:51Z</time></trkpt><trkpt lat="44.78996887939408" lon="2.3952662210746962"><ele>734.0</ele><time>2026-03-27T10:32:52Z</time></trkpt><trkpt lat="44.79002259338893" lon="2.395435578131698"><ele>734.0</ele><time>2026-03-27T10:32:53Z</time></trkpt><trkpt lat="44.790078148541305" lon="2.3956075690031993"><ele>734.0</ele><time>2026-03-27T10:32:54Z</time></trkpt><trkpt lat="44.79013470584071" lon="2.3957871937142694"><ele>734.0</ele><time>2026-03-27T10:32:55Z</time></trkpt><trkpt lat="44.790186176565854" lon="2.3959497095553735"><ele>733.0</ele><time>2026-03-27T10:32:56Z</time></trkpt><trkpt lat="44.790243484429254" lon="2.39610525804021"><ele>732.0</ele><time>2026-03-27T10:32:57Z</time></trkpt><trkpt lat="44.79030479465343" lon="2.3962548870757407"><ele>731.0</ele><time>2026-03-27T10:32:58Z</time></trkpt><trkpt lat="44.79038115838188" lon="2.3963758765390084"><ele>730.0</ele><time>2026-03-27T10:32:59Z</time></trkpt><trkpt lat="44.79047898577004" lon="2.396472388070337"><ele>730.0</ele><time>2026-03-27T10:33:00Z</time></trkpt><trkpt lat="44.790588204092536" lon="2.3965364162037495"><ele>730.0</ele><time>2026-03-27T10:33:01Z</time></trkpt><trkpt lat="44.79070275899736" lon="2.3965748709238452"><ele>730.0</ele><time>2026-03-27T10:33:02Z</time></trkpt><trkpt lat="44.79081588989272" lon="2.3965954799079245"><ele>730.0</ele><time>2026-03-27T10:33:03Z</time></trkpt><trkpt lat="44.79092577646279" lon="2.3966087183116334"><ele>730.5</ele><time>2026-03-27T10:33:04Z</time></trkpt><trkpt lat="44.79103610004574" lon="2.3966048261198587"><ele>731.0</ele><time>2026-03-27T10:33:05Z</time></trkpt><trkpt lat="44.79114643230056" lon="2.3965819158138464"><ele>731.5</ele><time>2026-03-27T10:33:06Z</time></trkpt><trkpt lat="44.7912586550243" lon="2.39655532566545"><ele>732.0</ele><time>2026-03-27T10:33:07Z</time></trkpt><trkpt lat="44.79137668991109" lon="2.3965325823665298"><ele>732.0</ele><time>2026-03-27T10:33:08Z</time></trkpt><trkpt lat="44.79149505682811" lon="2.396513878590937"><ele>732.0</ele><time>2026-03-27T10:33:09Z</time></trkpt><trkpt lat="44.79161514328216" lon="2.396489431039704"><ele>732.0</ele><time>2026-03-27T10:33:10Z</time></trkpt><trkpt lat="44.7917344553258" lon="2.3964676814204564"><ele>732.0</ele><time>2026-03-27T10:33:11Z</time></trkpt><trkpt lat="44.79184387200236" lon="2.396453564574543"><ele>733.6</ele><time>2026-03-27T10:33:12Z</time></trkpt><trkpt lat="44.79194228532368" lon="2.396436545930199"><ele>735.2</ele><time>2026-03-27T10:33:13Z</time></trkpt><trkpt lat="44.79204025990823" lon="2.396419779593093"><ele>736.8</ele><time>2026-03-27T10:33:14Z</time></trkpt><trkpt lat="44.792138311952925" lon="2.3964305147835834"><ele>738.4</ele><time>2026-03-27T10:33:15Z</time></trkpt><trkpt lat="44.79223799147449" lon="2.396489759560881"><ele>740.0</ele><time>2026-03-27T10:33:16Z</time></trkpt><trkpt lat="44.792330070644475" lon="2.396587115741937"><ele>740.0</ele><time>2026-03-27T10:33:17Z</time></trkpt><trkpt lat="44.79242076371305" lon="2.3967114155389795"><ele>740.0</ele><time>2026-03-27T10:33:18Z</time></trkpt><trkpt lat="44.7925325313821" lon="2.3968242578334205"><ele>740.0</ele><time>2026-03-27T10:33:19Z</time></trkpt><trkpt lat="44.79264250998975" lon="2.3969335854246765"><ele>740.0</ele><time>2026-03-27T10:33:20Z</time></trkpt><trkpt lat="44.79275616610863" lon="2.397057277691857"><ele>744.3333333333333</ele><time>2026-03-27T10:33:21Z</time></trkpt><trkpt lat="44.79288867210671" lon="2.397173683403552"><ele>748.6666666666666</ele><time>2026-03-27T10:33:22Z</time></trkpt><trkpt lat="44.79302498893153" lon="2.397281489527228"><ele>753.0</ele><time>2026-03-27T10:33:23Z</time></trkpt><trkpt lat="44.793151144091155" lon="2.3974053660238335"><ele>753.0</ele><time>2026-03-27T10:33:24Z</time></trkpt><trkpt lat="44.793260216445006" lon="2.397537602134761"><ele>753.0</ele><time>2026-03-27T10:33:25Z</time></trkpt><trkpt lat="44.79334882468902" lon="2.39768292901466"><ele>753.0</ele><time>2026-03-27T10:33:26Z</time></trkpt><trkpt lat="44.79341971301857" lon="2.397827299882242"><ele>753.0</ele><time>2026-03-27T10:33:27Z</time></trkpt><trkpt lat="44.79348599138852" lon="2.39795286357775"><ele>755.4</ele><time>2026-03-27T10:33:28Z</time></trkpt><trkpt lat="44.7935641653988" lon="2.398070591919064"><ele>757.8</ele><time>2026-03-27T10:33:29Z</time></trkpt><trkpt lat="44.793647457405505" lon="2.398183113111033"><ele>760.2</ele><time>2026-03-27T10:33:30Z</time></trkpt><trkpt lat="44.7937325849882" lon="2.398280571116781"><ele>762.6</ele><time>2026-03-27T10:33:31Z</time></trkpt><trkpt lat="44.7938088999729" lon="2.398341333826317"><ele>765.0</ele><time>2026-03-27T10:33:32Z</time></trkpt><trkpt lat="44.793874981047786" lon="2.398388663909084"><ele>765.0</ele><time>2026-03-27T10:33:33Z</time></trkpt><trkpt lat="44.794013979194844" lon="2.3984867766443765"><ele>765.0</ele><time>2026-03-27T10:33:35Z</time></trkpt><trkpt lat="44.794100770799886" lon="2.398515105759879"><ele>765.0</ele><time>2026-03-27T10:33:36Z</time></trkpt><trkpt lat="44.79418485194775" lon="2.3985549341078523"><ele>765.0</ele><time>2026-03-27T10:33:37Z</time></trkpt><trkpt lat="44.79427646466486" lon="2.3986169850834016"><ele>765.0</ele><time>2026-03-27T10:33:38Z</time></trkpt><trkpt lat="44.79448262655375" lon="2.398620494413007"><ele>765.2</ele><time>2026-03-27T10:33:40Z</time></trkpt><trkpt lat="44.79459894542855" lon="2.3986554169924874"><ele>765.4</ele><time>2026-03-27T10:33:41Z</time></trkpt><trkpt lat="44.794710542736354" lon="2.398702731466056"><ele>765.5999999999999</ele><time>2026-03-27T10:33:42Z</time></trkpt><trkpt lat="44.794811238263854" lon="2.3987709497245397"><ele>765.8</ele><time>2026-03-27T10:33:43Z</time></trkpt><trkpt lat="44.79487105396853" lon="2.398825570044864"><ele>766.0</ele><time>2026-03-27T10:33:44Z</time></trkpt><trkpt lat="44.79495292783014" lon="2.3988625805918975"><ele>766.5999999999999</ele><time>2026-03-27T10:33:45Z</time></trkpt><trkpt lat="44.79504020583715" lon="2.3988679708798344"><ele>767.2</ele><time>2026-03-27T10:33:46Z</time></trkpt><trkpt lat="44.795128170139506" lon="2.3988573944000398"><ele>767.8</ele><time>2026-03-27T10:33:47Z</time></trkpt><trkpt lat="44.7952254107887" lon="2.398838041748038"><ele>768.4000000000001</ele><time>2026-03-27T10:33:48Z</time></trkpt><trkpt lat="44.79532400317012" lon="2.398821410391147"><ele>769.0</ele><time>2026-03-27T10:33:49Z</time></trkpt><trkpt lat="44.795419444186855" lon="2.3988041614305686"><ele>769.0</ele><time>2026-03-27T10:33:50Z</time></trkpt><trkpt lat="44.79551397922286" lon="2.3987934358127627"><ele>769.0</ele><time>2026-03-27T10:33:51Z</time></trkpt><trkpt lat="44.79560991628891" lon="2.3987873879996435"><ele>769.0</ele><time>2026-03-27T10:33:52Z</time></trkpt><trkpt lat="44.79571141820239" lon="2.398780957723166"><ele>769.0</ele><time>2026-03-27T10:33:53Z</time></trkpt><trkpt lat="44.79580593656318" lon="2.398775030543399"><ele>769.0</ele><time>2026-03-27T10:33:54Z</time></trkpt><trkpt lat="44.79590150300361" lon="2.3987526708874314"><ele>771.0</ele><time>2026-03-27T10:33:55Z</time></trkpt><trkpt lat="44.796005005974244" lon="2.3987227113404037"><ele>773.0</ele><time>2026-03-27T10:33:56Z</time></trkpt><trkpt lat="44.79610781166268" lon="2.398695619150986"><ele>775.0</ele><time>2026-03-27T10:33:57Z</time></trkpt><trkpt lat="44.79622482536556" lon="2.398666397877555"><ele>777.0</ele><time>2026-03-27T10:33:58Z</time></trkpt><trkpt lat="44.79632610481856" lon="2.398598025153484"><ele>779.0</ele><time>2026-03-27T10:33:59Z</time></trkpt><trkpt lat="44.79638343252835" lon="2.398515693101077"><ele>779.0</ele><time>2026-03-27T10:34:00Z</time></trkpt><trkpt lat="44.79646854581345" lon="2.3984357920598645"><ele>779.0</ele><time>2026-03-27T10:34:01Z</time></trkpt><trkpt lat="44.79656132853277" lon="2.3983047336650976"><ele>779.0</ele><time>2026-03-27T10:34:02Z</time></trkpt><trkpt lat="44.79664462947511" lon="2.3982001953602246"><ele>779.0</ele><time>2026-03-27T10:34:03Z</time></trkpt><trkpt lat="44.79672307135494" lon="2.398107406039142"><ele>779.0</ele><time>2026-03-27T10:34:04Z</time></trkpt><trkpt lat="44.79680676778576" lon="2.3980200062269432"><ele>778.5000000000001</ele><time>2026-03-27T10:34:05Z</time></trkpt><trkpt lat="44.79683273881103" lon="2.397920683668436"><ele>778.0</ele><time>2026-03-27T10:34:06Z</time></trkpt><trkpt lat="44.79684106479012" lon="2.3978133766850864"><ele>777.5</ele><time>2026-03-27T10:34:07Z</time></trkpt><trkpt lat="44.79685507352963" lon="2.397690512886985"><ele>777.0</ele><time>2026-03-27T10:34:07.999Z</time></trkpt><trkpt lat="44.79689028773447" lon="2.397572105893638"><ele>776.5000000000001</ele><time>2026-03-27T10:34:08.999Z</time></trkpt><trkpt lat="44.79695704752979" lon="2.3974815049675313"><ele>776.0</ele><time>2026-03-27T10:34:09.999Z</time></trkpt><trkpt lat="44.79700886785913" lon="2.397402417784834"><ele>775.5000000000001</ele><time>2026-03-27T10:34:10.999Z</time></trkpt><trkpt lat="44.79705585937869" lon="2.3973292283438363"><ele>775.0</ele><time>2026-03-27T10:34:11.999Z</time></trkpt><trkpt lat="44.797087886898254" lon="2.3972499777450946"><ele>774.5</ele><time>2026-03-27T10:34:12.999Z</time></trkpt><trkpt lat="44.797106311753446" lon="2.3971595293589045"><ele>774.0</ele><time>2026-03-27T10:34:13.999Z</time></trkpt><trkpt lat="44.79715735079718" lon="2.397015937710734"><ele>773.5000000000001</ele><time>2026-03-27T10:34:15.999Z</time></trkpt><trkpt lat="44.79719881818889" lon="2.396917457388208"><ele>773.0</ele><time>2026-03-27T10:34:17.999Z</time></trkpt><trkpt lat="44.79723408762559" lon="2.3968065967870666"><ele>772.6666666666667</ele><time>2026-03-27T10:34:20.999Z</time></trkpt><trkpt lat="44.79727151835863" lon="2.396671703386665"><ele>772.3333333333334</ele><time>2026-03-27T10:34:27.999Z</time></trkpt><trkpt lat="44.79732137265703" lon="2.396607491611831"><ele>772.0</ele><time>2026-03-27T10:34:28.999Z</time></trkpt><trkpt lat="44.79738504359994" lon="2.3965929612224244"><ele>771.6666666666667</ele><time>2026-03-27T10:34:30.999Z</time></trkpt><trkpt lat="44.797455938954464" lon="2.3965250007193535"><ele>771.3333333333334</ele><time>2026-03-27T10:34:32.999Z</time></trkpt><trkpt lat="44.79751858397342" lon="2.396462187350427"><ele>771.0</ele><time>2026-03-27T10:34:33.999Z</time></trkpt><trkpt lat="44.797591316687125" lon="2.3963726079513825"><ele>770.0</ele><time>2026-03-27T10:34:34.999Z</time></trkpt><trkpt lat="44.79764540766311" lon="2.3962961889630887"><ele>769.0</ele><time>2026-03-27T10:34:35.999Z</time></trkpt><trkpt lat="44.79769394158356" lon="2.396219426227585"><ele>768.0</ele><time>2026-03-27T10:34:36.999Z</time></trkpt><trkpt lat="44.7977489599807" lon="2.396138516985323"><ele>767.0</ele><time>2026-03-27T10:34:37.999Z</time></trkpt><trkpt lat="44.79782942799306" lon="2.3960489964750455"><ele>766.0</ele><time>2026-03-27T10:34:39.001Z</time></trkpt><trkpt lat="44.797933658617296" lon="2.3959750067587193"><ele>765.0</ele><time>2026-03-27T10:34:40.001Z</time></trkpt><trkpt lat="44.798008260898065" lon="2.395912899355121"><ele>764.6666666666666</ele><time>2026-03-27T10:34:41.001Z</time></trkpt><trkpt lat="44.79807232183415" lon="2.3958525352023643"><ele>764.3333333333334</ele><time>2026-03-27T10:34:42.001Z</time></trkpt><trkpt lat="44.798125238770936" lon="2.395798523781031"><ele>764.0</ele><time>2026-03-27T10:34:43.001Z</time></trkpt><trkpt lat="44.79819289482499" lon="2.3957216056782884"><ele>763.6666666666667</ele><time>2026-03-27T10:34:44.001Z</time></trkpt><trkpt lat="44.79827573259516" lon="2.3956445130008333"><ele>763.3333333333334</ele><time>2026-03-27T10:34:46.001Z</time></trkpt><trkpt lat="44.798280482368114" lon="2.3955454715808693"><ele>763.0</ele><time>2026-03-27T10:34:48.001Z</time></trkpt><trkpt lat="44.798285737028564" lon="2.395423679892588"><ele>762.0</ele><time>2026-03-27T10:34:50.001Z</time></trkpt><trkpt lat="44.79830731473032" lon="2.3952557359771456"><ele>761.0</ele><time>2026-03-27T10:34:52.001Z</time></trkpt><trkpt lat="44.79833211412143" lon="2.3951428321653756"><ele>760.0</ele><time>2026-03-27T10:34:53Z</time></trkpt><trkpt lat="44.79833655949087" lon="2.3950068545794854"><ele>759.0</ele><time>2026-03-27T10:34:54Z</time></trkpt><trkpt lat="44.7983480621578" lon="2.3948307091278815"><ele>758.0</ele><time>2026-03-27T10:34:56Z</time></trkpt><trkpt lat="44.7983500856085" lon="2.3946580836988143"><ele>755.8</ele><time>2026-03-27T10:34:58Z</time></trkpt><trkpt lat="44.798335100251464" lon="2.3945524821975144"><ele>753.5999999999999</ele><time>2026-03-27T10:34:59Z</time></trkpt><trkpt lat="44.79831680736404" lon="2.3944412703962166"><ele>751.4000000000001</ele><time>2026-03-27T10:35:00Z</time></trkpt><trkpt lat="44.79831536615917" lon="2.394243683402289"><ele>749.2</ele><time>2026-03-27T10:35:01Z</time></trkpt><trkpt lat="44.79827889127366" lon="2.3940841115207894"><ele>747.0</ele><time>2026-03-27T10:35:02Z</time></trkpt><trkpt lat="44.79824379838306" lon="2.393957974984635"><ele>747.0</ele><time>2026-03-27T10:35:03Z</time></trkpt><trkpt lat="44.79820980554902" lon="2.39386659538793"><ele>747.0</ele><time>2026-03-27T10:35:04Z</time></trkpt><trkpt lat="44.798174949868056" lon="2.3937909515743283"><ele>747.0</ele><time>2026-03-27T10:35:05Z</time></trkpt><trkpt lat="44.798144991732364" lon="2.3936673575924856"><ele>747.0</ele><time>2026-03-27T10:35:07Z</time></trkpt><trkpt lat="44.79814721237498" lon="2.393548764251177"><ele>747.0</ele><time>2026-03-27T10:35:08Z</time></trkpt><trkpt lat="44.798129641413766" lon="2.3933858866369677"><ele>747.0</ele><time>2026-03-27T10:35:10Z</time></trkpt><trkpt lat="44.798081696300876" lon="2.3932647446793913"><ele>743.6</ele><time>2026-03-27T10:35:12Z</time></trkpt><trkpt lat="44.79808930669597" lon="2.393110145387807"><ele>740.2</ele><time>2026-03-27T10:35:14Z</time></trkpt><trkpt lat="44.79814761614567" lon="2.3930220328316825"><ele>736.8</ele><time>2026-03-27T10:35:16Z</time></trkpt><trkpt lat="44.7982378107761" lon="2.3929101760651417"><ele>733.4</ele><time>2026-03-27T10:35:24Z</time></trkpt><trkpt lat="44.79817645019291" lon="2.392823927648377"><ele>730.0</ele><time>2026-03-27T10:35:34Z</time></trkpt><trkpt lat="44.798100289994224" lon="2.3927915765039085"><ele>727.75</ele><time>2026-03-27T10:35:36Z</time></trkpt><trkpt lat="44.79795470621805" lon="2.3927811041667018"><ele>725.5</ele><time>2026-03-27T10:35:38Z</time></trkpt><trkpt lat="44.79785438441493" lon="2.3927665850375477"><ele>723.25</ele><time>2026-03-27T10:35:39Z</time></trkpt><trkpt lat="44.79775067766899" lon="2.3926843879890933"><ele>721.0</ele><time>2026-03-27T10:35:40Z</time></trkpt><trkpt lat="44.797653723610296" lon="2.3925689469462554"><ele>721.0</ele><time>2026-03-27T10:35:41Z</time></trkpt><trkpt lat="44.797553771028134" lon="2.3924362130853734"><ele>721.0</ele><time>2026-03-27T10:35:42Z</time></trkpt><trkpt lat="44.79749902029238" lon="2.39231170095466"><ele>721.0</ele><time>2026-03-27T10:35:43Z</time></trkpt><trkpt lat="44.79746844185914" lon="2.392173732327561"><ele>721.0</ele><time>2026-03-27T10:35:44Z</time></trkpt><trkpt lat="44.79746045486491" lon="2.39201411642775"><ele>719.5999999999999</ele><time>2026-03-27T10:35:45Z</time></trkpt><trkpt lat="44.79744091120371" lon="2.3918377704287224"><ele>718.2</ele><time>2026-03-27T10:35:46Z</time></trkpt><trkpt lat="44.79741668459996" lon="2.391667664378817"><ele>716.8</ele><time>2026-03-27T10:35:47Z</time></trkpt><trkpt lat="44.79738030752812" lon="2.391573285924297"><ele>715.4000000000001</ele><time>2026-03-27T10:35:48Z</time></trkpt><trkpt lat="44.79733017163667" lon="2.3915152821243213"><ele>714.0</ele><time>2026-03-27T10:35:49Z</time></trkpt><trkpt lat="44.797244967194004" lon="2.391441060558212"><ele>714.0</ele><time>2026-03-27T10:35:51Z</time></trkpt><trkpt lat="44.79722344787372" lon="2.391357579887179"><ele>714.0</ele><time>2026-03-27T10:35:53Z</time></trkpt><trkpt lat="44.79728008503535" lon="2.391239167955622"><ele>714.0</ele><time>2026-03-27T10:35:55Z</time></trkpt><trkpt lat="44.79733141028855" lon="2.391177810508393"><ele>714.0</ele><time>2026-03-27T10:35:57Z</time></trkpt><trkpt lat="44.79741707824641" lon="2.39113123422866"><ele>714.0</ele><time>2026-03-27T10:35:59Z</time></trkpt><trkpt lat="44.79761267318755" lon="2.391141884099328"><ele>714.0</ele><time>2026-03-27T10:36:02Z</time></trkpt><trkpt lat="44.79767462087969" lon="2.391166617892507"><ele>714.0</ele><time>2026-03-27T10:36:03Z</time></trkpt><trkpt lat="44.7977841019131" lon="2.3912623471199708"><ele>714.0</ele><time>2026-03-27T10:36:05Z</time></trkpt><trkpt lat="44.797835026155475" lon="2.3913286355242747"><ele>714.0</ele><time>2026-03-27T10:36:06Z</time></trkpt><trkpt lat="44.7979163486023" lon="2.391385851784748"><ele>714.0</ele><time>2026-03-27T10:36:08Z</time></trkpt><trkpt lat="44.79800093518166" lon="2.3914711086549834"><ele>714.2</ele><time>2026-03-27T10:36:10Z</time></trkpt><trkpt lat="44.79800251253791" lon="2.391587059604341"><ele>714.4000000000001</ele><time>2026-03-27T10:36:12Z</time></trkpt><trkpt lat="44.7980183524244" lon="2.39169935746378"><ele>714.6</ele><time>2026-03-27T10:36:13.999Z</time></trkpt><trkpt lat="44.798110447929716" lon="2.3918092009119167"><ele>714.8</ele><time>2026-03-27T10:36:15.999Z</time></trkpt><trkpt lat="44.798214832221305" lon="2.3918500302312253"><ele>715.0</ele><time>2026-03-27T10:36:17.999Z</time></trkpt><trkpt lat="44.798334424657234" lon="2.3918861421732953"><ele>715.0</ele><time>2026-03-27T10:36:19.999Z</time></trkpt><trkpt lat="44.79841862857516" lon="2.391898986157654"><ele>715.0</ele><time>2026-03-27T10:36:21.999Z</time></trkpt><trkpt lat="44.79854675045471" lon="2.391942430690334"><ele>715.0</ele><time>2026-03-27T10:36:23.999Z</time></trkpt><trkpt lat="44.79861577942018" lon="2.391969724965357"><ele>715.0</ele><time>2026-03-27T10:36:24.999Z</time></trkpt><trkpt lat="44.798702100939195" lon="2.392005937351918"><ele>715.0</ele><time>2026-03-27T10:36:25.999Z</time></trkpt><trkpt lat="44.79879108509778" lon="2.3920507061709535"><ele>716.0</ele><time>2026-03-27T10:36:26.999Z</time></trkpt><trkpt lat="44.79888225938917" lon="2.392095280346924"><ele>717.0</ele><time>2026-03-27T10:36:27.999Z</time></trkpt><trkpt lat="44.79897856356221" lon="2.3921265556545506"><ele>718.0</ele><time>2026-03-27T10:36:28.999Z</time></trkpt><trkpt lat="44.79905808023213" lon="2.3921578197660645"><ele>719.0</ele><time>2026-03-27T10:36:29.999Z</time></trkpt><trkpt lat="44.79914974442233" lon="2.3921733883328984"><ele>720.0</ele><time>2026-03-27T10:36:30.999Z</time></trkpt><trkpt lat="44.79924523826026" lon="2.3921842477884745"><ele>720.0</ele><time>2026-03-27T10:36:31.999Z</time></trkpt><trkpt lat="44.79932288956735" lon="2.3921829284263536"><ele>720.0</ele><time>2026-03-27T10:36:32.999Z</time></trkpt><trkpt lat="44.79940348459407" lon="2.3921973725039622"><ele>720.0</ele><time>2026-03-27T10:36:33.999Z</time></trkpt><trkpt lat="44.79948289004731" lon="2.392191180786069"><ele>720.0</ele><time>2026-03-27T10:36:34.999Z</time></trkpt><trkpt lat="44.7995627000609" lon="2.3921979007631555"><ele>720.0</ele><time>2026-03-27T10:36:35.999Z</time></trkpt><trkpt lat="44.799653973317014" lon="2.392243814565618"><ele>720.0</ele><time>2026-03-27T10:36:36.999Z</time></trkpt><trkpt lat="44.79973995669679" lon="2.3922526736456278"><ele>722.5</ele><time>2026-03-27T10:36:37.999Z</time></trkpt><trkpt lat="44.79980851675751" lon="2.392251774848525"><ele>725.0</ele><time>2026-03-27T10:36:38.999Z</time></trkpt><trkpt lat="44.79988779508789" lon="2.3922311750945253"><ele>727.5</ele><time>2026-03-27T10:36:40.999Z</time></trkpt><trkpt lat="44.79995666870937" lon="2.392249386498982"><ele>730.0</ele><time>2026-03-27T10:36:41.999Z</time></trkpt><trkpt lat="44.80002182021893" lon="2.392193652347957"><ele>732.5</ele><time>2026-03-27T10:37:05Z</time></trkpt><trkpt lat="44.80007541820749" lon="2.392142376772886"><ele>735.0</ele><time>2026-03-27T10:37:06Z</time></trkpt><trkpt lat="44.80017997569223" lon="2.3921162591839695"><ele>736.6666666666666</ele><time>2026-03-27T10:37:09Z</time></trkpt><trkpt lat="44.80025445284006" lon="2.3920878047553384"><ele>738.3333333333334</ele><time>2026-03-27T10:37:11Z</time></trkpt><trkpt lat="44.800329458837965" lon="2.39206416418233"><ele>740.0</ele><time>2026-03-27T10:37:13Z</time></trkpt><trkpt lat="44.80042635117618" lon="2.392017428698591"><ele>741.6666666666667</ele><time>2026-03-27T10:37:15Z</time></trkpt><trkpt lat="44.80052517729475" lon="2.391977315962762"><ele>743.3333333333334</ele><time>2026-03-27T10:37:17Z</time></trkpt><trkpt lat="44.8005957050887" lon="2.3919010807811163"><ele>745.0</ele><time>2026-03-27T10:37:19Z</time></trkpt><trkpt lat="44.800668369750205" lon="2.3918302151341844"><ele>745.0</ele><time>2026-03-27T10:37:21Z</time></trkpt><trkpt lat="44.800740058070986" lon="2.3917617769297173"><ele>745.0</ele><time>2026-03-27T10:37:23Z</time></trkpt><trkpt lat="44.80077290794815" lon="2.3916719248247826"><ele>745.0</ele><time>2026-03-27T10:37:27Z</time></trkpt><trkpt lat="44.80079982595016" lon="2.391574718163438"><ele>745.0</ele><time>2026-03-27T10:37:33Z</time></trkpt><trkpt lat="44.800845559427614" lon="2.3914967940503975"><ele>745.0</ele><time>2026-03-27T10:37:38Z</time></trkpt><trkpt lat="44.800877589072435" lon="2.391392723774562"><ele>745.0</ele><time>2026-03-27T10:37:41Z</time></trkpt><trkpt lat="44.80095666307637" lon="2.3912597852227213"><ele>745.8333333333334</ele><time>2026-03-27T10:37:43Z</time></trkpt><trkpt lat="44.800982840686196" lon="2.3911729648804956"><ele>746.6666666666667</ele><time>2026-03-27T10:37:44Z</time></trkpt><trkpt lat="44.80099497195684" lon="2.3910632673514174"><ele>747.5</ele><time>2026-03-27T10:37:45Z</time></trkpt><trkpt lat="44.801004718345055" lon="2.3909675315615466"><ele>748.3333333333334</ele><time>2026-03-27T10:37:46Z</time></trkpt><trkpt lat="44.801054923544385" lon="2.390844679066093"><ele>749.1666666666666</ele><time>2026-03-27T10:37:48Z</time></trkpt><trkpt lat="44.80107986948135" lon="2.3907447296847546"><ele>750.0</ele><time>2026-03-27T10:37:50Z</time></trkpt><trkpt lat="44.801086712006985" lon="2.3906428559154427"><ele>750.0</ele><time>2026-03-27T10:37:52Z</time></trkpt><trkpt lat="44.80113549701119" lon="2.390581890955037"><ele>750.0</ele><time>2026-03-27T10:37:55Z</time></trkpt><trkpt lat="44.80120589435898" lon="2.3905479444956366"><ele>750.0</ele><time>2026-03-27T10:37:57Z</time></trkpt><trkpt lat="44.801292228605334" lon="2.3905030396400098"><ele>750.0</ele><time>2026-03-27T10:37:59Z</time></trkpt><trkpt lat="44.801340876104476" lon="2.3904234773650317"><ele>750.0</ele><time>2026-03-27T10:38:01Z</time></trkpt><trkpt lat="44.801365142870374" lon="2.390277019171723"><ele>750.0</ele><time>2026-03-27T10:38:05Z</time></trkpt><trkpt lat="44.80140476956171" lon="2.390171065740007"><ele>751.25</ele><time>2026-03-27T10:38:09Z</time></trkpt><trkpt lat="44.801504033059615" lon="2.3900043256042727"><ele>752.5</ele><time>2026-03-27T10:38:11Z</time></trkpt><trkpt lat="44.801505072253306" lon="2.389882089716871"><ele>753.75</ele><time>2026-03-27T10:38:15Z</time></trkpt><trkpt lat="44.80152164943887" lon="2.3897857530636326"><ele>755.0</ele><time>2026-03-27T10:38:17Z</time></trkpt><trkpt lat="44.8017958612769" lon="2.389683048749343"><ele>756.3333333333333</ele><time>2026-03-27T10:39:37Z</time></trkpt><trkpt lat="44.80192147707824" lon="2.389717953261801"><ele>757.6666666666666</ele><time>2026-03-27T10:39:39Z</time></trkpt><trkpt lat="44.801987191055716" lon="2.3898203898185906"><ele>759.0</ele><time>2026-03-27T10:39:40Z</time></trkpt><trkpt lat="44.80205568106006" lon="2.38983671171266"><ele>760.3333333333334</ele><time>2026-03-27T10:39:41Z</time></trkpt><trkpt lat="44.80213110504281" lon="2.3898546860561023"><ele>761.6666666666667</ele><time>2026-03-27T10:39:42Z</time></trkpt><trkpt lat="44.80220673676461" lon="2.389872709900638"><ele>763.0</ele><time>2026-03-27T10:39:43Z</time></trkpt><trkpt lat="44.802277862562775" lon="2.3898896599416717"><ele>763.0</ele><time>2026-03-27T10:39:44Z</time></trkpt><trkpt lat="44.80234508718934" lon="2.3899056802906506"><ele>763.0</ele><time>2026-03-27T10:39:45Z</time></trkpt><trkpt lat="44.80243328916813" lon="2.3899266997608177"><ele>763.0</ele><time>2026-03-27T10:39:46Z</time></trkpt><trkpt lat="44.80250202482533" lon="2.3899430802301493"><ele>763.0</ele><time>2026-03-27T10:39:47Z</time></trkpt><trkpt lat="44.80256602598595" lon="2.389960631221142"><ele>763.0</ele><time>2026-03-27T10:39:48Z</time></trkpt><trkpt lat="44.802655953873625" lon="2.389984611988503"><ele>763.0</ele><time>2026-03-27T10:39:49Z</time></trkpt><trkpt lat="44.80275192868067" lon="2.389986906325709"><ele>763.0</ele><time>2026-03-27T10:39:50Z</time></trkpt><trkpt lat="44.80285209459279" lon="2.390024999715327"><ele>763.0</ele><time>2026-03-27T10:39:51Z</time></trkpt><trkpt lat="44.802954012254425" lon="2.390059919823651"><ele>763.0</ele><time>2026-03-27T10:39:52Z</time></trkpt><trkpt lat="44.80306719228925" lon="2.390092497349342"><ele>763.0</ele><time>2026-03-27T10:39:53Z</time></trkpt><trkpt lat="44.803167129895044" lon="2.3901444552131714"><ele>763.0</ele><time>2026-03-27T10:39:54Z</time></trkpt><trkpt lat="44.803308225276695" lon="2.390190858416999"><ele>763.0</ele><time>2026-03-27T10:39:55Z</time></trkpt><trkpt lat="44.803441662287334" lon="2.3902553622440523"><ele>763.0</ele><time>2026-03-27T10:39:56Z</time></trkpt><trkpt lat="44.80358466812246" lon="2.3903336302815616"><ele>763.0</ele><time>2026-03-27T10:39:57Z</time></trkpt><trkpt lat="44.80372789329086" lon="2.390407562064734"><ele>763.0</ele><time>2026-03-27T10:39:58Z</time></trkpt><trkpt lat="44.8038612181327" lon="2.3904779478220664"><ele>763.25</ele><time>2026-03-27T10:39:59Z</time></trkpt><trkpt lat="44.80398214121896" lon="2.390542723454934"><ele>763.5</ele><time>2026-03-27T10:40:00Z</time></trkpt><trkpt lat="44.804112369334206" lon="2.390607562037824"><ele>763.75</ele><time>2026-03-27T10:40:01Z</time></trkpt><trkpt lat="44.804244199983906" lon="2.3906843200621863"><ele>764.0</ele><time>2026-03-27T10:40:02Z</time></trkpt><trkpt lat="44.804385711705905" lon="2.3907750684441647"><ele>764.0</ele><time>2026-03-27T10:40:03Z</time></trkpt><trkpt lat="44.80453725594005" lon="2.390855315327407"><ele>764.0</ele><time>2026-03-27T10:40:04Z</time></trkpt><trkpt lat="44.804693542205065" lon="2.390943597008773"><ele>764.0</ele><time>2026-03-27T10:40:05Z</time></trkpt><trkpt lat="44.80485443521729" lon="2.3910305542955044"><ele>764.0</ele><time>2026-03-27T10:40:06Z</time></trkpt><trkpt lat="44.80501514551979" lon="2.391135164670661"><ele>764.0</ele><time>2026-03-27T10:40:07Z</time></trkpt><trkpt lat="44.80518396015908" lon="2.391226406029706"><ele>764.0</ele><time>2026-03-27T10:40:08Z</time></trkpt><trkpt lat="44.80533693014714" lon="2.3913524133351975"><ele>766.0</ele><time>2026-03-27T10:40:09Z</time></trkpt><trkpt lat="44.805475810920875" lon="2.391495606571901"><ele>768.0</ele><time>2026-03-27T10:40:10Z</time></trkpt><trkpt lat="44.80559435568909" lon="2.3916575373563016"><ele>770.0</ele><time>2026-03-27T10:40:11Z</time></trkpt><trkpt lat="44.805691451091676" lon="2.391856130655775"><ele>770.0</ele><time>2026-03-27T10:40:12Z</time></trkpt><trkpt lat="44.805796520316186" lon="2.3920430019450616"><ele>770.0</ele><time>2026-03-27T10:40:13Z</time></trkpt><trkpt lat="44.805878620875255" lon="2.392227187294246"><ele>770.0</ele><time>2026-03-27T10:40:14Z</time></trkpt><trkpt lat="44.80596146803637" lon="2.392421043578426"><ele>772.5</ele><time>2026-03-27T10:40:15Z</time></trkpt><trkpt lat="44.806003208820286" lon="2.392624176289253"><ele>775.0</ele><time>2026-03-27T10:40:16Z</time></trkpt><trkpt lat="44.806051590918855" lon="2.392809881180631"><ele>777.5</ele><time>2026-03-27T10:40:17Z</time></trkpt><trkpt lat="44.80610374113827" lon="2.3929768511660545"><ele>780.0</ele><time>2026-03-27T10:40:18Z</time></trkpt><trkpt lat="44.80615940775405" lon="2.3931343896459043"><ele>780.0</ele><time>2026-03-27T10:40:18.999Z</time></trkpt><trkpt lat="44.80622418003416" lon="2.3932849611921485"><ele>780.0</ele><time>2026-03-27T10:40:19.999Z</time></trkpt><trkpt lat="44.80630476300135" lon="2.393432791037751"><ele>780.0</ele><time>2026-03-27T10:40:20.999Z</time></trkpt><trkpt lat="44.80640761426225" lon="2.3935195861319722"><ele>780.0</ele><time>2026-03-27T10:40:21.999Z</time></trkpt><trkpt lat="44.8065218278861" lon="2.3935799808851237"><ele>780.0</ele><time>2026-03-27T10:40:22.999Z</time></trkpt><trkpt lat="44.80664843523886" lon="2.3936171166157796"><ele>780.0</ele><time>2026-03-27T10:40:23.999Z</time></trkpt><trkpt lat="44.80679577709496" lon="2.3936357986710495"><ele>780.0</ele><time>2026-03-27T10:40:24.999Z</time></trkpt><trkpt lat="44.8069523457064" lon="2.3936305253212935"><ele>780.0</ele><time>2026-03-27T10:40:25.999Z</time></trkpt><trkpt lat="44.80711451143942" lon="2.393605948161136"><ele>780.75</ele><time>2026-03-27T10:40:26.999Z</time></trkpt><trkpt lat="44.8072469682248" lon="2.3936246883433525"><ele>781.5</ele><time>2026-03-27T10:40:27.999Z</time></trkpt><trkpt lat="44.80737487599985" lon="2.393593208491898"><ele>782.25</ele><time>2026-03-27T10:40:28.999Z</time></trkpt><trkpt lat="44.80751303865331" lon="2.393604928277742"><ele>783.0</ele><time>2026-03-27T10:40:29.999Z</time></trkpt><trkpt lat="44.80764697675896" lon="2.3937052394729212"><ele>782.75</ele><time>2026-03-27T10:40:30.999Z</time></trkpt><trkpt lat="44.807743463304156" lon="2.39377853682225"><ele>782.5</ele><time>2026-03-27T10:40:31.999Z</time></trkpt><trkpt lat="44.80788197399135" lon="2.3938776672961772"><ele>782.25</ele><time>2026-03-27T10:40:32.999Z</time></trkpt><trkpt lat="44.80801832327024" lon="2.3939518751605235"><ele>782.0</ele><time>2026-03-27T10:40:33.999Z</time></trkpt><trkpt lat="44.808159697229385" lon="2.394021742549979"><ele>782.0</ele><time>2026-03-27T10:40:34.999Z</time></trkpt><trkpt lat="44.808284370121484" lon="2.394079697315121"><ele>782.0</ele><time>2026-03-27T10:40:35.999Z</time></trkpt><trkpt lat="44.80838214463034" lon="2.394119618955469"><ele>782.0</ele><time>2026-03-27T10:40:36.999Z</time></trkpt><trkpt lat="44.80846351616404" lon="2.394149864664067"><ele>782.0</ele><time>2026-03-27T10:40:37.999Z</time></trkpt><trkpt lat="44.80857323607029" lon="2.394186042225763"><ele>782.0</ele><time>2026-03-27T10:40:39.999Z</time></trkpt><trkpt lat="44.80868618187669" lon="2.394197557644301"><ele>782.2</ele><time>2026-03-27T10:40:41.999Z</time></trkpt><trkpt lat="44.80866002465966" lon="2.394378221935294"><ele>782.4000000000001</ele><time>2026-03-27T10:40:44.999Z</time></trkpt><trkpt lat="44.80864744146675" lon="2.3944805581598128"><ele>782.5999999999999</ele><time>2026-03-27T10:40:45.999Z</time></trkpt><trkpt lat="44.808637854584035" lon="2.3946226962906683"><ele>782.8</ele><time>2026-03-27T10:40:46.999Z</time></trkpt><trkpt lat="44.8086383753313" lon="2.3947392554882176"><ele>783.0</ele><time>2026-03-27T10:40:47.999Z</time></trkpt><trkpt lat="44.80864318723206" lon="2.394841746530389"><ele>783.3333333333334</ele><time>2026-03-27T10:40:48.999Z</time></trkpt><trkpt lat="44.808653922345684" lon="2.394929787179407"><ele>783.6666666666667</ele><time>2026-03-27T10:40:49.999Z</time></trkpt><trkpt lat="44.808682217260625" lon="2.395081488689299"><ele>784.0</ele><time>2026-03-27T10:40:51.999Z</time></trkpt><trkpt lat="44.80870375624287" lon="2.3951824477924157"><ele>784.3333333333334</ele><time>2026-03-27T10:40:52.999Z</time></trkpt><trkpt lat="44.808727958137816" lon="2.395292006614744"><ele>784.6666666666667</ele><time>2026-03-27T10:40:53.999Z</time></trkpt><trkpt lat="44.8087507492407" lon="2.395386057240355"><ele>785.0</ele><time>2026-03-27T10:40:55Z</time></trkpt><trkpt lat="44.80879527113199" lon="2.395569783110222"><ele>785.1666666666667</ele><time>2026-03-27T10:40:57Z</time></trkpt><trkpt lat="44.80882115184617" lon="2.3956765835280676"><ele>785.3333333333334</ele><time>2026-03-27T10:40:58Z</time></trkpt><trkpt lat="44.80886724927384" lon="2.395760517520092"><ele>785.5</ele><time>2026-03-27T10:41:00Z</time></trkpt><trkpt lat="44.808924898189275" lon="2.3958700602852026"><ele>785.6666666666667</ele><time>2026-03-27T10:41:02Z</time></trkpt><trkpt lat="44.808948204463086" lon="2.395954611837111"><ele>785.8333333333334</ele><time>2026-03-27T10:41:04Z</time></trkpt><trkpt lat="44.808993061821226" lon="2.396065756907871"><ele>786.0</ele><time>2026-03-27T10:41:06Z</time></trkpt><trkpt lat="44.80953209509946" lon="2.3958992564459587"><ele>786.1666666666666</ele><time>2026-03-27T10:41:07Z</time></trkpt><trkpt lat="44.80961015348454" lon="2.396022780948311"><ele>786.3333333333333</ele><time>2026-03-27T10:41:09Z</time></trkpt><trkpt lat="44.80966652587755" lon="2.3960953957886395"><ele>786.5</ele><time>2026-03-27T10:41:10Z</time></trkpt><trkpt lat="44.80972888550871" lon="2.3961637339838515"><ele>786.6666666666666</ele><time>2026-03-27T10:41:11Z</time></trkpt><trkpt lat="44.80977855531813" lon="2.3962335043720104"><ele>786.8333333333333</ele><time>2026-03-27T10:41:12Z</time></trkpt><trkpt lat="44.809840360407975" lon="2.396308889323426"><ele>787.0</ele><time>2026-03-27T10:41:13Z</time></trkpt><trkpt lat="44.8098956882456" lon="2.396381491518018"><ele>787.2857142857142</ele><time>2026-03-27T10:41:14Z</time></trkpt><trkpt lat="44.80995349914072" lon="2.396451530014919"><ele>787.5714285714286</ele><time>2026-03-27T10:41:15Z</time></trkpt><trkpt lat="44.810008841947095" lon="2.3965193954790873"><ele>787.8571428571429</ele><time>2026-03-27T10:41:16Z</time></trkpt><trkpt lat="44.810054728979885" lon="2.3965824545088514"><ele>788.1428571428571</ele><time>2026-03-27T10:41:17Z</time></trkpt><trkpt lat="44.81010654875871" lon="2.3966393007610542"><ele>788.4285714285714</ele><time>2026-03-27T10:41:18Z</time></trkpt><trkpt lat="44.81015721968424" lon="2.3967151147089525"><ele>788.7142857142857</ele><time>2026-03-27T10:41:19Z</time></trkpt><trkpt lat="44.810212291469284" lon="2.396784924877898"><ele>789.0</ele><time>2026-03-27T10:41:20Z</time></trkpt><trkpt lat="44.81026470313196" lon="2.39684533340965"><ele>788.5</ele><time>2026-03-27T10:41:21Z</time></trkpt><trkpt lat="44.81031598194348" lon="2.3969128457504607"><ele>788.0</ele><time>2026-03-27T10:41:22Z</time></trkpt><trkpt lat="44.81037696730231" lon="2.396974860866049"><ele>787.5</ele><time>2026-03-27T10:41:23Z</time></trkpt><trkpt lat="44.81044433964915" lon="2.397030538514813"><ele>787.0</ele><time>2026-03-27T10:41:24Z</time></trkpt><trkpt lat="44.81050463295542" lon="2.3970807519452912"><ele>786.5</ele><time>2026-03-27T10:41:25Z</time></trkpt><trkpt lat="44.81056104921139" lon="2.397146111261843"><ele>786.0</ele><time>2026-03-27T10:41:26Z</time></trkpt><trkpt lat="44.810628855068586" lon="2.397218142060902"><ele>786.0</ele><time>2026-03-27T10:41:27Z</time></trkpt><trkpt lat="44.81071736453786" lon="2.397301070366695"><ele>786.0</ele><time>2026-03-27T10:41:28Z</time></trkpt><trkpt lat="44.810794366605876" lon="2.3973688223691014"><ele>786.0</ele><time>2026-03-27T10:41:29Z</time></trkpt><trkpt lat="44.8108658674874" lon="2.397439222982282"><ele>786.0</ele><time>2026-03-27T10:41:30Z</time></trkpt><trkpt lat="44.81094476927629" lon="2.3974945953765863"><ele>786.0</ele><time>2026-03-27T10:41:31Z</time></trkpt><trkpt lat="44.81103855880281" lon="2.3975347307919552"><ele>785.25</ele><time>2026-03-27T10:41:32Z</time></trkpt><trkpt lat="44.811136885394276" lon="2.397575321672331"><ele>784.5</ele><time>2026-03-27T10:41:33Z</time></trkpt><trkpt lat="44.811239928155494" lon="2.3976146415415873"><ele>783.75</ele><time>2026-03-27T10:41:34Z</time></trkpt><trkpt lat="44.811365217497034" lon="2.3976688237668786"><ele>783.0</ele><time>2026-03-27T10:41:35Z</time></trkpt><trkpt lat="44.81148515106874" lon="2.39772627572985"><ele>783.0</ele><time>2026-03-27T10:41:36Z</time></trkpt><trkpt lat="44.811582486716425" lon="2.3977844023580084"><ele>783.0</ele><time>2026-03-27T10:41:37Z</time></trkpt><trkpt lat="44.811672612764895" lon="2.3978574580623753"><ele>783.0</ele><time>2026-03-27T10:41:38Z</time></trkpt><trkpt lat="44.81174344416913" lon="2.397921230629974"><ele>783.0</ele><time>2026-03-27T10:41:39Z</time></trkpt><trkpt lat="44.811808353379746" lon="2.397982646913416"><ele>783.0</ele><time>2026-03-27T10:41:40Z</time></trkpt><trkpt lat="44.81187170893821" lon="2.3980718668842624"><ele>782.3333333333334</ele><time>2026-03-27T10:41:41Z</time></trkpt><trkpt lat="44.81192435094573" lon="2.3981565833700835"><ele>781.6666666666667</ele><time>2026-03-27T10:41:42Z</time></trkpt><trkpt lat="44.811970558899" lon="2.3982519442357204"><ele>781.0</ele><time>2026-03-27T10:41:43Z</time></trkpt><trkpt lat="44.81201849550558" lon="2.398317964063765"><ele>780.3333333333334</ele><time>2026-03-27T10:41:44Z</time></trkpt><trkpt lat="44.81205923746593" lon="2.398471193198826"><ele>779.6666666666667</ele><time>2026-03-27T10:41:46Z</time></trkpt><trkpt lat="44.81208560890064" lon="2.398590654641815"><ele>779.0</ele><time>2026-03-27T10:41:47Z</time></trkpt><trkpt lat="44.812129639897314" lon="2.3987050687055813"><ele>779.0</ele><time>2026-03-27T10:41:48Z</time></trkpt><trkpt lat="44.812156502942635" lon="2.398827113601274"><ele>779.0</ele><time>2026-03-27T10:41:49Z</time></trkpt><trkpt lat="44.81219045153273" lon="2.398942843099028"><ele>779.0</ele><time>2026-03-27T10:41:50Z</time></trkpt><trkpt lat="44.81221323258723" lon="2.399068114831588"><ele>779.0</ele><time>2026-03-27T10:41:51Z</time></trkpt><trkpt lat="44.812231726006154" lon="2.399198708925068"><ele>779.0</ele><time>2026-03-27T10:41:52Z</time></trkpt><trkpt lat="44.81224663637564" lon="2.399325775544955"><ele>778.8000000000001</ele><time>2026-03-27T10:41:53Z</time></trkpt><trkpt lat="44.81225935535269" lon="2.39947075955195"><ele>778.6</ele><time>2026-03-27T10:41:54Z</time></trkpt><trkpt lat="44.812273658119395" lon="2.399620660999455"><ele>778.4</ele><time>2026-03-27T10:41:55Z</time></trkpt><trkpt lat="44.812282710609246" lon="2.399791625531704"><ele>778.2</ele><time>2026-03-27T10:41:56Z</time></trkpt><trkpt lat="44.81229271826241" lon="2.3999252620762572"><ele>778.0</ele><time>2026-03-27T10:41:57Z</time></trkpt><trkpt lat="44.812317063062636" lon="2.4000473825905773"><ele>777.4</ele><time>2026-03-27T10:41:58Z</time></trkpt><trkpt lat="44.81233463867515" lon="2.400166911587727"><ele>776.8</ele><time>2026-03-27T10:41:59Z</time></trkpt><trkpt lat="44.81235987728532" lon="2.4002852341019234"><ele>776.2</ele><time>2026-03-27T10:42:00Z</time></trkpt><trkpt lat="44.812374783169226" lon="2.4004151270619"><ele>775.6</ele><time>2026-03-27T10:42:01Z</time></trkpt><trkpt lat="44.812449457793065" lon="2.400511872236919"><ele>775.0</ele><time>2026-03-27T10:42:03Z</time></trkpt><trkpt lat="44.812554257534494" lon="2.4005315550688575"><ele>773.5</ele><time>2026-03-27T10:42:05Z</time></trkpt><trkpt lat="44.81267539118575" lon="2.400640057906806"><ele>772.0</ele><time>2026-03-27T10:42:07Z</time></trkpt><trkpt lat="44.81279099484977" lon="2.4007482969476213"><ele>770.5</ele><time>2026-03-27T10:42:08Z</time></trkpt><trkpt lat="44.81291389813316" lon="2.40085288922115"><ele>769.0</ele><time>2026-03-27T10:42:09Z</time></trkpt><trkpt lat="44.813005779527536" lon="2.400937069260142"><ele>769.0</ele><time>2026-03-27T10:42:10Z</time></trkpt><trkpt lat="44.81310741090907" lon="2.401056648540992"><ele>769.0</ele><time>2026-03-27T10:42:11Z</time></trkpt><trkpt lat="44.813208711056156" lon="2.4011394739799066"><ele>769.0</ele><time>2026-03-27T10:42:12Z</time></trkpt><trkpt lat="44.81330595664542" lon="2.4012257588556403"><ele>769.0</ele><time>2026-03-27T10:42:13Z</time></trkpt><trkpt lat="44.81341063300823" lon="2.4013005274973365"><ele>767.4000000000001</ele><time>2026-03-27T10:42:14Z</time></trkpt><trkpt lat="44.813494213263134" lon="2.40140093834408"><ele>765.8</ele><time>2026-03-27T10:42:15Z</time></trkpt><trkpt lat="44.81356420079621" lon="2.401512676252293"><ele>764.2</ele><time>2026-03-27T10:42:15.999Z</time></trkpt><trkpt lat="44.813634298186805" lon="2.401627392103615"><ele>762.5999999999999</ele><time>2026-03-27T10:42:16.999Z</time></trkpt><trkpt lat="44.813687071361414" lon="2.4017513957447036"><ele>761.0</ele><time>2026-03-27T10:42:17.999Z</time></trkpt><trkpt lat="44.81374052820129" lon="2.4018942607271323"><ele>761.0</ele><time>2026-03-27T10:42:18.999Z</time></trkpt><trkpt lat="44.8138034376015" lon="2.402046711081674"><ele>761.0</ele><time>2026-03-27T10:42:19.999Z</time></trkpt><trkpt lat="44.81389400777546" lon="2.4021961690507854"><ele>761.0</ele><time>2026-03-27T10:42:20.999Z</time></trkpt><trkpt lat="44.81400147347337" lon="2.402353658232491"><ele>761.0</ele><time>2026-03-27T10:42:21.999Z</time></trkpt><trkpt lat="44.814089703203365" lon="2.4024881697294305"><ele>760.75</ele><time>2026-03-27T10:42:22.999Z</time></trkpt><trkpt lat="44.814166715268904" lon="2.402597162320226"><ele>760.5</ele><time>2026-03-27T10:42:23.999Z</time></trkpt><trkpt lat="44.81424084276916" lon="2.402703602976092"><ele>760.25</ele><time>2026-03-27T10:42:24.999Z</time></trkpt><trkpt lat="44.814322003470956" lon="2.402805744475991"><ele>760.0</ele><time>2026-03-27T10:42:25.999Z</time></trkpt><trkpt lat="44.814425271040626" lon="2.402922244427062"><ele>760.0</ele><time>2026-03-27T10:42:26.999Z</time></trkpt><trkpt lat="44.81453530412769" lon="2.403023003445254"><ele>760.0</ele><time>2026-03-27T10:42:27.999Z</time></trkpt><trkpt lat="44.81463347066023" lon="2.403113271602822"><ele>760.0</ele><time>2026-03-27T10:42:28.999Z</time></trkpt><trkpt lat="44.814716250579615" lon="2.403200764207141"><ele>760.0</ele><time>2026-03-27T10:42:29.999Z</time></trkpt><trkpt lat="44.81479750255577" lon="2.403284785111396"><ele>760.0</ele><time>2026-03-27T10:42:30.999Z</time></trkpt><trkpt lat="44.814880201691544" lon="2.4033570616502864"><ele>760.0</ele><time>2026-03-27T10:42:31.999Z</time></trkpt><trkpt lat="44.81496098477484" lon="2.403425445759427"><ele>760.0</ele><time>2026-03-27T10:42:32.999Z</time></trkpt><trkpt lat="44.815041228865" lon="2.403469484166768"><ele>760.0</ele><time>2026-03-27T10:42:33.999Z</time></trkpt><trkpt lat="44.81512263274602" lon="2.403517723241056"><ele>760.0</ele><time>2026-03-27T10:42:34.999Z</time></trkpt><trkpt lat="44.815197595139324" lon="2.4035548394261053"><ele>760.0</ele><time>2026-03-27T10:42:35.999Z</time></trkpt><trkpt lat="44.81528680530627" lon="2.403567095750066"><ele>759.5</ele><time>2026-03-27T10:42:36.999Z</time></trkpt><trkpt lat="44.81535507080378" lon="2.403574410508692"><ele>759.0</ele><time>2026-03-27T10:42:37.999Z</time></trkpt><trkpt lat="44.81542712275879" lon="2.403560518247962"><ele>758.5</ele><time>2026-03-27T10:42:38.999Z</time></trkpt><trkpt lat="44.815527180517506" lon="2.40353285106462"><ele>758.0</ele><time>2026-03-27T10:42:39.999Z</time></trkpt><trkpt lat="44.81561600684161" lon="2.403603800319882"><ele>757.5</ele><time>2026-03-27T10:42:40.999Z</time></trkpt><trkpt lat="44.81569695944466" lon="2.403642707180485"><ele>757.0</ele><time>2026-03-27T10:42:41.999Z</time></trkpt><trkpt lat="44.815751880949975" lon="2.403733464841576"><ele>756.6</ele><time>2026-03-27T10:42:42.999Z</time></trkpt><trkpt lat="44.815777422126104" lon="2.4038692339717076"><ele>756.2</ele><time>2026-03-27T10:42:43.999Z</time></trkpt><trkpt lat="44.81586386863061" lon="2.4040221145704117"><ele>755.8</ele><time>2026-03-27T10:42:44.999Z</time></trkpt><trkpt lat="44.81590502772388" lon="2.4041206701553377"><ele>755.4</ele><time>2026-03-27T10:42:45.999Z</time></trkpt><trkpt lat="44.815920067403916" lon="2.4042661602478788"><ele>755.0</ele><time>2026-03-27T10:42:46.999Z</time></trkpt><trkpt lat="44.81596089596071" lon="2.4044170716231057"><ele>754.3333333333333</ele><time>2026-03-27T10:42:47.999Z</time></trkpt><trkpt lat="44.816006033592735" lon="2.4045228394872016"><ele>753.6666666666666</ele><time>2026-03-27T10:42:48.999Z</time></trkpt><trkpt lat="44.816056416088664" lon="2.4046261433659444"><ele>753.0</ele><time>2026-03-27T10:42:49.999Z</time></trkpt><trkpt lat="44.81610593689661" lon="2.404727359503607"><ele>752.3333333333334</ele><time>2026-03-27T10:42:50.999Z</time></trkpt><trkpt lat="44.81615518380906" lon="2.4048229642307857"><ele>751.6666666666667</ele><time>2026-03-27T10:42:51.999Z</time></trkpt><trkpt lat="44.81620440920346" lon="2.4049158970871893"><ele>751.0</ele><time>2026-03-27T10:42:52.999Z</time></trkpt><trkpt lat="44.81631263641576" lon="2.405031535981193"><ele>750.4285714285714</ele><time>2026-03-27T10:42:54.999Z</time></trkpt><trkpt lat="44.816379940807806" lon="2.405093793244406"><ele>749.8571428571429</ele><time>2026-03-27T10:42:55.999Z</time></trkpt><trkpt lat="44.8164432421778" lon="2.4051553404520187"><ele>749.2857142857142</ele><time>2026-03-27T10:42:56.999Z</time></trkpt><trkpt lat="44.81650409635237" lon="2.40520460463669"><ele>748.7142857142858</ele><time>2026-03-27T10:42:57.999Z</time></trkpt><trkpt lat="44.81656148143187" lon="2.4052557688447584"><ele>748.1428571428571</ele><time>2026-03-27T10:42:58.999Z</time></trkpt><trkpt lat="44.81660992628558" lon="2.4053262699356197"><ele>747.5714285714286</ele><time>2026-03-27T10:42:59.999Z</time></trkpt><trkpt lat="44.81666147549239" lon="2.405384843917629"><ele>747.0</ele><time>2026-03-27T10:43:01Z</time></trkpt><trkpt lat="44.816702249484706" lon="2.4054578331804097"><ele>746.8</ele><time>2026-03-27T10:43:03Z</time></trkpt><trkpt lat="44.81668958394275" lon="2.405578329422867"><ele>746.6</ele><time>2026-03-27T10:43:12Z</time></trkpt><trkpt lat="44.816653143797375" lon="2.405705790340033"><ele>746.4</ele><time>2026-03-27T10:43:14Z</time></trkpt><trkpt lat="44.816598481942684" lon="2.405845826735591"><ele>746.1999999999999</ele><time>2026-03-27T10:43:16Z</time></trkpt><trkpt lat="44.816504155726314" lon="2.4058826415978025"><ele>746.0</ele><time>2026-03-27T10:43:17Z</time></trkpt><trkpt lat="44.816400573115786" lon="2.405911634182611"><ele>746.0</ele><time>2026-03-27T10:43:18Z</time></trkpt><trkpt lat="44.81630287152738" lon="2.4059380629520657"><ele>746.0</ele><time>2026-03-27T10:43:19Z</time></trkpt><trkpt lat="44.81618274538159" lon="2.4059656152914752"><ele>746.0</ele><time>2026-03-27T10:43:20Z</time></trkpt><trkpt lat="44.81609932353391" lon="2.40589812906707"><ele>746.0</ele><time>2026-03-27T10:43:21Z</time></trkpt><trkpt lat="44.816051336471304" lon="2.4058083682389633"><ele>746.0</ele><time>2026-03-27T10:43:22Z</time></trkpt><trkpt lat="44.81600136357575" lon="2.4057276398521426"><ele>745.8</ele><time>2026-03-27T10:43:23Z</time></trkpt><trkpt lat="44.81595509465166" lon="2.4055991379769104"><ele>745.5999999999999</ele><time>2026-03-27T10:43:24Z</time></trkpt><trkpt lat="44.815901101350235" lon="2.4055194760245513"><ele>745.4</ele><time>2026-03-27T10:43:25Z</time></trkpt><trkpt lat="44.815819425258326" lon="2.4054176279288666"><ele>745.2</ele><time>2026-03-27T10:43:26Z</time></trkpt><trkpt lat="44.815731502855066" lon="2.4053294080184253"><ele>745.0</ele><time>2026-03-27T10:43:27Z</time></trkpt><trkpt lat="44.815620379473174" lon="2.4052412396279412"><ele>745.0</ele><time>2026-03-27T10:43:28Z</time></trkpt><trkpt lat="44.81551980832622" lon="2.405180652792357"><ele>745.0</ele><time>2026-03-27T10:43:29Z</time></trkpt><trkpt lat="44.8153813537126" lon="2.405138473668234"><ele>745.0</ele><time>2026-03-27T10:43:30Z</time></trkpt><trkpt lat="44.8152734585153" lon="2.405129892611513"><ele>745.0</ele><time>2026-03-27T10:43:31Z</time></trkpt><trkpt lat="44.815125162392405" lon="2.4052179167267207"><ele>744.0</ele><time>2026-03-27T10:43:32Z</time></trkpt><trkpt lat="44.81504978225741" lon="2.4052287143457285"><ele>743.0</ele><time>2026-03-27T10:43:33Z</time></trkpt><trkpt lat="44.81494471381111" lon="2.405228714342067"><ele>742.0</ele><time>2026-03-27T10:43:34Z</time></trkpt><trkpt lat="44.81483605295277" lon="2.405215906415884"><ele>741.0</ele><time>2026-03-27T10:43:35Z</time></trkpt><trkpt lat="44.81469113389634" lon="2.4051847073261854"><ele>740.0</ele><time>2026-03-27T10:43:36Z</time></trkpt><trkpt lat="44.81455946177924" lon="2.405149757248004"><ele>740.0</ele><time>2026-03-27T10:43:37Z</time></trkpt><trkpt lat="44.81441115150021" lon="2.4051379770013166"><ele>740.0</ele><time>2026-03-27T10:43:38Z</time></trkpt><trkpt lat="44.81430188865794" lon="2.40516511472763"><ele>740.0</ele><time>2026-03-27T10:43:39Z</time></trkpt><trkpt lat="44.814197224493796" lon="2.405195302555617"><ele>740.0</ele><time>2026-03-27T10:43:40Z</time></trkpt><trkpt lat="44.8140733319677" lon="2.405254368739332"><ele>741.0</ele><time>2026-03-27T10:43:41Z</time></trkpt><trkpt lat="44.813975835948966" lon="2.405300275137793"><ele>742.0</ele><time>2026-03-27T10:43:42Z</time></trkpt><trkpt lat="44.81388091978877" lon="2.4053175910899935"><ele>743.0</ele><time>2026-03-27T10:43:43Z</time></trkpt><trkpt lat="44.81377769473147" lon="2.4053491168536136"><ele>744.0</ele><time>2026-03-27T10:43:44Z</time></trkpt><trkpt lat="44.81367415980032" lon="2.405359104289577"><ele>745.0</ele><time>2026-03-27T10:43:45Z</time></trkpt><trkpt lat="44.81356794633844" lon="2.405346231778467"><ele>744.8</ele><time>2026-03-27T10:43:46Z</time></trkpt><trkpt lat="44.81346964720751" lon="2.405336315498128"><ele>744.6</ele><time>2026-03-27T10:43:47Z</time></trkpt><trkpt lat="44.813359089136185" lon="2.4053504088753304"><ele>744.4000000000001</ele><time>2026-03-27T10:43:48Z</time></trkpt><trkpt lat="44.81328703216529" lon="2.4053998350952113"><ele>744.2</ele><time>2026-03-27T10:43:49Z</time></trkpt><trkpt lat="44.813220423320054" lon="2.4054936455016485"><ele>744.0</ele><time>2026-03-27T10:43:50Z</time></trkpt><trkpt lat="44.813192836315544" lon="2.4056340946023407"><ele>744.0</ele><time>2026-03-27T10:43:51Z</time></trkpt><trkpt lat="44.813216360921096" lon="2.405747343885206"><ele>744.0</ele><time>2026-03-27T10:43:52Z</time></trkpt><trkpt lat="44.81328068071911" lon="2.4058358750500766"><ele>744.0</ele><time>2026-03-27T10:43:53Z</time></trkpt><trkpt lat="44.81333231080276" lon="2.405925272712097"><ele>744.0</ele><time>2026-03-27T10:43:54Z</time></trkpt><trkpt lat="44.81338658207485" lon="2.4060228648753172"><ele>744.0</ele><time>2026-03-27T10:43:55Z</time></trkpt><trkpt lat="44.813455040823285" lon="2.4061548352370443"><ele>744.0</ele><time>2026-03-27T10:43:56Z</time></trkpt><trkpt lat="44.813450217653234" lon="2.4062835970739185"><ele>744.0</ele><time>2026-03-27T10:43:57Z</time></trkpt><trkpt lat="44.81341441397579" lon="2.4063774924459924"><ele>744.0</ele><time>2026-03-27T10:43:58Z</time></trkpt><trkpt lat="44.81330581181028" lon="2.40642692683858"><ele>744.0</ele><time>2026-03-27T10:44:00Z</time></trkpt><trkpt lat="44.81322328393896" lon="2.406485626556354"><ele>744.0</ele><time>2026-03-27T10:44:01Z</time></trkpt><trkpt lat="44.81314260180036" lon="2.4065338652746915"><ele>743.8333333333334</ele><time>2026-03-27T10:44:02Z</time></trkpt><trkpt lat="44.81306331669691" lon="2.4065686568271043"><ele>743.6666666666666</ele><time>2026-03-27T10:44:03Z</time></trkpt><trkpt lat="44.81297612684314" lon="2.40658677722469"><ele>743.5</ele><time>2026-03-27T10:44:04Z</time></trkpt><trkpt lat="44.812890725023145" lon="2.4066033611282807"><ele>743.3333333333333</ele><time>2026-03-27T10:44:05Z</time></trkpt><trkpt lat="44.812817970706305" lon="2.4066015849354527"><ele>743.1666666666666</ele><time>2026-03-27T10:44:06Z</time></trkpt><trkpt lat="44.81273121628948" lon="2.4066048144079133"><ele>743.0</ele><time>2026-03-27T10:44:07Z</time></trkpt><trkpt lat="44.81264237807018" lon="2.406600804866807"><ele>743.6666666666666</ele><time>2026-03-27T10:44:08Z</time></trkpt><trkpt lat="44.81255245606224" lon="2.4065981144039506"><ele>744.3333333333333</ele><time>2026-03-27T10:44:09Z</time></trkpt><trkpt lat="44.81246749004589" lon="2.4066091532337053"><ele>745.0</ele><time>2026-03-27T10:44:10Z</time></trkpt><trkpt lat="44.81238156638397" lon="2.4066457346621433"><ele>745.6666666666666</ele><time>2026-03-27T10:44:11Z</time></trkpt><trkpt lat="44.812310180299235" lon="2.4066723480921883"><ele>746.3333333333334</ele><time>2026-03-27T10:44:12Z</time></trkpt><trkpt lat="44.812246804200285" lon="2.4066965850394175"><ele>747.0</ele><time>2026-03-27T10:44:13Z</time></trkpt><trkpt lat="44.8121833069051" lon="2.4067208691435473"><ele>747.0</ele><time>2026-03-27T10:44:14Z</time></trkpt><trkpt lat="44.81206715119779" lon="2.4067723325885657"><ele>747.0</ele><time>2026-03-27T10:44:16Z</time></trkpt><trkpt lat="44.811951367515505" lon="2.4068206233422247"><ele>747.0</ele><time>2026-03-27T10:44:18Z</time></trkpt><trkpt lat="44.81187719869838" lon="2.406851557481022"><ele>747.0</ele><time>2026-03-27T10:44:19Z</time></trkpt><trkpt lat="44.811797350386534" lon="2.406884860403251"><ele>747.0</ele><time>2026-03-27T10:44:20Z</time></trkpt><trkpt lat="44.81171505763924" lon="2.40697810744312"><ele>747.0</ele><time>2026-03-27T10:44:21Z</time></trkpt><trkpt lat="44.811624935407224" lon="2.407028546341937"><ele>747.0</ele><time>2026-03-27T10:44:21.999Z</time></trkpt><trkpt lat="44.811540333298886" lon="2.4070942555466743"><ele>747.0</ele><time>2026-03-27T10:44:22.999Z</time></trkpt><trkpt lat="44.81143562301683" lon="2.40717530976961"><ele>747.0</ele><time>2026-03-27T10:44:23.999Z</time></trkpt><trkpt lat="44.81135590832367" lon="2.407237728990239"><ele>747.0</ele><time>2026-03-27T10:44:24.999Z</time></trkpt><trkpt lat="44.8112833132883" lon="2.407292582236592"><ele>746.6666666666666</ele><time>2026-03-27T10:44:25.999Z</time></trkpt><trkpt lat="44.8112179420648" lon="2.4073394882701815"><ele>746.3333333333334</ele><time>2026-03-27T10:44:26.999Z</time></trkpt><trkpt lat="44.811114325938966" lon="2.407378451103499"><ele>746.0</ele><time>2026-03-27T10:44:28.999Z</time></trkpt><trkpt lat="44.81104467358569" lon="2.407353029833699"><ele>745.6666666666667</ele><time>2026-03-27T10:44:29.999Z</time></trkpt><trkpt lat="44.810974836026766" lon="2.407279507000502"><ele>745.3333333333334</ele><time>2026-03-27T10:44:30.999Z</time></trkpt><trkpt lat="44.81089524517136" lon="2.4071832680459635"><ele>745.0</ele><time>2026-03-27T10:44:31.999Z</time></trkpt><trkpt lat="44.810825236998994" lon="2.407122489900136"><ele>745.0</ele><time>2026-03-27T10:44:32.999Z</time></trkpt><trkpt lat="44.81072119446734" lon="2.407090013416574"><ele>745.0</ele><time>2026-03-27T10:44:33.999Z</time></trkpt><trkpt lat="44.8106252622927" lon="2.4070638566557117"><ele>745.0</ele><time>2026-03-27T10:44:34.999Z</time></trkpt><trkpt lat="44.81054446350944" lon="2.4069960886896635"><ele>745.0</ele><time>2026-03-27T10:44:35.999Z</time></trkpt><trkpt lat="44.810478357259626" lon="2.406936322640789"><ele>745.0</ele><time>2026-03-27T10:44:36.999Z</time></trkpt><trkpt lat="44.81041786928556" lon="2.406852647600278"><ele>745.0</ele><time>2026-03-27T10:44:37.999Z</time></trkpt><trkpt lat="44.81036240244321" lon="2.4067841183525656"><ele>745.0</ele><time>2026-03-27T10:44:38.999Z</time></trkpt><trkpt lat="44.81030931711494" lon="2.4067359642763653"><ele>745.0</ele><time>2026-03-27T10:44:39.999Z</time></trkpt><trkpt lat="44.81020903233301" lon="2.406712577395081"><ele>745.0</ele><time>2026-03-27T10:44:41.999Z</time></trkpt><trkpt lat="44.810149492966616" lon="2.406748095526488"><ele>745.0</ele><time>2026-03-27T10:44:42.999Z</time></trkpt><trkpt lat="44.81008335249053" lon="2.4067923202650343"><ele>745.0</ele><time>2026-03-27T10:44:43.999Z</time></trkpt><trkpt lat="44.81002382600887" lon="2.4068542522797634"><ele>743.75</ele><time>2026-03-27T10:44:44.999Z</time></trkpt><trkpt lat="44.80988689377675" lon="2.406995905799877"><ele>742.5</ele><time>2026-03-27T10:44:46.999Z</time></trkpt><trkpt lat="44.80975743153056" lon="2.407103885019948"><ele>741.25</ele><time>2026-03-27T10:44:47.999Z</time></trkpt><trkpt lat="44.809646318813776" lon="2.4071957368817536"><ele>740.0</ele><time>2026-03-27T10:44:48.999Z</time></trkpt><trkpt lat="44.809568214370984" lon="2.407281178319102"><ele>740.0</ele><time>2026-03-27T10:44:49.999Z</time></trkpt><trkpt lat="44.80951233281737" lon="2.407357700544527"><ele>740.0</ele><time>2026-03-27T10:44:50.999Z</time></trkpt><trkpt lat="44.8094377015414" lon="2.407449710245388"><ele>740.0</ele><time>2026-03-27T10:44:52.999Z</time></trkpt><trkpt lat="44.80936129632673" lon="2.4074893834577678"><ele>740.0</ele><time>2026-03-27T10:44:53.999Z</time></trkpt><trkpt lat="44.80923615340291" lon="2.4074765406802556"><ele>740.0</ele><time>2026-03-27T10:44:54.999Z</time></trkpt><trkpt lat="44.8091439755006" lon="2.40748891966057"><ele>742.4</ele><time>2026-03-27T10:44:55.999Z</time></trkpt><trkpt lat="44.809073884704794" lon="2.407518153929646"><ele>744.8</ele><time>2026-03-27T10:44:56.999Z</time></trkpt><trkpt lat="44.8089762489742" lon="2.4076018366547385"><ele>747.2</ele><time>2026-03-27T10:44:57.999Z</time></trkpt><trkpt lat="44.80885890187252" lon="2.4077006823018974"><ele>749.6</ele><time>2026-03-27T10:44:58.999Z</time></trkpt><trkpt lat="44.808767601641044" lon="2.407804092121593"><ele>752.0</ele><time>2026-03-27T10:44:59.999Z</time></trkpt><trkpt lat="44.80869948243048" lon="2.407872076388797"><ele>752.0</ele><time>2026-03-27T10:45:00.999Z</time></trkpt><trkpt lat="44.80862452870033" lon="2.4079512045132287"><ele>752.0</ele><time>2026-03-27T10:45:01.999Z</time></trkpt><trkpt lat="44.808556840143886" lon="2.4080387173107534"><ele>752.0</ele><time>2026-03-27T10:45:02.999Z</time></trkpt><trkpt lat="44.80850275788577" lon="2.4081309128867394"><ele>752.0</ele><time>2026-03-27T10:45:03.999Z</time></trkpt><trkpt lat="44.808444619692054" lon="2.4082159241413037"><ele>752.0</ele><time>2026-03-27T10:45:04.999Z</time></trkpt><trkpt lat="44.80837095484045" lon="2.408337568131459"><ele>753.2</ele><time>2026-03-27T10:45:05.999Z</time></trkpt><trkpt lat="44.808311641848235" lon="2.4084183497184144"><ele>754.4000000000001</ele><time>2026-03-27T10:45:07Z</time></trkpt><trkpt lat="44.80825057726324" lon="2.408541552314808"><ele>755.5999999999999</ele><time>2026-03-27T10:45:08Z</time></trkpt><trkpt lat="44.80819239159144" lon="2.408618248155584"><ele>756.8</ele><time>2026-03-27T10:45:09Z</time></trkpt><trkpt lat="44.80810498893926" lon="2.4087139397487123"><ele>758.0</ele><time>2026-03-27T10:45:10Z</time></trkpt><trkpt lat="44.808028457671114" lon="2.408821158753413"><ele>758.0</ele><time>2026-03-27T10:45:11Z</time></trkpt><trkpt lat="44.8079487601125" lon="2.4088804526262053"><ele>758.0</ele><time>2026-03-27T10:45:12Z</time></trkpt><trkpt lat="44.80786663967006" lon="2.4089386801418535"><ele>758.0</ele><time>2026-03-27T10:45:13Z</time></trkpt><trkpt lat="44.80777371271984" lon="2.4090177905671903"><ele>758.0</ele><time>2026-03-27T10:45:14Z</time></trkpt><trkpt lat="44.80768306036897" lon="2.409080186727491"><ele>758.0</ele><time>2026-03-27T10:45:15Z</time></trkpt><trkpt lat="44.80758295132234" lon="2.409137510784774"><ele>760.0</ele><time>2026-03-27T10:45:16Z</time></trkpt><trkpt lat="44.80748361519433" lon="2.4092016244435324"><ele>762.0</ele><time>2026-03-27T10:45:17Z</time></trkpt><trkpt lat="44.80740754192385" lon="2.4092242531779724"><ele>764.0</ele><time>2026-03-27T10:45:18Z</time></trkpt><trkpt lat="44.80730953847567" lon="2.4092864284701934"><ele>766.0</ele><time>2026-03-27T10:45:19Z</time></trkpt><trkpt lat="44.80722112550589" lon="2.409374888561877"><ele>768.0</ele><time>2026-03-27T10:45:20Z</time></trkpt><trkpt lat="44.80712199525209" lon="2.409439561943972"><ele>768.0</ele><time>2026-03-27T10:45:21Z</time></trkpt><trkpt lat="44.80702844544817" lon="2.409498787939715"><ele>768.0</ele><time>2026-03-27T10:45:22Z</time></trkpt><trkpt lat="44.80692848365139" lon="2.4095615887166373"><ele>768.0</ele><time>2026-03-27T10:45:23Z</time></trkpt><trkpt lat="44.806836543319434" lon="2.4096313053196123"><ele>768.0</ele><time>2026-03-27T10:45:24Z</time></trkpt><trkpt lat="44.80674917501627" lon="2.409713546854374"><ele>768.0</ele><time>2026-03-27T10:45:25Z</time></trkpt><trkpt lat="44.80667239333132" lon="2.409792373509661"><ele>769.0</ele><time>2026-03-27T10:45:26Z</time></trkpt><trkpt lat="44.80659053516178" lon="2.4098832814885918"><ele>770.0</ele><time>2026-03-27T10:45:27Z</time></trkpt><trkpt lat="44.8065095943096" lon="2.409973337970699"><ele>771.0</ele><time>2026-03-27T10:45:28Z</time></trkpt><trkpt lat="44.806428780965966" lon="2.410069013091074"><ele>772.0</ele><time>2026-03-27T10:45:29Z</time></trkpt><trkpt lat="44.80634958745573" lon="2.4101593320927273"><ele>773.0</ele><time>2026-03-27T10:45:30Z</time></trkpt><trkpt lat="44.80627537880922" lon="2.4102348361164023"><ele>773.0</ele><time>2026-03-27T10:45:31Z</time></trkpt><trkpt lat="44.806203499446106" lon="2.410305370914936"><ele>773.0</ele><time>2026-03-27T10:45:32Z</time></trkpt><trkpt lat="44.80613331513611" lon="2.4103781095446304"><ele>773.0</ele><time>2026-03-27T10:45:33Z</time></trkpt><trkpt lat="44.806051362592484" lon="2.4104553197813527"><ele>773.0</ele><time>2026-03-27T10:45:34Z</time></trkpt><trkpt lat="44.80597070136211" lon="2.4105487236046197"><ele>773.0</ele><time>2026-03-27T10:45:35Z</time></trkpt><trkpt lat="44.8058899286018" lon="2.4106335072711245"><ele>773.8333333333334</ele><time>2026-03-27T10:45:36Z</time></trkpt><trkpt lat="44.80582696132106" lon="2.4107036901618497"><ele>774.6666666666667</ele><time>2026-03-27T10:45:37Z</time></trkpt><trkpt lat="44.805766224425625" lon="2.4107532449333298"><ele>775.5</ele><time>2026-03-27T10:45:38Z</time></trkpt><trkpt lat="44.805668396778316" lon="2.410791067244077"><ele>776.3333333333333</ele><time>2026-03-27T10:45:40Z</time></trkpt><trkpt lat="44.80560074390228" lon="2.410787619692817"><ele>777.1666666666666</ele><time>2026-03-27T10:45:42Z</time></trkpt><trkpt lat="44.80553984294276" lon="2.4108120961174975"><ele>778.0</ele><time>2026-03-27T10:45:46Z</time></trkpt><trkpt lat="44.805453601246334" lon="2.410840040305751"><ele>778.0</ele><time>2026-03-27T10:45:49Z</time></trkpt><trkpt lat="44.80539437749522" lon="2.4109114519643318"><ele>778.0</ele><time>2026-03-27T10:45:51Z</time></trkpt><trkpt lat="44.805117636889804" lon="2.4110638173452257"><ele>778.0</ele><time>2026-03-27T10:45:53Z</time></trkpt><trkpt lat="44.80504457155197" lon="2.4111390098643652"><ele>779.0</ele><time>2026-03-27T10:45:54Z</time></trkpt><trkpt lat="44.804969684823504" lon="2.4112208176149688"><ele>780.0</ele><time>2026-03-27T10:45:55Z</time></trkpt><trkpt lat="44.80490036357752" lon="2.4113002415666"><ele>781.0</ele><time>2026-03-27T10:45:56Z</time></trkpt><trkpt lat="44.80482780824278" lon="2.4113876347507897"><ele>782.0</ele><time>2026-03-27T10:45:57Z</time></trkpt><trkpt lat="44.80475139982452" lon="2.4114755791335796"><ele>783.0</ele><time>2026-03-27T10:45:58Z</time></trkpt><trkpt lat="44.804688166339744" lon="2.411555663455859"><ele>783.0</ele><time>2026-03-27T10:45:59Z</time></trkpt><trkpt lat="44.80460998415504" lon="2.4116483635046735"><ele>783.0</ele><time>2026-03-27T10:46:00Z</time></trkpt><trkpt lat="44.80453554428891" lon="2.4117547263520436"><ele>783.0</ele><time>2026-03-27T10:46:01Z</time></trkpt><trkpt lat="44.80446451573411" lon="2.411846377822634"><ele>783.0</ele><time>2026-03-27T10:46:02Z</time></trkpt><trkpt lat="44.80439409648265" lon="2.411923926373118"><ele>783.0</ele><time>2026-03-27T10:46:03Z</time></trkpt><trkpt lat="44.80432967755906" lon="2.4119909760286413"><ele>783.5999999999999</ele><time>2026-03-27T10:46:04Z</time></trkpt><trkpt lat="44.80426382143408" lon="2.4120509776761763"><ele>784.1999999999999</ele><time>2026-03-27T10:46:05Z</time></trkpt><trkpt lat="44.80420784240745" lon="2.4121034039292546"><ele>784.8</ele><time>2026-03-27T10:46:06Z</time></trkpt><trkpt lat="44.80414488891951" lon="2.412130152994027"><ele>785.4</ele><time>2026-03-27T10:46:08Z</time></trkpt><trkpt lat="44.804197731171584" lon="2.412252935385302"><ele>786.0</ele><time>2026-03-27T10:46:11Z</time></trkpt><trkpt lat="44.80449327941634" lon="2.4123585461360233"><ele>784.5</ele><time>2026-03-27T10:46:12Z</time></trkpt><trkpt lat="44.804569906039404" lon="2.4124990968034123"><ele>783.0</ele><time>2026-03-27T10:46:13Z</time></trkpt><trkpt lat="44.804609598698356" lon="2.412653796354712"><ele>781.5</ele><time>2026-03-27T10:46:14Z</time></trkpt><trkpt lat="44.80462793530925" lon="2.412837423878202"><ele>780.0</ele><time>2026-03-27T10:46:15Z</time></trkpt><trkpt lat="44.80463628184036" lon="2.4129656848438388"><ele>779.3333333333333</ele><time>2026-03-27T10:46:16Z</time></trkpt><trkpt lat="44.80468221920535" lon="2.41326404357735"><ele>778.6666666666666</ele><time>2026-03-27T10:46:17Z</time></trkpt><trkpt lat="44.80470272663137" lon="2.413453560360149"><ele>778.0</ele><time>2026-03-27T10:46:18Z</time></trkpt><trkpt lat="44.804725934877446" lon="2.413664133840668"><ele>777.75</ele><time>2026-03-27T10:46:19Z</time></trkpt><trkpt lat="44.80476581336041" lon="2.413871680970447"><ele>777.5</ele><time>2026-03-27T10:46:20Z</time></trkpt><trkpt lat="44.80480407241267" lon="2.4140792918436578"><ele>777.25</ele><time>2026-03-27T10:46:21Z</time></trkpt><trkpt lat="44.80482827714689" lon="2.4142715341218635"><ele>777.0</ele><time>2026-03-27T10:46:22Z</time></trkpt><trkpt lat="44.80485365011745" lon="2.414449858927732"><ele>777.0</ele><time>2026-03-27T10:46:23Z</time></trkpt><trkpt lat="44.80485543788978" lon="2.414644504544753"><ele>777.0</ele><time>2026-03-27T10:46:24Z</time></trkpt><trkpt lat="44.80485845161177" lon="2.41484421246422"><ele>777.0</ele><time>2026-03-27T10:46:25Z</time></trkpt><trkpt lat="44.80487624457341" lon="2.4150030013809807"><ele>777.0</ele><time>2026-03-27T10:46:26Z</time></trkpt><trkpt lat="44.80483656598233" lon="2.415234715491019"><ele>777.0</ele><time>2026-03-27T10:46:27Z</time></trkpt><trkpt lat="44.804793988692786" lon="2.41546869528303"><ele>777.0</ele><time>2026-03-27T10:46:27.999Z</time></trkpt><trkpt lat="44.80475562803045" lon="2.415703956119001"><ele>777.0</ele><time>2026-03-27T10:46:28.999Z</time></trkpt><trkpt lat="44.80472480362855" lon="2.415925651984489"><ele>776.6666666666667</ele><time>2026-03-27T10:46:29.999Z</time></trkpt><trkpt lat="44.804676627337784" lon="2.41615089843075"><ele>776.3333333333334</ele><time>2026-03-27T10:46:30.999Z</time></trkpt><trkpt lat="44.80462313888447" lon="2.4163722844064086"><ele>776.0</ele><time>2026-03-27T10:46:31.999Z</time></trkpt><trkpt lat="44.80457579800458" lon="2.4165792577601004"><ele>775.0</ele><time>2026-03-27T10:46:32.999Z</time></trkpt><trkpt lat="44.8045367426345" lon="2.416785217791879"><ele>774.0</ele><time>2026-03-27T10:46:33.999Z</time></trkpt><trkpt lat="44.8045015698592" lon="2.417008872773024"><ele>773.0</ele><time>2026-03-27T10:46:34.999Z</time></trkpt><trkpt lat="44.804466719277805" lon="2.417233226100364"><ele>772.3333333333334</ele><time>2026-03-27T10:46:35.999Z</time></trkpt><trkpt lat="44.8044325579719" lon="2.4174533128710842"><ele>771.6666666666667</ele><time>2026-03-27T10:46:36.999Z</time></trkpt><trkpt lat="44.80440613980528" lon="2.4176718107572723"><ele>771.0</ele><time>2026-03-27T10:46:37.999Z</time></trkpt><trkpt lat="44.8043866848003" lon="2.4178822241995817"><ele>770.25</ele><time>2026-03-27T10:46:38.999Z</time></trkpt><trkpt lat="44.804416974542384" lon="2.4180516698822494"><ele>769.5</ele><time>2026-03-27T10:46:39.999Z</time></trkpt><trkpt lat="44.80443243159144" lon="2.418212060752647"><ele>768.75</ele><time>2026-03-27T10:46:40.999Z</time></trkpt><trkpt lat="44.804466973399784" lon="2.4183681851667505"><ele>768.0</ele><time>2026-03-27T10:46:41.999Z</time></trkpt><trkpt lat="44.804528106738665" lon="2.418524965074342"><ele>768.0</ele><time>2026-03-27T10:46:42.999Z</time></trkpt><trkpt lat="44.80459087668523" lon="2.4186987739956742"><ele>768.0</ele><time>2026-03-27T10:46:43.999Z</time></trkpt><trkpt lat="44.80466291470919" lon="2.418881821502943"><ele>768.0</ele><time>2026-03-27T10:46:44.999Z</time></trkpt><trkpt lat="44.80474969701439" lon="2.4191061012527797"><ele>768.3333333333333</ele><time>2026-03-27T10:46:45.999Z</time></trkpt><trkpt lat="44.80483958524126" lon="2.419338846817064"><ele>768.6666666666666</ele><time>2026-03-27T10:46:46.999Z</time></trkpt><trkpt lat="44.804926131094064" lon="2.419568165187668"><ele>769.0</ele><time>2026-03-27T10:46:47.999Z</time></trkpt><trkpt lat="44.80499951310973" lon="2.4197693465280836"><ele>769.25</ele><time>2026-03-27T10:46:48.999Z</time></trkpt><trkpt lat="44.80506228042851" lon="2.4199512768919176"><ele>769.5</ele><time>2026-03-27T10:46:49.999Z</time></trkpt><trkpt lat="44.80511861171381" lon="2.4201436376853134"><ele>769.75</ele><time>2026-03-27T10:46:50.999Z</time></trkpt><trkpt lat="44.80516309528189" lon="2.4203402873977273"><ele>770.0</ele><time>2026-03-27T10:46:51.999Z</time></trkpt><trkpt lat="44.805204696781345" lon="2.420572125565427"><ele>770.0</ele><time>2026-03-27T10:46:52.999Z</time></trkpt><trkpt lat="44.80525715918557" lon="2.420779602110068"><ele>770.0</ele><time>2026-03-27T10:46:53.999Z</time></trkpt><trkpt lat="44.805332771541" lon="2.42099013587823"><ele>770.0</ele><time>2026-03-27T10:46:54.999Z</time></trkpt><trkpt lat="44.805398734347136" lon="2.421222383796727"><ele>770.3333333333334</ele><time>2026-03-27T10:46:55.999Z</time></trkpt><trkpt lat="44.80546012807727" lon="2.4214426166876684"><ele>770.6666666666667</ele><time>2026-03-27T10:46:56.999Z</time></trkpt><trkpt lat="44.805530694182345" lon="2.421654490261496"><ele>771.0</ele><time>2026-03-27T10:46:57.999Z</time></trkpt><trkpt lat="44.80557673523538" lon="2.4218550138931514"><ele>771.0</ele><time>2026-03-27T10:46:58.999Z</time></trkpt><trkpt lat="44.805615555082795" lon="2.422063691876823"><ele>771.0</ele><time>2026-03-27T10:46:59.999Z</time></trkpt><trkpt lat="44.80562905153581" lon="2.4222862548853543"><ele>771.0</ele><time>2026-03-27T10:47:00.999Z</time></trkpt><trkpt lat="44.80565278366979" lon="2.422519056958371"><ele>770.3333333333333</ele><time>2026-03-27T10:47:01.999Z</time></trkpt><trkpt lat="44.805680599233526" lon="2.422763865536595"><ele>769.6666666666666</ele><time>2026-03-27T10:47:02.999Z</time></trkpt><trkpt lat="44.805725288159266" lon="2.422995513406567"><ele>769.0</ele><time>2026-03-27T10:47:03.999Z</time></trkpt><trkpt lat="44.80574005078764" lon="2.42322097109088"><ele>768.6666666666666</ele><time>2026-03-27T10:47:04.999Z</time></trkpt><trkpt lat="44.805788776674355" lon="2.4234430831996194"><ele>768.3333333333333</ele><time>2026-03-27T10:47:05.999Z</time></trkpt><trkpt lat="44.80583366382866" lon="2.423665553740592"><ele>768.0</ele><time>2026-03-27T10:47:06.999Z</time></trkpt><trkpt lat="44.805895039360145" lon="2.4238986570347465"><ele>767.3333333333334</ele><time>2026-03-27T10:47:07.999Z</time></trkpt><trkpt lat="44.805953677240026" lon="2.4241283564454936"><ele>766.6666666666667</ele><time>2026-03-27T10:47:08.999Z</time></trkpt><trkpt lat="44.80599517725983" lon="2.4243559034441313"><ele>766.0</ele><time>2026-03-27T10:47:09.999Z</time></trkpt><trkpt lat="44.806019970802474" lon="2.424579864625124"><ele>765.5</ele><time>2026-03-27T10:47:10.999Z</time></trkpt><trkpt lat="44.805999702539985" lon="2.4247858045511728"><ele>765.0</ele><time>2026-03-27T10:47:11.999Z</time></trkpt><trkpt lat="44.80598489352919" lon="2.4249833572014663"><ele>764.5</ele><time>2026-03-27T10:47:13Z</time></trkpt><trkpt lat="44.80597008774327" lon="2.4251879343712375"><ele>764.0</ele><time>2026-03-27T10:47:14Z</time></trkpt><trkpt lat="44.8059858759215" lon="2.425389037329893"><ele>762.3333333333333</ele><time>2026-03-27T10:47:15Z</time></trkpt><trkpt lat="44.8060012855547" lon="2.4255896657372777"><ele>760.6666666666666</ele><time>2026-03-27T10:47:16Z</time></trkpt><trkpt lat="44.805981728213105" lon="2.425801845666277"><ele>759.0</ele><time>2026-03-27T10:47:17Z</time></trkpt><trkpt lat="44.805962361400844" lon="2.4260316041263357"><ele>762.3333333333333</ele><time>2026-03-27T10:47:18Z</time></trkpt><trkpt lat="44.80596074818705" lon="2.4262793017384108"><ele>765.6666666666666</ele><time>2026-03-27T10:47:19Z</time></trkpt><trkpt lat="44.805947759722756" lon="2.4265345095844086"><ele>769.0</ele><time>2026-03-27T10:47:20Z</time></trkpt><trkpt lat="44.80594484984118" lon="2.4267636517965525"><ele>769.0</ele><time>2026-03-27T10:47:21Z</time></trkpt><trkpt lat="44.805948961287015" lon="2.4269770233320194"><ele>769.0</ele><time>2026-03-27T10:47:22Z</time></trkpt><trkpt lat="44.80595373280609" lon="2.4271692544704937"><ele>769.0</ele><time>2026-03-27T10:47:23Z</time></trkpt><trkpt lat="44.805961910158565" lon="2.4273477552806932"><ele>769.0</ele><time>2026-03-27T10:47:24Z</time></trkpt><trkpt lat="44.80596060143457" lon="2.4275117294944675"><ele>768.6666666666666</ele><time>2026-03-27T10:47:25Z</time></trkpt><trkpt lat="44.805956490512365" lon="2.427654735000836"><ele>768.3333333333333</ele><time>2026-03-27T10:47:26Z</time></trkpt><trkpt lat="44.80595064916168" lon="2.4277853418038107"><ele>768.0</ele><time>2026-03-27T10:47:27Z</time></trkpt><trkpt lat="44.805938601600474" lon="2.4279090026234047"><ele>767.6666666666666</ele><time>2026-03-27T10:47:28Z</time></trkpt><trkpt lat="44.80592154763909" lon="2.4280183128230495"><ele>767.3333333333333</ele><time>2026-03-27T10:47:29Z</time></trkpt><trkpt lat="44.805898979087466" lon="2.4281132646460755"><ele>767.0</ele><time>2026-03-27T10:47:30Z</time></trkpt><trkpt lat="44.805863345941255" lon="2.428263467832073"><ele>766.0</ele><time>2026-03-27T10:47:32Z</time></trkpt><trkpt lat="44.80575449472538" lon="2.428367336514337"><ele>765.0</ele><time>2026-03-27T10:47:34Z</time></trkpt><trkpt lat="44.8056709137638" lon="2.4283860425738717"><ele>764.0</ele><time>2026-03-27T10:47:35Z</time></trkpt><trkpt lat="44.80558469164881" lon="2.4284058324011593"><ele>763.0</ele><time>2026-03-27T10:47:36Z</time></trkpt><trkpt lat="44.8054878120076" lon="2.428405606870765"><ele>762.0</ele><time>2026-03-27T10:47:37Z</time></trkpt><trkpt lat="44.80538787289914" lon="2.428431970686843"><ele>762.0</ele><time>2026-03-27T10:47:38Z</time></trkpt><trkpt lat="44.80529620333027" lon="2.428453279181355"><ele>762.0</ele><time>2026-03-27T10:47:39Z</time></trkpt><trkpt lat="44.80520705220078" lon="2.428452799773556"><ele>762.0</ele><time>2026-03-27T10:47:40Z</time></trkpt><trkpt lat="44.805114909426706" lon="2.4284310076828413"><ele>762.0</ele><time>2026-03-27T10:47:41Z</time></trkpt><trkpt lat="44.80502510997559" lon="2.4284195915530193"><ele>762.0</ele><time>2026-03-27T10:47:42Z</time></trkpt><trkpt lat="44.804941282853974" lon="2.4284058772853316"><ele>761.6666666666666</ele><time>2026-03-27T10:47:43Z</time></trkpt><trkpt lat="44.80485843709898" lon="2.428402174696211"><ele>761.3333333333334</ele><time>2026-03-27T10:47:44Z</time></trkpt><trkpt lat="44.80476852146949" lon="2.4284053897103046"><ele>761.0</ele><time>2026-03-27T10:47:45Z</time></trkpt><trkpt lat="44.80468023554227" lon="2.428424409087333"><ele>760.6666666666667</ele><time>2026-03-27T10:47:46Z</time></trkpt><trkpt lat="44.80459311194476" lon="2.428449880061432"><ele>760.3333333333334</ele><time>2026-03-27T10:47:47Z</time></trkpt><trkpt lat="44.804521377305974" lon="2.4284936762856817"><ele>760.0</ele><time>2026-03-27T10:47:48Z</time></trkpt><trkpt lat="44.80446203248199" lon="2.4285370025769493"><ele>760.0</ele><time>2026-03-27T10:47:49Z</time></trkpt><trkpt lat="44.80437601926854" lon="2.4286434507053802"><ele>760.0</ele><time>2026-03-27T10:47:51Z</time></trkpt><trkpt lat="44.80435133758659" lon="2.4287274958036122"><ele>760.0</ele><time>2026-03-27T10:47:52Z</time></trkpt><trkpt lat="44.80433634859547" lon="2.428815512086982"><ele>760.0</ele><time>2026-03-27T10:47:53Z</time></trkpt><trkpt lat="44.804326455284745" lon="2.4289774915605604"><ele>760.0</ele><time>2026-03-27T10:47:55Z</time></trkpt><trkpt lat="44.80430922745664" lon="2.429064918667471"><ele>760.0</ele><time>2026-03-27T10:47:56Z</time></trkpt><trkpt lat="44.80423953005439" lon="2.429211093173994"><ele>757.8</ele><time>2026-03-27T10:47:58Z</time></trkpt><trkpt lat="44.804189792094206" lon="2.429288384889361"><ele>755.6</ele><time>2026-03-27T10:47:59Z</time></trkpt><trkpt lat="44.80412596834965" lon="2.4293881626179847"><ele>753.4000000000001</ele><time>2026-03-27T10:48:00Z</time></trkpt><trkpt lat="44.804031435441814" lon="2.429505269728724"><ele>751.2</ele><time>2026-03-27T10:48:01Z</time></trkpt><trkpt lat="44.80393073596122" lon="2.4296085942921883"><ele>749.0</ele><time>2026-03-27T10:48:02Z</time></trkpt><trkpt lat="44.80382391426609" lon="2.429731089216801"><ele>747.0</ele><time>2026-03-27T10:48:03Z</time></trkpt><trkpt lat="44.803734001739684" lon="2.4298497356717004"><ele>745.0</ele><time>2026-03-27T10:48:04Z</time></trkpt><trkpt lat="44.80365478187999" lon="2.4299866500023386"><ele>743.0</ele><time>2026-03-27T10:48:05Z</time></trkpt><trkpt lat="44.80359185065708" lon="2.430133994482795"><ele>741.0</ele><time>2026-03-27T10:48:06Z</time></trkpt><trkpt lat="44.80353335529155" lon="2.430296722605047"><ele>740.0</ele><time>2026-03-27T10:48:07Z</time></trkpt><trkpt lat="44.80348444056515" lon="2.4304607754250522"><ele>739.0</ele><time>2026-03-27T10:48:08Z</time></trkpt><trkpt lat="44.803446084338866" lon="2.430666894825643"><ele>738.0</ele><time>2026-03-27T10:48:09Z</time></trkpt><trkpt lat="44.80341204388776" lon="2.4308637588567072"><ele>737.0</ele><time>2026-03-27T10:48:10Z</time></trkpt><trkpt lat="44.80337245427782" lon="2.431035500238365"><ele>736.5</ele><time>2026-03-27T10:48:11Z</time></trkpt><trkpt lat="44.80331944731987" lon="2.431186398333074"><ele>736.0</ele><time>2026-03-27T10:48:12Z</time></trkpt><trkpt lat="44.80324541692406" lon="2.4313237029508423"><ele>735.5</ele><time>2026-03-27T10:48:13Z</time></trkpt><trkpt lat="44.80315330486884" lon="2.431452596633749"><ele>735.0</ele><time>2026-03-27T10:48:14Z</time></trkpt><trkpt lat="44.80304938267852" lon="2.431578980007406"><ele>733.75</ele><time>2026-03-27T10:48:15Z</time></trkpt><trkpt lat="44.80294002147904" lon="2.4317064267632413"><ele>732.5</ele><time>2026-03-27T10:48:16Z</time></trkpt><trkpt lat="44.802832606585184" lon="2.4318137279768504"><ele>731.25</ele><time>2026-03-27T10:48:17Z</time></trkpt><trkpt lat="44.80273668857359" lon="2.4319283481319474"><ele>730.0</ele><time>2026-03-27T10:48:18Z</time></trkpt><trkpt lat="44.80265563976036" lon="2.4320434329078546"><ele>729.8</ele><time>2026-03-27T10:48:19Z</time></trkpt><trkpt lat="44.80259389050538" lon="2.4321730200412026"><ele>729.6</ele><time>2026-03-27T10:48:20Z</time></trkpt><trkpt lat="44.80254874344576" lon="2.432310760987752"><ele>729.4000000000001</ele><time>2026-03-27T10:48:21Z</time></trkpt><trkpt lat="44.80251141351542" lon="2.4324465893144005"><ele>729.2</ele><time>2026-03-27T10:48:22Z</time></trkpt><trkpt lat="44.80247638453011" lon="2.4325867128208882"><ele>729.0</ele><time>2026-03-27T10:48:23Z</time></trkpt><trkpt lat="44.802439416776934" lon="2.4327421536242158"><ele>729.0</ele><time>2026-03-27T10:48:24Z</time></trkpt><trkpt lat="44.80239896726385" lon="2.432903903681555"><ele>729.0</ele><time>2026-03-27T10:48:25Z</time></trkpt><trkpt lat="44.80235539867315" lon="2.4330588953312007"><ele>729.0</ele><time>2026-03-27T10:48:26Z</time></trkpt><trkpt lat="44.802307581047984" lon="2.4332191822971394"><ele>729.0</ele><time>2026-03-27T10:48:27Z</time></trkpt><trkpt lat="44.80226118578195" lon="2.433369936309006"><ele>728.5</ele><time>2026-03-27T10:48:28Z</time></trkpt><trkpt lat="44.80223487034326" lon="2.433524747086394"><ele>728.0</ele><time>2026-03-27T10:48:29Z</time></trkpt><trkpt lat="44.80223175326742" lon="2.433687678897809"><ele>727.5</ele><time>2026-03-27T10:48:30Z</time></trkpt><trkpt lat="44.80225660050508" lon="2.433864204021327"><ele>727.0</ele><time>2026-03-27T10:48:31Z</time></trkpt><trkpt lat="44.80230333873957" lon="2.434021429015503"><ele>726.6</ele><time>2026-03-27T10:48:32Z</time></trkpt><trkpt lat="44.802345054272735" lon="2.434144400136494"><ele>726.2</ele><time>2026-03-27T10:48:33Z</time></trkpt><trkpt lat="44.80236447831138" lon="2.434273901026051"><ele>725.8</ele><time>2026-03-27T10:48:33.999Z</time></trkpt><trkpt lat="44.80236996998104" lon="2.434411776499222"><ele>725.4</ele><time>2026-03-27T10:48:34.999Z</time></trkpt><trkpt lat="44.80236614677807" lon="2.4345896124268975"><ele>725.0</ele><time>2026-03-27T10:48:35.999Z</time></trkpt><trkpt lat="44.80232313859343" lon="2.4347375654061936"><ele>724.0</ele><time>2026-03-27T10:48:36.999Z</time></trkpt><trkpt lat="44.80228232924227" lon="2.4348804148909875"><ele>723.0</ele><time>2026-03-27T10:48:37.999Z</time></trkpt><trkpt lat="44.802272604283765" lon="2.435026847763213"><ele>722.0</ele><time>2026-03-27T10:48:38.999Z</time></trkpt><trkpt lat="44.80224042864446" lon="2.4351807667958982"><ele>721.0</ele><time>2026-03-27T10:48:39.999Z</time></trkpt><trkpt lat="44.80220236455096" lon="2.4353458504695924"><ele>719.75</ele><time>2026-03-27T10:48:40.999Z</time></trkpt><trkpt lat="44.80215419409545" lon="2.4355323455709104"><ele>718.5</ele><time>2026-03-27T10:48:41.999Z</time></trkpt><trkpt lat="44.80211486034726" lon="2.4357030136856324"><ele>717.25</ele><time>2026-03-27T10:48:42.999Z</time></trkpt><trkpt lat="44.80206568831733" lon="2.4358371042241487"><ele>716.0</ele><time>2026-03-27T10:48:43.999Z</time></trkpt><trkpt lat="44.80205050168212" lon="2.4359981099305696"><ele>716.0</ele><time>2026-03-27T10:48:44.999Z</time></trkpt><trkpt lat="44.8020364058472" lon="2.436214018677494"><ele>716.0</ele><time>2026-03-27T10:48:45.999Z</time></trkpt><trkpt lat="44.80200477453349" lon="2.436440988373784"><ele>716.0</ele><time>2026-03-27T10:48:46.999Z</time></trkpt><trkpt lat="44.80196060305986" lon="2.436627666282937"><ele>714.75</ele><time>2026-03-27T10:48:47.999Z</time></trkpt><trkpt lat="44.80191665153782" lon="2.4368057721920797"><ele>713.5</ele><time>2026-03-27T10:48:48.999Z</time></trkpt><trkpt lat="44.801890563394736" lon="2.436979546376917"><ele>712.25</ele><time>2026-03-27T10:48:49.999Z</time></trkpt><trkpt lat="44.80187268931226" lon="2.4371387729028746"><ele>711.0</ele><time>2026-03-27T10:48:50.999Z</time></trkpt><trkpt lat="44.80185774019414" lon="2.4373295283429632"><ele>710.75</ele><time>2026-03-27T10:48:51.999Z</time></trkpt><trkpt lat="44.80186342100213" lon="2.4375226862604995"><ele>710.5</ele><time>2026-03-27T10:48:52.999Z</time></trkpt><trkpt lat="44.80183961366874" lon="2.4376531702459063"><ele>710.25</ele><time>2026-03-27T10:48:53.999Z</time></trkpt><trkpt lat="44.801808617202774" lon="2.437776926311815"><ele>710.0</ele><time>2026-03-27T10:48:54.999Z</time></trkpt><trkpt lat="44.80178793816524" lon="2.437971318180724"><ele>707.2</ele><time>2026-03-27T10:48:55.999Z</time></trkpt><trkpt lat="44.80177050238484" lon="2.4381341985967584"><ele>704.4</ele><time>2026-03-27T10:48:56.999Z</time></trkpt><trkpt lat="44.80175338857117" lon="2.4382950280436764"><ele>701.5999999999999</ele><time>2026-03-27T10:48:57.999Z</time></trkpt><trkpt lat="44.80171608885063" lon="2.4384467131887155"><ele>698.8</ele><time>2026-03-27T10:48:58.999Z</time></trkpt><trkpt lat="44.80166028377354" lon="2.438553519822547"><ele>696.0</ele><time>2026-03-27T10:48:59.999Z</time></trkpt><trkpt lat="44.80160592413345" lon="2.4386439428921425"><ele>696.0</ele><time>2026-03-27T10:49:00.999Z</time></trkpt><trkpt lat="44.801560138789256" lon="2.438756518756544"><ele>696.0</ele><time>2026-03-27T10:49:01.999Z</time></trkpt><trkpt lat="44.801502790960036" lon="2.438885028030663"><ele>696.0</ele><time>2026-03-27T10:49:02.999Z</time></trkpt><trkpt lat="44.801424249730765" lon="2.439020185814126"><ele>696.0</ele><time>2026-03-27T10:49:03.999Z</time></trkpt><trkpt lat="44.80135628489931" lon="2.4391602676117574"><ele>696.0</ele><time>2026-03-27T10:49:04.999Z</time></trkpt><trkpt lat="44.80132329904023" lon="2.439279903477852"><ele>694.1999999999999</ele><time>2026-03-27T10:49:05.999Z</time></trkpt><trkpt lat="44.80130319023603" lon="2.439404693403428"><ele>692.4</ele><time>2026-03-27T10:49:06.999Z</time></trkpt><trkpt lat="44.8013022797514" lon="2.439531444443774"><ele>690.6</ele><time>2026-03-27T10:49:07.999Z</time></trkpt><trkpt lat="44.80132055866012" lon="2.439663862305613"><ele>688.8</ele><time>2026-03-27T10:49:08.999Z</time></trkpt><trkpt lat="44.8013043584787" lon="2.439822577044498"><ele>687.0</ele><time>2026-03-27T10:49:09.999Z</time></trkpt><trkpt lat="44.80132213173622" lon="2.439946417836809"><ele>686.0</ele><time>2026-03-27T10:49:10.999Z</time></trkpt><trkpt lat="44.80133974781513" lon="2.4401043075145052"><ele>685.0</ele><time>2026-03-27T10:49:11.999Z</time></trkpt><trkpt lat="44.80135491708179" lon="2.440270832453041"><ele>684.0</ele><time>2026-03-27T10:49:12.999Z</time></trkpt><trkpt lat="44.80136578341727" lon="2.440440366720029"><ele>683.0</ele><time>2026-03-27T10:49:13.999Z</time></trkpt><trkpt lat="44.80140620135022" lon="2.440621554197057"><ele>682.8</ele><time>2026-03-27T10:49:14.999Z</time></trkpt><trkpt lat="44.80145205512968" lon="2.440788426696551"><ele>682.5999999999999</ele><time>2026-03-27T10:49:15.999Z</time></trkpt><trkpt lat="44.80148908505958" lon="2.440943622133232"><ele>682.4000000000001</ele><time>2026-03-27T10:49:16.999Z</time></trkpt><trkpt lat="44.80152404312705" lon="2.441084515916544"><ele>682.2</ele><time>2026-03-27T10:49:17.999Z</time></trkpt><trkpt lat="44.80155579649872" lon="2.441201272554349"><ele>682.0</ele><time>2026-03-27T10:49:19Z</time></trkpt><trkpt lat="44.80159572196964" lon="2.441338702622855"><ele>682.0</ele><time>2026-03-27T10:49:20Z</time></trkpt><trkpt lat="44.80163622049477" lon="2.4414730852281132"><ele>682.0</ele><time>2026-03-27T10:49:21Z</time></trkpt><trkpt lat="44.801675670730496" lon="2.441576629393666"><ele>682.0</ele><time>2026-03-27T10:49:22Z</time></trkpt><trkpt lat="44.80171814417263" lon="2.4416830236252896"><ele>682.0</ele><time>2026-03-27T10:49:23Z</time></trkpt><trkpt lat="44.80176583719784" lon="2.4417730907206243"><ele>682.0</ele><time>2026-03-27T10:49:24Z</time></trkpt><trkpt lat="44.801821392861996" lon="2.441882212225181"><ele>682.0</ele><time>2026-03-27T10:49:25Z</time></trkpt><trkpt lat="44.8018730861857" lon="2.4419998150221853"><ele>682.0</ele><time>2026-03-27T10:49:26Z</time></trkpt><trkpt lat="44.801921194327804" lon="2.4420891541298615"><ele>682.0</ele><time>2026-03-27T10:49:27Z</time></trkpt><trkpt lat="44.80196327119181" lon="2.4421761732405125"><ele>682.0</ele><time>2026-03-27T10:49:28Z</time></trkpt><trkpt lat="44.80199981528636" lon="2.442259452901655"><ele>682.0</ele><time>2026-03-27T10:49:29Z</time></trkpt><trkpt lat="44.802053301452226" lon="2.4423922434481056"><ele>682.0</ele><time>2026-03-27T10:49:31Z</time></trkpt><trkpt lat="44.80202190477435" lon="2.44250284162697"><ele>682.0</ele><time>2026-03-27T10:49:40Z</time></trkpt><trkpt lat="44.80198356232693" lon="2.4426151864235592"><ele>681.3333333333334</ele><time>2026-03-27T10:49:42Z</time></trkpt><trkpt lat="44.801883050590284" lon="2.4426316157777475"><ele>680.6666666666667</ele><time>2026-03-27T10:49:45Z</time></trkpt><trkpt lat="44.801796481845265" lon="2.4425444035060955"><ele>680.0</ele><time>2026-03-27T10:49:47Z</time></trkpt><trkpt lat="44.801755099049295" lon="2.4424689503712105"><ele>679.3333333333334</ele><time>2026-03-27T10:49:48Z</time></trkpt><trkpt lat="44.80172093943879" lon="2.4423912416801947"><ele>678.6666666666666</ele><time>2026-03-27T10:49:49Z</time></trkpt><trkpt lat="44.80167395850805" lon="2.4423186912492096"><ele>678.0</ele><time>2026-03-27T10:49:50Z</time></trkpt><trkpt lat="44.80162363337484" lon="2.442234153895824"><ele>679.1666666666666</ele><time>2026-03-27T10:49:51Z</time></trkpt><trkpt lat="44.80156654949804" lon="2.4421536381749864"><ele>680.3333333333334</ele><time>2026-03-27T10:49:52Z</time></trkpt><trkpt lat="44.801493022951746" lon="2.4420854370371274"><ele>681.5</ele><time>2026-03-27T10:49:53Z</time></trkpt><trkpt lat="44.80142758246821" lon="2.4420292553754477"><ele>682.6666666666667</ele><time>2026-03-27T10:49:54Z</time></trkpt><trkpt lat="44.80136926824279" lon="2.4419689076183584"><ele>683.8333333333334</ele><time>2026-03-27T10:49:55Z</time></trkpt><trkpt lat="44.801305390506464" lon="2.4419196970059285"><ele>685.0</ele><time>2026-03-27T10:49:56Z</time></trkpt><trkpt lat="44.80123448837205" lon="2.441882593429916"><ele>685.0</ele><time>2026-03-27T10:49:57Z</time></trkpt><trkpt lat="44.80115594329479" lon="2.44186529796217"><ele>685.0</ele><time>2026-03-27T10:49:58Z</time></trkpt><trkpt lat="44.801062087021755" lon="2.4418349391309615"><ele>685.0</ele><time>2026-03-27T10:49:59Z</time></trkpt><trkpt lat="44.80097399027682" lon="2.4417880235137734"><ele>685.0</ele><time>2026-03-27T10:50:00Z</time></trkpt><trkpt lat="44.80089135039526" lon="2.44171886308712"><ele>685.0</ele><time>2026-03-27T10:50:01Z</time></trkpt><trkpt lat="44.800807648554155" lon="2.4416501290164407"><ele>687.5</ele><time>2026-03-27T10:50:02Z</time></trkpt><trkpt lat="44.80072772604204" lon="2.441607317177318"><ele>690.0</ele><time>2026-03-27T10:50:03Z</time></trkpt><trkpt lat="44.800648939365715" lon="2.441581939313489"><ele>692.5</ele><time>2026-03-27T10:50:04Z</time></trkpt><trkpt lat="44.80057402736684" lon="2.4415885045337022"><ele>695.0</ele><time>2026-03-27T10:50:05Z</time></trkpt><trkpt lat="44.800505183985635" lon="2.4415921356562484"><ele>697.5</ele><time>2026-03-27T10:50:06Z</time></trkpt><trkpt lat="44.80042779536235" lon="2.4416033660380223"><ele>700.0</ele><time>2026-03-27T10:50:07Z</time></trkpt><trkpt lat="44.80034126643275" lon="2.4415917215505774"><ele>700.0</ele><time>2026-03-27T10:50:08Z</time></trkpt><trkpt lat="44.80028483839355" lon="2.44164514491669"><ele>700.0</ele><time>2026-03-27T10:50:09Z</time></trkpt><trkpt lat="44.80027285991888" lon="2.4417355464362096"><ele>700.0</ele><time>2026-03-27T10:50:10Z</time></trkpt><trkpt lat="44.800267569558194" lon="2.4418287007000212"><ele>700.0</ele><time>2026-03-27T10:50:11Z</time></trkpt><trkpt lat="44.800239514426366" lon="2.4419499219149707"><ele>700.0</ele><time>2026-03-27T10:50:12Z</time></trkpt><trkpt lat="44.800199059358405" lon="2.442030661021372"><ele>700.0</ele><time>2026-03-27T10:50:13Z</time></trkpt><trkpt lat="44.80009935196977" lon="2.4421124732702033"><ele>704.8</ele><time>2026-03-27T10:50:14Z</time></trkpt><trkpt lat="44.799996099398555" lon="2.4421731438747463"><ele>709.6</ele><time>2026-03-27T10:50:15Z</time></trkpt><trkpt lat="44.799876889338364" lon="2.4422463549579434"><ele>714.4000000000001</ele><time>2026-03-27T10:50:16Z</time></trkpt><trkpt lat="44.79977480580848" lon="2.442307033386801"><ele>719.2</ele><time>2026-03-27T10:50:17Z</time></trkpt><trkpt lat="44.799707098971226" lon="2.442376555452829"><ele>724.0</ele><time>2026-03-27T10:50:18Z</time></trkpt><trkpt lat="44.799632130396404" lon="2.442428366042071"><ele>724.0</ele><time>2026-03-27T10:50:19Z</time></trkpt><trkpt lat="44.799511950267416" lon="2.4424663246224916"><ele>724.0</ele><time>2026-03-27T10:50:20Z</time></trkpt><trkpt lat="44.79939635563535" lon="2.442530118819864"><ele>724.0</ele><time>2026-03-27T10:50:21Z</time></trkpt><trkpt lat="44.79929843541507" lon="2.44257013108491"><ele>724.0</ele><time>2026-03-27T10:50:22Z</time></trkpt><trkpt lat="44.799180311082" lon="2.442561437308239"><ele>726.5</ele><time>2026-03-27T10:50:23Z</time></trkpt><trkpt lat="44.799036687290055" lon="2.4426085366970587"><ele>729.0</ele><time>2026-03-27T10:50:24Z</time></trkpt><trkpt lat="44.798946907896486" lon="2.4425266751478327"><ele>731.5</ele><time>2026-03-27T10:50:25Z</time></trkpt><trkpt lat="44.79884079313256" lon="2.4423808397240787"><ele>734.0</ele><time>2026-03-27T10:50:26Z</time></trkpt><trkpt lat="44.79874096771217" lon="2.4422898881019064"><ele>734.0</ele><time>2026-03-27T10:50:27Z</time></trkpt><trkpt lat="44.79865773419779" lon="2.4422362703070952"><ele>734.0</ele><time>2026-03-27T10:50:28Z</time></trkpt><trkpt lat="44.798579190608514" lon="2.4421536121263467"><ele>734.0</ele><time>2026-03-27T10:50:29Z</time></trkpt><trkpt lat="44.79851862581032" lon="2.4420537769205586"><ele>734.0</ele><time>2026-03-27T10:50:30Z</time></trkpt><trkpt lat="44.79841832988062" lon="2.4420225689721815"><ele>734.0</ele><time>2026-03-27T10:50:31Z</time></trkpt><trkpt lat="44.79833759946148" lon="2.442007468915692"><ele>735.25</ele><time>2026-03-27T10:50:32Z</time></trkpt><trkpt lat="44.79826303198306" lon="2.441944285771644"><ele>736.5</ele><time>2026-03-27T10:50:33Z</time></trkpt><trkpt lat="44.79816839437712" lon="2.4418984739100003"><ele>737.75</ele><time>2026-03-27T10:50:34Z</time></trkpt><trkpt lat="44.79804789895525" lon="2.441823473089187"><ele>739.0</ele><time>2026-03-27T10:50:35Z</time></trkpt><trkpt lat="44.79792058533532" lon="2.441740354763233"><ele>739.0</ele><time>2026-03-27T10:50:36Z</time></trkpt><trkpt lat="44.79781074190783" lon="2.4417031760918486"><ele>739.0</ele><time>2026-03-27T10:50:37Z</time></trkpt><trkpt lat="44.79768817836564" lon="2.441640828680647"><ele>739.0</ele><time>2026-03-27T10:50:38Z</time></trkpt><trkpt lat="44.79757371445692" lon="2.441530666289975"><ele>739.0</ele><time>2026-03-27T10:50:39Z</time></trkpt><trkpt lat="44.79746541349625" lon="2.441418809587713"><ele>739.2</ele><time>2026-03-27T10:50:39.999Z</time></trkpt><trkpt lat="44.79737960613922" lon="2.4413448166235723"><ele>739.4000000000001</ele><time>2026-03-27T10:50:40.999Z</time></trkpt><trkpt lat="44.797313171252036" lon="2.4412839869236542"><ele>739.6</ele><time>2026-03-27T10:50:41.999Z</time></trkpt><trkpt lat="44.797233791451966" lon="2.4411901064186456"><ele>739.8</ele><time>2026-03-27T10:50:42.999Z</time></trkpt><trkpt lat="44.797170462605806" lon="2.4410677391978854"><ele>740.0</ele><time>2026-03-27T10:50:43.999Z</time></trkpt><trkpt lat="44.79711509820381" lon="2.4409088246996613"><ele>740.0</ele><time>2026-03-27T10:50:44.999Z</time></trkpt><trkpt lat="44.797082551573645" lon="2.4407360019642415"><ele>740.0</ele><time>2026-03-27T10:50:45.999Z</time></trkpt><trkpt lat="44.79703781439475" lon="2.4406149452800046"><ele>740.0</ele><time>2026-03-27T10:50:46.999Z</time></trkpt><trkpt lat="44.796934802607794" lon="2.4405472137751314"><ele>740.0</ele><time>2026-03-27T10:50:47.999Z</time></trkpt><trkpt lat="44.796809276083486" lon="2.440498900068231"><ele>742.0</ele><time>2026-03-27T10:50:48.999Z</time></trkpt><trkpt lat="44.79670516538862" lon="2.440423511628876"><ele>744.0</ele><time>2026-03-27T10:50:49.999Z</time></trkpt><trkpt lat="44.79658921774066" lon="2.440377060382055"><ele>746.0</ele><time>2026-03-27T10:50:50.999Z</time></trkpt><trkpt lat="44.79647740827421" lon="2.440387091855522"><ele>748.0</ele><time>2026-03-27T10:50:51.999Z</time></trkpt><trkpt lat="44.79635796514775" lon="2.440366693867472"><ele>748.0</ele><time>2026-03-27T10:50:52.999Z</time></trkpt><trkpt lat="44.796237925489976" lon="2.4403725181567353"><ele>748.0</ele><time>2026-03-27T10:50:53.999Z</time></trkpt><trkpt lat="44.79610135489955" lon="2.440367480178306"><ele>748.0</ele><time>2026-03-27T10:50:54.999Z</time></trkpt><trkpt lat="44.795963423752625" lon="2.4403681864354545"><ele>748.0</ele><time>2026-03-27T10:50:55.999Z</time></trkpt><trkpt lat="44.79585199734152" lon="2.4403928345437222"><ele>748.0</ele><time>2026-03-27T10:50:56.999Z</time></trkpt><trkpt lat="44.795742160662336" lon="2.4404546877808952"><ele>748.0</ele><time>2026-03-27T10:50:57.999Z</time></trkpt><trkpt lat="44.795638332967386" lon="2.4405217272544135"><ele>748.0</ele><time>2026-03-27T10:50:58.999Z</time></trkpt><trkpt lat="44.79551625500538" lon="2.440587416044403"><ele>748.0</ele><time>2026-03-27T10:50:59.999Z</time></trkpt><trkpt lat="44.79543389108989" lon="2.440611132743646"><ele>748.0</ele><time>2026-03-27T10:51:00.999Z</time></trkpt><trkpt lat="44.795329211175336" lon="2.4406696350983546"><ele>749.75</ele><time>2026-03-27T10:51:01.999Z</time></trkpt><trkpt lat="44.795222580095945" lon="2.440773436451645"><ele>751.5</ele><time>2026-03-27T10:51:02.999Z</time></trkpt><trkpt lat="44.79508802753374" lon="2.44087150274524"><ele>753.25</ele><time>2026-03-27T10:51:03.999Z</time></trkpt><trkpt lat="44.795012049083056" lon="2.4409658732957804"><ele>755.0</ele><time>2026-03-27T10:51:04.999Z</time></trkpt><trkpt lat="44.79493350820309" lon="2.440980755523803"><ele>755.0</ele><time>2026-03-27T10:51:05.999Z</time></trkpt><trkpt lat="44.79483714086727" lon="2.4409650282309827"><ele>755.0</ele><time>2026-03-27T10:51:06.999Z</time></trkpt><trkpt lat="44.7947177723893" lon="2.440937820129717"><ele>755.0</ele><time>2026-03-27T10:51:07.999Z</time></trkpt><trkpt lat="44.79457237225097" lon="2.4408928203774765"><ele>755.0</ele><time>2026-03-27T10:51:08.999Z</time></trkpt><trkpt lat="44.794425171489095" lon="2.440856911835028"><ele>755.5</ele><time>2026-03-27T10:51:09.999Z</time></trkpt><trkpt lat="44.79428677469468" lon="2.4408402869012322"><ele>756.0</ele><time>2026-03-27T10:51:10.999Z</time></trkpt><trkpt lat="44.794170647206634" lon="2.440841053777499"><ele>756.5</ele><time>2026-03-27T10:51:11.999Z</time></trkpt><trkpt lat="44.79404871515626" lon="2.4408991107932234"><ele>757.0</ele><time>2026-03-27T10:51:12.999Z</time></trkpt><trkpt lat="44.79391022054443" lon="2.4409817874556574"><ele>757.0</ele><time>2026-03-27T10:51:13.999Z</time></trkpt><trkpt lat="44.79376803841082" lon="2.4410146557212484"><ele>757.0</ele><time>2026-03-27T10:51:14.999Z</time></trkpt><trkpt lat="44.793600986117475" lon="2.441021337726327"><ele>757.0</ele><time>2026-03-27T10:51:15.999Z</time></trkpt><trkpt lat="44.79344960887646" lon="2.4410169833772413"><ele>758.6666666666667</ele><time>2026-03-27T10:51:16.999Z</time></trkpt><trkpt lat="44.79329316241294" lon="2.441006212605491"><ele>760.3333333333334</ele><time>2026-03-27T10:51:17.999Z</time></trkpt><trkpt lat="44.79313953282302" lon="2.4409908935284896"><ele>762.0</ele><time>2026-03-27T10:51:18.999Z</time></trkpt><trkpt lat="44.792972732187074" lon="2.440979826791233"><ele>762.0</ele><time>2026-03-27T10:51:19.999Z</time></trkpt><trkpt lat="44.792788382973285" lon="2.440965064167844"><ele>762.0</ele><time>2026-03-27T10:51:20.999Z</time></trkpt><trkpt lat="44.79262458492657" lon="2.440964598651332"><ele>762.0</ele><time>2026-03-27T10:51:21.999Z</time></trkpt><trkpt lat="44.792444131151655" lon="2.4409860031348334"><ele>763.25</ele><time>2026-03-27T10:51:22.999Z</time></trkpt><trkpt lat="44.7922804381616" lon="2.4410246158526894"><ele>764.5</ele><time>2026-03-27T10:51:24Z</time></trkpt><trkpt lat="44.79214544011106" lon="2.441070593001744"><ele>765.75</ele><time>2026-03-27T10:51:25Z</time></trkpt><trkpt lat="44.79202552724554" lon="2.441137286026438"><ele>767.0</ele><time>2026-03-27T10:51:26Z</time></trkpt><trkpt lat="44.79189315558191" lon="2.4412131997578115"><ele>767.6666666666666</ele><time>2026-03-27T10:51:27Z</time></trkpt><trkpt lat="44.79174409295828" lon="2.44128910808033"><ele>768.3333333333333</ele><time>2026-03-27T10:51:28Z</time></trkpt><trkpt lat="44.79159017134253" lon="2.441383290123021"><ele>769.0</ele><time>2026-03-27T10:51:29Z</time></trkpt><trkpt lat="44.79144400877231" lon="2.441496844956602"><ele>771.3333333333333</ele><time>2026-03-27T10:51:30Z</time></trkpt><trkpt lat="44.79131629786449" lon="2.4416143655045817"><ele>773.6666666666667</ele><time>2026-03-27T10:51:31Z</time></trkpt><trkpt lat="44.79119622659295" lon="2.441741150250657"><ele>776.0</ele><time>2026-03-27T10:51:32Z</time></trkpt><trkpt lat="44.791062522457416" lon="2.441853581092736"><ele>775.3333333333334</ele><time>2026-03-27T10:51:33Z</time></trkpt><trkpt lat="44.79091630081332" lon="2.4419500577075803"><ele>774.6666666666667</ele><time>2026-03-27T10:51:34Z</time></trkpt><trkpt lat="44.79077222148517" lon="2.4420277587414123"><ele>774.0</ele><time>2026-03-27T10:51:35Z</time></trkpt><trkpt lat="44.790625060475946" lon="2.4421070193839967"><ele>775.25</ele><time>2026-03-27T10:51:36Z</time></trkpt><trkpt lat="44.79048856900536" lon="2.442193480084074"><ele>776.5</ele><time>2026-03-27T10:51:37Z</time></trkpt><trkpt lat="44.79034787256773" lon="2.4422648695803733"><ele>777.75</ele><time>2026-03-27T10:51:38Z</time></trkpt><trkpt lat="44.79022077976501" lon="2.442308448722391"><ele>779.0</ele><time>2026-03-27T10:51:39Z</time></trkpt><trkpt lat="44.790099812801465" lon="2.4423662124729337"><ele>779.0</ele><time>2026-03-27T10:51:40Z</time></trkpt><trkpt lat="44.789996583488204" lon="2.4424471031189796"><ele>779.0</ele><time>2026-03-27T10:51:41Z</time></trkpt><trkpt lat="44.78988446902698" lon="2.4425376873481306"><ele>779.0</ele><time>2026-03-27T10:51:42Z</time></trkpt><trkpt lat="44.78977839907606" lon="2.442628574105859"><ele>779.0</ele><time>2026-03-27T10:51:43Z</time></trkpt><trkpt lat="44.789678377495356" lon="2.442705110128312"><ele>779.0</ele><time>2026-03-27T10:51:44Z</time></trkpt><trkpt lat="44.78957376723693" lon="2.4427902187861954"><ele>779.0</ele><time>2026-03-27T10:51:45Z</time></trkpt><trkpt lat="44.78946590417922" lon="2.442879070773189"><ele>779.0</ele><time>2026-03-27T10:51:46Z</time></trkpt><trkpt lat="44.78934911987691" lon="2.4429615554981314"><ele>779.0</ele><time>2026-03-27T10:51:47Z</time></trkpt><trkpt lat="44.78924328042398" lon="2.443032962649939"><ele>778.3333333333334</ele><time>2026-03-27T10:51:48Z</time></trkpt><trkpt lat="44.789143319054105" lon="2.443096307766528"><ele>777.6666666666667</ele><time>2026-03-27T10:51:49Z</time></trkpt><trkpt lat="44.789058171880285" lon="2.443153219227908"><ele>777.0</ele><time>2026-03-27T10:51:50Z</time></trkpt><trkpt lat="44.78899238597943" lon="2.443217709892693"><ele>776.3333333333333</ele><time>2026-03-27T10:51:51Z</time></trkpt><trkpt lat="44.78894903733687" lon="2.4433031978352027"><ele>775.6666666666666</ele><time>2026-03-27T10:51:52Z</time></trkpt><trkpt lat="44.78892709750194" lon="2.4433976597566303"><ele>775.0</ele><time>2026-03-27T10:51:53Z</time></trkpt><trkpt lat="44.788931351637956" lon="2.443500417819733"><ele>775.0</ele><time>2026-03-27T10:51:54Z</time></trkpt><trkpt lat="44.7889577181797" lon="2.443604167172512"><ele>775.0</ele><time>2026-03-27T10:51:55Z</time></trkpt><trkpt lat="44.7889892161923" lon="2.4436824261867347"><ele>775.0</ele><time>2026-03-27T10:51:56Z</time></trkpt><trkpt lat="44.78896680885969" lon="2.443858228493733"><ele>775.0</ele><time>2026-03-27T10:51:58Z</time></trkpt><trkpt lat="44.7888655754181" lon="2.443921536791421"><ele>775.0</ele><time>2026-03-27T10:52:00Z</time></trkpt><trkpt lat="44.78879441154982" lon="2.4438947526903023"><ele>774.8</ele><time>2026-03-27T10:52:01Z</time></trkpt><trkpt lat="44.78869283956922" lon="2.4438384906372868"><ele>774.6</ele><time>2026-03-27T10:52:02Z</time></trkpt><trkpt lat="44.78858293344125" lon="2.4438074455190604"><ele>774.4000000000001</ele><time>2026-03-27T10:52:03Z</time></trkpt><trkpt lat="44.78850207130276" lon="2.4437668252321525"><ele>774.2</ele><time>2026-03-27T10:52:04Z</time></trkpt><trkpt lat="44.788425876091935" lon="2.443701672261829"><ele>774.0</ele><time>2026-03-27T10:52:05Z</time></trkpt><trkpt lat="44.78833796332375" lon="2.4436136478219983"><ele>773.0</ele><time>2026-03-27T10:52:06Z</time></trkpt><trkpt lat="44.78828442721948" lon="2.44348907356376"><ele>772.0</ele><time>2026-03-27T10:52:07Z</time></trkpt><trkpt lat="44.78826587254252" lon="2.4432884165823996"><ele>771.0</ele><time>2026-03-27T10:52:08Z</time></trkpt><trkpt lat="44.78822495473599" lon="2.4431351910626926"><ele>770.0</ele><time>2026-03-27T10:52:09Z</time></trkpt><trkpt lat="44.788207241598506" lon="2.442993793865429"><ele>769.25</ele><time>2026-03-27T10:52:10Z</time></trkpt><trkpt lat="44.78821027679141" lon="2.4428348574245184"><ele>768.5</ele><time>2026-03-27T10:52:11Z</time></trkpt><trkpt lat="44.78822331002132" lon="2.4426726231528173"><ele>767.75</ele><time>2026-03-27T10:52:12Z</time></trkpt><trkpt lat="44.78823382026903" lon="2.442494904247999"><ele>767.0</ele><time>2026-03-27T10:52:13Z</time></trkpt><trkpt lat="44.788238125575575" lon="2.4423396367984966"><ele>767.0</ele><time>2026-03-27T10:52:14Z</time></trkpt><trkpt lat="44.78825130146677" lon="2.442181465368239"><ele>767.0</ele><time>2026-03-27T10:52:15Z</time></trkpt><trkpt lat="44.78822432275946" lon="2.4420261636366267"><ele>767.0</ele><time>2026-03-27T10:52:16Z</time></trkpt><trkpt lat="44.788173928160404" lon="2.441868297518015"><ele>767.0</ele><time>2026-03-27T10:52:17Z</time></trkpt><trkpt lat="44.78810644561829" lon="2.441689707759721"><ele>765.5</ele><time>2026-03-27T10:52:18Z</time></trkpt><trkpt lat="44.78806456964932" lon="2.4415446019982965"><ele>764.0</ele><time>2026-03-27T10:52:19Z</time></trkpt><trkpt lat="44.788053723586074" lon="2.4413720158672803"><ele>762.5</ele><time>2026-03-27T10:52:20Z</time></trkpt><trkpt lat="44.78806201705697" lon="2.441210567711008"><ele>761.0</ele><time>2026-03-27T10:52:21Z</time></trkpt><trkpt lat="44.78811060619208" lon="2.441055465842266"><ele>760.0</ele><time>2026-03-27T10:52:22Z</time></trkpt><trkpt lat="44.788197073001164" lon="2.440886740647427"><ele>759.0</ele><time>2026-03-27T10:52:23Z</time></trkpt><trkpt lat="44.788318147695605" lon="2.4407146336321284"><ele>758.0</ele><time>2026-03-27T10:52:24Z</time></trkpt><trkpt lat="44.788419578978335" lon="2.44052683160813"><ele>758.75</ele><time>2026-03-27T10:52:25Z</time></trkpt><trkpt lat="44.78850186637741" lon="2.4403471244338037"><ele>759.5</ele><time>2026-03-27T10:52:26Z</time></trkpt><trkpt lat="44.7885600637726" lon="2.4401796152838378"><ele>760.25</ele><time>2026-03-27T10:52:27Z</time></trkpt><trkpt lat="44.78859910502574" lon="2.440004415275109"><ele>761.0</ele><time>2026-03-27T10:52:28Z</time></trkpt><trkpt lat="44.788610719559074" lon="2.439873718066788"><ele>760.4</ele><time>2026-03-27T10:52:29Z</time></trkpt><trkpt lat="44.78860342801239" lon="2.4397594135949854"><ele>759.8</ele><time>2026-03-27T10:52:30Z</time></trkpt><trkpt lat="44.78857747270465" lon="2.439629672607117"><ele>759.1999999999999</ele><time>2026-03-27T10:52:31Z</time></trkpt><trkpt lat="44.788537144626666" lon="2.439478543695098"><ele>758.5999999999999</ele><time>2026-03-27T10:52:32Z</time></trkpt><trkpt lat="44.78848838009127" lon="2.4393253837740714"><ele>758.0</ele><time>2026-03-27T10:52:33Z</time></trkpt><trkpt lat="44.7884317970073" lon="2.439191115104759"><ele>758.0</ele><time>2026-03-27T10:52:34Z</time></trkpt><trkpt lat="44.78836430152722" lon="2.4390691870591152"><ele>758.0</ele><time>2026-03-27T10:52:35Z</time></trkpt><trkpt lat="44.78832515135602" lon="2.43899294524433"><ele>758.0</ele><time>2026-03-27T10:52:36Z</time></trkpt><trkpt lat="44.788382892552235" lon="2.438860498415505"><ele>758.0</ele><time>2026-03-27T10:52:38Z</time></trkpt><trkpt lat="44.78847413014813" lon="2.4388362994609576"><ele>758.0</ele><time>2026-03-27T10:52:39Z</time></trkpt><trkpt lat="44.7886081541427" lon="2.438840124247146"><ele>757.75</ele><time>2026-03-27T10:52:40Z</time></trkpt><trkpt lat="44.78874196484246" lon="2.4388151704241894"><ele>757.5</ele><time>2026-03-27T10:52:41Z</time></trkpt><trkpt lat="44.78885862156859" lon="2.4387786604052644"><ele>757.25</ele><time>2026-03-27T10:52:41.999Z</time></trkpt><trkpt lat="44.78897874109819" lon="2.438698817581418"><ele>757.0</ele><time>2026-03-27T10:52:42.999Z</time></trkpt><trkpt lat="44.78912271757208" lon="2.4385845360502407"><ele>757.0</ele><time>2026-03-27T10:52:43.999Z</time></trkpt><trkpt lat="44.789289241130106" lon="2.4384475733892765"><ele>757.0</ele><time>2026-03-27T10:52:44.999Z</time></trkpt><trkpt lat="44.78944300914926" lon="2.438273655873589"><ele>757.0</ele><time>2026-03-27T10:52:45.999Z</time></trkpt><trkpt lat="44.78957325252363" lon="2.4381167018942107"><ele>756.25</ele><time>2026-03-27T10:52:46.999Z</time></trkpt><trkpt lat="44.789683308291536" lon="2.4379732363379887"><ele>755.5</ele><time>2026-03-27T10:52:47.999Z</time></trkpt><trkpt lat="44.7897613978508" lon="2.4378265431694817"><ele>754.75</ele><time>2026-03-27T10:52:48.999Z</time></trkpt><trkpt lat="44.789845798478986" lon="2.4376470552906104"><ele>754.0</ele><time>2026-03-27T10:52:49.999Z</time></trkpt><trkpt lat="44.789922094824135" lon="2.4374590676397636"><ele>754.0</ele><time>2026-03-27T10:52:50.999Z</time></trkpt><trkpt lat="44.78997100502837" lon="2.437293889054004"><ele>754.0</ele><time>2026-03-27T10:52:51.999Z</time></trkpt><trkpt lat="44.790002940802175" lon="2.437124723991999"><ele>754.0</ele><time>2026-03-27T10:52:52.999Z</time></trkpt><trkpt lat="44.79006530952421" lon="2.4369776448528313"><ele>754.0</ele><time>2026-03-27T10:52:53.999Z</time></trkpt><trkpt lat="44.79019268131011" lon="2.436818120004964"><ele>754.8333333333334</ele><time>2026-03-27T10:52:54.999Z</time></trkpt><trkpt lat="44.790297110196775" lon="2.436712591182902"><ele>755.6666666666667</ele><time>2026-03-27T10:52:55.999Z</time></trkpt><trkpt lat="44.79035057680308" lon="2.4366284225489867"><ele>756.5</ele><time>2026-03-27T10:52:56.999Z</time></trkpt><trkpt lat="44.79038333144459" lon="2.436535792216953"><ele>757.3333333333334</ele><time>2026-03-27T10:52:58.999Z</time></trkpt><trkpt lat="44.79039225653924" lon="2.4364284061703025"><ele>758.1666666666666</ele><time>2026-03-27T10:53:00.999Z</time></trkpt><trkpt lat="44.790420182489726" lon="2.4363088195716665"><ele>759.0</ele><time>2026-03-27T10:53:01.999Z</time></trkpt><trkpt lat="44.790450423510755" lon="2.4361983986656095"><ele>759.0</ele><time>2026-03-27T10:53:02.999Z</time></trkpt><trkpt lat="44.790477786946184" lon="2.4360793265905496"><ele>759.0</ele><time>2026-03-27T10:53:04.999Z</time></trkpt><trkpt lat="44.79040446745636" lon="2.4361031996385663"><ele>759.0</ele><time>2026-03-27T10:53:07.999Z</time></trkpt><trkpt lat="44.79039417941025" lon="2.436240087529863"><ele>759.0</ele><time>2026-03-27T10:53:09.999Z</time></trkpt><trkpt lat="44.790363355228216" lon="2.436399461443436"><ele>759.0</ele><time>2026-03-27T10:53:11.999Z</time></trkpt><trkpt lat="44.790330486322645" lon="2.4365139212537925"><ele>759.0</ele><time>2026-03-27T10:53:12.999Z</time></trkpt><trkpt lat="44.79030318189085" lon="2.436639337975191"><ele>759.0</ele><time>2026-03-27T10:53:13.999Z</time></trkpt><trkpt lat="44.79022813968365" lon="2.4367854281194106"><ele>759.0</ele><time>2026-03-27T10:53:14.999Z</time></trkpt><trkpt lat="44.79015121810227" lon="2.4369025346767037"><ele>759.0</ele><time>2026-03-27T10:53:15.999Z</time></trkpt><trkpt lat="44.79008616522677" lon="2.437004267763939"><ele>759.0</ele><time>2026-03-27T10:53:16.999Z</time></trkpt><trkpt lat="44.79002426383935" lon="2.437092322487736"><ele>758.4000000000001</ele><time>2026-03-27T10:53:17.999Z</time></trkpt><trkpt lat="44.78994124531005" lon="2.4371873440365825"><ele>757.8</ele><time>2026-03-27T10:53:19.999Z</time></trkpt><trkpt lat="44.78986660701888" lon="2.4370595608677768"><ele>757.2</ele><time>2026-03-27T10:53:21.999Z</time></trkpt><trkpt lat="44.78985384659305" lon="2.43694279900631"><ele>756.5999999999999</ele><time>2026-03-27T10:53:22.999Z</time></trkpt><trkpt lat="44.789818056557564" lon="2.4368064219394716"><ele>756.0</ele><time>2026-03-27T10:53:23.999Z</time></trkpt><trkpt lat="44.78975875645772" lon="2.4366650202643596"><ele>756.0</ele><time>2026-03-27T10:53:24.999Z</time></trkpt><trkpt lat="44.78971265434113" lon="2.4365262935346874"><ele>756.0</ele><time>2026-03-27T10:53:25.999Z</time></trkpt><trkpt lat="44.789663326939575" lon="2.4363842959993463"><ele>756.0</ele><time>2026-03-27T10:53:26.999Z</time></trkpt><trkpt lat="44.789603994044455" lon="2.436249005346685"><ele>756.0</ele><time>2026-03-27T10:53:27.999Z</time></trkpt><trkpt lat="44.78954104773895" lon="2.436145629274057"><ele>756.0</ele><time>2026-03-27T10:53:28.999Z</time></trkpt><trkpt lat="44.78951269387803" lon="2.4360484493240877"><ele>756.4</ele><time>2026-03-27T10:53:30Z</time></trkpt><trkpt lat="44.78953739204874" lon="2.4359310340561704"><ele>756.8</ele><time>2026-03-27T10:53:31Z</time></trkpt><trkpt lat="44.78959179953042" lon="2.435789814881749"><ele>757.1999999999999</ele><time>2026-03-27T10:53:32Z</time></trkpt><trkpt lat="44.78963506601899" lon="2.4356178947934755"><ele>757.5999999999999</ele><time>2026-03-27T10:53:33Z</time></trkpt><trkpt lat="44.789612386211175" lon="2.4354662286282145"><ele>758.0</ele><time>2026-03-27T10:53:34Z</time></trkpt><trkpt lat="44.78960706662946" lon="2.4353154429651855"><ele>758.5</ele><time>2026-03-27T10:53:35Z</time></trkpt><trkpt lat="44.789596529600765" lon="2.4351707078673845"><ele>759.0</ele><time>2026-03-27T10:53:36Z</time></trkpt><trkpt lat="44.789578846813036" lon="2.4350123110751847"><ele>759.5</ele><time>2026-03-27T10:53:37Z</time></trkpt><trkpt lat="44.78954501308191" lon="2.434827408902683"><ele>760.0</ele><time>2026-03-27T10:53:38Z</time></trkpt><trkpt lat="44.789507864244726" lon="2.434628035351968"><ele>761.75</ele><time>2026-03-27T10:53:39Z</time></trkpt><trkpt lat="44.789479080089464" lon="2.4344552363866248"><ele>763.5</ele><time>2026-03-27T10:53:40Z</time></trkpt><trkpt lat="44.789459149945934" lon="2.4342858632032014"><ele>765.25</ele><time>2026-03-27T10:53:41Z</time></trkpt><trkpt lat="44.78944664362276" lon="2.4341147334945736"><ele>767.0</ele><time>2026-03-27T10:53:42Z</time></trkpt><trkpt lat="44.7894167189831" lon="2.4339195669718166"><ele>769.25</ele><time>2026-03-27T10:53:43Z</time></trkpt><trkpt lat="44.789374175420946" lon="2.4337224204988925"><ele>771.5</ele><time>2026-03-27T10:53:44Z</time></trkpt><trkpt lat="44.789329390588" lon="2.4335605843344466"><ele>773.75</ele><time>2026-03-27T10:53:45Z</time></trkpt><trkpt lat="44.7892778384557" lon="2.4334168170439376"><ele>776.0</ele><time>2026-03-27T10:53:46Z</time></trkpt><trkpt lat="44.789218470094774" lon="2.433297500094408"><ele>776.5999999999999</ele><time>2026-03-27T10:53:47Z</time></trkpt><trkpt lat="44.789172539197814" lon="2.433175362670691"><ele>777.2</ele><time>2026-03-27T10:53:48Z</time></trkpt><trkpt lat="44.78911025204854" lon="2.4330462266123813"><ele>777.8</ele><time>2026-03-27T10:53:49Z</time></trkpt><trkpt lat="44.78905199657251" lon="2.432927961707554"><ele>778.4000000000001</ele><time>2026-03-27T10:53:50Z</time></trkpt><trkpt lat="44.78898533814789" lon="2.4328183934809187"><ele>779.0</ele><time>2026-03-27T10:53:51Z</time></trkpt><trkpt lat="44.78891214741616" lon="2.4327038993859076"><ele>779.0</ele><time>2026-03-27T10:53:52Z</time></trkpt><trkpt lat="44.78883767375155" lon="2.4325817635294684"><ele>779.0</ele><time>2026-03-27T10:53:53Z</time></trkpt><trkpt lat="44.78876832038982" lon="2.4324552239182142"><ele>779.0</ele><time>2026-03-27T10:53:54Z</time></trkpt><trkpt lat="44.78869170315408" lon="2.4323271264882975"><ele>779.0</ele><time>2026-03-27T10:53:55Z</time></trkpt><trkpt lat="44.788595910046844" lon="2.432205412266762"><ele>779.25</ele><time>2026-03-27T10:53:56Z</time></trkpt><trkpt lat="44.788484845419354" lon="2.432064434432491"><ele>779.5</ele><time>2026-03-27T10:53:57Z</time></trkpt><trkpt lat="44.78839804178649" lon="2.4319171430662596"><ele>779.75</ele><time>2026-03-27T10:53:58Z</time></trkpt><trkpt lat="44.788332334281584" lon="2.4317667977826454"><ele>780.0</ele><time>2026-03-27T10:53:59Z</time></trkpt><trkpt lat="44.788283672091374" lon="2.4316206333777375"><ele>780.0</ele><time>2026-03-27T10:54:00Z</time></trkpt><trkpt lat="44.788254490453944" lon="2.4314702096467715"><ele>780.0</ele><time>2026-03-27T10:54:01Z</time></trkpt><trkpt lat="44.78825599533895" lon="2.431293679230692"><ele>780.0</ele><time>2026-03-27T10:54:02Z</time></trkpt><trkpt lat="44.788250803671566" lon="2.431112033646794"><ele>780.0</ele><time>2026-03-27T10:54:03Z</time></trkpt><trkpt lat="44.788241756598985" lon="2.4309410520579795"><ele>781.0</ele><time>2026-03-27T10:54:04Z</time></trkpt><trkpt lat="44.78823039083937" lon="2.43076082764546"><ele>782.0</ele><time>2026-03-27T10:54:05Z</time></trkpt><trkpt lat="44.78822504177948" lon="2.4305586282961054"><ele>783.0</ele><time>2026-03-27T10:54:06Z</time></trkpt><trkpt lat="44.788199052750336" lon="2.4303460685044977"><ele>784.0</ele><time>2026-03-27T10:54:07Z</time></trkpt><trkpt lat="44.788160725679404" lon="2.430152354162022"><ele>785.0</ele><time>2026-03-27T10:54:08Z</time></trkpt><trkpt lat="44.78810055097642" lon="2.430014112477218"><ele>786.0</ele><time>2026-03-27T10:54:09Z</time></trkpt><trkpt lat="44.788003185479795" lon="2.429885931875342"><ele>787.0</ele><time>2026-03-27T10:54:10Z</time></trkpt><trkpt lat="44.787890079388994" lon="2.429756734137986"><ele>788.0</ele><time>2026-03-27T10:54:11Z</time></trkpt><trkpt lat="44.78778061722409" lon="2.4296304102678117"><ele>788.0</ele><time>2026-03-27T10:54:12Z</time></trkpt><trkpt lat="44.78768367861155" lon="2.4294933656078253"><ele>788.0</ele><time>2026-03-27T10:54:13Z</time></trkpt><trkpt lat="44.78761017782803" lon="2.4293850147844354"><ele>788.0</ele><time>2026-03-27T10:54:14Z</time></trkpt><trkpt lat="44.78754776150822" lon="2.4292489013743506"><ele>788.0</ele><time>2026-03-27T10:54:15Z</time></trkpt><trkpt lat="44.78752066915369" lon="2.429100603474347"><ele>788.6666666666667</ele><time>2026-03-27T10:54:16Z</time></trkpt><trkpt lat="44.78751146732957" lon="2.4288916598716277"><ele>789.3333333333333</ele><time>2026-03-27T10:54:17Z</time></trkpt><trkpt lat="44.787507542671" lon="2.428646882571615"><ele>790.0</ele><time>2026-03-27T10:54:18Z</time></trkpt><trkpt lat="44.7875026073719" lon="2.4283559395834935"><ele>790.0</ele><time>2026-03-27T10:54:19Z</time></trkpt><trkpt lat="44.78748433418282" lon="2.428085903899356"><ele>790.0</ele><time>2026-03-27T10:54:20Z</time></trkpt><trkpt lat="44.78748954700453" lon="2.4278413377784256"><ele>790.0</ele><time>2026-03-27T10:54:21Z</time></trkpt><trkpt lat="44.78751337463974" lon="2.4275704908395728"><ele>790.6666666666666</ele><time>2026-03-27T10:54:22Z</time></trkpt><trkpt lat="44.78755488343199" lon="2.4273162577868335"><ele>791.3333333333333</ele><time>2026-03-27T10:54:23Z</time></trkpt><trkpt lat="44.78759049220759" lon="2.427084953276511"><ele>792.0</ele><time>2026-03-27T10:54:24Z</time></trkpt><trkpt lat="44.78762907738768" lon="2.426894458561419"><ele>792.25</ele><time>2026-03-27T10:54:25Z</time></trkpt><trkpt lat="44.787650674035575" lon="2.4267211537351203"><ele>792.5</ele><time>2026-03-27T10:54:26Z</time></trkpt><trkpt lat="44.787661678793924" lon="2.426545457365987"><ele>792.75</ele><time>2026-03-27T10:54:27Z</time></trkpt><trkpt lat="44.78766719127362" lon="2.4263450050587583"><ele>793.0</ele><time>2026-03-27T10:54:28Z</time></trkpt><trkpt lat="44.78761842738679" lon="2.4261863420215035"><ele>793.0</ele><time>2026-03-27T10:54:29Z</time></trkpt><trkpt lat="44.787567609202036" lon="2.426055190346219"><ele>793.0</ele><time>2026-03-27T10:54:30Z</time></trkpt><trkpt lat="44.787495810977724" lon="2.4259113222526554"><ele>793.0</ele><time>2026-03-27T10:54:31Z</time></trkpt><trkpt lat="44.78739260629258" lon="2.425760048348096"><ele>793.0</ele><time>2026-03-27T10:54:32Z</time></trkpt><trkpt lat="44.78727438425879" lon="2.4256192327814237"><ele>793.0</ele><time>2026-03-27T10:54:33Z</time></trkpt><trkpt lat="44.78718724629114" lon="2.425496462198608"><ele>793.0</ele><time>2026-03-27T10:54:34Z</time></trkpt><trkpt lat="44.78708888114934" lon="2.42539728382857"><ele>793.0</ele><time>2026-03-27T10:54:35Z</time></trkpt><trkpt lat="44.78701597195608" lon="2.425338063825086"><ele>793.0</ele><time>2026-03-27T10:54:36Z</time></trkpt><trkpt lat="44.78695200784021" lon="2.4253067438671634"><ele>793.0</ele><time>2026-03-27T10:54:37Z</time></trkpt><trkpt lat="44.78686620707948" lon="2.4253243589652107"><ele>793.0</ele><time>2026-03-27T10:54:39Z</time></trkpt><trkpt lat="44.78683205023088" lon="2.4254448390046623"><ele>793.0</ele><time>2026-03-27T10:54:41Z</time></trkpt><trkpt lat="44.78681862446591" lon="2.425540748686305"><ele>793.0</ele><time>2026-03-27T10:54:42Z</time></trkpt><trkpt lat="44.7867460927781" lon="2.4257455014524796"><ele>793.0</ele><time>2026-03-27T10:54:44Z</time></trkpt><trkpt lat="44.78668155972148" lon="2.4258803154152826"><ele>793.0</ele><time>2026-03-27T10:54:45Z</time></trkpt><trkpt lat="44.78659846974382" lon="2.4260628236060366"><ele>794.25</ele><time>2026-03-27T10:54:46Z</time></trkpt><trkpt lat="44.7865336146256" lon="2.426223869745049"><ele>795.5</ele><time>2026-03-27T10:54:46.999Z</time></trkpt><trkpt lat="44.78646732172175" lon="2.42638943161344"><ele>796.75</ele><time>2026-03-27T10:54:47.999Z</time></trkpt><trkpt lat="44.78639786104706" lon="2.4265823081376565"><ele>798.0</ele><time>2026-03-27T10:54:48.999Z</time></trkpt><trkpt lat="44.78632003278223" lon="2.4267884126343033"><ele>799.3333333333333</ele><time>2026-03-27T10:54:49.999Z</time></trkpt><trkpt lat="44.78624295525299" lon="2.426973638708384"><ele>800.6666666666666</ele><time>2026-03-27T10:54:50.999Z</time></trkpt><trkpt lat="44.78613860784066" lon="2.427154671968623"><ele>802.0</ele><time>2026-03-27T10:54:51.999Z</time></trkpt><trkpt lat="44.78603533513638" lon="2.427325404820061"><ele>804.6666666666666</ele><time>2026-03-27T10:54:52.999Z</time></trkpt><trkpt lat="44.78595271170631" lon="2.427498059299693"><ele>807.3333333333333</ele><time>2026-03-27T10:54:53.999Z</time></trkpt><trkpt lat="44.78585621081427" lon="2.42768554409229"><ele>810.0</ele><time>2026-03-27T10:54:54.999Z</time></trkpt><trkpt lat="44.785749514259365" lon="2.42788060794529"><ele>810.3333333333333</ele><time>2026-03-27T10:54:55.999Z</time></trkpt><trkpt lat="44.785644802894666" lon="2.428047740607628"><ele>810.6666666666666</ele><time>2026-03-27T10:54:56.999Z</time></trkpt><trkpt lat="44.78555675136614" lon="2.4282074225929193"><ele>811.0</ele><time>2026-03-27T10:54:57.999Z</time></trkpt><trkpt lat="44.78546926319389" lon="2.4283959406225386"><ele>811.0</ele><time>2026-03-27T10:54:58.999Z</time></trkpt><trkpt lat="44.7853503686842" lon="2.4286019747380196"><ele>811.0</ele><time>2026-03-27T10:54:59.999Z</time></trkpt><trkpt lat="44.78523434733876" lon="2.428741519774386"><ele>811.0</ele><time>2026-03-27T10:55:00.999Z</time></trkpt><trkpt lat="44.785129888878075" lon="2.4289005697249886"><ele>812.0</ele><time>2026-03-27T10:55:01.999Z</time></trkpt><trkpt lat="44.785014092533416" lon="2.4290704745797806"><ele>813.0</ele><time>2026-03-27T10:55:02.999Z</time></trkpt><trkpt lat="44.78490288599435" lon="2.4292153956041993"><ele>814.0</ele><time>2026-03-27T10:55:03.999Z</time></trkpt><trkpt lat="44.784792350475506" lon="2.4293923857204964"><ele>814.0</ele><time>2026-03-27T10:55:04.999Z</time></trkpt><trkpt lat="44.784716000059696" lon="2.429601145047549"><ele>814.0</ele><time>2026-03-27T10:55:05.999Z</time></trkpt><trkpt lat="44.78465571749775" lon="2.429766620603156"><ele>814.0</ele><time>2026-03-27T10:55:06.999Z</time></trkpt><trkpt lat="44.78463259435341" lon="2.429944208283071"><ele>814.0</ele><time>2026-03-27T10:55:07.999Z</time></trkpt><trkpt lat="44.78463521967435" lon="2.430138072023425"><ele>814.0</ele><time>2026-03-27T10:55:08.999Z</time></trkpt><trkpt lat="44.78464014490507" lon="2.4303262058184814"><ele>814.0</ele><time>2026-03-27T10:55:09.999Z</time></trkpt><trkpt lat="44.784631069684124" lon="2.430472260128116"><ele>814.0</ele><time>2026-03-27T10:55:10.999Z</time></trkpt><trkpt lat="44.784608571557534" lon="2.430611720690085"><ele>814.0</ele><time>2026-03-27T10:55:11.999Z</time></trkpt><trkpt lat="44.7845978505923" lon="2.4307835676495437"><ele>817.0</ele><time>2026-03-27T10:55:12.999Z</time></trkpt><trkpt lat="44.78457720285113" lon="2.43098155482993"><ele>820.0</ele><time>2026-03-27T10:55:13.999Z</time></trkpt><trkpt lat="44.784561592753654" lon="2.4311787270478415"><ele>823.0</ele><time>2026-03-27T10:55:14.999Z</time></trkpt><trkpt lat="44.784540299532715" lon="2.431349051499485"><ele>826.0</ele><time>2026-03-27T10:55:15.999Z</time></trkpt><trkpt lat="44.78453113256104" lon="2.431540612143042"><ele>826.0</ele><time>2026-03-27T10:55:16.999Z</time></trkpt><trkpt lat="44.78451877345762" lon="2.431728734996328"><ele>826.0</ele><time>2026-03-27T10:55:17.999Z</time></trkpt><trkpt lat="44.7845194702912" lon="2.431928496676138"><ele>826.0</ele><time>2026-03-27T10:55:18.999Z</time></trkpt><trkpt lat="44.784516473807855" lon="2.432105172849103"><ele>826.0</ele><time>2026-03-27T10:55:19.999Z</time></trkpt><trkpt lat="44.78450305878562" lon="2.432268890116153"><ele>826.0</ele><time>2026-03-27T10:55:20.999Z</time></trkpt><trkpt lat="44.78448712090832" lon="2.4324489668341025"><ele>826.0</ele><time>2026-03-27T10:55:21.999Z</time></trkpt><trkpt lat="44.78447604655138" lon="2.432622944549465"><ele>826.0</ele><time>2026-03-27T10:55:22.999Z</time></trkpt><trkpt lat="44.784475982789594" lon="2.4327762338427767"><ele>826.0</ele><time>2026-03-27T10:55:23.999Z</time></trkpt><trkpt lat="44.784464014968606" lon="2.4328987584477892"><ele>826.0</ele><time>2026-03-27T10:55:24.999Z</time></trkpt><trkpt lat="44.784435120699605" lon="2.4330234425187873"><ele>826.25</ele><time>2026-03-27T10:55:25.999Z</time></trkpt><trkpt lat="44.7843746683613" lon="2.4331773663582648"><ele>826.5</ele><time>2026-03-27T10:55:26.999Z</time></trkpt><trkpt lat="44.78430383599871" lon="2.433301934648522"><ele>826.75</ele><time>2026-03-27T10:55:27.999Z</time></trkpt><trkpt lat="44.784225964040715" lon="2.4334176231504636"><ele>827.0</ele><time>2026-03-27T10:55:28.999Z</time></trkpt><trkpt lat="44.784131471529975" lon="2.43353769714039"><ele>827.0</ele><time>2026-03-27T10:55:29.999Z</time></trkpt><trkpt lat="44.78402626642491" lon="2.4336606831197365"><ele>827.0</ele><time>2026-03-27T10:55:30.999Z</time></trkpt><trkpt lat="44.783940063450736" lon="2.433731334705836"><ele>827.0</ele><time>2026-03-27T10:55:31.999Z</time></trkpt><trkpt lat="44.783859288982185" lon="2.4338141592779468"><ele>827.0</ele><time>2026-03-27T10:55:32.999Z</time></trkpt><trkpt lat="44.78377023120742" lon="2.4338344630207494"><ele>827.0</ele><time>2026-03-27T10:55:33.999Z</time></trkpt><trkpt lat="44.78370609497359" lon="2.43387480363562"><ele>827.75</ele><time>2026-03-27T10:55:34.999Z</time></trkpt><trkpt lat="44.78358516208512" lon="2.4339885067660334"><ele>828.5</ele><time>2026-03-27T10:55:36Z</time></trkpt><trkpt lat="44.78348156779888" lon="2.434045833549384"><ele>829.25</ele><time>2026-03-27T10:55:37Z</time></trkpt><trkpt lat="44.78338338792362" lon="2.4341109887721504"><ele>830.0</ele><time>2026-03-27T10:55:38Z</time></trkpt><trkpt lat="44.78329032521792" lon="2.434195314489599"><ele>830.75</ele><time>2026-03-27T10:55:39Z</time></trkpt><trkpt lat="44.78318923942209" lon="2.4342779351812274"><ele>831.5</ele><time>2026-03-27T10:55:40Z</time></trkpt><trkpt lat="44.78309246933232" lon="2.4343763653338484"><ele>832.25</ele><time>2026-03-27T10:55:41Z</time></trkpt><trkpt lat="44.78300661647105" lon="2.4344697334992826"><ele>833.0</ele><time>2026-03-27T10:55:42Z</time></trkpt><trkpt lat="44.78290237085533" lon="2.434540338088293"><ele>833.0</ele><time>2026-03-27T10:55:43Z</time></trkpt><trkpt lat="44.78279797399686" lon="2.4346159637975457"><ele>833.0</ele><time>2026-03-27T10:55:44Z</time></trkpt><trkpt lat="44.78268618943408" lon="2.4346937737225582"><ele>833.0</ele><time>2026-03-27T10:55:45Z</time></trkpt><trkpt lat="44.78257680567993" lon="2.4347741684769866"><ele>833.0</ele><time>2026-03-27T10:55:46Z</time></trkpt><trkpt lat="44.782454975185566" lon="2.434849228324691"><ele>832.8333333333334</ele><time>2026-03-27T10:55:47Z</time></trkpt><trkpt lat="44.782345431337404" lon="2.4348701030811397"><ele>832.6666666666667</ele><time>2026-03-27T10:55:48Z</time></trkpt><trkpt lat="44.7822559956301" lon="2.43490751660892"><ele>832.5</ele><time>2026-03-27T10:55:49Z</time></trkpt><trkpt lat="44.78217498223052" lon="2.434931044634273"><ele>832.3333333333333</ele><time>2026-03-27T10:55:50Z</time></trkpt><trkpt lat="44.78210456516345" lon="2.4349547852368136"><ele>832.1666666666666</ele><time>2026-03-27T10:55:51Z</time></trkpt><trkpt lat="44.78203449332649" lon="2.434986180995796"><ele>832.0</ele><time>2026-03-27T10:55:52Z</time></trkpt><trkpt lat="44.78197530624629" lon="2.43502027976191"><ele>832.0</ele><time>2026-03-27T10:55:53Z</time></trkpt><trkpt lat="44.781907323941425" lon="2.435048905391464"><ele>832.0</ele><time>2026-03-27T10:55:54Z</time></trkpt><trkpt lat="44.78184309158786" lon="2.4350831286138592"><ele>832.0</ele><time>2026-03-27T10:55:55Z</time></trkpt><trkpt lat="44.7817749321197" lon="2.4351057940928618"><ele>832.0</ele><time>2026-03-27T10:55:56Z</time></trkpt><trkpt lat="44.78170205941164" lon="2.4351309616648833"><ele>832.0</ele><time>2026-03-27T10:55:57Z</time></trkpt><trkpt lat="44.781637550475864" lon="2.435167019552843"><ele>832.0</ele><time>2026-03-27T10:55:58Z</time></trkpt><trkpt lat="44.78157246403721" lon="2.4351923534927664"><ele>832.0</ele><time>2026-03-27T10:55:59Z</time></trkpt><trkpt lat="44.78150811811341" lon="2.4352189784271836"><ele>830.7142857142857</ele><time>2026-03-27T10:56:00Z</time></trkpt><trkpt lat="44.7814485320093" lon="2.4352587967166044"><ele>829.4285714285714</ele><time>2026-03-27T10:56:01Z</time></trkpt><trkpt lat="44.78139839767184" lon="2.435318924636593"><ele>828.1428571428571</ele><time>2026-03-27T10:56:02Z</time></trkpt><trkpt lat="44.7813437861688" lon="2.435397597440876"><ele>826.8571428571429</ele><time>2026-03-27T10:56:03Z</time></trkpt><trkpt lat="44.78129952516767" lon="2.435486778020056"><ele>825.5714285714287</ele><time>2026-03-27T10:56:04Z</time></trkpt><trkpt lat="44.78125528459043" lon="2.435572485866778"><ele>824.2857142857143</ele><time>2026-03-27T10:56:05Z</time></trkpt><trkpt lat="44.78121242266159" lon="2.435658502435278"><ele>823.0</ele><time>2026-03-27T10:56:06Z</time></trkpt><trkpt lat="44.78117184961919" lon="2.435748998961579"><ele>821.9999999999999</ele><time>2026-03-27T10:56:07Z</time></trkpt><trkpt lat="44.781131283006985" lon="2.4358424037864115"><ele>821.0</ele><time>2026-03-27T10:56:08Z</time></trkpt><trkpt lat="44.78109535596635" lon="2.4359379958311442"><ele>820.0</ele><time>2026-03-27T10:56:09Z</time></trkpt><trkpt lat="44.78106613338317" lon="2.436042421709166"><ele>819.0</ele><time>2026-03-27T10:56:10Z</time></trkpt><trkpt lat="44.78104103108725" lon="2.436146049274146"><ele>817.9999999999999</ele><time>2026-03-27T10:56:11Z</time></trkpt><trkpt lat="44.78101712936463" lon="2.4362489690120293"><ele>817.0</ele><time>2026-03-27T10:56:12Z</time></trkpt><trkpt lat="44.78099253998242" lon="2.4363484079244295"><ele>815.1428571428571</ele><time>2026-03-27T10:56:13Z</time></trkpt><trkpt lat="44.78095573225885" lon="2.436432453673095"><ele>813.2857142857142</ele><time>2026-03-27T10:56:14Z</time></trkpt><trkpt lat="44.78091431565491" lon="2.4365060171527086"><ele>811.4285714285713</ele><time>2026-03-27T10:56:15Z</time></trkpt><trkpt lat="44.78086196649065" lon="2.4365751736869603"><ele>809.5714285714286</ele><time>2026-03-27T10:56:16Z</time></trkpt><trkpt lat="44.78080482433877" lon="2.43664477929733"><ele>807.7142857142858</ele><time>2026-03-27T10:56:17Z</time></trkpt><trkpt lat="44.78074293730792" lon="2.436724179402383"><ele>805.8571428571428</ele><time>2026-03-27T10:56:18Z</time></trkpt><trkpt lat="44.78068958493262" lon="2.4367973799030076"><ele>804.0</ele><time>2026-03-27T10:56:19Z</time></trkpt><trkpt lat="44.78065047097887" lon="2.4368692757401296"><ele>804.0</ele><time>2026-03-27T10:56:20Z</time></trkpt><trkpt lat="44.780605978173426" lon="2.4369552834559167"><ele>804.0</ele><time>2026-03-27T10:56:22Z</time></trkpt><trkpt lat="44.78056833149469" lon="2.4370447622752662"><ele>804.0</ele><time>2026-03-27T10:56:28Z</time></trkpt><trkpt lat="44.78062239792436" lon="2.437112077314527"><ele>804.0</ele><time>2026-03-27T10:56:35Z</time></trkpt><trkpt lat="44.78071764396335" lon="2.4372265486251363"><ele>804.0</ele><time>2026-03-27T10:56:37Z</time></trkpt><trkpt lat="44.78078703532638" lon="2.437304954659876"><ele>804.0</ele><time>2026-03-27T10:56:38Z</time></trkpt><trkpt lat="44.780843555652986" lon="2.43736985049913"><ele>804.0</ele><time>2026-03-27T10:56:39Z</time></trkpt><trkpt lat="44.780895957577286" lon="2.4374945724411337"><ele>804.0</ele><time>2026-03-27T10:56:41Z</time></trkpt><trkpt lat="44.78090701757745" lon="2.4375932508484683"><ele>804.0</ele><time>2026-03-27T10:56:42Z</time></trkpt><trkpt lat="44.780904154952665" lon="2.437705465309659"><ele>804.0</ele><time>2026-03-27T10:56:43Z</time></trkpt><trkpt lat="44.78088754193121" lon="2.4378049459654965"><ele>804.0</ele><time>2026-03-27T10:56:44Z</time></trkpt><trkpt lat="44.78086492885238" lon="2.4378901447759485"><ele>804.0</ele><time>2026-03-27T10:56:45Z</time></trkpt><trkpt lat="44.780844562668584" lon="2.43797641294689"><ele>803.5</ele><time>2026-03-27T10:56:46Z</time></trkpt><trkpt lat="44.78083367431306" lon="2.4380763378985604"><ele>803.0</ele><time>2026-03-27T10:56:47Z</time></trkpt><trkpt lat="44.780825036952876" lon="2.4381942421556184"><ele>802.5</ele><time>2026-03-27T10:56:48Z</time></trkpt><trkpt lat="44.78079446871067" lon="2.438292845991388"><ele>802.0</ele><time>2026-03-27T10:56:48.999Z</time></trkpt><trkpt lat="44.780761789509064" lon="2.43840755491786"><ele>801.5</ele><time>2026-03-27T10:56:49.999Z</time></trkpt><trkpt lat="44.780731882136" lon="2.438538426881195"><ele>801.0</ele><time>2026-03-27T10:56:50.999Z</time></trkpt><trkpt lat="44.780698736723224" lon="2.43871201538365"><ele>801.0</ele><time>2026-03-27T10:56:51.999Z</time></trkpt><trkpt lat="44.780655159635856" lon="2.4388606289172894"><ele>801.0</ele><time>2026-03-27T10:56:52.999Z</time></trkpt><trkpt lat="44.780631869668944" lon="2.439016236890023"><ele>801.0</ele><time>2026-03-27T10:56:53.999Z</time></trkpt><trkpt lat="44.780604413000994" lon="2.439149720067599"><ele>801.0</ele><time>2026-03-27T10:56:54.999Z</time></trkpt><trkpt lat="44.78055252472842" lon="2.4392702752551116"><ele>801.0</ele><time>2026-03-27T10:56:55.999Z</time></trkpt><trkpt lat="44.780477645524" lon="2.4394001860468033"><ele>801.0</ele><time>2026-03-27T10:56:56.999Z</time></trkpt><trkpt lat="44.78036535500892" lon="2.4395077879395304"><ele>801.0</ele><time>2026-03-27T10:56:57.999Z</time></trkpt><trkpt lat="44.7802440125699" lon="2.4395947820431436"><ele>801.0</ele><time>2026-03-27T10:56:58.999Z</time></trkpt><trkpt lat="44.780130696364175" lon="2.439652787498728"><ele>801.0</ele><time>2026-03-27T10:56:59.999Z</time></trkpt><trkpt lat="44.7800058989956" lon="2.439669223000261"><ele>801.6666666666667</ele><time>2026-03-27T10:57:00.999Z</time></trkpt><trkpt lat="44.7798549204619" lon="2.4397255275390983"><ele>802.3333333333334</ele><time>2026-03-27T10:57:01.999Z</time></trkpt><trkpt lat="44.7797104951847" lon="2.439821331633658"><ele>803.0</ele><time>2026-03-27T10:57:02.999Z</time></trkpt><trkpt lat="44.77957228477569" lon="2.439930723824427"><ele>803.0</ele><time>2026-03-27T10:57:03.999Z</time></trkpt><trkpt lat="44.77944833378166" lon="2.4400432890630452"><ele>803.0</ele><time>2026-03-27T10:57:04.999Z</time></trkpt><trkpt lat="44.779345858393256" lon="2.440156852728044"><ele>803.0</ele><time>2026-03-27T10:57:05.999Z</time></trkpt><trkpt lat="44.779253252072465" lon="2.4402700882825434"><ele>803.0</ele><time>2026-03-27T10:57:06.999Z</time></trkpt><trkpt lat="44.77917723700279" lon="2.440394575625943"><ele>802.0</ele><time>2026-03-27T10:57:07.999Z</time></trkpt><trkpt lat="44.77912002418759" lon="2.4405472662607925"><ele>801.0</ele><time>2026-03-27T10:57:08.999Z</time></trkpt><trkpt lat="44.77907538788434" lon="2.440714430563831"><ele>800.0</ele><time>2026-03-27T10:57:09.999Z</time></trkpt><trkpt lat="44.77901846938247" lon="2.440872459471439"><ele>799.0</ele><time>2026-03-27T10:57:10.999Z</time></trkpt><trkpt lat="44.77895230802354" lon="2.4410179677558297"><ele>799.0</ele><time>2026-03-27T10:57:11.999Z</time></trkpt><trkpt lat="44.778873827841025" lon="2.4411479209562943"><ele>799.0</ele><time>2026-03-27T10:57:12.999Z</time></trkpt><trkpt lat="44.778798686427116" lon="2.4412325533607855"><ele>799.0</ele><time>2026-03-27T10:57:13.999Z</time></trkpt><trkpt lat="44.778697008751365" lon="2.4413083245444107"><ele>799.0</ele><time>2026-03-27T10:57:14.999Z</time></trkpt><trkpt lat="44.778587549209526" lon="2.441376279621797"><ele>799.4000000000001</ele><time>2026-03-27T10:57:15.999Z</time></trkpt><trkpt lat="44.778492056569185" lon="2.441444401487383"><ele>799.8</ele><time>2026-03-27T10:57:16.999Z</time></trkpt><trkpt lat="44.778425454878125" lon="2.441515643262926"><ele>800.2</ele><time>2026-03-27T10:57:17.999Z</time></trkpt><trkpt lat="44.7783747728255" lon="2.4415964746053964"><ele>800.5999999999999</ele><time>2026-03-27T10:57:18.999Z</time></trkpt><trkpt lat="44.77834273327553" lon="2.4416990265662495"><ele>801.0</ele><time>2026-03-27T10:57:19.999Z</time></trkpt><trkpt lat="44.77832698177226" lon="2.441842538266385"><ele>801.0</ele><time>2026-03-27T10:57:20.999Z</time></trkpt><trkpt lat="44.77831506483594" lon="2.441987425524837"><ele>801.0</ele><time>2026-03-27T10:57:21.999Z</time></trkpt><trkpt lat="44.778276750175856" lon="2.442123001327527"><ele>801.0</ele><time>2026-03-27T10:57:22.999Z</time></trkpt><trkpt lat="44.778199701606255" lon="2.442266839996385"><ele>801.0</ele><time>2026-03-27T10:57:23.999Z</time></trkpt><trkpt lat="44.77812939196091" lon="2.442424360423823"><ele>800.3333333333334</ele><time>2026-03-27T10:57:24.999Z</time></trkpt><trkpt lat="44.778076591897374" lon="2.4425486452744023"><ele>799.6666666666667</ele><time>2026-03-27T10:57:25.999Z</time></trkpt><trkpt lat="44.77802744784264" lon="2.442642256780686"><ele>799.0</ele><time>2026-03-27T10:57:26.999Z</time></trkpt><trkpt lat="44.777979082230765" lon="2.4427313649240707"><ele>798.3333333333334</ele><time>2026-03-27T10:57:27.999Z</time></trkpt><trkpt lat="44.77793158499864" lon="2.4428275036238642"><ele>797.6666666666667</ele><time>2026-03-27T10:57:28.999Z</time></trkpt><trkpt lat="44.77789061523814" lon="2.4429283416007546"><ele>797.0</ele><time>2026-03-27T10:57:29.999Z</time></trkpt><trkpt lat="44.777851058823444" lon="2.44303876684249"><ele>794.0</ele><time>2026-03-27T10:57:30.999Z</time></trkpt><trkpt lat="44.777815577852586" lon="2.4431635466799855"><ele>791.0</ele><time>2026-03-27T10:57:31.999Z</time></trkpt><trkpt lat="44.77777507994691" lon="2.443285369495648"><ele>788.0</ele><time>2026-03-27T10:57:32.999Z</time></trkpt><trkpt lat="44.77768250054509" lon="2.4434458247603152"><ele>785.0</ele><time>2026-03-27T10:57:33.999Z</time></trkpt><trkpt lat="44.77758091170567" lon="2.4436135793623173"><ele>784.5</ele><time>2026-03-27T10:57:34.999Z</time></trkpt><trkpt lat="44.777467824267546" lon="2.4437760594112956"><ele>784.0</ele><time>2026-03-27T10:57:35.999Z</time></trkpt><trkpt lat="44.77737142127977" lon="2.443921855667784"><ele>783.5</ele><time>2026-03-27T10:57:36.999Z</time></trkpt><trkpt lat="44.77727749505159" lon="2.444047502599843"><ele>783.0</ele><time>2026-03-27T10:57:37.999Z</time></trkpt><trkpt lat="44.777190227043896" lon="2.4441620504871837"><ele>783.0</ele><time>2026-03-27T10:57:38.999Z</time></trkpt><trkpt lat="44.777100622570444" lon="2.4442616958937164"><ele>783.0</ele><time>2026-03-27T10:57:39.999Z</time></trkpt><trkpt lat="44.776998436113935" lon="2.444358619199533"><ele>783.0</ele><time>2026-03-27T10:57:41Z</time></trkpt><trkpt lat="44.77693377916438" lon="2.444443256079479"><ele>783.0</ele><time>2026-03-27T10:57:42Z</time></trkpt><trkpt lat="44.776845094876236" lon="2.444509556459535"><ele>783.0</ele><time>2026-03-27T10:57:43Z</time></trkpt><trkpt lat="44.77674907450009" lon="2.4445919722231753"><ele>782.5</ele><time>2026-03-27T10:57:44Z</time></trkpt><trkpt lat="44.77664971426739" lon="2.44466934125223"><ele>782.0</ele><time>2026-03-27T10:57:45Z</time></trkpt><trkpt lat="44.77654330097625" lon="2.444746213740329"><ele>781.5</ele><time>2026-03-27T10:57:46Z</time></trkpt><trkpt lat="44.77643774999906" lon="2.4448286318886394"><ele>781.0</ele><time>2026-03-27T10:57:47Z</time></trkpt><trkpt lat="44.77632136362893" lon="2.4449130965730395"><ele>781.0</ele><time>2026-03-27T10:57:48Z</time></trkpt><trkpt lat="44.77623925927558" lon="2.444975941881682"><ele>781.0</ele><time>2026-03-27T10:57:49Z</time></trkpt><trkpt lat="44.77617259761995" lon="2.445051568630337"><ele>781.0</ele><time>2026-03-27T10:57:50Z</time></trkpt><trkpt lat="44.77612201601791" lon="2.4451260982325533"><ele>781.0</ele><time>2026-03-27T10:57:51Z</time></trkpt><trkpt lat="44.77608876811061" lon="2.445213181046114"><ele>781.0</ele><time>2026-03-27T10:57:52Z</time></trkpt><trkpt lat="44.77601830610492" lon="2.445407432996143"><ele>779.1999999999999</ele><time>2026-03-27T10:57:55Z</time></trkpt><trkpt lat="44.77593446176328" lon="2.4454908136627878"><ele>777.4</ele><time>2026-03-27T10:57:56Z</time></trkpt><trkpt lat="44.775836843075744" lon="2.4456341149818788"><ele>775.6</ele><time>2026-03-27T10:57:57Z</time></trkpt><trkpt lat="44.77579392709125" lon="2.445775048075384"><ele>773.8</ele><time>2026-03-27T10:57:58Z</time></trkpt><trkpt lat="44.77576937345099" lon="2.4458570767255323"><ele>772.0</ele><time>2026-03-27T10:57:59Z</time></trkpt><trkpt lat="44.77571552432822" lon="2.4459848191081157"><ele>772.0</ele><time>2026-03-27T10:58:00Z</time></trkpt><trkpt lat="44.775669802525925" lon="2.4461438687779573"><ele>772.0</ele><time>2026-03-27T10:58:01Z</time></trkpt><trkpt lat="44.77560914947185" lon="2.4462763748653464"><ele>772.0</ele><time>2026-03-27T10:58:02Z</time></trkpt><trkpt lat="44.77556045065086" lon="2.4463823961121673"><ele>772.0</ele><time>2026-03-27T10:58:03Z</time></trkpt><trkpt lat="44.775459008656156" lon="2.446587119136132"><ele>770.0</ele><time>2026-03-27T10:58:04Z</time></trkpt><trkpt lat="44.775399866844836" lon="2.4467185332105346"><ele>768.0</ele><time>2026-03-27T10:58:05Z</time></trkpt><trkpt lat="44.77533263208518" lon="2.446837781547141"><ele>766.0</ele><time>2026-03-27T10:58:06Z</time></trkpt><trkpt lat="44.7752763163346" lon="2.446973444963984"><ele>764.0</ele><time>2026-03-27T10:58:07Z</time></trkpt><trkpt lat="44.77522684409188" lon="2.4471259737874296"><ele>762.0</ele><time>2026-03-27T10:58:08Z</time></trkpt><trkpt lat="44.77519224644304" lon="2.4472846203237406"><ele>763.6666666666666</ele><time>2026-03-27T10:58:09Z</time></trkpt><trkpt lat="44.77513941092615" lon="2.44747168817327"><ele>765.3333333333333</ele><time>2026-03-27T10:58:10Z</time></trkpt><trkpt lat="44.775075738343496" lon="2.447719095802553"><ele>767.0</ele><time>2026-03-27T10:58:11Z</time></trkpt><trkpt lat="44.77501603893882" lon="2.447929388671844"><ele>766.2</ele><time>2026-03-27T10:58:12Z</time></trkpt><trkpt lat="44.77496334516228" lon="2.448088876368649"><ele>765.4000000000001</ele><time>2026-03-27T10:58:13Z</time></trkpt><trkpt lat="44.77492609245015" lon="2.448218723943448"><ele>764.5999999999999</ele><time>2026-03-27T10:58:14Z</time></trkpt><trkpt lat="44.774882103264055" lon="2.4483284852684832"><ele>763.8</ele><time>2026-03-27T10:58:15Z</time></trkpt><trkpt lat="44.774834436879296" lon="2.4484370576581"><ele>763.0</ele><time>2026-03-27T10:58:16Z</time></trkpt><trkpt lat="44.774780663428515" lon="2.448599688489575"><ele>763.0</ele><time>2026-03-27T10:58:17Z</time></trkpt><trkpt lat="44.774719926586535" lon="2.448764075677665"><ele>763.0</ele><time>2026-03-27T10:58:18Z</time></trkpt><trkpt lat="44.77465094577944" lon="2.448850897523489"><ele>763.0</ele><time>2026-03-27T10:58:19Z</time></trkpt><trkpt lat="44.77457516158792" lon="2.448957668509133"><ele>763.0</ele><time>2026-03-27T10:58:20Z</time></trkpt><trkpt lat="44.774516619564245" lon="2.4490820000921487"><ele>763.0</ele><time>2026-03-27T10:58:21Z</time></trkpt><trkpt lat="44.774452720842326" lon="2.449200730605751"><ele>762.2</ele><time>2026-03-27T10:58:22Z</time></trkpt><trkpt lat="44.774390126634195" lon="2.4493073919477175"><ele>761.4</ele><time>2026-03-27T10:58:23Z</time></trkpt><trkpt lat="44.77433599122397" lon="2.4494544397967366"><ele>760.6</ele><time>2026-03-27T10:58:24Z</time></trkpt><trkpt lat="44.774288938224714" lon="2.4495714883785253"><ele>759.8000000000001</ele><time>2026-03-27T10:58:25Z</time></trkpt><trkpt lat="44.77420424907483" lon="2.4496728949073616"><ele>759.0</ele><time>2026-03-27T10:58:26Z</time></trkpt><trkpt lat="44.77416221040889" lon="2.4497769265470435"><ele>758.6666666666666</ele><time>2026-03-27T10:58:27Z</time></trkpt><trkpt lat="44.7741171912525" lon="2.449900299246157"><ele>758.3333333333334</ele><time>2026-03-27T10:58:28Z</time></trkpt><trkpt lat="44.77408130096408" lon="2.450035099986754"><ele>758.0</ele><time>2026-03-27T10:58:29Z</time></trkpt><trkpt lat="44.774053913943774" lon="2.4501785407654464"><ele>757.6666666666667</ele><time>2026-03-27T10:58:30Z</time></trkpt><trkpt lat="44.77403366074701" lon="2.4502643696808883"><ele>757.3333333333334</ele><time>2026-03-27T10:58:31Z</time></trkpt><trkpt lat="44.77402937693812" lon="2.450364170315756"><ele>757.0</ele><time>2026-03-27T10:58:33Z</time></trkpt><trkpt lat="44.773990947110235" lon="2.4504738542358604"><ele>756.75</ele><time>2026-03-27T10:58:35Z</time></trkpt><trkpt lat="44.77397969900873" lon="2.4506549108451914"><ele>756.5</ele><time>2026-03-27T10:58:36.999Z</time></trkpt><trkpt lat="44.77409633568396" lon="2.4506154872003583"><ele>756.25</ele><time>2026-03-27T10:58:38.999Z</time></trkpt><trkpt lat="44.773945505661565" lon="2.450786178"><ele>756.0</ele><time>2026-03-27T10:58:40.999Z</time></trkpt><trkpt lat="44.77387327544792" lon="2.4509158653503995"><ele>756.0</ele><time>2026-03-27T10:58:43.999Z</time></trkpt><trkpt lat="44.773842198642285" lon="2.451019765427342"><ele>756.0</ele><time>2026-03-27T10:58:44.999Z</time></trkpt><trkpt lat="44.773840416965996" lon="2.451114210181806"><ele>756.0</ele><time>2026-03-27T10:58:47.999Z</time></trkpt><trkpt lat="44.773822704247685" lon="2.451245803630391"><ele>756.0</ele><time>2026-03-27T10:58:50.999Z</time></trkpt><trkpt lat="44.77374267757497" lon="2.4514267723719034"><ele>756.0</ele><time>2026-03-27T10:58:52.999Z</time></trkpt><trkpt lat="44.77369568284898" lon="2.4515331509031006"><ele>755.0</ele><time>2026-03-27T10:58:53.999Z</time></trkpt><trkpt lat="44.7736794922159" lon="2.4516214779586507"><ele>754.0</ele><time>2026-03-27T10:58:54.999Z</time></trkpt><trkpt lat="44.77367530657796" lon="2.4517395775827833"><ele>753.0</ele><time>2026-03-27T10:58:56.999Z</time></trkpt><trkpt lat="44.77364576913485" lon="2.4518366882050837"><ele>752.0</ele><time>2026-03-27T10:58:58.999Z</time></trkpt><trkpt lat="44.773614142942755" lon="2.4519248226604256"><ele>751.0</ele><time>2026-03-27T10:59:01.999Z</time></trkpt><trkpt lat="44.77360198978197" lon="2.452065133803466"><ele>750.0</ele><time>2026-03-27T10:59:06.999Z</time></trkpt><trkpt lat="44.77361884730142" lon="2.452156900518778"><ele>748.8333333333334</ele><time>2026-03-27T10:59:08.999Z</time></trkpt><trkpt lat="44.7736200271954" lon="2.452259587624899"><ele>747.6666666666666</ele><time>2026-03-27T10:59:10.999Z</time></trkpt><trkpt lat="44.773602231654216" lon="2.452368509642857"><ele>746.5</ele><time>2026-03-27T10:59:12.999Z</time></trkpt><trkpt lat="44.77357521250302" lon="2.452516571510354"><ele>745.3333333333333</ele><time>2026-03-27T10:59:14.999Z</time></trkpt><trkpt lat="44.77354638252229" lon="2.4526024013320136"><ele>744.1666666666666</ele><time>2026-03-27T10:59:16.999Z</time></trkpt><trkpt lat="44.77354285828889" lon="2.4527397477216684"><ele>743.0</ele><time>2026-03-27T10:59:18.999Z</time></trkpt><trkpt lat="44.773494465243715" lon="2.452878562981432"><ele>743.0</ele><time>2026-03-27T10:59:20.999Z</time></trkpt><trkpt lat="44.77341569008736" lon="2.452950972006646"><ele>743.0</ele><time>2026-03-27T10:59:21.999Z</time></trkpt><trkpt lat="44.773332245122795" lon="2.452971495786326"><ele>743.0</ele><time>2026-03-27T10:59:22.999Z</time></trkpt><trkpt lat="44.773270566767934" lon="2.4530037240001565"><ele>743.0</ele><time>2026-03-27T10:59:23.999Z</time></trkpt><trkpt lat="44.77315141945175" lon="2.45306218176985"><ele>743.0</ele><time>2026-03-27T10:59:25.999Z</time></trkpt><trkpt lat="44.77303877487984" lon="2.453116879774547"><ele>741.6666666666666</ele><time>2026-03-27T10:59:27.999Z</time></trkpt><trkpt lat="44.77298076871281" lon="2.453178452543908"><ele>740.3333333333333</ele><time>2026-03-27T10:59:28.999Z</time></trkpt><trkpt lat="44.772930586328066" lon="2.453266271078366"><ele>739.0</ele><time>2026-03-27T10:59:29.999Z</time></trkpt><trkpt lat="44.77289854929765" lon="2.4533556340999882"><ele>737.6666666666666</ele><time>2026-03-27T10:59:30.999Z</time></trkpt><trkpt lat="44.772839482196886" lon="2.4534204090512097"><ele>736.3333333333334</ele><time>2026-03-27T10:59:31.999Z</time></trkpt><trkpt lat="44.77276502736584" lon="2.4534755231455745"><ele>735.0</ele><time>2026-03-27T10:59:32.999Z</time></trkpt><trkpt lat="44.77267790745386" lon="2.453508281562428"><ele>733.6</ele><time>2026-03-27T10:59:33.999Z</time></trkpt><trkpt lat="44.77257267923073" lon="2.453510968190516"><ele>732.2</ele><time>2026-03-27T10:59:34.999Z</time></trkpt><trkpt lat="44.77247847506209" lon="2.453515736321813"><ele>730.8</ele><time>2026-03-27T10:59:35.999Z</time></trkpt><trkpt lat="44.77239945027748" lon="2.4535331933472326"><ele>729.4</ele><time>2026-03-27T10:59:36.999Z</time></trkpt><trkpt lat="44.77231787860869" lon="2.453573300664008"><ele>728.0</ele><time>2026-03-27T10:59:37.999Z</time></trkpt><trkpt lat="44.7722368893734" lon="2.4536135822201004"><ele>728.0</ele><time>2026-03-27T10:59:38.999Z</time></trkpt><trkpt lat="44.77214703466491" lon="2.453635638545001"><ele>728.0</ele><time>2026-03-27T10:59:39.999Z</time></trkpt><trkpt lat="44.772030107108534" lon="2.4536865922883355"><ele>728.0</ele><time>2026-03-27T10:59:40.999Z</time></trkpt><trkpt lat="44.77192443761088" lon="2.4537496764147524"><ele>728.0</ele><time>2026-03-27T10:59:41.999Z</time></trkpt><trkpt lat="44.77182052006041" lon="2.453811733839928"><ele>728.0</ele><time>2026-03-27T10:59:42.999Z</time></trkpt><trkpt lat="44.771689381894404" lon="2.453919532498164"><ele>727.5</ele><time>2026-03-27T10:59:43.999Z</time></trkpt><trkpt lat="44.771578360437566" lon="2.4539998167305503"><ele>727.0</ele><time>2026-03-27T10:59:44.999Z</time></trkpt><trkpt lat="44.771471937015875" lon="2.454114461441344"><ele>726.5</ele><time>2026-03-27T10:59:46Z</time></trkpt><trkpt lat="44.7713739022682" lon="2.454212485841369"><ele>726.0</ele><time>2026-03-27T10:59:47Z</time></trkpt><trkpt lat="44.77124346052863" lon="2.4543156932210763"><ele>726.0</ele><time>2026-03-27T10:59:48Z</time></trkpt><trkpt lat="44.77108902571704" lon="2.4544404528915686"><ele>726.0</ele><time>2026-03-27T10:59:49Z</time></trkpt><trkpt lat="44.77095711515533" lon="2.4545456078416223"><ele>726.0</ele><time>2026-03-27T10:59:50Z</time></trkpt><trkpt lat="44.770829799216905" lon="2.4546356455978477"><ele>726.3333333333334</ele><time>2026-03-27T10:59:51Z</time></trkpt><trkpt lat="44.77068147229295" lon="2.4547208857055343"><ele>726.6666666666667</ele><time>2026-03-27T10:59:52Z</time></trkpt><trkpt lat="44.77052648925362" lon="2.4547938546919905"><ele>727.0</ele><time>2026-03-27T10:59:53Z</time></trkpt><trkpt lat="44.77036297078526" lon="2.4548495874116405"><ele>726.6666666666667</ele><time>2026-03-27T10:59:54Z</time></trkpt><trkpt lat="44.770187786544994" lon="2.4549327496859052"><ele>726.3333333333334</ele><time>2026-03-27T10:59:55Z</time></trkpt><trkpt lat="44.770016845596274" lon="2.4550064983878803"><ele>726.0</ele><time>2026-03-27T10:59:56Z</time></trkpt><trkpt lat="44.76984318417953" lon="2.455086616934219"><ele>726.0</ele><time>2026-03-27T10:59:57Z</time></trkpt><trkpt lat="44.769658788720356" lon="2.4551642089367482"><ele>726.0</ele><time>2026-03-27T10:59:58Z</time></trkpt><trkpt lat="44.76947611514524" lon="2.455230501080495"><ele>726.0</ele><time>2026-03-27T10:59:59Z</time></trkpt><trkpt lat="44.76929620072198" lon="2.4552734126707434"><ele>725.3333333333334</ele><time>2026-03-27T11:00:00Z</time></trkpt><trkpt lat="44.769121296452724" lon="2.4552877898337075"><ele>724.6666666666667</ele><time>2026-03-27T11:00:01Z</time></trkpt><trkpt lat="44.76894324593259" lon="2.4552832604493786"><ele>724.0</ele><time>2026-03-27T11:00:02Z</time></trkpt><trkpt lat="44.768758349193845" lon="2.455281538198898"><ele>724.0</ele><time>2026-03-27T11:00:03Z</time></trkpt><trkpt lat="44.768592866666864" lon="2.4552745275055132"><ele>724.0</ele><time>2026-03-27T11:00:04Z</time></trkpt><trkpt lat="44.7684452475195" lon="2.455277077852137"><ele>724.0</ele><time>2026-03-27T11:00:05Z</time></trkpt><trkpt lat="44.76829355741328" lon="2.4552989359087505"><ele>723.6666666666667</ele><time>2026-03-27T11:00:06Z</time></trkpt><trkpt lat="44.768136660082824" lon="2.455319769097957"><ele>723.3333333333334</ele><time>2026-03-27T11:00:07Z</time></trkpt><trkpt lat="44.76797501106748" lon="2.455334126944056"><ele>723.0</ele><time>2026-03-27T11:00:08Z</time></trkpt><trkpt lat="44.76782318974244" lon="2.4553381633884723"><ele>723.0</ele><time>2026-03-27T11:00:09Z</time></trkpt><trkpt lat="44.767684674823585" lon="2.4553234748108714"><ele>723.0</ele><time>2026-03-27T11:00:10Z</time></trkpt><trkpt lat="44.76756538793589" lon="2.455305910146847"><ele>723.0</ele><time>2026-03-27T11:00:11Z</time></trkpt><trkpt lat="44.767462720550675" lon="2.4552911088987464"><ele>723.0</ele><time>2026-03-27T11:00:12Z</time></trkpt><trkpt lat="44.76737874332634" lon="2.455278705678731"><ele>723.0</ele><time>2026-03-27T11:00:13Z</time></trkpt><trkpt lat="44.767293298914716" lon="2.455292888557775"><ele>723.0</ele><time>2026-03-27T11:00:15Z</time></trkpt><trkpt lat="44.7673111174788" lon="2.455397305125712"><ele>723.0</ele><time>2026-03-27T11:00:18Z</time></trkpt><trkpt lat="44.76741107486319" lon="2.455456829540665"><ele>723.0</ele><time>2026-03-27T11:00:20Z</time></trkpt><trkpt lat="44.76747004852603" lon="2.4555048072601617"><ele>723.0</ele><time>2026-03-27T11:00:21Z</time></trkpt><trkpt lat="44.76752503118651" lon="2.45556426879986"><ele>723.0</ele><time>2026-03-27T11:00:22Z</time></trkpt><trkpt lat="44.76759082338418" lon="2.455637838789468"><ele>723.0</ele><time>2026-03-27T11:00:23Z</time></trkpt><trkpt lat="44.76765673082794" lon="2.4557220718787485"><ele>724.3333333333334</ele><time>2026-03-27T11:00:24Z</time></trkpt><trkpt lat="44.76772247152956" lon="2.455813585981809"><ele>725.6666666666666</ele><time>2026-03-27T11:00:25Z</time></trkpt><trkpt lat="44.76778601432178" lon="2.4559066761052795"><ele>727.0</ele><time>2026-03-27T11:00:26Z</time></trkpt><trkpt lat="44.76784062578834" lon="2.455999091332749"><ele>728.3333333333333</ele><time>2026-03-27T11:00:27Z</time></trkpt><trkpt lat="44.76788922019272" lon="2.4561053896977794"><ele>729.6666666666666</ele><time>2026-03-27T11:00:28Z</time></trkpt><trkpt lat="44.7679219977923" lon="2.456217644795793"><ele>731.0</ele><time>2026-03-27T11:00:29Z</time></trkpt><trkpt lat="44.76793851377855" lon="2.4563424723890663"><ele>732.1999999999999</ele><time>2026-03-27T11:00:30Z</time></trkpt><trkpt lat="44.767951121595324" lon="2.4564432855569382"><ele>733.4</ele><time>2026-03-27T11:00:31Z</time></trkpt><trkpt lat="44.76797830990168" lon="2.4565999626516493"><ele>734.6</ele><time>2026-03-27T11:00:33Z</time></trkpt><trkpt lat="44.76799996747512" lon="2.4567518670901616"><ele>735.8</ele><time>2026-03-27T11:00:35Z</time></trkpt><trkpt lat="44.76800211016644" lon="2.456899564883966"><ele>737.0</ele><time>2026-03-27T11:00:37Z</time></trkpt><trkpt lat="44.76801781417736" lon="2.4569864013653566"><ele>737.0</ele><time>2026-03-27T11:00:38Z</time></trkpt><trkpt lat="44.7680349149519" lon="2.4570797919812835"><ele>737.0</ele><time>2026-03-27T11:00:39Z</time></trkpt><trkpt lat="44.76804882206431" lon="2.457167193635594"><ele>737.0</ele><time>2026-03-27T11:00:40Z</time></trkpt><trkpt lat="44.76804109662494" lon="2.457257610310281"><ele>737.0</ele><time>2026-03-27T11:00:41Z</time></trkpt><trkpt lat="44.767979186544984" lon="2.4573564121183837"><ele>737.0</ele><time>2026-03-27T11:00:42Z</time></trkpt><trkpt lat="44.76791018498962" lon="2.457454004560731"><ele>737.0</ele><time>2026-03-27T11:00:43Z</time></trkpt><trkpt lat="44.76783885585916" lon="2.4575690234186736"><ele>737.0</ele><time>2026-03-27T11:00:44Z</time></trkpt><trkpt lat="44.767773901311074" lon="2.4576496702449493"><ele>737.0</ele><time>2026-03-27T11:00:45Z</time></trkpt><trkpt lat="44.767626965766226" lon="2.4577874619910154"><ele>737.0</ele><time>2026-03-27T11:00:46Z</time></trkpt><trkpt lat="44.76752294456968" lon="2.4578569587140455"><ele>737.0</ele><time>2026-03-27T11:00:47Z</time></trkpt><trkpt lat="44.76743776656677" lon="2.4579927939915778"><ele>734.0</ele><time>2026-03-27T11:00:48Z</time></trkpt><trkpt lat="44.767367021649825" lon="2.4581029175782145"><ele>731.0</ele><time>2026-03-27T11:00:49Z</time></trkpt><trkpt lat="44.76730808460696" lon="2.458193829987095"><ele>728.0</ele><time>2026-03-27T11:00:50Z</time></trkpt><trkpt lat="44.76723990980294" lon="2.4583095322847766"><ele>725.0</ele><time>2026-03-27T11:00:51Z</time></trkpt><trkpt lat="44.767171883080344" lon="2.458460044804129"><ele>722.0</ele><time>2026-03-27T11:00:52Z</time></trkpt><trkpt lat="44.76709945470993" lon="2.4586312308524367"><ele>722.8</ele><time>2026-03-27T11:00:52.999Z</time></trkpt><trkpt lat="44.76701651480905" lon="2.458802461675179"><ele>723.6</ele><time>2026-03-27T11:00:53.999Z</time></trkpt><trkpt lat="44.76695777408475" lon="2.458928580936204"><ele>724.4</ele><time>2026-03-27T11:00:54.999Z</time></trkpt><trkpt lat="44.76688673918402" lon="2.459041499921483"><ele>725.1999999999999</ele><time>2026-03-27T11:00:55.999Z</time></trkpt><trkpt lat="44.76683481860409" lon="2.4591296767401127"><ele>726.0</ele><time>2026-03-27T11:00:56.999Z</time></trkpt><trkpt lat="44.76669980337752" lon="2.4592468816135247"><ele>726.0</ele><time>2026-03-27T11:00:57.999Z</time></trkpt><trkpt lat="44.766597178252255" lon="2.4594122425158536"><ele>726.0</ele><time>2026-03-27T11:00:58.999Z</time></trkpt><trkpt lat="44.766545316597615" lon="2.4596291821497376"><ele>726.0</ele><time>2026-03-27T11:00:59.999Z</time></trkpt><trkpt lat="44.766476679982524" lon="2.459845752618617"><ele>723.5</ele><time>2026-03-27T11:01:00.999Z</time></trkpt><trkpt lat="44.76640872312127" lon="2.4600099413078524"><ele>721.0</ele><time>2026-03-27T11:01:01.999Z</time></trkpt><trkpt lat="44.766353732716894" lon="2.4601571633380934"><ele>718.5</ele><time>2026-03-27T11:01:02.999Z</time></trkpt><trkpt lat="44.76629520910856" lon="2.4603201735023568"><ele>716.0</ele><time>2026-03-27T11:01:03.999Z</time></trkpt><trkpt lat="44.76622250940534" lon="2.4605442352580615"><ele>714.3333333333333</ele><time>2026-03-27T11:01:04.999Z</time></trkpt><trkpt lat="44.76614074568764" lon="2.46078811340815"><ele>712.6666666666666</ele><time>2026-03-27T11:01:05.999Z</time></trkpt><trkpt lat="44.76606395561942" lon="2.4610090561407434"><ele>711.0</ele><time>2026-03-27T11:01:06.999Z</time></trkpt><trkpt lat="44.76600070903104" lon="2.4612009316980674"><ele>711.25</ele><time>2026-03-27T11:01:07.999Z</time></trkpt><trkpt lat="44.76594468476952" lon="2.4613626112429157"><ele>711.5</ele><time>2026-03-27T11:01:08.999Z</time></trkpt><trkpt lat="44.765878963683164" lon="2.4615165038987814"><ele>711.75</ele><time>2026-03-27T11:01:09.999Z</time></trkpt><trkpt lat="44.76579445546639" lon="2.4616737685859804"><ele>712.0</ele><time>2026-03-27T11:01:10.999Z</time></trkpt><trkpt lat="44.7656965995826" lon="2.4618287928810343"><ele>712.0</ele><time>2026-03-27T11:01:11.999Z</time></trkpt><trkpt lat="44.76559584909072" lon="2.461981658416966"><ele>712.0</ele><time>2026-03-27T11:01:12.999Z</time></trkpt><trkpt lat="44.76551191324136" lon="2.4621217061545733"><ele>712.0</ele><time>2026-03-27T11:01:13.999Z</time></trkpt><trkpt lat="44.76544386093211" lon="2.462228216002997"><ele>712.0</ele><time>2026-03-27T11:01:14.999Z</time></trkpt><trkpt lat="44.76538417408186" lon="2.462328159271304"><ele>712.0</ele><time>2026-03-27T11:01:15.999Z</time></trkpt><trkpt lat="44.76532322391787" lon="2.462406466916977"><ele>712.0</ele><time>2026-03-27T11:01:16.999Z</time></trkpt><trkpt lat="44.765278190686345" lon="2.462564559342014"><ele>712.0</ele><time>2026-03-27T11:01:18.999Z</time></trkpt><trkpt lat="44.765313608740854" lon="2.4626633262941655"><ele>712.0</ele><time>2026-03-27T11:01:20.999Z</time></trkpt><trkpt lat="44.76523548733834" lon="2.462767705879915"><ele>712.0</ele><time>2026-03-27T11:01:24.999Z</time></trkpt><trkpt lat="44.76514004063047" lon="2.4627997976670266"><ele>712.0</ele><time>2026-03-27T11:01:25.999Z</time></trkpt><trkpt lat="44.76503688404609" lon="2.462823126292"><ele>712.0</ele><time>2026-03-27T11:01:26.999Z</time></trkpt><trkpt lat="44.76492972341706" lon="2.462869966801668"><ele>712.0</ele><time>2026-03-27T11:01:27.999Z</time></trkpt><trkpt lat="44.764804731977435" lon="2.462923512728466"><ele>712.0</ele><time>2026-03-27T11:01:28.999Z</time></trkpt><trkpt lat="44.764686040529085" lon="2.462972632039824"><ele>712.0</ele><time>2026-03-27T11:01:29.999Z</time></trkpt><trkpt lat="44.76455565980859" lon="2.463022362857237"><ele>712.0</ele><time>2026-03-27T11:01:30.999Z</time></trkpt><trkpt lat="44.764401666926645" lon="2.4631012490570536"><ele>712.0</ele><time>2026-03-27T11:01:31.999Z</time></trkpt><trkpt lat="44.76422836924509" lon="2.4631799939495056"><ele>712.0</ele><time>2026-03-27T11:01:32.999Z</time></trkpt><trkpt lat="44.764042936567435" lon="2.463258760211879"><ele>712.0</ele><time>2026-03-27T11:01:33.999Z</time></trkpt><trkpt lat="44.763849389991066" lon="2.463348572789251"><ele>712.0</ele><time>2026-03-27T11:01:34.999Z</time></trkpt><trkpt lat="44.76367680646735" lon="2.4634350376477414"><ele>712.3333333333334</ele><time>2026-03-27T11:01:35.999Z</time></trkpt><trkpt lat="44.7635198138945" lon="2.4635034867575336"><ele>712.6666666666666</ele><time>2026-03-27T11:01:36.999Z</time></trkpt><trkpt lat="44.76337089880984" lon="2.4635626747984753"><ele>713.0</ele><time>2026-03-27T11:01:37.999Z</time></trkpt><trkpt lat="44.763221933343694" lon="2.4636220471651873"><ele>713.0</ele><time>2026-03-27T11:01:38.999Z</time></trkpt><trkpt lat="44.76307400664514" lon="2.4636851385321705"><ele>713.0</ele><time>2026-03-27T11:01:39.999Z</time></trkpt><trkpt lat="44.76292456716951" lon="2.4637510427442164"><ele>713.0</ele><time>2026-03-27T11:01:40.999Z</time></trkpt><trkpt lat="44.7627885598517" lon="2.463812601255386"><ele>713.0</ele><time>2026-03-27T11:01:41.999Z</time></trkpt><trkpt lat="44.762665972247866" lon="2.4638699464134644"><ele>713.0</ele><time>2026-03-27T11:01:42.999Z</time></trkpt><trkpt lat="44.76256395067286" lon="2.4638918646018038"><ele>713.0</ele><time>2026-03-27T11:01:43.999Z</time></trkpt><trkpt lat="44.76246898363674" lon="2.4638574102582216"><ele>713.0</ele><time>2026-03-27T11:01:44.999Z</time></trkpt><trkpt lat="44.762386098774364" lon="2.463772800759409"><ele>713.0</ele><time>2026-03-27T11:01:45.999Z</time></trkpt><trkpt lat="44.762315163211326" lon="2.463635100442939"><ele>712.6666666666666</ele><time>2026-03-27T11:01:46.999Z</time></trkpt><trkpt lat="44.7622060637085" lon="2.4634732561965023"><ele>712.3333333333334</ele><time>2026-03-27T11:01:47.999Z</time></trkpt><trkpt lat="44.7620591409655" lon="2.4633618800732164"><ele>712.0</ele><time>2026-03-27T11:01:48.999Z</time></trkpt><trkpt lat="44.76187201078802" lon="2.463277429615875"><ele>710.6666666666667</ele><time>2026-03-27T11:01:49.999Z</time></trkpt><trkpt lat="44.76169067095988" lon="2.4632350022427865"><ele>709.3333333333334</ele><time>2026-03-27T11:01:51Z</time></trkpt><trkpt lat="44.76155102492024" lon="2.46317604870401"><ele>708.0</ele><time>2026-03-27T11:01:52Z</time></trkpt><trkpt lat="44.761414764203394" lon="2.463115403214027"><ele>708.0</ele><time>2026-03-27T11:01:53Z</time></trkpt><trkpt lat="44.76127707780887" lon="2.463066311750053"><ele>708.0</ele><time>2026-03-27T11:01:54Z</time></trkpt><trkpt lat="44.76113082366874" lon="2.4630209560376866"><ele>708.0</ele><time>2026-03-27T11:01:55Z</time></trkpt><trkpt lat="44.76102332694449" lon="2.4629958618715593"><ele>708.0</ele><time>2026-03-27T11:01:56Z</time></trkpt><trkpt lat="44.7609551912278" lon="2.462988109287344"><ele>708.8</ele><time>2026-03-27T11:01:57Z</time></trkpt><trkpt lat="44.76090517652174" lon="2.463061162771493"><ele>709.5999999999999</ele><time>2026-03-27T11:01:59Z</time></trkpt><trkpt lat="44.76089388552951" lon="2.463212919950041"><ele>710.4000000000001</ele><time>2026-03-27T11:02:01Z</time></trkpt><trkpt lat="44.760904973599295" lon="2.46334379984415"><ele>711.2</ele><time>2026-03-27T11:02:02Z</time></trkpt><trkpt lat="44.760935251804156" lon="2.463513684485226"><ele>712.0</ele><time>2026-03-27T11:02:03Z</time></trkpt><trkpt lat="44.76095107702758" lon="2.4636756821018926"><ele>712.0</ele><time>2026-03-27T11:02:04Z</time></trkpt><trkpt lat="44.76097006461221" lon="2.4638191772554943"><ele>712.0</ele><time>2026-03-27T11:02:05Z</time></trkpt><trkpt lat="44.76097807050337" lon="2.463946231654371"><ele>712.0</ele><time>2026-03-27T11:02:06Z</time></trkpt><trkpt lat="44.76099182192482" lon="2.46406369006219"><ele>712.0</ele><time>2026-03-27T11:02:07Z</time></trkpt><trkpt lat="44.76102069658575" lon="2.464170317031452"><ele>712.0</ele><time>2026-03-27T11:02:08Z</time></trkpt><trkpt lat="44.76104552332255" lon="2.4642973789788787"><ele>711.8333333333334</ele><time>2026-03-27T11:02:09Z</time></trkpt><trkpt lat="44.76107300625496" lon="2.464409879132042"><ele>711.6666666666667</ele><time>2026-03-27T11:02:10Z</time></trkpt><trkpt lat="44.76110533254713" lon="2.464493792581565"><ele>711.5</ele><time>2026-03-27T11:02:11Z</time></trkpt><trkpt lat="44.76110247529441" lon="2.4646024834089535"><ele>711.3333333333334</ele><time>2026-03-27T11:02:13Z</time></trkpt><trkpt lat="44.761090791100216" lon="2.46472729804649"><ele>711.1666666666666</ele><time>2026-03-27T11:02:15Z</time></trkpt><trkpt lat="44.761176906372484" lon="2.4648464562892753"><ele>711.0</ele><time>2026-03-27T11:02:18Z</time></trkpt><trkpt lat="44.7612747317344" lon="2.4649620882430603"><ele>711.0</ele><time>2026-03-27T11:02:19Z</time></trkpt><trkpt lat="44.76134018083642" lon="2.4650992105317187"><ele>711.0</ele><time>2026-03-27T11:02:20Z</time></trkpt><trkpt lat="44.761378213982574" lon="2.4652000193171846"><ele>711.0</ele><time>2026-03-27T11:02:21Z</time></trkpt><trkpt lat="44.761338198285365" lon="2.465312949198857"><ele>711.0</ele><time>2026-03-27T11:02:23Z</time></trkpt><trkpt lat="44.7612733260831" lon="2.465413832160185"><ele>711.0</ele><time>2026-03-27T11:02:24Z</time></trkpt><trkpt lat="44.761199797816154" lon="2.465533428818833"><ele>710.75</ele><time>2026-03-27T11:02:25Z</time></trkpt><trkpt lat="44.76111217140876" lon="2.465670370007379"><ele>710.5</ele><time>2026-03-27T11:02:26Z</time></trkpt><trkpt lat="44.76101229964425" lon="2.465814029444808"><ele>710.25</ele><time>2026-03-27T11:02:27Z</time></trkpt><trkpt lat="44.76088840255801" lon="2.465935164710046"><ele>710.0</ele><time>2026-03-27T11:02:28Z</time></trkpt><trkpt lat="44.76075036816027" lon="2.46603462218454"><ele>710.0</ele><time>2026-03-27T11:02:29Z</time></trkpt><trkpt lat="44.76059282673332" lon="2.4660893063834473"><ele>710.0</ele><time>2026-03-27T11:02:30Z</time></trkpt><trkpt lat="44.76044258154985" lon="2.4661331251202414"><ele>710.0</ele><time>2026-03-27T11:02:31Z</time></trkpt><trkpt lat="44.760297002253324" lon="2.466197415008963"><ele>709.5</ele><time>2026-03-27T11:02:32Z</time></trkpt><trkpt lat="44.76015689211318" lon="2.466256105118765"><ele>709.0</ele><time>2026-03-27T11:02:33Z</time></trkpt><trkpt lat="44.7600321291613" lon="2.4663139225354898"><ele>708.5</ele><time>2026-03-27T11:02:34Z</time></trkpt><trkpt lat="44.759918128419194" lon="2.466366320237654"><ele>708.0</ele><time>2026-03-27T11:02:35Z</time></trkpt><trkpt lat="44.759812474504336" lon="2.4664132366295872"><ele>708.4</ele><time>2026-03-27T11:02:36Z</time></trkpt><trkpt lat="44.759712492092156" lon="2.46645736685628"><ele>708.8</ele><time>2026-03-27T11:02:37Z</time></trkpt><trkpt lat="44.75962109417226" lon="2.4664964324167395"><ele>709.2</ele><time>2026-03-27T11:02:38Z</time></trkpt><trkpt lat="44.7595309079575" lon="2.46653379766126"><ele>709.6</ele><time>2026-03-27T11:02:39Z</time></trkpt><trkpt lat="44.7594184898091" lon="2.466562309859876"><ele>710.0</ele><time>2026-03-27T11:02:40Z</time></trkpt><trkpt lat="44.75931478956744" lon="2.466600040258108"><ele>710.0</ele><time>2026-03-27T11:02:41Z</time></trkpt><trkpt lat="44.759222889550706" lon="2.466635844493485"><ele>710.0</ele><time>2026-03-27T11:02:42Z</time></trkpt><trkpt lat="44.759126606885914" lon="2.4666756838331816"><ele>710.0</ele><time>2026-03-27T11:02:43Z</time></trkpt><trkpt lat="44.75902684401271" lon="2.4667214646548135"><ele>710.0</ele><time>2026-03-27T11:02:44Z</time></trkpt><trkpt lat="44.75895117013164" lon="2.4667617276181795"><ele>710.0</ele><time>2026-03-27T11:02:45Z</time></trkpt><trkpt lat="44.75888962272458" lon="2.466791709922816"><ele>710.0</ele><time>2026-03-27T11:02:46Z</time></trkpt><trkpt lat="44.758811236987306" lon="2.466808808775117"><ele>710.0</ele><time>2026-03-27T11:02:48Z</time></trkpt><trkpt lat="44.75875431960701" lon="2.4667666969454234"><ele>710.0</ele><time>2026-03-27T11:02:50Z</time></trkpt><trkpt lat="44.75869156516095" lon="2.466746187486018"><ele>710.0</ele><time>2026-03-27T11:02:52.999Z</time></trkpt><trkpt lat="44.7586185924371" lon="2.4668350464119597"><ele>710.0</ele><time>2026-03-27T11:02:55.999Z</time></trkpt><trkpt lat="44.75854398873518" lon="2.466916284500382"><ele>710.0</ele><time>2026-03-27T11:02:57.999Z</time></trkpt><trkpt lat="44.75846560952915" lon="2.467028208334493"><ele>710.0</ele><time>2026-03-27T11:02:58.999Z</time></trkpt><trkpt lat="44.75839302204729" lon="2.467131384242536"><ele>709.5</ele><time>2026-03-27T11:02:59.999Z</time></trkpt><trkpt lat="44.75829708724188" lon="2.4672522905627785"><ele>709.0</ele><time>2026-03-27T11:03:00.999Z</time></trkpt><trkpt lat="44.75820059838052" lon="2.467380613206114"><ele>708.5</ele><time>2026-03-27T11:03:01.999Z</time></trkpt><trkpt lat="44.75808950947038" lon="2.467527305558885"><ele>708.0</ele><time>2026-03-27T11:03:02.999Z</time></trkpt><trkpt lat="44.7579720130114" lon="2.4676816165518627"><ele>708.0</ele><time>2026-03-27T11:03:03.999Z</time></trkpt><trkpt lat="44.75785972045605" lon="2.467835957986568"><ele>708.0</ele><time>2026-03-27T11:03:04.999Z</time></trkpt><trkpt lat="44.75775021640452" lon="2.4679900521209612"><ele>708.0</ele><time>2026-03-27T11:03:05.999Z</time></trkpt><trkpt lat="44.75764499246025" lon="2.468128542041794"><ele>706.5</ele><time>2026-03-27T11:03:06.999Z</time></trkpt><trkpt lat="44.75754628889119" lon="2.4682694408881787"><ele>705.0</ele><time>2026-03-27T11:03:07.999Z</time></trkpt><trkpt lat="44.757463819086844" lon="2.4684021525154956"><ele>703.5</ele><time>2026-03-27T11:03:08.999Z</time></trkpt><trkpt lat="44.75738066952654" lon="2.46852700902355"><ele>702.0</ele><time>2026-03-27T11:03:09.999Z</time></trkpt><trkpt lat="44.757297740095794" lon="2.4686322799618017"><ele>702.0</ele><time>2026-03-27T11:03:10.999Z</time></trkpt><trkpt lat="44.75722326184231" lon="2.4687368674266796"><ele>702.0</ele><time>2026-03-27T11:03:11.999Z</time></trkpt><trkpt lat="44.75716689628787" lon="2.468848723637265"><ele>702.0</ele><time>2026-03-27T11:03:12.999Z</time></trkpt><trkpt lat="44.757131645688055" lon="2.4689787665773166"><ele>702.0</ele><time>2026-03-27T11:03:13.999Z</time></trkpt><trkpt lat="44.75711047205907" lon="2.4691112229748717"><ele>702.0</ele><time>2026-03-27T11:03:14.999Z</time></trkpt><trkpt lat="44.75705668485375" lon="2.469239929935149"><ele>701.2</ele><time>2026-03-27T11:03:15.999Z</time></trkpt><trkpt lat="44.75698504853" lon="2.4693661921741907"><ele>700.4000000000001</ele><time>2026-03-27T11:03:16.999Z</time></trkpt><trkpt lat="44.75691403510611" lon="2.4694882362228623"><ele>699.5999999999999</ele><time>2026-03-27T11:03:17.999Z</time></trkpt><trkpt lat="44.75686678803769" lon="2.4696131839187845"><ele>698.8</ele><time>2026-03-27T11:03:18.999Z</time></trkpt><trkpt lat="44.756859044680226" lon="2.4697608061077445"><ele>698.0</ele><time>2026-03-27T11:03:19.999Z</time></trkpt><trkpt lat="44.75685631680468" lon="2.4699276858749366"><ele>698.0</ele><time>2026-03-27T11:03:20.999Z</time></trkpt><trkpt lat="44.75685441988053" lon="2.470122413663485"><ele>698.0</ele><time>2026-03-27T11:03:21.999Z</time></trkpt><trkpt lat="44.75685190843576" lon="2.47031562454612"><ele>698.0</ele><time>2026-03-27T11:03:22.999Z</time></trkpt><trkpt lat="44.75685190843099" lon="2.4705003162044763"><ele>698.0</ele><time>2026-03-27T11:03:23.999Z</time></trkpt><trkpt lat="44.75685006753463" lon="2.4707009641248914"><ele>698.0</ele><time>2026-03-27T11:03:24.999Z</time></trkpt><trkpt lat="44.75683641365207" lon="2.4709034795083906"><ele>698.0</ele><time>2026-03-27T11:03:25.999Z</time></trkpt><trkpt lat="44.75679235105887" lon="2.471111854973406"><ele>698.0</ele><time>2026-03-27T11:03:26.999Z</time></trkpt><trkpt lat="44.75670059502046" lon="2.4712918699215445"><ele>698.0</ele><time>2026-03-27T11:03:27.999Z</time></trkpt><trkpt lat="44.75661221584199" lon="2.4714517244306413"><ele>698.0</ele><time>2026-03-27T11:03:28.999Z</time></trkpt><trkpt lat="44.75648364444217" lon="2.471575821621866"><ele>698.0</ele><time>2026-03-27T11:03:29.999Z</time></trkpt><trkpt lat="44.756367562962225" lon="2.471726187868428"><ele>698.0</ele><time>2026-03-27T11:03:30.999Z</time></trkpt><trkpt lat="44.75627024151453" lon="2.471857931130432"><ele>698.0</ele><time>2026-03-27T11:03:31.999Z</time></trkpt><trkpt lat="44.756191632601734" lon="2.471993396801245"><ele>698.0</ele><time>2026-03-27T11:03:32.999Z</time></trkpt><trkpt lat="44.756125673965066" lon="2.472154032687452"><ele>698.0</ele><time>2026-03-27T11:03:33.999Z</time></trkpt><trkpt lat="44.756079674519754" lon="2.4723505215099095"><ele>697.5</ele><time>2026-03-27T11:03:34.999Z</time></trkpt><trkpt lat="44.756039365133795" lon="2.4725424189957184"><ele>697.0</ele><time>2026-03-27T11:03:35.999Z</time></trkpt><trkpt lat="44.75598951774932" lon="2.4727169130225994"><ele>696.5</ele><time>2026-03-27T11:03:36.999Z</time></trkpt><trkpt lat="44.7559550468191" lon="2.4728923350479546"><ele>696.0</ele><time>2026-03-27T11:03:37.999Z</time></trkpt><trkpt lat="44.7559016368105" lon="2.473052789705989"><ele>696.0</ele><time>2026-03-27T11:03:38.999Z</time></trkpt><trkpt lat="44.75582008448087" lon="2.4731872667882544"><ele>696.0</ele><time>2026-03-27T11:03:39.999Z</time></trkpt><trkpt lat="44.75570238396607" lon="2.473260992822653"><ele>696.0</ele><time>2026-03-27T11:03:40.999Z</time></trkpt><trkpt lat="44.755586627228844" lon="2.473305019312152"><ele>696.0</ele><time>2026-03-27T11:03:41.999Z</time></trkpt><trkpt lat="44.75545038609433" lon="2.473378599796992"><ele>696.0</ele><time>2026-03-27T11:03:42.999Z</time></trkpt><trkpt lat="44.75533767564419" lon="2.4734849260772505"><ele>696.0</ele><time>2026-03-27T11:03:43.999Z</time></trkpt><trkpt lat="44.755240856330474" lon="2.47359299737366"><ele>696.0</ele><time>2026-03-27T11:03:44.999Z</time></trkpt><trkpt lat="44.755149188827765" lon="2.4737350074882456"><ele>696.0</ele><time>2026-03-27T11:03:45.999Z</time></trkpt><trkpt lat="44.75509459079055" lon="2.4739304168960743"><ele>695.0</ele><time>2026-03-27T11:03:46.999Z</time></trkpt><trkpt lat="44.755052829028756" lon="2.4741623633403638"><ele>694.0</ele><time>2026-03-27T11:03:47.999Z</time></trkpt><trkpt lat="44.755016839670226" lon="2.474356206813984"><ele>693.0</ele><time>2026-03-27T11:03:48.999Z</time></trkpt><trkpt lat="44.75497561509257" lon="2.474514885082225"><ele>692.0</ele><time>2026-03-27T11:03:49.999Z</time></trkpt><trkpt lat="44.75491575043649" lon="2.4746445442062943"><ele>692.0</ele><time>2026-03-27T11:03:50.999Z</time></trkpt><trkpt lat="44.75484235522786" lon="2.474747968531962"><ele>692.0</ele><time>2026-03-27T11:03:51.999Z</time></trkpt><trkpt lat="44.754744614571024" lon="2.4748301289397103"><ele>692.0</ele><time>2026-03-27T11:03:52.999Z</time></trkpt><trkpt lat="44.754631620672896" lon="2.4748870913616323"><ele>692.0</ele><time>2026-03-27T11:03:53.999Z</time></trkpt><trkpt lat="44.75451041137049" lon="2.4748855073324663"><ele>693.0</ele><time>2026-03-27T11:03:54.999Z</time></trkpt><trkpt lat="44.75437127758147" lon="2.4748557233296826"><ele>694.0</ele><time>2026-03-27T11:03:56Z</time></trkpt><trkpt lat="44.754241905147495" lon="2.474802000258077"><ele>695.0</ele><time>2026-03-27T11:03:57Z</time></trkpt><trkpt lat="44.754134295002444" lon="2.4747524021650684"><ele>696.0</ele><time>2026-03-27T11:03:58Z</time></trkpt><trkpt lat="44.7540118061649" lon="2.474698816880006"><ele>696.0</ele><time>2026-03-27T11:03:59Z</time></trkpt><trkpt lat="44.75388457309622" lon="2.4746438911071924"><ele>696.0</ele><time>2026-03-27T11:04:00Z</time></trkpt><trkpt lat="44.75374798254248" lon="2.4745850155193003"><ele>696.0</ele><time>2026-03-27T11:04:01Z</time></trkpt><trkpt lat="44.753621295212106" lon="2.4745319804110992"><ele>696.0</ele><time>2026-03-27T11:04:02Z</time></trkpt><trkpt lat="44.75352046054923" lon="2.4745199533206748"><ele>695.6666666666666</ele><time>2026-03-27T11:04:03Z</time></trkpt><trkpt lat="44.75344478100404" lon="2.4744745282228036"><ele>695.3333333333334</ele><time>2026-03-27T11:04:04Z</time></trkpt><trkpt lat="44.7533826788983" lon="2.4744529395875716"><ele>695.0</ele><time>2026-03-27T11:04:05Z</time></trkpt><trkpt lat="44.75331714198039" lon="2.4744690361711723"><ele>694.6666666666667</ele><time>2026-03-27T11:04:07Z</time></trkpt><trkpt lat="44.753236272731336" lon="2.474496463690983"><ele>694.3333333333334</ele><time>2026-03-27T11:04:11Z</time></trkpt><trkpt lat="44.75315781264491" lon="2.4745355845746366"><ele>694.0</ele><time>2026-03-27T11:04:13Z</time></trkpt><trkpt lat="44.75306298547961" lon="2.4746255963081225"><ele>694.0</ele><time>2026-03-27T11:04:15Z</time></trkpt><trkpt lat="44.75297793815109" lon="2.4747303148857624"><ele>694.0</ele><time>2026-03-27T11:04:17Z</time></trkpt><trkpt lat="44.752908123955905" lon="2.4748243808094066"><ele>694.0</ele><time>2026-03-27T11:04:19Z</time></trkpt><trkpt lat="44.75284447777554" lon="2.4749241269480593"><ele>694.0</ele><time>2026-03-27T11:04:21Z</time></trkpt><trkpt lat="44.75278898445026" lon="2.4750195387027687"><ele>694.0</ele><time>2026-03-27T11:04:23Z</time></trkpt><trkpt lat="44.752724512511186" lon="2.475126422159386"><ele>689.5</ele><time>2026-03-27T11:04:25Z</time></trkpt><trkpt lat="44.75263249266698" lon="2.475242871739061"><ele>685.0</ele><time>2026-03-27T11:04:28Z</time></trkpt><trkpt lat="44.752564111586196" lon="2.4750733630490713"><ele>680.5</ele><time>2026-03-27T11:04:29Z</time></trkpt><trkpt lat="44.75246661691272" lon="2.475048604302745"><ele>676.0</ele><time>2026-03-27T11:04:31Z</time></trkpt><trkpt lat="44.75243070616502" lon="2.475165487859543"><ele>676.0</ele><time>2026-03-27T11:04:34Z</time></trkpt><trkpt lat="44.75235875150732" lon="2.475217492427533"><ele>676.0</ele><time>2026-03-27T11:04:35Z</time></trkpt><trkpt lat="44.75226636226315" lon="2.4752885504741613"><ele>676.0</ele><time>2026-03-27T11:04:36Z</time></trkpt><trkpt lat="44.75219460693386" lon="2.475358978104229"><ele>676.0</ele><time>2026-03-27T11:04:37Z</time></trkpt><trkpt lat="44.752120441740864" lon="2.475425919366834"><ele>676.0</ele><time>2026-03-27T11:04:38Z</time></trkpt><trkpt lat="44.75204623855215" lon="2.475480496724575"><ele>676.0</ele><time>2026-03-27T11:04:39Z</time></trkpt><trkpt lat="44.75198764173254" lon="2.475564241192052"><ele>675.3333333333334</ele><time>2026-03-27T11:04:40Z</time></trkpt><trkpt lat="44.75193034535827" lon="2.4756386161968256"><ele>674.6666666666667</ele><time>2026-03-27T11:04:41Z</time></trkpt><trkpt lat="44.751860424901956" lon="2.47572653579492"><ele>674.0</ele><time>2026-03-27T11:04:42Z</time></trkpt><trkpt lat="44.75180072011884" lon="2.4758016100834626"><ele>673.3333333333334</ele><time>2026-03-27T11:04:43Z</time></trkpt><trkpt lat="44.751745713436165" lon="2.475876085820335"><ele>672.6666666666666</ele><time>2026-03-27T11:04:44Z</time></trkpt><trkpt lat="44.75169671557928" lon="2.475943014530753"><ele>672.0</ele><time>2026-03-27T11:04:45Z</time></trkpt><trkpt lat="44.751643833805964" lon="2.476015162927443"><ele>672.0</ele><time>2026-03-27T11:04:46Z</time></trkpt><trkpt lat="44.7515807193468" lon="2.4761012725843417"><ele>672.0</ele><time>2026-03-27T11:04:47Z</time></trkpt><trkpt lat="44.75151929943955" lon="2.476185070428916"><ele>672.0</ele><time>2026-03-27T11:04:48Z</time></trkpt><trkpt lat="44.751464759665474" lon="2.4762594811407235"><ele>672.0</ele><time>2026-03-27T11:04:49Z</time></trkpt><trkpt lat="44.7514193044694" lon="2.476326690862636"><ele>672.0</ele><time>2026-03-27T11:04:50Z</time></trkpt><trkpt lat="44.75133926514888" lon="2.4764446835848934"><ele>672.0</ele><time>2026-03-27T11:04:52Z</time></trkpt><trkpt lat="44.751254746775636" lon="2.4765743085246092"><ele>673.0</ele><time>2026-03-27T11:04:54Z</time></trkpt><trkpt lat="44.751195526837186" lon="2.476665770410592"><ele>674.0</ele><time>2026-03-27T11:04:54.999Z</time></trkpt><trkpt lat="44.7511302737093" lon="2.476768233753975"><ele>675.0</ele><time>2026-03-27T11:04:55.999Z</time></trkpt><trkpt lat="44.75107051327834" lon="2.476864473200752"><ele>676.0</ele><time>2026-03-27T11:04:56.999Z</time></trkpt><trkpt lat="44.75100998653853" lon="2.4769637469466255"><ele>677.0</ele><time>2026-03-27T11:04:57.999Z</time></trkpt><trkpt lat="44.75093048108245" lon="2.4770969804841867"><ele>675.4000000000001</ele><time>2026-03-27T11:04:58.999Z</time></trkpt><trkpt lat="44.750841604112615" lon="2.4772479362092152"><ele>673.8000000000001</ele><time>2026-03-27T11:04:59.999Z</time></trkpt><trkpt lat="44.75076919636012" lon="2.4773473195152897"><ele>672.2</ele><time>2026-03-27T11:05:00.999Z</time></trkpt><trkpt lat="44.750700923289884" lon="2.47743399241002"><ele>670.6</ele><time>2026-03-27T11:05:01.999Z</time></trkpt><trkpt lat="44.75064575714228" lon="2.4774921448240477"><ele>669.0</ele><time>2026-03-27T11:05:02.999Z</time></trkpt><trkpt lat="44.75058849259161" lon="2.4775520299430847"><ele>646.0</ele><time>2026-03-27T11:05:03.999Z</time></trkpt><trkpt lat="44.75004690650348" lon="2.477095429921181"><ele>648.1999999999999</ele><time>2026-03-27T11:05:04.999Z</time></trkpt><trkpt lat="44.74993301797235" lon="2.4771614837440974"><ele>650.4</ele><time>2026-03-27T11:05:05.999Z</time></trkpt><trkpt lat="44.749840335295566" lon="2.4772231406791723"><ele>652.6</ele><time>2026-03-27T11:05:06.999Z</time></trkpt><trkpt lat="44.749753376288666" lon="2.477323764689531"><ele>654.8</ele><time>2026-03-27T11:05:07.999Z</time></trkpt><trkpt lat="44.749682121813436" lon="2.477426706211756"><ele>657.0</ele><time>2026-03-27T11:05:08.999Z</time></trkpt><trkpt lat="44.7496116078839" lon="2.477523141542234"><ele>657.0</ele><time>2026-03-27T11:05:09.999Z</time></trkpt><trkpt lat="44.74952734826726" lon="2.4776255789671464"><ele>657.0</ele><time>2026-03-27T11:05:10.999Z</time></trkpt><trkpt lat="44.74947044656591" lon="2.4777244548451436"><ele>657.0</ele><time>2026-03-27T11:05:11.999Z</time></trkpt><trkpt lat="44.74942522200227" lon="2.477816947073915"><ele>657.0</ele><time>2026-03-27T11:05:12.999Z</time></trkpt><trkpt lat="44.749364176682846" lon="2.477926994174552"><ele>657.0</ele><time>2026-03-27T11:05:13.999Z</time></trkpt><trkpt lat="44.74931296083722" lon="2.478055502166557"><ele>655.1666666666666</ele><time>2026-03-27T11:05:14.999Z</time></trkpt><trkpt lat="44.749278820044786" lon="2.4781572551213538"><ele>653.3333333333334</ele><time>2026-03-27T11:05:15.999Z</time></trkpt><trkpt lat="44.74925674065505" lon="2.478249038141967"><ele>651.5</ele><time>2026-03-27T11:05:16.999Z</time></trkpt><trkpt lat="44.74921546631459" lon="2.4783699147495377"><ele>649.6666666666667</ele><time>2026-03-27T11:05:17.999Z</time></trkpt><trkpt lat="44.74917856765895" lon="2.4784919587488847"><ele>647.8333333333334</ele><time>2026-03-27T11:05:18.999Z</time></trkpt><trkpt lat="44.749144408519356" lon="2.4786258661699545"><ele>646.0</ele><time>2026-03-27T11:05:19.999Z</time></trkpt><trkpt lat="44.74907118621315" lon="2.478766986655091"><ele>647.1999999999999</ele><time>2026-03-27T11:05:20.999Z</time></trkpt><trkpt lat="44.74902949452154" lon="2.4788427152991517"><ele>648.4</ele><time>2026-03-27T11:05:21.999Z</time></trkpt><trkpt lat="44.74898811501168" lon="2.478938254517366"><ele>649.6</ele><time>2026-03-27T11:05:22.999Z</time></trkpt><trkpt lat="44.74893045780335" lon="2.4790291614495783"><ele>650.8</ele><time>2026-03-27T11:05:23.999Z</time></trkpt><trkpt lat="44.74883198052259" lon="2.479143139133653"><ele>652.0</ele><time>2026-03-27T11:05:24.999Z</time></trkpt><trkpt lat="44.748744537864454" lon="2.4792679467554204"><ele>652.0</ele><time>2026-03-27T11:05:25.999Z</time></trkpt><trkpt lat="44.74865628649183" lon="2.479394701875936"><ele>652.0</ele><time>2026-03-27T11:05:26.999Z</time></trkpt><trkpt lat="44.748571752761976" lon="2.4795025998908407"><ele>652.0</ele><time>2026-03-27T11:05:27.999Z</time></trkpt><trkpt lat="44.74850845126653" lon="2.4795909420580604"><ele>652.0</ele><time>2026-03-27T11:05:28.999Z</time></trkpt><trkpt lat="44.748443891868895" lon="2.479726412168994"><ele>652.0</ele><time>2026-03-27T11:05:29.999Z</time></trkpt><trkpt lat="44.748363769631005" lon="2.4798899215217953"><ele>649.0</ele><time>2026-03-27T11:05:30.999Z</time></trkpt><trkpt lat="44.74827828010468" lon="2.4800627410882408"><ele>646.0</ele><time>2026-03-27T11:05:31.999Z</time></trkpt><trkpt lat="44.74824260090624" lon="2.4802011604719265"><ele>643.0</ele><time>2026-03-27T11:05:32.999Z</time></trkpt><trkpt lat="44.74821001262928" lon="2.4803028887276035"><ele>640.0</ele><time>2026-03-27T11:05:33.999Z</time></trkpt><trkpt lat="44.74813780606324" lon="2.4804083485990973"><ele>637.0</ele><time>2026-03-27T11:05:34.999Z</time></trkpt><trkpt lat="44.748037276816554" lon="2.4804457442824415"><ele>637.0</ele><time>2026-03-27T11:05:35.999Z</time></trkpt><trkpt lat="44.74792345153922" lon="2.480483798822073"><ele>637.0</ele><time>2026-03-27T11:05:36.999Z</time></trkpt><trkpt lat="44.74781538213649" lon="2.480504347391751"><ele>637.0</ele><time>2026-03-27T11:05:37.999Z</time></trkpt><trkpt lat="44.747692453789305" lon="2.4805305994769093"><ele>637.0</ele><time>2026-03-27T11:05:38.999Z</time></trkpt><trkpt lat="44.747587136130875" lon="2.4805549071838304"><ele>634.75</ele><time>2026-03-27T11:05:39.999Z</time></trkpt><trkpt lat="44.74745655319208" lon="2.480577918684492"><ele>632.5</ele><time>2026-03-27T11:05:40.999Z</time></trkpt><trkpt lat="44.747318372765804" lon="2.480632529505891"><ele>630.25</ele><time>2026-03-27T11:05:41.999Z</time></trkpt><trkpt lat="44.74718552472079" lon="2.4806887255366434"><ele>628.0</ele><time>2026-03-27T11:05:42.999Z</time></trkpt><trkpt lat="44.74707335835348" lon="2.480760423090484"><ele>628.0</ele><time>2026-03-27T11:05:43.999Z</time></trkpt><trkpt lat="44.74697903649145" lon="2.48082244355236"><ele>628.0</ele><time>2026-03-27T11:05:44.999Z</time></trkpt><trkpt lat="44.746840377283334" lon="2.48088992668629"><ele>628.0</ele><time>2026-03-27T11:05:45.999Z</time></trkpt><trkpt lat="44.74673272986542" lon="2.480972066419836"><ele>628.0</ele><time>2026-03-27T11:05:46.999Z</time></trkpt><trkpt lat="44.74662662681271" lon="2.4810396263006007"><ele>626.8333333333334</ele><time>2026-03-27T11:05:47.999Z</time></trkpt><trkpt lat="44.74655012486758" lon="2.481115217868585"><ele>625.6666666666667</ele><time>2026-03-27T11:05:48.999Z</time></trkpt><trkpt lat="44.746479184110925" lon="2.4812129589289564"><ele>624.5</ele><time>2026-03-27T11:05:49.999Z</time></trkpt><trkpt lat="44.74641278293097" lon="2.481295714655809"><ele>623.3333333333334</ele><time>2026-03-27T11:05:50.999Z</time></trkpt><trkpt lat="44.74637274149623" lon="2.4813713346992126"><ele>622.1666666666666</ele><time>2026-03-27T11:05:51.999Z</time></trkpt><trkpt lat="44.746342750724864" lon="2.4814582190190393"><ele>621.0</ele><time>2026-03-27T11:05:52.999Z</time></trkpt><trkpt lat="44.74629288682792" lon="2.481562360451075"><ele>620.9999999999999</ele><time>2026-03-27T11:05:53.999Z</time></trkpt><trkpt lat="44.74624853940642" lon="2.481653503412014"><ele>621.0</ele><time>2026-03-27T11:05:54.999Z</time></trkpt><trkpt lat="44.746201576598274" lon="2.4817411302333205"><ele>621.0</ele><time>2026-03-27T11:05:55.999Z</time></trkpt><trkpt lat="44.74614327924315" lon="2.48180857186992"><ele>621.0</ele><time>2026-03-27T11:05:56.999Z</time></trkpt><trkpt lat="44.74608252139484" lon="2.4818535999118962"><ele>621.0</ele><time>2026-03-27T11:05:57.999Z</time></trkpt><trkpt lat="44.74602602666219" lon="2.481897530739394"><ele>620.9999999999999</ele><time>2026-03-27T11:05:58.999Z</time></trkpt><trkpt lat="44.74596511394919" lon="2.4819385502340703"><ele>621.0</ele><time>2026-03-27T11:05:59.999Z</time></trkpt><trkpt lat="44.74589882688676" lon="2.4819553894694883"><ele>619.7142857142857</ele><time>2026-03-27T11:06:00.999Z</time></trkpt><trkpt lat="44.7458354850489" lon="2.4819411625242447"><ele>618.4285714285714</ele><time>2026-03-27T11:06:02Z</time></trkpt><trkpt lat="44.74576342122562" lon="2.481929234034845"><ele>617.1428571428571</ele><time>2026-03-27T11:06:04Z</time></trkpt><trkpt lat="44.745703879304855" lon="2.48188997313526"><ele>615.8571428571429</ele><time>2026-03-27T11:06:05Z</time></trkpt><trkpt lat="44.745629230233774" lon="2.4818506925555304"><ele>614.5714285714286</ele><time>2026-03-27T11:06:07Z</time></trkpt><trkpt lat="44.7455612839316" lon="2.4817968222639"><ele>613.2857142857142</ele><time>2026-03-27T11:06:09Z</time></trkpt><trkpt lat="44.745477919206806" lon="2.481786600309246"><ele>612.0</ele><time>2026-03-27T11:06:11Z</time></trkpt><trkpt lat="44.74534922906073" lon="2.481823254996875"><ele>612.0</ele><time>2026-03-27T11:06:21Z</time></trkpt><trkpt lat="44.745285068525654" lon="2.4818358395603086"><ele>612.0</ele><time>2026-03-27T11:06:22Z</time></trkpt><trkpt lat="44.745189658208446" lon="2.481853473337804"><ele>612.0</ele><time>2026-03-27T11:06:23Z</time></trkpt><trkpt lat="44.745091437784374" lon="2.481834557779211"><ele>612.0</ele><time>2026-03-27T11:06:24Z</time></trkpt><trkpt lat="44.74501534655082" lon="2.481838174830278"><ele>612.0</ele><time>2026-03-27T11:06:25Z</time></trkpt><trkpt lat="44.744948554190806" lon="2.4818255654126453"><ele>612.0</ele><time>2026-03-27T11:06:26Z</time></trkpt><trkpt lat="44.744830836580846" lon="2.481787462594884"><ele>610.8000000000001</ele><time>2026-03-27T11:06:28Z</time></trkpt><trkpt lat="44.74477590956854" lon="2.4816862672374134"><ele>609.6</ele><time>2026-03-27T11:06:29Z</time></trkpt><trkpt lat="44.74471963166955" lon="2.4816306356106144"><ele>608.4000000000001</ele><time>2026-03-27T11:06:30Z</time></trkpt><trkpt lat="44.74465167558642" lon="2.481569386283932"><ele>607.2</ele><time>2026-03-27T11:06:31Z</time></trkpt><trkpt lat="44.744562446732125" lon="2.4814889641814246"><ele>606.0</ele><time>2026-03-27T11:06:32Z</time></trkpt><trkpt lat="44.74444807136379" lon="2.4813871259802234"><ele>606.0</ele><time>2026-03-27T11:06:33Z</time></trkpt><trkpt lat="44.744352768009854" lon="2.481306284705143"><ele>606.0</ele><time>2026-03-27T11:06:34Z</time></trkpt><trkpt lat="44.74426534839396" lon="2.4812333406112437"><ele>606.0</ele><time>2026-03-27T11:06:35Z</time></trkpt><trkpt lat="44.74417992297557" lon="2.4811620604728235"><ele>606.0</ele><time>2026-03-27T11:06:36Z</time></trkpt><trkpt lat="44.744094323930675" lon="2.4810906371258703"><ele>606.0</ele><time>2026-03-27T11:06:37Z</time></trkpt><trkpt lat="44.744018246551306" lon="2.481019936360868"><ele>606.0</ele><time>2026-03-27T11:06:38Z</time></trkpt><trkpt lat="44.74395060800479" lon="2.4809359602205343"><ele>606.0</ele><time>2026-03-27T11:06:39Z</time></trkpt><trkpt lat="44.743891599596346" lon="2.4808419573389178"><ele>606.0</ele><time>2026-03-27T11:06:40Z</time></trkpt><trkpt lat="44.743860073539246" lon="2.4807238226231836"><ele>606.0</ele><time>2026-03-27T11:06:41Z</time></trkpt><trkpt lat="44.74381856916083" lon="2.4805886707213665"><ele>606.0</ele><time>2026-03-27T11:06:42Z</time></trkpt><trkpt lat="44.74380277461652" lon="2.480444948158384"><ele>606.0</ele><time>2026-03-27T11:06:43Z</time></trkpt><trkpt lat="44.74378570947257" lon="2.4803034923150857"><ele>606.0</ele><time>2026-03-27T11:06:44Z</time></trkpt><trkpt lat="44.74376186162206" lon="2.480160864698177"><ele>606.0</ele><time>2026-03-27T11:06:45Z</time></trkpt><trkpt lat="44.74373540648883" lon="2.480011778852403"><ele>606.0</ele><time>2026-03-27T11:06:46Z</time></trkpt><trkpt lat="44.743705412164616" lon="2.4798624592171428"><ele>606.0</ele><time>2026-03-27T11:06:47Z</time></trkpt><trkpt lat="44.74368927521338" lon="2.4797102109758824"><ele>606.6</ele><time>2026-03-27T11:06:48Z</time></trkpt><trkpt lat="44.743668880218486" lon="2.479561839464904"><ele>607.2</ele><time>2026-03-27T11:06:49Z</time></trkpt><trkpt lat="44.74365188081555" lon="2.4794159678794316"><ele>607.8</ele><time>2026-03-27T11:06:50Z</time></trkpt><trkpt lat="44.743677115961475" lon="2.479265154489506"><ele>608.4</ele><time>2026-03-27T11:06:51Z</time></trkpt><trkpt lat="44.74369310638924" lon="2.4791094567182625"><ele>609.0</ele><time>2026-03-27T11:06:52Z</time></trkpt><trkpt lat="44.74369760788559" lon="2.4789555201223186"><ele>609.0</ele><time>2026-03-27T11:06:53Z</time></trkpt><trkpt lat="44.74368899083758" lon="2.4787940983574623"><ele>609.0</ele><time>2026-03-27T11:06:54Z</time></trkpt><trkpt lat="44.743661900785845" lon="2.4786327221402913"><ele>609.0</ele><time>2026-03-27T11:06:55Z</time></trkpt><trkpt lat="44.74362407224438" lon="2.4784724700891343"><ele>609.0</ele><time>2026-03-27T11:06:56Z</time></trkpt><trkpt lat="44.743597090668175" lon="2.478308545915297"><ele>610.0</ele><time>2026-03-27T11:06:57Z</time></trkpt><trkpt lat="44.74355591294345" lon="2.478164246391696"><ele>611.0</ele><time>2026-03-27T11:06:58Z</time></trkpt><trkpt lat="44.74351050800667" lon="2.478019720499192"><ele>612.0</ele><time>2026-03-27T11:06:59Z</time></trkpt><trkpt lat="44.743453977868235" lon="2.4778702437254925"><ele>613.0</ele><time>2026-03-27T11:07:00Z</time></trkpt><trkpt lat="44.74338368578511" lon="2.4777295179737644"><ele>614.0</ele><time>2026-03-27T11:07:01Z</time></trkpt><trkpt lat="44.743304384514545" lon="2.477591981189441"><ele>615.0</ele><time>2026-03-27T11:07:02Z</time></trkpt><trkpt lat="44.7432125285001" lon="2.477455037788008"><ele>616.0</ele><time>2026-03-27T11:07:02.999Z</time></trkpt><trkpt lat="44.74310816017065" lon="2.4773210735709696"><ele>617.0</ele><time>2026-03-27T11:07:03.999Z</time></trkpt><trkpt lat="44.743012181851746" lon="2.4772045286101703"><ele>616.25</ele><time>2026-03-27T11:07:04.999Z</time></trkpt><trkpt lat="44.74291393833196" lon="2.4770914700597193"><ele>615.5</ele><time>2026-03-27T11:07:05.999Z</time></trkpt><trkpt lat="44.74280975277715" lon="2.4769748366683877"><ele>614.75</ele><time>2026-03-27T11:07:06.999Z</time></trkpt><trkpt lat="44.74269331827563" lon="2.4768697829978086"><ele>614.0</ele><time>2026-03-27T11:07:07.999Z</time></trkpt><trkpt lat="44.74259075423028" lon="2.4767444632639064"><ele>613.75</ele><time>2026-03-27T11:07:08.999Z</time></trkpt><trkpt lat="44.742482690532476" lon="2.4766142645785245"><ele>613.5</ele><time>2026-03-27T11:07:09.999Z</time></trkpt><trkpt lat="44.74236802899226" lon="2.4764930894251576"><ele>613.25</ele><time>2026-03-27T11:07:10.999Z</time></trkpt><trkpt lat="44.74225652619278" lon="2.4763547895534948"><ele>613.0</ele><time>2026-03-27T11:07:11.999Z</time></trkpt><trkpt lat="44.74212561179017" lon="2.4762611853179672"><ele>612.25</ele><time>2026-03-27T11:07:12.999Z</time></trkpt><trkpt lat="44.74199854216513" lon="2.476159300168586"><ele>611.5</ele><time>2026-03-27T11:07:13.999Z</time></trkpt><trkpt lat="44.741884682740235" lon="2.4760335457418434"><ele>610.75</ele><time>2026-03-27T11:07:14.999Z</time></trkpt><trkpt lat="44.74176357434041" lon="2.475924798924457"><ele>610.0</ele><time>2026-03-27T11:07:15.999Z</time></trkpt><trkpt lat="44.741655209498624" lon="2.4758190034281267"><ele>610.0</ele><time>2026-03-27T11:07:16.999Z</time></trkpt><trkpt lat="44.74155890574288" lon="2.475717956878202"><ele>610.0</ele><time>2026-03-27T11:07:17.999Z</time></trkpt><trkpt lat="44.7414728617941" lon="2.4756197979188777"><ele>610.0</ele><time>2026-03-27T11:07:18.999Z</time></trkpt><trkpt lat="44.74139330401191" lon="2.475522947053418"><ele>610.0</ele><time>2026-03-27T11:07:19.999Z</time></trkpt><trkpt lat="44.741319701661965" lon="2.4754240096817144"><ele>610.0</ele><time>2026-03-27T11:07:20.999Z</time></trkpt><trkpt lat="44.74123445575768" lon="2.4753466762115974"><ele>608.8</ele><time>2026-03-27T11:07:21.999Z</time></trkpt><trkpt lat="44.74115836829393" lon="2.4752500050713357"><ele>607.6</ele><time>2026-03-27T11:07:22.999Z</time></trkpt><trkpt lat="44.74107776154686" lon="2.475166327845968"><ele>606.4</ele><time>2026-03-27T11:07:23.999Z</time></trkpt><trkpt lat="44.74099857469883" lon="2.475079121740824"><ele>605.2</ele><time>2026-03-27T11:07:24.999Z</time></trkpt><trkpt lat="44.740924353521" lon="2.474982002916156"><ele>604.0</ele><time>2026-03-27T11:07:25.999Z</time></trkpt><trkpt lat="44.740842043919486" lon="2.47489427168652"><ele>604.0</ele><time>2026-03-27T11:07:26.999Z</time></trkpt><trkpt lat="44.74075479422566" lon="2.474816019980215"><ele>604.0</ele><time>2026-03-27T11:07:27.999Z</time></trkpt><trkpt lat="44.740671878986355" lon="2.4747354669135126"><ele>604.0</ele><time>2026-03-27T11:07:28.999Z</time></trkpt><trkpt lat="44.74058498440721" lon="2.474662765022207"><ele>604.0</ele><time>2026-03-27T11:07:29.999Z</time></trkpt><trkpt lat="44.740496559121105" lon="2.4745876555763977"><ele>604.0</ele><time>2026-03-27T11:07:30.999Z</time></trkpt><trkpt lat="44.74040791366918" lon="2.474511669858321"><ele>602.0</ele><time>2026-03-27T11:07:31.999Z</time></trkpt><trkpt lat="44.74031910383832" lon="2.474434026320811"><ele>600.0</ele><time>2026-03-27T11:07:32.999Z</time></trkpt><trkpt lat="44.74022870856502" lon="2.474357351683094"><ele>598.0</ele><time>2026-03-27T11:07:33.999Z</time></trkpt><trkpt lat="44.74013263436143" lon="2.4742728995913525"><ele>596.0</ele><time>2026-03-27T11:07:34.999Z</time></trkpt><trkpt lat="44.74002419734124" lon="2.4742017930263605"><ele>594.0</ele><time>2026-03-27T11:07:35.999Z</time></trkpt><trkpt lat="44.739902193523946" lon="2.4741654952484793"><ele>593.75</ele><time>2026-03-27T11:07:36.999Z</time></trkpt><trkpt lat="44.73978249625454" lon="2.474136116534924"><ele>593.5</ele><time>2026-03-27T11:07:37.999Z</time></trkpt><trkpt lat="44.73966882186739" lon="2.474094645354835"><ele>593.25</ele><time>2026-03-27T11:07:38.999Z</time></trkpt><trkpt lat="44.739558978709525" lon="2.47406068371312"><ele>593.0</ele><time>2026-03-27T11:07:39.999Z</time></trkpt><trkpt lat="44.73944872563336" lon="2.474035811024278"><ele>592.8</ele><time>2026-03-27T11:07:40.999Z</time></trkpt><trkpt lat="44.73933725454264" lon="2.4740040438556266"><ele>592.5999999999999</ele><time>2026-03-27T11:07:41.999Z</time></trkpt><trkpt lat="44.73922783210069" lon="2.4739649744750145"><ele>592.4000000000001</ele><time>2026-03-27T11:07:42.999Z</time></trkpt><trkpt lat="44.73912584108605" lon="2.473922814229959"><ele>592.2</ele><time>2026-03-27T11:07:43.999Z</time></trkpt><trkpt lat="44.73902301117963" lon="2.4738809402499444"><ele>592.0</ele><time>2026-03-27T11:07:44.999Z</time></trkpt><trkpt lat="44.73894054969718" lon="2.473843291595327"><ele>592.0</ele><time>2026-03-27T11:07:45.999Z</time></trkpt><trkpt lat="44.73886449815603" lon="2.4738148394791564"><ele>592.0</ele><time>2026-03-27T11:07:46.999Z</time></trkpt><trkpt lat="44.738799717973066" lon="2.473765548786983"><ele>592.0</ele><time>2026-03-27T11:07:47.999Z</time></trkpt><trkpt lat="44.73871916444568" lon="2.473712943044225"><ele>592.0</ele><time>2026-03-27T11:07:49.999Z</time></trkpt><trkpt lat="44.73873139510231" lon="2.4735273554266275"><ele>592.0</ele><time>2026-03-27T11:07:52.999Z</time></trkpt><trkpt lat="44.73875506371488" lon="2.4733668307894607"><ele>589.2</ele><time>2026-03-27T11:07:54.999Z</time></trkpt><trkpt lat="44.73875916552692" lon="2.4732040514079574"><ele>586.4000000000001</ele><time>2026-03-27T11:07:56.999Z</time></trkpt><trkpt lat="44.738769562386324" lon="2.473026026012241"><ele>583.5999999999999</ele><time>2026-03-27T11:07:58.999Z</time></trkpt><trkpt lat="44.73879217315087" lon="2.47287174851346"><ele>580.8</ele><time>2026-03-27T11:08:00.999Z</time></trkpt><trkpt lat="44.738796059467994" lon="2.4727587264382347"><ele>578.0</ele><time>2026-03-27T11:08:03.999Z</time></trkpt><trkpt lat="44.73879756913127" lon="2.4726483894088904"><ele>576.5</ele><time>2026-03-27T11:08:08Z</time></trkpt><trkpt lat="44.73883803692795" lon="2.472561075928087"><ele>575.0</ele><time>2026-03-27T11:09:14.999Z</time></trkpt><trkpt lat="44.738889643643105" lon="2.4724785885785456"><ele>573.5</ele><time>2026-03-27T11:09:16.999Z</time></trkpt><trkpt lat="44.738954229195635" lon="2.472398182232903"><ele>572.0</ele><time>2026-03-27T11:09:18.999Z</time></trkpt><trkpt lat="44.73901905136358" lon="2.472379796215807"><ele>570.5</ele><time>2026-03-27T11:09:20.999Z</time></trkpt><trkpt lat="44.73909010419941" lon="2.472411973104349"><ele>569.0</ele><time>2026-03-27T11:09:22.999Z</time></trkpt><trkpt lat="44.739159191752655" lon="2.472448373574374"><ele>569.0</ele><time>2026-03-27T11:09:24.999Z</time></trkpt><trkpt lat="44.739284421708135" lon="2.4725216735650224"><ele>569.0</ele><time>2026-03-27T11:09:26.999Z</time></trkpt><trkpt lat="44.739361257486465" lon="2.472570646605452"><ele>569.0</ele><time>2026-03-27T11:09:27.999Z</time></trkpt><trkpt lat="44.739443505557354" lon="2.4726405795063062"><ele>569.0</ele><time>2026-03-27T11:09:28.999Z</time></trkpt><trkpt lat="44.739531591182946" lon="2.472702951949893"><ele>569.0</ele><time>2026-03-27T11:09:29.999Z</time></trkpt><trkpt lat="44.73962859727259" lon="2.4727584641697984"><ele>567.25</ele><time>2026-03-27T11:09:30.999Z</time></trkpt><trkpt lat="44.73972567886235" lon="2.4727642379248387"><ele>565.5</ele><time>2026-03-27T11:09:31.999Z</time></trkpt><trkpt lat="44.739840947286474" lon="2.4727700419328915"><ele>563.75</ele><time>2026-03-27T11:09:32.999Z</time></trkpt><trkpt lat="44.73996410830421" lon="2.472704919815392"><ele>562.0</ele><time>2026-03-27T11:09:33.999Z</time></trkpt><trkpt lat="44.74007491022309" lon="2.4726565492021475"><ele>562.0</ele><time>2026-03-27T11:09:34.999Z</time></trkpt><trkpt lat="44.74016815439641" lon="2.4726081491098086"><ele>562.0</ele><time>2026-03-27T11:09:35.999Z</time></trkpt><trkpt lat="44.74026851451129" lon="2.472584068610609"><ele>562.0</ele><time>2026-03-27T11:09:36.999Z</time></trkpt><trkpt lat="44.7403365261313" lon="2.472522697080182"><ele>562.0</ele><time>2026-03-27T11:09:37.999Z</time></trkpt><trkpt lat="44.740398256760194" lon="2.472451072432786"><ele>562.0</ele><time>2026-03-27T11:09:38.999Z</time></trkpt><trkpt lat="44.74045034894016" lon="2.472400789904573"><ele>562.0</ele><time>2026-03-27T11:09:39.999Z</time></trkpt><trkpt lat="44.74052899652717" lon="2.472263685626884"><ele>562.8000000000001</ele><time>2026-03-27T11:09:41.999Z</time></trkpt><trkpt lat="44.740575084171475" lon="2.472184830603035"><ele>563.6</ele><time>2026-03-27T11:09:42.999Z</time></trkpt><trkpt lat="44.74059619184814" lon="2.4720907165850763"><ele>564.4000000000001</ele><time>2026-03-27T11:09:43.999Z</time></trkpt><trkpt lat="44.74068690387277" lon="2.4719516063361504"><ele>565.2</ele><time>2026-03-27T11:09:45.999Z</time></trkpt><trkpt lat="44.74076252627681" lon="2.4719025094313696"><ele>566.0</ele><time>2026-03-27T11:09:46.999Z</time></trkpt><trkpt lat="44.7408264832178" lon="2.4717805955847276"><ele>563.2</ele><time>2026-03-27T11:09:47.999Z</time></trkpt><trkpt lat="44.74088099410561" lon="2.4716897084791283"><ele>560.4000000000001</ele><time>2026-03-27T11:09:49.999Z</time></trkpt><trkpt lat="44.74079612240371" lon="2.471628972360091"><ele>557.6</ele><time>2026-03-27T11:09:55.999Z</time></trkpt><trkpt lat="44.74071400094028" lon="2.4715801359862963"><ele>554.8000000000001</ele><time>2026-03-27T11:09:59.999Z</time></trkpt><trkpt lat="44.74068598864241" lon="2.4714575027955084"><ele>552.0</ele><time>2026-03-27T11:10:00.999Z</time></trkpt><trkpt lat="44.74077003920906" lon="2.471394513173677"><ele>552.0</ele><time>2026-03-27T11:10:03.999Z</time></trkpt><trkpt lat="44.74078642982115" lon="2.47130756894233"><ele>552.0</ele><time>2026-03-27T11:10:05.999Z</time></trkpt><trkpt lat="44.740813526252104" lon="2.471220611423357"><ele>552.0</ele><time>2026-03-27T11:10:08.999Z</time></trkpt><trkpt lat="44.74127761890288" lon="2.4705509013349207"><ele>551.6</ele><time>2026-03-27T11:10:11.999Z</time></trkpt><trkpt lat="44.74132515490642" lon="2.4703964404842376"><ele>551.2</ele><time>2026-03-27T11:10:13Z</time></trkpt><trkpt lat="44.74137440196376" lon="2.4702487112896923"><ele>550.8</ele><time>2026-03-27T11:10:14Z</time></trkpt><trkpt lat="44.74141829793194" lon="2.470130498122305"><ele>550.4</ele><time>2026-03-27T11:10:15Z</time></trkpt><trkpt lat="44.74147940650791" lon="2.4700130111579064"><ele>550.0</ele><time>2026-03-27T11:10:16Z</time></trkpt><trkpt lat="44.74157186993346" lon="2.4698973959694266"><ele>550.0</ele><time>2026-03-27T11:10:17Z</time></trkpt><trkpt lat="44.74166843477901" lon="2.4698099439353136"><ele>550.0</ele><time>2026-03-27T11:10:18Z</time></trkpt><trkpt lat="44.74176148934735" lon="2.469728570132052"><ele>550.0</ele><time>2026-03-27T11:10:19Z</time></trkpt><trkpt lat="44.74185014799935" lon="2.469652805175139"><ele>550.0</ele><time>2026-03-27T11:10:20Z</time></trkpt><trkpt lat="44.741933383570014" lon="2.4695834046621004"><ele>550.0</ele><time>2026-03-27T11:10:21Z</time></trkpt><trkpt lat="44.742033793404296" lon="2.469481028354538"><ele>551.75</ele><time>2026-03-27T11:10:22Z</time></trkpt><trkpt lat="44.74213186388762" lon="2.4693639298728756"><ele>553.5</ele><time>2026-03-27T11:10:23Z</time></trkpt><trkpt lat="44.74223902084191" lon="2.469267698387455"><ele>555.25</ele><time>2026-03-27T11:10:24Z</time></trkpt><trkpt lat="44.74234502050289" lon="2.4691754219359474"><ele>557.0</ele><time>2026-03-27T11:10:25Z</time></trkpt><trkpt lat="44.74247586333784" lon="2.4690739267943957"><ele>557.0</ele><time>2026-03-27T11:10:26Z</time></trkpt><trkpt lat="44.74264203185174" lon="2.4689867211356002"><ele>557.0</ele><time>2026-03-27T11:10:27Z</time></trkpt><trkpt lat="44.74277946478291" lon="2.4689073137914868"><ele>557.0</ele><time>2026-03-27T11:10:28Z</time></trkpt><trkpt lat="44.74291244390588" lon="2.4688516743743403"><ele>558.4</ele><time>2026-03-27T11:10:29Z</time></trkpt><trkpt lat="44.743015127509516" lon="2.4687702453330114"><ele>559.8000000000001</ele><time>2026-03-27T11:10:31Z</time></trkpt><trkpt lat="44.74308956479256" lon="2.4686901829197208"><ele>561.2</ele><time>2026-03-27T11:10:32Z</time></trkpt><trkpt lat="44.74311564445299" lon="2.4686010500637257"><ele>562.6</ele><time>2026-03-27T11:10:33Z</time></trkpt><trkpt lat="44.743083662245766" lon="2.4685082416410546"><ele>564.0</ele><time>2026-03-27T11:10:34Z</time></trkpt><trkpt lat="44.74303277933441" lon="2.4683876934102336"><ele>564.0</ele><time>2026-03-27T11:10:35Z</time></trkpt><trkpt lat="44.742985888023696" lon="2.4682493050804633"><ele>564.0</ele><time>2026-03-27T11:10:36Z</time></trkpt><trkpt lat="44.74294915157167" lon="2.4680860211004823"><ele>564.0</ele><time>2026-03-27T11:10:37Z</time></trkpt><trkpt lat="44.74291129401134" lon="2.467901902891925"><ele>564.0</ele><time>2026-03-27T11:10:38Z</time></trkpt><trkpt lat="44.74286337462452" lon="2.4677005895050823"><ele>565.0</ele><time>2026-03-27T11:10:39Z</time></trkpt><trkpt lat="44.74280687043096" lon="2.467487512139625"><ele>566.0</ele><time>2026-03-27T11:10:40Z</time></trkpt><trkpt lat="44.74274477079706" lon="2.4672683499732897"><ele>567.0</ele><time>2026-03-27T11:10:41Z</time></trkpt><trkpt lat="44.742687181790046" lon="2.4670553676168323"><ele>564.25</ele><time>2026-03-27T11:10:42Z</time></trkpt><trkpt lat="44.74262837875304" lon="2.466864308814932"><ele>561.5</ele><time>2026-03-27T11:10:43Z</time></trkpt><trkpt lat="44.74258303073481" lon="2.466681909655944"><ele>558.75</ele><time>2026-03-27T11:10:44Z</time></trkpt><trkpt lat="44.742552056331675" lon="2.466499238965153"><ele>556.0</ele><time>2026-03-27T11:10:45Z</time></trkpt><trkpt lat="44.74255193822594" lon="2.466326740174425"><ele>555.5</ele><time>2026-03-27T11:10:46Z</time></trkpt><trkpt lat="44.74258455111594" lon="2.466153351574745"><ele>555.0</ele><time>2026-03-27T11:10:47Z</time></trkpt><trkpt lat="44.74265375097233" lon="2.466011633300655"><ele>554.5</ele><time>2026-03-27T11:10:48Z</time></trkpt><trkpt lat="44.74274116493406" lon="2.465837310784422"><ele>554.0</ele><time>2026-03-27T11:10:49Z</time></trkpt><trkpt lat="44.74283617648099" lon="2.4656455129411152"><ele>555.6666666666666</ele><time>2026-03-27T11:10:50Z</time></trkpt><trkpt lat="44.74292792289338" lon="2.465454677824469"><ele>557.3333333333334</ele><time>2026-03-27T11:10:51Z</time></trkpt><trkpt lat="44.74301282583257" lon="2.4652582224179636"><ele>559.0</ele><time>2026-03-27T11:10:52Z</time></trkpt><trkpt lat="44.7430786581978" lon="2.465055566162163"><ele>559.0</ele><time>2026-03-27T11:10:53Z</time></trkpt><trkpt lat="44.74314490658577" lon="2.464885420145549"><ele>559.0</ele><time>2026-03-27T11:10:54Z</time></trkpt><trkpt lat="44.74321153041839" lon="2.464714453553135"><ele>559.0</ele><time>2026-03-27T11:10:55Z</time></trkpt><trkpt lat="44.74327382324539" lon="2.464540047021877"><ele>559.0</ele><time>2026-03-27T11:10:56Z</time></trkpt><trkpt lat="44.74332476850785" lon="2.4643857001023477"><ele>557.75</ele><time>2026-03-27T11:10:57Z</time></trkpt><trkpt lat="44.743363831339934" lon="2.4642275446727324"><ele>556.5</ele><time>2026-03-27T11:10:58Z</time></trkpt><trkpt lat="44.74340106042242" lon="2.464052114795899"><ele>555.25</ele><time>2026-03-27T11:10:59Z</time></trkpt><trkpt lat="44.74338632171078" lon="2.4638335275667282"><ele>554.0</ele><time>2026-03-27T11:11:00Z</time></trkpt><trkpt lat="44.74333935371606" lon="2.463624740579204"><ele>553.75</ele><time>2026-03-27T11:11:01Z</time></trkpt><trkpt lat="44.74325529031503" lon="2.4634637268113595"><ele>553.5</ele><time>2026-03-27T11:11:02Z</time></trkpt><trkpt lat="44.74318940269443" lon="2.4633087551719286"><ele>553.25</ele><time>2026-03-27T11:11:03Z</time></trkpt><trkpt lat="44.74311041237877" lon="2.4631682406650697"><ele>553.0</ele><time>2026-03-27T11:11:04Z</time></trkpt><trkpt lat="44.743041327740066" lon="2.463011170216918"><ele>553.0</ele><time>2026-03-27T11:11:05Z</time></trkpt><trkpt lat="44.743010900460774" lon="2.462843590865465"><ele>553.0</ele><time>2026-03-27T11:11:06Z</time></trkpt><trkpt lat="44.743008317202055" lon="2.4626538173883255"><ele>553.0</ele><time>2026-03-27T11:11:07Z</time></trkpt><trkpt lat="44.74306820906422" lon="2.4624851070084395"><ele>553.0</ele><time>2026-03-27T11:11:08Z</time></trkpt><trkpt lat="44.743114823972846" lon="2.4623527716594102"><ele>553.0</ele><time>2026-03-27T11:11:09Z</time></trkpt><trkpt lat="44.74317182788899" lon="2.4621884471970983"><ele>553.0</ele><time>2026-03-27T11:11:10Z</time></trkpt><trkpt lat="44.74322718048968" lon="2.4619953265297476"><ele>553.0</ele><time>2026-03-27T11:11:10.999Z</time></trkpt><trkpt lat="44.74326113181927" lon="2.461837149003637"><ele>553.0</ele><time>2026-03-27T11:11:11.999Z</time></trkpt><trkpt lat="44.7432847972401" lon="2.4616919731265217"><ele>553.8</ele><time>2026-03-27T11:11:12.999Z</time></trkpt><trkpt lat="44.74327706092027" lon="2.4615402842259684"><ele>554.5999999999999</ele><time>2026-03-27T11:11:13.999Z</time></trkpt><trkpt lat="44.7432582370145" lon="2.461407577908573"><ele>555.4000000000001</ele><time>2026-03-27T11:11:14.999Z</time></trkpt><trkpt lat="44.743248403878745" lon="2.4612772482432517"><ele>556.2</ele><time>2026-03-27T11:11:15.999Z</time></trkpt><trkpt lat="44.743177096283375" lon="2.461177837923807"><ele>557.0</ele><time>2026-03-27T11:11:16.999Z</time></trkpt><trkpt lat="44.743133204157836" lon="2.4610595604492453"><ele>557.6</ele><time>2026-03-27T11:11:17.999Z</time></trkpt><trkpt lat="44.74309739237121" lon="2.460942574273915"><ele>558.2</ele><time>2026-03-27T11:11:18.999Z</time></trkpt><trkpt lat="44.74306527954584" lon="2.4608227106124936"><ele>558.8</ele><time>2026-03-27T11:11:19.999Z</time></trkpt><trkpt lat="44.743032306311704" lon="2.4607057930823624"><ele>559.4</ele><time>2026-03-27T11:11:20.999Z</time></trkpt><trkpt lat="44.74299482417267" lon="2.460588965667691"><ele>560.0</ele><time>2026-03-27T11:11:21.999Z</time></trkpt><trkpt lat="44.74294993995331" lon="2.4604748219832118"><ele>560.8</ele><time>2026-03-27T11:11:22.999Z</time></trkpt><trkpt lat="44.74289617666938" lon="2.4603652036005856"><ele>561.6</ele><time>2026-03-27T11:11:23.999Z</time></trkpt><trkpt lat="44.74284692968153" lon="2.46026569201271"><ele>562.4</ele><time>2026-03-27T11:11:24.999Z</time></trkpt><trkpt lat="44.74280699652176" lon="2.460172503025838"><ele>563.2</ele><time>2026-03-27T11:11:25.999Z</time></trkpt><trkpt lat="44.74278505872658" lon="2.460004542149644"><ele>564.0</ele><time>2026-03-27T11:11:27.999Z</time></trkpt><trkpt lat="44.742817745977355" lon="2.4598747894840804"><ele>564.0</ele><time>2026-03-27T11:11:29.999Z</time></trkpt><trkpt lat="44.7428911222646" lon="2.4598025052132533"><ele>564.0</ele><time>2026-03-27T11:11:31.999Z</time></trkpt><trkpt lat="44.742963080585476" lon="2.459768088419341"><ele>564.0</ele><time>2026-03-27T11:11:34.999Z</time></trkpt><trkpt lat="44.743086548216525" lon="2.4599023512588922"><ele>564.0</ele><time>2026-03-27T11:12:32Z</time></trkpt></trkseg></trk></gpx>